<?xml version="1.0" encoding="UTF-8" standalone="no" ?>
<gpx xmlns="http://www.topografix.com/GPX/1/1" xmlns:xsi="http://www.w3.org/2001/XMLSchema-instance" xsi:schemaLocation="http://www.topografix.com/GPX/1/1 http://www.topografix.com/GPX/1/1/gpx.xsd" version="1.1" creator="VisuGPX - https://www.visugpx.com">
  <metadata>
    <name>Lac des Sagnes, Cascade du Pisson par la route</name>
  </metadata>
  <trk>
    <name><![CDATA[Lac des Sagnes, Cascade du Pisson]]></name>
    <trkseg>
      <trkpt lat="44.41973" lon="6.73676">
        <ele>1221.57</ele>
        <time>2021-08-11T08:17:16Z</time>
      </trkpt>
      <trkpt lat="44.41973" lon="6.73671">
        <ele>1221.76</ele>
        <time>2021-08-11T08:17:22Z</time>
      </trkpt>
      <trkpt lat="44.4197" lon="6.73674">
        <ele>1221.88</ele>
        <time>2021-08-11T08:17:39Z</time>
      </trkpt>
      <trkpt lat="44.41967" lon="6.73675">
        <ele>1222.06</ele>
        <time>2021-08-11T08:17:41Z</time>
      </trkpt>
      <trkpt lat="44.41965" lon="6.73672">
        <ele>1222.22</ele>
        <time>2021-08-11T08:18:48Z</time>
      </trkpt>
      <trkpt lat="44.41967" lon="6.73668">
        <ele>1222.17</ele>
        <time>2021-08-11T08:18:50Z</time>
      </trkpt>
      <trkpt lat="44.41971" lon="6.73665">
        <ele>1222.16</ele>
        <time>2021-08-11T08:18:52Z</time>
      </trkpt>
      <trkpt lat="44.41974" lon="6.73662">
        <ele>1222.15</ele>
        <time>2021-08-11T08:18:54Z</time>
      </trkpt>
      <trkpt lat="44.41978" lon="6.73659">
        <ele>1221.99</ele>
        <time>2021-08-11T08:18:56Z</time>
      </trkpt>
      <trkpt lat="44.41982" lon="6.73655">
        <ele>1221.93</ele>
        <time>2021-08-11T08:18:58Z</time>
      </trkpt>
      <trkpt lat="44.41987" lon="6.73654">
        <ele>1221.56</ele>
        <time>2021-08-11T08:19:00Z</time>
      </trkpt>
      <trkpt lat="44.41991" lon="6.73657">
        <ele>1220.9</ele>
        <time>2021-08-11T08:19:02Z</time>
      </trkpt>
      <trkpt lat="44.41993" lon="6.73664">
        <ele>1220.02</ele>
        <time>2021-08-11T08:19:04Z</time>
      </trkpt>
      <trkpt lat="44.41995" lon="6.7367">
        <ele>1219.32</ele>
        <time>2021-08-11T08:19:06Z</time>
      </trkpt>
      <trkpt lat="44.41997" lon="6.73676">
        <ele>1218.69</ele>
        <time>2021-08-11T08:19:08Z</time>
      </trkpt>
      <trkpt lat="44.42" lon="6.73681">
        <ele>1217.97</ele>
        <time>2021-08-11T08:19:10Z</time>
      </trkpt>
      <trkpt lat="44.42003" lon="6.73684">
        <ele>1217.5</ele>
        <time>2021-08-11T08:19:12Z</time>
      </trkpt>
      <trkpt lat="44.42007" lon="6.73683">
        <ele>1217.22</ele>
        <time>2021-08-11T08:19:14Z</time>
      </trkpt>
      <trkpt lat="44.4201" lon="6.73681">
        <ele>1217.07</ele>
        <time>2021-08-11T08:19:16Z</time>
      </trkpt>
      <trkpt lat="44.42012" lon="6.73677">
        <ele>1217.12</ele>
        <time>2021-08-11T08:19:18Z</time>
      </trkpt>
      <trkpt lat="44.42014" lon="6.73673">
        <ele>1217.15</ele>
        <time>2021-08-11T08:19:20Z</time>
      </trkpt>
      <trkpt lat="44.42016" lon="6.73667">
        <ele>1217.25</ele>
        <time>2021-08-11T08:19:22Z</time>
      </trkpt>
      <trkpt lat="44.42018" lon="6.73661">
        <ele>1217.4</ele>
        <time>2021-08-11T08:19:24Z</time>
      </trkpt>
      <trkpt lat="44.4202" lon="6.73655">
        <ele>1217.5</ele>
        <time>2021-08-11T08:19:26Z</time>
      </trkpt>
      <trkpt lat="44.42022" lon="6.73649">
        <ele>1217.52</ele>
        <time>2021-08-11T08:19:28Z</time>
      </trkpt>
      <trkpt lat="44.42023" lon="6.73646">
        <ele>1217.52</ele>
        <time>2021-08-11T08:19:30Z</time>
      </trkpt>
      <trkpt lat="44.42025" lon="6.73643">
        <ele>1217.32</ele>
        <time>2021-08-11T08:19:35Z</time>
      </trkpt>
      <trkpt lat="44.42029" lon="6.73643">
        <ele>1217.07</ele>
        <time>2021-08-11T08:19:39Z</time>
      </trkpt>
      <trkpt lat="44.42034" lon="6.73645">
        <ele>1217.9</ele>
        <time>2021-08-11T08:19:41Z</time>
      </trkpt>
      <trkpt lat="44.42036" lon="6.73648">
        <ele>1218.15</ele>
        <time>2021-08-11T08:19:42Z</time>
      </trkpt>
      <trkpt lat="44.42038" lon="6.7365">
        <ele>1218.44</ele>
        <time>2021-08-11T08:19:43Z</time>
      </trkpt>
      <trkpt lat="44.42041" lon="6.73653">
        <ele>1218.87</ele>
        <time>2021-08-11T08:19:44Z</time>
      </trkpt>
      <trkpt lat="44.42043" lon="6.73656">
        <ele>1219.12</ele>
        <time>2021-08-11T08:19:45Z</time>
      </trkpt>
      <trkpt lat="44.42044" lon="6.7366">
        <ele>1219.16</ele>
        <time>2021-08-11T08:19:46Z</time>
      </trkpt>
      <trkpt lat="44.42046" lon="6.73664">
        <ele>1219.38</ele>
        <time>2021-08-11T08:19:47Z</time>
      </trkpt>
      <trkpt lat="44.42047" lon="6.73667">
        <ele>1219.42</ele>
        <time>2021-08-11T08:19:48Z</time>
      </trkpt>
      <trkpt lat="44.42047" lon="6.73672">
        <ele>1218.87</ele>
        <time>2021-08-11T08:19:49Z</time>
      </trkpt>
      <trkpt lat="44.42047" lon="6.73677">
        <ele>1218.32</ele>
        <time>2021-08-11T08:19:50Z</time>
      </trkpt>
      <trkpt lat="44.42046" lon="6.73681">
        <ele>1217.75</ele>
        <time>2021-08-11T08:19:51Z</time>
      </trkpt>
      <trkpt lat="44.42045" lon="6.73686">
        <ele>1217.11</ele>
        <time>2021-08-11T08:19:52Z</time>
      </trkpt>
      <trkpt lat="44.42044" lon="6.7369">
        <ele>1216.61</ele>
        <time>2021-08-11T08:19:53Z</time>
      </trkpt>
      <trkpt lat="44.42043" lon="6.73694">
        <ele>1216.14</ele>
        <time>2021-08-11T08:19:54Z</time>
      </trkpt>
      <trkpt lat="44.42041" lon="6.73698">
        <ele>1215.83</ele>
        <time>2021-08-11T08:19:55Z</time>
      </trkpt>
      <trkpt lat="44.4204" lon="6.73702">
        <ele>1215.64</ele>
        <time>2021-08-11T08:19:56Z</time>
      </trkpt>
      <trkpt lat="44.42038" lon="6.73706">
        <ele>1215.43</ele>
        <time>2021-08-11T08:19:57Z</time>
      </trkpt>
      <trkpt lat="44.42037" lon="6.7371">
        <ele>1215.29</ele>
        <time>2021-08-11T08:19:58Z</time>
      </trkpt>
      <trkpt lat="44.42036" lon="6.73714">
        <ele>1215.18</ele>
        <time>2021-08-11T08:19:59Z</time>
      </trkpt>
      <trkpt lat="44.42034" lon="6.73718">
        <ele>1215.07</ele>
        <time>2021-08-11T08:20:00Z</time>
      </trkpt>
      <trkpt lat="44.42033" lon="6.73722">
        <ele>1215</ele>
        <time>2021-08-11T08:20:01Z</time>
      </trkpt>
      <trkpt lat="44.42031" lon="6.73725">
        <ele>1215.18</ele>
        <time>2021-08-11T08:20:02Z</time>
      </trkpt>
      <trkpt lat="44.4203" lon="6.73729">
        <ele>1215.45</ele>
        <time>2021-08-11T08:20:03Z</time>
      </trkpt>
      <trkpt lat="44.42029" lon="6.73733">
        <ele>1215.74</ele>
        <time>2021-08-11T08:20:04Z</time>
      </trkpt>
      <trkpt lat="44.42028" lon="6.73737">
        <ele>1216.06</ele>
        <time>2021-08-11T08:20:05Z</time>
      </trkpt>
      <trkpt lat="44.42027" lon="6.73741">
        <ele>1216.45</ele>
        <time>2021-08-11T08:20:06Z</time>
      </trkpt>
      <trkpt lat="44.42026" lon="6.73745">
        <ele>1216.88</ele>
        <time>2021-08-11T08:20:07Z</time>
      </trkpt>
      <trkpt lat="44.42025" lon="6.73749">
        <ele>1217.32</ele>
        <time>2021-08-11T08:20:08Z</time>
      </trkpt>
      <trkpt lat="44.42024" lon="6.73753">
        <ele>1217.65</ele>
        <time>2021-08-11T08:20:09Z</time>
      </trkpt>
      <trkpt lat="44.42023" lon="6.73757">
        <ele>1217.94</ele>
        <time>2021-08-11T08:20:10Z</time>
      </trkpt>
      <trkpt lat="44.42022" lon="6.73762">
        <ele>1218.26</ele>
        <time>2021-08-11T08:20:11Z</time>
      </trkpt>
      <trkpt lat="44.42022" lon="6.73766">
        <ele>1218.41</ele>
        <time>2021-08-11T08:20:12Z</time>
      </trkpt>
      <trkpt lat="44.42021" lon="6.7377">
        <ele>1218.7</ele>
        <time>2021-08-11T08:20:13Z</time>
      </trkpt>
      <trkpt lat="44.4202" lon="6.73774">
        <ele>1218.98</ele>
        <time>2021-08-11T08:20:14Z</time>
      </trkpt>
      <trkpt lat="44.4202" lon="6.73778">
        <ele>1219.12</ele>
        <time>2021-08-11T08:20:15Z</time>
      </trkpt>
      <trkpt lat="44.42019" lon="6.73782">
        <ele>1219.17</ele>
        <time>2021-08-11T08:20:16Z</time>
      </trkpt>
      <trkpt lat="44.42019" lon="6.73786">
        <ele>1219.08</ele>
        <time>2021-08-11T08:20:17Z</time>
      </trkpt>
      <trkpt lat="44.42018" lon="6.7379">
        <ele>1219.1</ele>
        <time>2021-08-11T08:20:18Z</time>
      </trkpt>
      <trkpt lat="44.42018" lon="6.73795">
        <ele>1218.97</ele>
        <time>2021-08-11T08:20:19Z</time>
      </trkpt>
      <trkpt lat="44.42017" lon="6.73799">
        <ele>1218.96</ele>
        <time>2021-08-11T08:20:20Z</time>
      </trkpt>
      <trkpt lat="44.42017" lon="6.73803">
        <ele>1218.85</ele>
        <time>2021-08-11T08:20:21Z</time>
      </trkpt>
      <trkpt lat="44.42016" lon="6.73807">
        <ele>1218.75</ele>
        <time>2021-08-11T08:20:22Z</time>
      </trkpt>
      <trkpt lat="44.42015" lon="6.73812">
        <ele>1218.47</ele>
        <time>2021-08-11T08:20:23Z</time>
      </trkpt>
      <trkpt lat="44.42015" lon="6.73816">
        <ele>1218.2</ele>
        <time>2021-08-11T08:20:24Z</time>
      </trkpt>
      <trkpt lat="44.42014" lon="6.73821">
        <ele>1217.88</ele>
        <time>2021-08-11T08:20:25Z</time>
      </trkpt>
      <trkpt lat="44.42013" lon="6.73828">
        <ele>1217.4</ele>
        <time>2021-08-11T08:20:27Z</time>
      </trkpt>
      <trkpt lat="44.42013" lon="6.73832">
        <ele>1217.1</ele>
        <time>2021-08-11T08:20:28Z</time>
      </trkpt>
      <trkpt lat="44.42012" lon="6.73839">
        <ele>1216.36</ele>
        <time>2021-08-11T08:20:30Z</time>
      </trkpt>
      <trkpt lat="44.42012" lon="6.73843">
        <ele>1215.91</ele>
        <time>2021-08-11T08:20:31Z</time>
      </trkpt>
      <trkpt lat="44.42011" lon="6.73849">
        <ele>1215.19</ele>
        <time>2021-08-11T08:20:32Z</time>
      </trkpt>
      <trkpt lat="44.4201" lon="6.73854">
        <ele>1214.56</ele>
        <time>2021-08-11T08:20:33Z</time>
      </trkpt>
      <trkpt lat="44.4201" lon="6.73859">
        <ele>1213.97</ele>
        <time>2021-08-11T08:20:34Z</time>
      </trkpt>
      <trkpt lat="44.42009" lon="6.73864">
        <ele>1213.65</ele>
        <time>2021-08-11T08:20:35Z</time>
      </trkpt>
      <trkpt lat="44.42009" lon="6.73869">
        <ele>1213.65</ele>
        <time>2021-08-11T08:20:36Z</time>
      </trkpt>
      <trkpt lat="44.42008" lon="6.73873">
        <ele>1213.58</ele>
        <time>2021-08-11T08:20:37Z</time>
      </trkpt>
      <trkpt lat="44.42008" lon="6.73877">
        <ele>1213.58</ele>
        <time>2021-08-11T08:20:39Z</time>
      </trkpt>
      <trkpt lat="44.42006" lon="6.73888">
        <ele>1213.43</ele>
        <time>2021-08-11T08:20:40Z</time>
      </trkpt>
      <trkpt lat="44.42004" lon="6.73901">
        <ele>1213.6</ele>
        <time>2021-08-11T08:20:42Z</time>
      </trkpt>
      <trkpt lat="44.42003" lon="6.73908">
        <ele>1213.59</ele>
        <time>2021-08-11T08:20:43Z</time>
      </trkpt>
      <trkpt lat="44.42002" lon="6.73916">
        <ele>1213.5</ele>
        <time>2021-08-11T08:20:44Z</time>
      </trkpt>
      <trkpt lat="44.42" lon="6.73923">
        <ele>1213.23</ele>
        <time>2021-08-11T08:20:45Z</time>
      </trkpt>
      <trkpt lat="44.41998" lon="6.73931">
        <ele>1213.8</ele>
        <time>2021-08-11T08:20:46Z</time>
      </trkpt>
      <trkpt lat="44.41996" lon="6.73938">
        <ele>1214.27</ele>
        <time>2021-08-11T08:20:47Z</time>
      </trkpt>
      <trkpt lat="44.41994" lon="6.73945">
        <ele>1214.68</ele>
        <time>2021-08-11T08:20:48Z</time>
      </trkpt>
      <trkpt lat="44.41991" lon="6.73951">
        <ele>1215.37</ele>
        <time>2021-08-11T08:20:49Z</time>
      </trkpt>
      <trkpt lat="44.41988" lon="6.73957">
        <ele>1216</ele>
        <time>2021-08-11T08:20:50Z</time>
      </trkpt>
      <trkpt lat="44.41985" lon="6.73962">
        <ele>1216.54</ele>
        <time>2021-08-11T08:20:51Z</time>
      </trkpt>
      <trkpt lat="44.41982" lon="6.73967">
        <ele>1217.04</ele>
        <time>2021-08-11T08:20:52Z</time>
      </trkpt>
      <trkpt lat="44.41979" lon="6.73971">
        <ele>1217.46</ele>
        <time>2021-08-11T08:20:53Z</time>
      </trkpt>
      <trkpt lat="44.41976" lon="6.73975">
        <ele>1217.77</ele>
        <time>2021-08-11T08:20:54Z</time>
      </trkpt>
      <trkpt lat="44.41973" lon="6.73979">
        <ele>1217.96</ele>
        <time>2021-08-11T08:20:55Z</time>
      </trkpt>
      <trkpt lat="44.4197" lon="6.73982">
        <ele>1218.16</ele>
        <time>2021-08-11T08:20:56Z</time>
      </trkpt>
      <trkpt lat="44.41968" lon="6.73984">
        <ele>1218.26</ele>
        <time>2021-08-11T08:20:57Z</time>
      </trkpt>
      <trkpt lat="44.41965" lon="6.73988">
        <ele>1218.34</ele>
        <time>2021-08-11T08:20:58Z</time>
      </trkpt>
      <trkpt lat="44.41962" lon="6.73991">
        <ele>1218.36</ele>
        <time>2021-08-11T08:20:59Z</time>
      </trkpt>
      <trkpt lat="44.41959" lon="6.73994">
        <ele>1218.31</ele>
        <time>2021-08-11T08:21:00Z</time>
      </trkpt>
      <trkpt lat="44.41955" lon="6.73997">
        <ele>1218.2</ele>
        <time>2021-08-11T08:21:01Z</time>
      </trkpt>
      <trkpt lat="44.41952" lon="6.73999">
        <ele>1218.08</ele>
        <time>2021-08-11T08:21:02Z</time>
      </trkpt>
      <trkpt lat="44.41949" lon="6.74002">
        <ele>1217.95</ele>
        <time>2021-08-11T08:21:03Z</time>
      </trkpt>
      <trkpt lat="44.41946" lon="6.74004">
        <ele>1217.87</ele>
        <time>2021-08-11T08:21:04Z</time>
      </trkpt>
      <trkpt lat="44.41943" lon="6.74007">
        <ele>1217.81</ele>
        <time>2021-08-11T08:21:05Z</time>
      </trkpt>
      <trkpt lat="44.41939" lon="6.74009">
        <ele>1217.88</ele>
        <time>2021-08-11T08:21:06Z</time>
      </trkpt>
      <trkpt lat="44.41936" lon="6.74011">
        <ele>1217.85</ele>
        <time>2021-08-11T08:21:07Z</time>
      </trkpt>
      <trkpt lat="44.41933" lon="6.74013">
        <ele>1217.78</ele>
        <time>2021-08-11T08:21:08Z</time>
      </trkpt>
      <trkpt lat="44.4193" lon="6.74015">
        <ele>1217.66</ele>
        <time>2021-08-11T08:21:09Z</time>
      </trkpt>
      <trkpt lat="44.41927" lon="6.74017">
        <ele>1217.49</ele>
        <time>2021-08-11T08:21:10Z</time>
      </trkpt>
      <trkpt lat="44.41923" lon="6.74019">
        <ele>1217.28</ele>
        <time>2021-08-11T08:21:12Z</time>
      </trkpt>
      <trkpt lat="44.41917" lon="6.74023">
        <ele>1216.69</ele>
        <time>2021-08-11T08:21:13Z</time>
      </trkpt>
      <trkpt lat="44.41911" lon="6.74027">
        <ele>1216.11</ele>
        <time>2021-08-11T08:21:15Z</time>
      </trkpt>
      <trkpt lat="44.41904" lon="6.74032">
        <ele>1215.78</ele>
        <time>2021-08-11T08:21:17Z</time>
      </trkpt>
      <trkpt lat="44.41898" lon="6.74036">
        <ele>1215.51</ele>
        <time>2021-08-11T08:21:19Z</time>
      </trkpt>
      <trkpt lat="44.41891" lon="6.7404">
        <ele>1215.15</ele>
        <time>2021-08-11T08:21:21Z</time>
      </trkpt>
      <trkpt lat="44.41888" lon="6.74042">
        <ele>1214.88</ele>
        <time>2021-08-11T08:21:22Z</time>
      </trkpt>
      <trkpt lat="44.41885" lon="6.74044">
        <ele>1214.41</ele>
        <time>2021-08-11T08:21:23Z</time>
      </trkpt>
      <trkpt lat="44.41882" lon="6.74047">
        <ele>1213.87</ele>
        <time>2021-08-11T08:21:24Z</time>
      </trkpt>
      <trkpt lat="44.41878" lon="6.74049">
        <ele>1213.3</ele>
        <time>2021-08-11T08:21:25Z</time>
      </trkpt>
      <trkpt lat="44.41875" lon="6.74052">
        <ele>1212.76</ele>
        <time>2021-08-11T08:21:26Z</time>
      </trkpt>
      <trkpt lat="44.41872" lon="6.74054">
        <ele>1212.29</ele>
        <time>2021-08-11T08:21:27Z</time>
      </trkpt>
      <trkpt lat="44.41869" lon="6.74057">
        <ele>1211.97</ele>
        <time>2021-08-11T08:21:28Z</time>
      </trkpt>
      <trkpt lat="44.41866" lon="6.74059">
        <ele>1211.8</ele>
        <time>2021-08-11T08:21:29Z</time>
      </trkpt>
      <trkpt lat="44.41863" lon="6.74062">
        <ele>1211.68</ele>
        <time>2021-08-11T08:21:30Z</time>
      </trkpt>
      <trkpt lat="44.4186" lon="6.74065">
        <ele>1211.77</ele>
        <time>2021-08-11T08:21:31Z</time>
      </trkpt>
      <trkpt lat="44.41857" lon="6.74067">
        <ele>1212.15</ele>
        <time>2021-08-11T08:21:32Z</time>
      </trkpt>
      <trkpt lat="44.41855" lon="6.7407">
        <ele>1212.47</ele>
        <time>2021-08-11T08:21:33Z</time>
      </trkpt>
      <trkpt lat="44.4185" lon="6.74075">
        <ele>1213.04</ele>
        <time>2021-08-11T08:21:35Z</time>
      </trkpt>
      <trkpt lat="44.41847" lon="6.74078">
        <ele>1213.32</ele>
        <time>2021-08-11T08:21:36Z</time>
      </trkpt>
      <trkpt lat="44.41844" lon="6.74081">
        <ele>1213.55</ele>
        <time>2021-08-11T08:21:37Z</time>
      </trkpt>
      <trkpt lat="44.41841" lon="6.74084">
        <ele>1213.73</ele>
        <time>2021-08-11T08:21:38Z</time>
      </trkpt>
      <trkpt lat="44.41838" lon="6.74087">
        <ele>1213.81</ele>
        <time>2021-08-11T08:21:39Z</time>
      </trkpt>
      <trkpt lat="44.41835" lon="6.74089">
        <ele>1213.8</ele>
        <time>2021-08-11T08:21:40Z</time>
      </trkpt>
      <trkpt lat="44.41833" lon="6.74092">
        <ele>1213.72</ele>
        <time>2021-08-11T08:21:41Z</time>
      </trkpt>
      <trkpt lat="44.4183" lon="6.74094">
        <ele>1213.9</ele>
        <time>2021-08-11T08:21:42Z</time>
      </trkpt>
      <trkpt lat="44.41825" lon="6.74099">
        <ele>1214.21</ele>
        <time>2021-08-11T08:21:44Z</time>
      </trkpt>
      <trkpt lat="44.41819" lon="6.74105">
        <ele>1214.65</ele>
        <time>2021-08-11T08:21:47Z</time>
      </trkpt>
      <trkpt lat="44.41813" lon="6.74109">
        <ele>1215.22</ele>
        <time>2021-08-11T08:21:48Z</time>
      </trkpt>
      <trkpt lat="44.41808" lon="6.74114">
        <ele>1216.06</ele>
        <time>2021-08-11T08:21:50Z</time>
      </trkpt>
      <trkpt lat="44.41802" lon="6.74119">
        <ele>1217.66</ele>
        <time>2021-08-11T08:21:52Z</time>
      </trkpt>
      <trkpt lat="44.41796" lon="6.74123">
        <ele>1219.5</ele>
        <time>2021-08-11T08:21:54Z</time>
      </trkpt>
      <trkpt lat="44.41789" lon="6.74128">
        <ele>1221.76</ele>
        <time>2021-08-11T08:21:56Z</time>
      </trkpt>
      <trkpt lat="44.41783" lon="6.74132">
        <ele>1223.74</ele>
        <time>2021-08-11T08:21:58Z</time>
      </trkpt>
      <trkpt lat="44.41775" lon="6.74137">
        <ele>1225.86</ele>
        <time>2021-08-11T08:22:01Z</time>
      </trkpt>
      <trkpt lat="44.4177" lon="6.74141">
        <ele>1226.56</ele>
        <time>2021-08-11T08:22:02Z</time>
      </trkpt>
      <trkpt lat="44.41764" lon="6.74145">
        <ele>1227.27</ele>
        <time>2021-08-11T08:22:04Z</time>
      </trkpt>
      <trkpt lat="44.41757" lon="6.7415">
        <ele>1228.05</ele>
        <time>2021-08-11T08:22:06Z</time>
      </trkpt>
      <trkpt lat="44.41751" lon="6.74154">
        <ele>1228.62</ele>
        <time>2021-08-11T08:22:08Z</time>
      </trkpt>
      <trkpt lat="44.41745" lon="6.74158">
        <ele>1229.54</ele>
        <time>2021-08-11T08:22:10Z</time>
      </trkpt>
      <trkpt lat="44.41741" lon="6.7416">
        <ele>1230.08</ele>
        <time>2021-08-11T08:22:11Z</time>
      </trkpt>
      <trkpt lat="44.41738" lon="6.74163">
        <ele>1230.58</ele>
        <time>2021-08-11T08:22:12Z</time>
      </trkpt>
      <trkpt lat="44.41735" lon="6.74166">
        <ele>1231.03</ele>
        <time>2021-08-11T08:22:13Z</time>
      </trkpt>
      <trkpt lat="44.41732" lon="6.74168">
        <ele>1231.5</ele>
        <time>2021-08-11T08:22:14Z</time>
      </trkpt>
      <trkpt lat="44.41728" lon="6.74172">
        <ele>1232.39</ele>
        <time>2021-08-11T08:22:16Z</time>
      </trkpt>
      <trkpt lat="44.41724" lon="6.74177">
        <ele>1233.38</ele>
        <time>2021-08-11T08:22:17Z</time>
      </trkpt>
      <trkpt lat="44.41718" lon="6.74185">
        <ele>1234.9</ele>
        <time>2021-08-11T08:22:20Z</time>
      </trkpt>
      <trkpt lat="44.41711" lon="6.74194">
        <ele>1236.35</ele>
        <time>2021-08-11T08:22:24Z</time>
      </trkpt>
      <trkpt lat="44.41703" lon="6.74204">
        <ele>1236.8</ele>
        <time>2021-08-11T08:22:26Z</time>
      </trkpt>
      <trkpt lat="44.41699" lon="6.7421">
        <ele>1236.93</ele>
        <time>2021-08-11T08:22:27Z</time>
      </trkpt>
      <trkpt lat="44.41691" lon="6.74222">
        <ele>1237</ele>
        <time>2021-08-11T08:22:32Z</time>
      </trkpt>
      <trkpt lat="44.41685" lon="6.7423">
        <ele>1237.18</ele>
        <time>2021-08-11T08:22:33Z</time>
      </trkpt>
      <trkpt lat="44.41681" lon="6.74236">
        <ele>1237.26</ele>
        <time>2021-08-11T08:22:34Z</time>
      </trkpt>
      <trkpt lat="44.41674" lon="6.74244">
        <ele>1237.21</ele>
        <time>2021-08-11T08:22:37Z</time>
      </trkpt>
      <trkpt lat="44.41667" lon="6.74252">
        <ele>1236.87</ele>
        <time>2021-08-11T08:22:39Z</time>
      </trkpt>
      <trkpt lat="44.41663" lon="6.74259">
        <ele>1236.17</ele>
        <time>2021-08-11T08:22:42Z</time>
      </trkpt>
      <trkpt lat="44.41657" lon="6.74266">
        <ele>1235.55</ele>
        <time>2021-08-11T08:22:44Z</time>
      </trkpt>
      <trkpt lat="44.4166" lon="6.74264">
        <ele>1235.75</ele>
        <time>2021-08-11T08:22:58Z</time>
      </trkpt>
      <trkpt lat="44.41657" lon="6.74266">
        <ele>1235.55</ele>
        <time>2021-08-11T08:25:27Z</time>
      </trkpt>
      <trkpt lat="44.41653" lon="6.74272">
        <ele>1235.21</ele>
        <time>2021-08-11T08:25:29Z</time>
      </trkpt>
      <trkpt lat="44.41651" lon="6.74275">
        <ele>1235.09</ele>
        <time>2021-08-11T08:25:30Z</time>
      </trkpt>
      <trkpt lat="44.41649" lon="6.74279">
        <ele>1235.03</ele>
        <time>2021-08-11T08:25:31Z</time>
      </trkpt>
      <trkpt lat="44.41646" lon="6.74282">
        <ele>1235.08</ele>
        <time>2021-08-11T08:25:32Z</time>
      </trkpt>
      <trkpt lat="44.41644" lon="6.74285">
        <ele>1235.1</ele>
        <time>2021-08-11T08:25:33Z</time>
      </trkpt>
      <trkpt lat="44.41641" lon="6.74288">
        <ele>1235.06</ele>
        <time>2021-08-11T08:25:34Z</time>
      </trkpt>
      <trkpt lat="44.41639" lon="6.7429">
        <ele>1235</ele>
        <time>2021-08-11T08:25:35Z</time>
      </trkpt>
      <trkpt lat="44.41636" lon="6.74293">
        <ele>1235.1</ele>
        <time>2021-08-11T08:25:36Z</time>
      </trkpt>
      <trkpt lat="44.41634" lon="6.74296">
        <ele>1235.18</ele>
        <time>2021-08-11T08:25:37Z</time>
      </trkpt>
      <trkpt lat="44.41631" lon="6.74298">
        <ele>1235.28</ele>
        <time>2021-08-11T08:25:38Z</time>
      </trkpt>
      <trkpt lat="44.41628" lon="6.74302">
        <ele>1235.39</ele>
        <time>2021-08-11T08:25:41Z</time>
      </trkpt>
      <trkpt lat="44.41624" lon="6.74306">
        <ele>1235.53</ele>
        <time>2021-08-11T08:25:42Z</time>
      </trkpt>
      <trkpt lat="44.41619" lon="6.74311">
        <ele>1235.63</ele>
        <time>2021-08-11T08:25:43Z</time>
      </trkpt>
      <trkpt lat="44.41613" lon="6.74316">
        <ele>1235.61</ele>
        <time>2021-08-11T08:25:45Z</time>
      </trkpt>
      <trkpt lat="44.41604" lon="6.74321">
        <ele>1235.59</ele>
        <time>2021-08-11T08:25:49Z</time>
      </trkpt>
      <trkpt lat="44.41595" lon="6.74326">
        <ele>1235.69</ele>
        <time>2021-08-11T08:25:52Z</time>
      </trkpt>
      <trkpt lat="44.41588" lon="6.74333">
        <ele>1235.83</ele>
        <time>2021-08-11T08:25:54Z</time>
      </trkpt>
      <trkpt lat="44.41581" lon="6.74343">
        <ele>1235.95</ele>
        <time>2021-08-11T08:25:58Z</time>
      </trkpt>
      <trkpt lat="44.41576" lon="6.74352">
        <ele>1235.91</ele>
        <time>2021-08-11T08:26:00Z</time>
      </trkpt>
      <trkpt lat="44.41572" lon="6.74359">
        <ele>1235.97</ele>
        <time>2021-08-11T08:26:03Z</time>
      </trkpt>
      <trkpt lat="44.41569" lon="6.74367">
        <ele>1236.21</ele>
        <time>2021-08-11T08:26:05Z</time>
      </trkpt>
      <trkpt lat="44.41565" lon="6.74376">
        <ele>1236.54</ele>
        <time>2021-08-11T08:26:07Z</time>
      </trkpt>
      <trkpt lat="44.41561" lon="6.74389">
        <ele>1237</ele>
        <time>2021-08-11T08:26:10Z</time>
      </trkpt>
      <trkpt lat="44.41557" lon="6.744">
        <ele>1237.42</ele>
        <time>2021-08-11T08:26:14Z</time>
      </trkpt>
      <trkpt lat="44.41552" lon="6.74412">
        <ele>1237.98</ele>
        <time>2021-08-11T08:26:15Z</time>
      </trkpt>
      <trkpt lat="44.41549" lon="6.7442">
        <ele>1238.36</ele>
        <time>2021-08-11T08:26:17Z</time>
      </trkpt>
      <trkpt lat="44.41545" lon="6.74431">
        <ele>1238.9</ele>
        <time>2021-08-11T08:26:20Z</time>
      </trkpt>
      <trkpt lat="44.41542" lon="6.7444">
        <ele>1239.33</ele>
        <time>2021-08-11T08:26:23Z</time>
      </trkpt>
      <trkpt lat="44.41538" lon="6.7445">
        <ele>1239.85</ele>
        <time>2021-08-11T08:26:25Z</time>
      </trkpt>
      <trkpt lat="44.41534" lon="6.74461">
        <ele>1240.18</ele>
        <time>2021-08-11T08:26:28Z</time>
      </trkpt>
      <trkpt lat="44.4153" lon="6.74472">
        <ele>1240.16</ele>
        <time>2021-08-11T08:26:31Z</time>
      </trkpt>
      <trkpt lat="44.41527" lon="6.7448">
        <ele>1240.62</ele>
        <time>2021-08-11T08:26:33Z</time>
      </trkpt>
      <trkpt lat="44.41525" lon="6.74488">
        <ele>1241.34</ele>
        <time>2021-08-11T08:26:35Z</time>
      </trkpt>
      <trkpt lat="44.41523" lon="6.74497">
        <ele>1242.13</ele>
        <time>2021-08-11T08:26:39Z</time>
      </trkpt>
      <trkpt lat="44.41521" lon="6.74508">
        <ele>1243.28</ele>
        <time>2021-08-11T08:26:40Z</time>
      </trkpt>
      <trkpt lat="44.41521" lon="6.74516">
        <ele>1244.08</ele>
        <time>2021-08-11T08:26:42Z</time>
      </trkpt>
      <trkpt lat="44.41521" lon="6.74531">
        <ele>1245.62</ele>
        <time>2021-08-11T08:26:46Z</time>
      </trkpt>
      <trkpt lat="44.41521" lon="6.74541">
        <ele>1246.8</ele>
        <time>2021-08-11T08:26:49Z</time>
      </trkpt>
      <trkpt lat="44.41521" lon="6.74551">
        <ele>1247.98</ele>
        <time>2021-08-11T08:26:50Z</time>
      </trkpt>
      <trkpt lat="44.41521" lon="6.74564">
        <ele>1249.58</ele>
        <time>2021-08-11T08:26:55Z</time>
      </trkpt>
      <trkpt lat="44.41519" lon="6.74577">
        <ele>1250.97</ele>
        <time>2021-08-11T08:26:57Z</time>
      </trkpt>
      <trkpt lat="44.41518" lon="6.74587">
        <ele>1251.86</ele>
        <time>2021-08-11T08:26:59Z</time>
      </trkpt>
      <trkpt lat="44.41516" lon="6.74598">
        <ele>1252.36</ele>
        <time>2021-08-11T08:27:01Z</time>
      </trkpt>
      <trkpt lat="44.41512" lon="6.74609">
        <ele>1252.58</ele>
        <time>2021-08-11T08:27:04Z</time>
      </trkpt>
      <trkpt lat="44.41508" lon="6.74619">
        <ele>1252.56</ele>
        <time>2021-08-11T08:27:07Z</time>
      </trkpt>
      <trkpt lat="44.41505" lon="6.74629">
        <ele>1252.78</ele>
        <time>2021-08-11T08:27:10Z</time>
      </trkpt>
      <trkpt lat="44.41502" lon="6.74638">
        <ele>1253.08</ele>
        <time>2021-08-11T08:27:13Z</time>
      </trkpt>
      <trkpt lat="44.41499" lon="6.74646">
        <ele>1253.45</ele>
        <time>2021-08-11T08:27:16Z</time>
      </trkpt>
      <trkpt lat="44.41496" lon="6.74655">
        <ele>1253.96</ele>
        <time>2021-08-11T08:27:19Z</time>
      </trkpt>
      <trkpt lat="44.41494" lon="6.74665">
        <ele>1254.65</ele>
        <time>2021-08-11T08:27:22Z</time>
      </trkpt>
      <trkpt lat="44.41491" lon="6.74674">
        <ele>1255.03</ele>
        <time>2021-08-11T08:27:25Z</time>
      </trkpt>
      <trkpt lat="44.41489" lon="6.74683">
        <ele>1255.42</ele>
        <time>2021-08-11T08:27:28Z</time>
      </trkpt>
      <trkpt lat="44.41488" lon="6.74694">
        <ele>1255.98</ele>
        <time>2021-08-11T08:27:31Z</time>
      </trkpt>
      <trkpt lat="44.41487" lon="6.74701">
        <ele>1255.87</ele>
        <time>2021-08-11T08:27:33Z</time>
      </trkpt>
      <trkpt lat="44.41486" lon="6.74709">
        <ele>1255.74</ele>
        <time>2021-08-11T08:27:35Z</time>
      </trkpt>
      <trkpt lat="44.41484" lon="6.74716">
        <ele>1255.67</ele>
        <time>2021-08-11T08:27:37Z</time>
      </trkpt>
      <trkpt lat="44.41483" lon="6.74722">
        <ele>1255.62</ele>
        <time>2021-08-11T08:27:39Z</time>
      </trkpt>
      <trkpt lat="44.41482" lon="6.74728">
        <ele>1255.71</ele>
        <time>2021-08-11T08:27:41Z</time>
      </trkpt>
      <trkpt lat="44.41481" lon="6.74734">
        <ele>1255.84</ele>
        <time>2021-08-11T08:27:43Z</time>
      </trkpt>
      <trkpt lat="44.41481" lon="6.74741">
        <ele>1255.93</ele>
        <time>2021-08-11T08:27:45Z</time>
      </trkpt>
      <trkpt lat="44.4148" lon="6.74746">
        <ele>1256.1</ele>
        <time>2021-08-11T08:27:48Z</time>
      </trkpt>
      <trkpt lat="44.41478" lon="6.74753">
        <ele>1256.48</ele>
        <time>2021-08-11T08:27:49Z</time>
      </trkpt>
      <trkpt lat="44.41476" lon="6.7476">
        <ele>1256.95</ele>
        <time>2021-08-11T08:27:51Z</time>
      </trkpt>
      <trkpt lat="44.41474" lon="6.74766">
        <ele>1257.38</ele>
        <time>2021-08-11T08:27:53Z</time>
      </trkpt>
      <trkpt lat="44.41472" lon="6.74772">
        <ele>1257.82</ele>
        <time>2021-08-11T08:27:55Z</time>
      </trkpt>
      <trkpt lat="44.41471" lon="6.74776">
        <ele>1258.11</ele>
        <time>2021-08-11T08:27:57Z</time>
      </trkpt>
      <trkpt lat="44.41468" lon="6.74784">
        <ele>1259.09</ele>
        <time>2021-08-11T08:27:59Z</time>
      </trkpt>
      <trkpt lat="44.41464" lon="6.74794">
        <ele>1260.52</ele>
        <time>2021-08-11T08:28:03Z</time>
      </trkpt>
      <trkpt lat="44.41461" lon="6.74802">
        <ele>1261.71</ele>
        <time>2021-08-11T08:28:05Z</time>
      </trkpt>
      <trkpt lat="44.41458" lon="6.74812">
        <ele>1263.37</ele>
        <time>2021-08-11T08:28:09Z</time>
      </trkpt>
      <trkpt lat="44.41455" lon="6.74823">
        <ele>1265.22</ele>
        <time>2021-08-11T08:28:12Z</time>
      </trkpt>
      <trkpt lat="44.41454" lon="6.74833">
        <ele>1266.58</ele>
        <time>2021-08-11T08:28:15Z</time>
      </trkpt>
      <trkpt lat="44.41455" lon="6.74842">
        <ele>1267.53</ele>
        <time>2021-08-11T08:28:18Z</time>
      </trkpt>
      <trkpt lat="44.41456" lon="6.74849">
        <ele>1268.26</ele>
        <time>2021-08-11T08:28:20Z</time>
      </trkpt>
      <trkpt lat="44.41457" lon="6.74855">
        <ele>1268.88</ele>
        <time>2021-08-11T08:28:22Z</time>
      </trkpt>
      <trkpt lat="44.41458" lon="6.74861">
        <ele>1269.52</ele>
        <time>2021-08-11T08:28:24Z</time>
      </trkpt>
      <trkpt lat="44.4146" lon="6.74868">
        <ele>1269.85</ele>
        <time>2021-08-11T08:28:26Z</time>
      </trkpt>
      <trkpt lat="44.41462" lon="6.74874">
        <ele>1270.15</ele>
        <time>2021-08-11T08:28:28Z</time>
      </trkpt>
      <trkpt lat="44.41465" lon="6.7488">
        <ele>1270.47</ele>
        <time>2021-08-11T08:28:30Z</time>
      </trkpt>
      <trkpt lat="44.41467" lon="6.74887">
        <ele>1271.01</ele>
        <time>2021-08-11T08:28:32Z</time>
      </trkpt>
      <trkpt lat="44.41469" lon="6.74893">
        <ele>1271.39</ele>
        <time>2021-08-11T08:28:34Z</time>
      </trkpt>
      <trkpt lat="44.41471" lon="6.74899">
        <ele>1271.76</ele>
        <time>2021-08-11T08:28:36Z</time>
      </trkpt>
      <trkpt lat="44.41473" lon="6.74904">
        <ele>1272.03</ele>
        <time>2021-08-11T08:28:38Z</time>
      </trkpt>
      <trkpt lat="44.41475" lon="6.74909">
        <ele>1272.25</ele>
        <time>2021-08-11T08:28:40Z</time>
      </trkpt>
      <trkpt lat="44.41477" lon="6.74915">
        <ele>1272.54</ele>
        <time>2021-08-11T08:28:42Z</time>
      </trkpt>
      <trkpt lat="44.41479" lon="6.7492">
        <ele>1272.57</ele>
        <time>2021-08-11T08:28:44Z</time>
      </trkpt>
      <trkpt lat="44.41482" lon="6.74926">
        <ele>1272.53</ele>
        <time>2021-08-11T08:28:46Z</time>
      </trkpt>
      <trkpt lat="44.41484" lon="6.74931">
        <ele>1272.59</ele>
        <time>2021-08-11T08:28:48Z</time>
      </trkpt>
      <trkpt lat="44.41486" lon="6.74935">
        <ele>1272.66</ele>
        <time>2021-08-11T08:28:49Z</time>
      </trkpt>
      <trkpt lat="44.41487" lon="6.7494">
        <ele>1272.83</ele>
        <time>2021-08-11T08:28:51Z</time>
      </trkpt>
      <trkpt lat="44.4149" lon="6.74945">
        <ele>1273.03</ele>
        <time>2021-08-11T08:28:53Z</time>
      </trkpt>
      <trkpt lat="44.41492" lon="6.7495">
        <ele>1273.28</ele>
        <time>2021-08-11T08:28:55Z</time>
      </trkpt>
      <trkpt lat="44.41494" lon="6.74956">
        <ele>1273.65</ele>
        <time>2021-08-11T08:28:57Z</time>
      </trkpt>
      <trkpt lat="44.41497" lon="6.74961">
        <ele>1274.06</ele>
        <time>2021-08-11T08:28:59Z</time>
      </trkpt>
      <trkpt lat="44.41498" lon="6.74965">
        <ele>1274.37</ele>
        <time>2021-08-11T08:29:01Z</time>
      </trkpt>
      <trkpt lat="44.41502" lon="6.74973">
        <ele>1275.03</ele>
        <time>2021-08-11T08:29:03Z</time>
      </trkpt>
      <trkpt lat="44.41505" lon="6.74981">
        <ele>1275.43</ele>
        <time>2021-08-11T08:29:06Z</time>
      </trkpt>
      <trkpt lat="44.41508" lon="6.74991">
        <ele>1276.07</ele>
        <time>2021-08-11T08:29:10Z</time>
      </trkpt>
      <trkpt lat="44.41513" lon="6.74999">
        <ele>1276.87</ele>
        <time>2021-08-11T08:29:13Z</time>
      </trkpt>
      <trkpt lat="44.41515" lon="6.75007">
        <ele>1277.1</ele>
        <time>2021-08-11T08:29:15Z</time>
      </trkpt>
      <trkpt lat="44.41519" lon="6.75017">
        <ele>1277.59</ele>
        <time>2021-08-11T08:29:18Z</time>
      </trkpt>
      <trkpt lat="44.41522" lon="6.75026">
        <ele>1278.13</ele>
        <time>2021-08-11T08:29:22Z</time>
      </trkpt>
      <trkpt lat="44.41527" lon="6.75036">
        <ele>1279.18</ele>
        <time>2021-08-11T08:29:25Z</time>
      </trkpt>
      <trkpt lat="44.41532" lon="6.75045">
        <ele>1280.53</ele>
        <time>2021-08-11T08:29:28Z</time>
      </trkpt>
      <trkpt lat="44.41537" lon="6.75052">
        <ele>1281.86</ele>
        <time>2021-08-11T08:29:30Z</time>
      </trkpt>
      <trkpt lat="44.41542" lon="6.7506">
        <ele>1283.16</ele>
        <time>2021-08-11T08:29:33Z</time>
      </trkpt>
      <trkpt lat="44.41548" lon="6.75068">
        <ele>1284.9</ele>
        <time>2021-08-11T08:29:38Z</time>
      </trkpt>
      <trkpt lat="44.41552" lon="6.75077">
        <ele>1286.48</ele>
        <time>2021-08-11T08:29:40Z</time>
      </trkpt>
      <trkpt lat="44.41551" lon="6.75089">
        <ele>1286.69</ele>
        <time>2021-08-11T08:29:43Z</time>
      </trkpt>
      <trkpt lat="44.41547" lon="6.75099">
        <ele>1285.62</ele>
        <time>2021-08-11T08:29:46Z</time>
      </trkpt>
      <trkpt lat="44.41542" lon="6.75104">
        <ele>1283.99</ele>
        <time>2021-08-11T08:29:49Z</time>
      </trkpt>
      <trkpt lat="44.41534" lon="6.7511">
        <ele>1281.23</ele>
        <time>2021-08-11T08:29:53Z</time>
      </trkpt>
      <trkpt lat="44.41529" lon="6.75114">
        <ele>1279.54</ele>
        <time>2021-08-11T08:29:55Z</time>
      </trkpt>
      <trkpt lat="44.41522" lon="6.7512">
        <ele>1279.25</ele>
        <time>2021-08-11T08:29:59Z</time>
      </trkpt>
      <trkpt lat="44.41515" lon="6.75125">
        <ele>1279.5</ele>
        <time>2021-08-11T08:30:00Z</time>
      </trkpt>
      <trkpt lat="44.41508" lon="6.75129">
        <ele>1279.85</ele>
        <time>2021-08-11T08:30:05Z</time>
      </trkpt>
      <trkpt lat="44.41501" lon="6.75132">
        <ele>1280.24</ele>
        <time>2021-08-11T08:30:06Z</time>
      </trkpt>
      <trkpt lat="44.41494" lon="6.75133">
        <ele>1280.24</ele>
        <time>2021-08-11T08:30:09Z</time>
      </trkpt>
      <trkpt lat="44.41486" lon="6.75134">
        <ele>1280.15</ele>
        <time>2021-08-11T08:30:13Z</time>
      </trkpt>
      <trkpt lat="44.4148" lon="6.75136">
        <ele>1280.12</ele>
        <time>2021-08-11T08:30:15Z</time>
      </trkpt>
      <trkpt lat="44.41474" lon="6.75138">
        <ele>1280.03</ele>
        <time>2021-08-11T08:30:18Z</time>
      </trkpt>
      <trkpt lat="44.41467" lon="6.7514">
        <ele>1281</ele>
        <time>2021-08-11T08:30:23Z</time>
      </trkpt>
      <trkpt lat="44.41464" lon="6.75141">
        <ele>1281.66</ele>
        <time>2021-08-11T08:32:09Z</time>
      </trkpt>
      <trkpt lat="44.41462" lon="6.75143">
        <ele>1282.41</ele>
        <time>2021-08-11T08:32:11Z</time>
      </trkpt>
      <trkpt lat="44.41459" lon="6.75147">
        <ele>1283.79</ele>
        <time>2021-08-11T08:32:13Z</time>
      </trkpt>
      <trkpt lat="44.41459" lon="6.75154">
        <ele>1285.43</ele>
        <time>2021-08-11T08:32:16Z</time>
      </trkpt>
      <trkpt lat="44.41459" lon="6.75159">
        <ele>1286.59</ele>
        <time>2021-08-11T08:32:17Z</time>
      </trkpt>
      <trkpt lat="44.41459" lon="6.75165">
        <ele>1287.99</ele>
        <time>2021-08-11T08:32:19Z</time>
      </trkpt>
      <trkpt lat="44.41459" lon="6.7517">
        <ele>1289.03</ele>
        <time>2021-08-11T08:32:21Z</time>
      </trkpt>
      <trkpt lat="44.41461" lon="6.75175">
        <ele>1289.58</ele>
        <time>2021-08-11T08:32:23Z</time>
      </trkpt>
      <trkpt lat="44.41462" lon="6.7518">
        <ele>1290.29</ele>
        <time>2021-08-11T08:32:25Z</time>
      </trkpt>
      <trkpt lat="44.41464" lon="6.75184">
        <ele>1290.53</ele>
        <time>2021-08-11T08:32:27Z</time>
      </trkpt>
      <trkpt lat="44.41467" lon="6.75189">
        <ele>1290.61</ele>
        <time>2021-08-11T08:32:29Z</time>
      </trkpt>
      <trkpt lat="44.41469" lon="6.75194">
        <ele>1290.86</ele>
        <time>2021-08-11T08:32:31Z</time>
      </trkpt>
      <trkpt lat="44.41471" lon="6.75199">
        <ele>1291.35</ele>
        <time>2021-08-11T08:32:33Z</time>
      </trkpt>
      <trkpt lat="44.41473" lon="6.75204">
        <ele>1291.86</ele>
        <time>2021-08-11T08:32:35Z</time>
      </trkpt>
      <trkpt lat="44.41476" lon="6.75208">
        <ele>1291.85</ele>
        <time>2021-08-11T08:32:37Z</time>
      </trkpt>
      <trkpt lat="44.41478" lon="6.75213">
        <ele>1292.2</ele>
        <time>2021-08-11T08:32:39Z</time>
      </trkpt>
      <trkpt lat="44.41481" lon="6.75217">
        <ele>1291.95</ele>
        <time>2021-08-11T08:32:41Z</time>
      </trkpt>
      <trkpt lat="44.41484" lon="6.75222">
        <ele>1291.73</ele>
        <time>2021-08-11T08:32:43Z</time>
      </trkpt>
      <trkpt lat="44.41486" lon="6.75226">
        <ele>1291.38</ele>
        <time>2021-08-11T08:32:45Z</time>
      </trkpt>
      <trkpt lat="44.41489" lon="6.75232">
        <ele>1290.88</ele>
        <time>2021-08-11T08:32:47Z</time>
      </trkpt>
      <trkpt lat="44.41491" lon="6.75236">
        <ele>1290.57</ele>
        <time>2021-08-11T08:32:49Z</time>
      </trkpt>
      <trkpt lat="44.41494" lon="6.75242">
        <ele>1290.14</ele>
        <time>2021-08-11T08:32:51Z</time>
      </trkpt>
      <trkpt lat="44.41496" lon="6.75247">
        <ele>1289.99</ele>
        <time>2021-08-11T08:32:53Z</time>
      </trkpt>
      <trkpt lat="44.41498" lon="6.75253">
        <ele>1290.08</ele>
        <time>2021-08-11T08:32:55Z</time>
      </trkpt>
      <trkpt lat="44.41499" lon="6.75259">
        <ele>1290.62</ele>
        <time>2021-08-11T08:32:57Z</time>
      </trkpt>
      <trkpt lat="44.415" lon="6.75265">
        <ele>1291.16</ele>
        <time>2021-08-11T08:32:59Z</time>
      </trkpt>
      <trkpt lat="44.415" lon="6.75271">
        <ele>1292.02</ele>
        <time>2021-08-11T08:33:01Z</time>
      </trkpt>
      <trkpt lat="44.41497" lon="6.75276">
        <ele>1293.72</ele>
        <time>2021-08-11T08:33:03Z</time>
      </trkpt>
      <trkpt lat="44.41493" lon="6.75279">
        <ele>1295.48</ele>
        <time>2021-08-11T08:33:05Z</time>
      </trkpt>
      <trkpt lat="44.41489" lon="6.7528">
        <ele>1296.93</ele>
        <time>2021-08-11T08:33:07Z</time>
      </trkpt>
      <trkpt lat="44.41484" lon="6.75279">
        <ele>1298.38</ele>
        <time>2021-08-11T08:33:09Z</time>
      </trkpt>
      <trkpt lat="44.41481" lon="6.75276">
        <ele>1298.9</ele>
        <time>2021-08-11T08:33:11Z</time>
      </trkpt>
      <trkpt lat="44.41478" lon="6.75272">
        <ele>1299.3</ele>
        <time>2021-08-11T08:33:13Z</time>
      </trkpt>
      <trkpt lat="44.41475" lon="6.75267">
        <ele>1299.55</ele>
        <time>2021-08-11T08:33:15Z</time>
      </trkpt>
      <trkpt lat="44.41473" lon="6.75262">
        <ele>1299.48</ele>
        <time>2021-08-11T08:33:17Z</time>
      </trkpt>
      <trkpt lat="44.41471" lon="6.75257">
        <ele>1299.38</ele>
        <time>2021-08-11T08:33:19Z</time>
      </trkpt>
      <trkpt lat="44.41469" lon="6.75252">
        <ele>1299.32</ele>
        <time>2021-08-11T08:33:21Z</time>
      </trkpt>
      <trkpt lat="44.41466" lon="6.75247">
        <ele>1299.82</ele>
        <time>2021-08-11T08:33:23Z</time>
      </trkpt>
      <trkpt lat="44.41465" lon="6.75243">
        <ele>1299.9</ele>
        <time>2021-08-11T08:33:25Z</time>
      </trkpt>
      <trkpt lat="44.41463" lon="6.75238">
        <ele>1300.27</ele>
        <time>2021-08-11T08:33:27Z</time>
      </trkpt>
      <trkpt lat="44.4146" lon="6.75234">
        <ele>1301.06</ele>
        <time>2021-08-11T08:33:29Z</time>
      </trkpt>
      <trkpt lat="44.41458" lon="6.7523">
        <ele>1301.54</ele>
        <time>2021-08-11T08:33:31Z</time>
      </trkpt>
      <trkpt lat="44.41456" lon="6.75226">
        <ele>1302.03</ele>
        <time>2021-08-11T08:33:33Z</time>
      </trkpt>
      <trkpt lat="44.41453" lon="6.75221">
        <ele>1302.6</ele>
        <time>2021-08-11T08:33:35Z</time>
      </trkpt>
      <trkpt lat="44.4145" lon="6.75218">
        <ele>1302.84</ele>
        <time>2021-08-11T08:33:37Z</time>
      </trkpt>
      <trkpt lat="44.41448" lon="6.75214">
        <ele>1302.43</ele>
        <time>2021-08-11T08:33:39Z</time>
      </trkpt>
      <trkpt lat="44.41445" lon="6.7521">
        <ele>1302.3</ele>
        <time>2021-08-11T08:33:41Z</time>
      </trkpt>
      <trkpt lat="44.41443" lon="6.75207">
        <ele>1301.86</ele>
        <time>2021-08-11T08:33:43Z</time>
      </trkpt>
      <trkpt lat="44.4144" lon="6.75203">
        <ele>1301.28</ele>
        <time>2021-08-11T08:33:45Z</time>
      </trkpt>
      <trkpt lat="44.41436" lon="6.752">
        <ele>1301.24</ele>
        <time>2021-08-11T08:33:47Z</time>
      </trkpt>
      <trkpt lat="44.41433" lon="6.75198">
        <ele>1301.34</ele>
        <time>2021-08-11T08:33:49Z</time>
      </trkpt>
      <trkpt lat="44.4143" lon="6.75195">
        <ele>1301.25</ele>
        <time>2021-08-11T08:33:51Z</time>
      </trkpt>
      <trkpt lat="44.41427" lon="6.75193">
        <ele>1301.4</ele>
        <time>2021-08-11T08:33:53Z</time>
      </trkpt>
      <trkpt lat="44.41423" lon="6.75189">
        <ele>1301.26</ele>
        <time>2021-08-11T08:33:55Z</time>
      </trkpt>
      <trkpt lat="44.4142" lon="6.75187">
        <ele>1301.4</ele>
        <time>2021-08-11T08:33:57Z</time>
      </trkpt>
      <trkpt lat="44.41417" lon="6.75184">
        <ele>1301.3</ele>
        <time>2021-08-11T08:33:59Z</time>
      </trkpt>
      <trkpt lat="44.41414" lon="6.75182">
        <ele>1301.14</ele>
        <time>2021-08-11T08:34:01Z</time>
      </trkpt>
      <trkpt lat="44.4141" lon="6.7518">
        <ele>1301.09</ele>
        <time>2021-08-11T08:34:03Z</time>
      </trkpt>
      <trkpt lat="44.41406" lon="6.75178">
        <ele>1301.08</ele>
        <time>2021-08-11T08:34:05Z</time>
      </trkpt>
      <trkpt lat="44.41403" lon="6.75176">
        <ele>1300.99</ele>
        <time>2021-08-11T08:34:07Z</time>
      </trkpt>
      <trkpt lat="44.414" lon="6.75174">
        <ele>1300.93</ele>
        <time>2021-08-11T08:34:09Z</time>
      </trkpt>
      <trkpt lat="44.41396" lon="6.75172">
        <ele>1301.03</ele>
        <time>2021-08-11T08:34:11Z</time>
      </trkpt>
      <trkpt lat="44.41392" lon="6.75169">
        <ele>1300.99</ele>
        <time>2021-08-11T08:34:13Z</time>
      </trkpt>
      <trkpt lat="44.41389" lon="6.75167">
        <ele>1301.04</ele>
        <time>2021-08-11T08:34:15Z</time>
      </trkpt>
      <trkpt lat="44.41385" lon="6.75165">
        <ele>1301.24</ele>
        <time>2021-08-11T08:34:17Z</time>
      </trkpt>
      <trkpt lat="44.41381" lon="6.75162">
        <ele>1301.2</ele>
        <time>2021-08-11T08:34:19Z</time>
      </trkpt>
      <trkpt lat="44.41378" lon="6.7516">
        <ele>1301.18</ele>
        <time>2021-08-11T08:34:21Z</time>
      </trkpt>
      <trkpt lat="44.41374" lon="6.75157">
        <ele>1301.03</ele>
        <time>2021-08-11T08:34:23Z</time>
      </trkpt>
      <trkpt lat="44.4137" lon="6.75155">
        <ele>1301.05</ele>
        <time>2021-08-11T08:34:25Z</time>
      </trkpt>
      <trkpt lat="44.41367" lon="6.75153">
        <ele>1300.92</ele>
        <time>2021-08-11T08:34:27Z</time>
      </trkpt>
      <trkpt lat="44.41363" lon="6.75151">
        <ele>1300.86</ele>
        <time>2021-08-11T08:34:29Z</time>
      </trkpt>
      <trkpt lat="44.41359" lon="6.75148">
        <ele>1300.7</ele>
        <time>2021-08-11T08:34:32Z</time>
      </trkpt>
      <trkpt lat="44.41356" lon="6.75146">
        <ele>1300.76</ele>
        <time>2021-08-11T08:34:33Z</time>
      </trkpt>
      <trkpt lat="44.41352" lon="6.75143">
        <ele>1300.72</ele>
        <time>2021-08-11T08:34:35Z</time>
      </trkpt>
      <trkpt lat="44.41348" lon="6.75141">
        <ele>1300.93</ele>
        <time>2021-08-11T08:34:37Z</time>
      </trkpt>
      <trkpt lat="44.41345" lon="6.75139">
        <ele>1300.93</ele>
        <time>2021-08-11T08:34:39Z</time>
      </trkpt>
      <trkpt lat="44.41341" lon="6.75136">
        <ele>1300.97</ele>
        <time>2021-08-11T08:34:41Z</time>
      </trkpt>
      <trkpt lat="44.41337" lon="6.75134">
        <ele>1301.26</ele>
        <time>2021-08-11T08:34:43Z</time>
      </trkpt>
      <trkpt lat="44.41334" lon="6.75132">
        <ele>1301.39</ele>
        <time>2021-08-11T08:34:45Z</time>
      </trkpt>
      <trkpt lat="44.4133" lon="6.75129">
        <ele>1301.38</ele>
        <time>2021-08-11T08:34:47Z</time>
      </trkpt>
      <trkpt lat="44.41327" lon="6.75127">
        <ele>1301.38</ele>
        <time>2021-08-11T08:34:49Z</time>
      </trkpt>
      <trkpt lat="44.41323" lon="6.75125">
        <ele>1301.49</ele>
        <time>2021-08-11T08:34:51Z</time>
      </trkpt>
      <trkpt lat="44.41319" lon="6.75122">
        <ele>1301.3</ele>
        <time>2021-08-11T08:34:53Z</time>
      </trkpt>
      <trkpt lat="44.41315" lon="6.7512">
        <ele>1301.32</ele>
        <time>2021-08-11T08:34:55Z</time>
      </trkpt>
      <trkpt lat="44.41311" lon="6.75118">
        <ele>1301.3</ele>
        <time>2021-08-11T08:34:57Z</time>
      </trkpt>
      <trkpt lat="44.41307" lon="6.75115">
        <ele>1300.95</ele>
        <time>2021-08-11T08:34:59Z</time>
      </trkpt>
      <trkpt lat="44.41304" lon="6.75113">
        <ele>1300.82</ele>
        <time>2021-08-11T08:35:01Z</time>
      </trkpt>
      <trkpt lat="44.413" lon="6.75111">
        <ele>1300.98</ele>
        <time>2021-08-11T08:35:03Z</time>
      </trkpt>
      <trkpt lat="44.41296" lon="6.75109">
        <ele>1301.42</ele>
        <time>2021-08-11T08:35:05Z</time>
      </trkpt>
      <trkpt lat="44.41292" lon="6.75107">
        <ele>1301.92</ele>
        <time>2021-08-11T08:35:07Z</time>
      </trkpt>
      <trkpt lat="44.41288" lon="6.75106">
        <ele>1302.59</ele>
        <time>2021-08-11T08:35:09Z</time>
      </trkpt>
      <trkpt lat="44.41284" lon="6.75106">
        <ele>1303.39</ele>
        <time>2021-08-11T08:35:11Z</time>
      </trkpt>
      <trkpt lat="44.4128" lon="6.75107">
        <ele>1304.27</ele>
        <time>2021-08-11T08:35:13Z</time>
      </trkpt>
      <trkpt lat="44.41276" lon="6.7511">
        <ele>1305.89</ele>
        <time>2021-08-11T08:35:15Z</time>
      </trkpt>
      <trkpt lat="44.41274" lon="6.75115">
        <ele>1307.75</ele>
        <time>2021-08-11T08:35:17Z</time>
      </trkpt>
      <trkpt lat="44.41273" lon="6.75121">
        <ele>1309.29</ele>
        <time>2021-08-11T08:35:19Z</time>
      </trkpt>
      <trkpt lat="44.41272" lon="6.75127">
        <ele>1310.72</ele>
        <time>2021-08-11T08:35:21Z</time>
      </trkpt>
      <trkpt lat="44.41273" lon="6.75132">
        <ele>1311.19</ele>
        <time>2021-08-11T08:35:23Z</time>
      </trkpt>
      <trkpt lat="44.41275" lon="6.75136">
        <ele>1311.25</ele>
        <time>2021-08-11T08:35:25Z</time>
      </trkpt>
      <trkpt lat="44.41278" lon="6.75139">
        <ele>1311</ele>
        <time>2021-08-11T08:35:28Z</time>
      </trkpt>
      <trkpt lat="44.41281" lon="6.75142">
        <ele>1311.36</ele>
        <time>2021-08-11T08:35:30Z</time>
      </trkpt>
      <trkpt lat="44.41284" lon="6.75143">
        <ele>1311.32</ele>
        <time>2021-08-11T08:35:32Z</time>
      </trkpt>
      <trkpt lat="44.41288" lon="6.75145">
        <ele>1311.46</ele>
        <time>2021-08-11T08:35:34Z</time>
      </trkpt>
      <trkpt lat="44.41292" lon="6.75146">
        <ele>1311.39</ele>
        <time>2021-08-11T08:35:36Z</time>
      </trkpt>
      <trkpt lat="44.41296" lon="6.75146">
        <ele>1311.07</ele>
        <time>2021-08-11T08:35:38Z</time>
      </trkpt>
      <trkpt lat="44.413" lon="6.75148">
        <ele>1311.36</ele>
        <time>2021-08-11T08:35:40Z</time>
      </trkpt>
      <trkpt lat="44.41304" lon="6.7515">
        <ele>1311.7</ele>
        <time>2021-08-11T08:35:42Z</time>
      </trkpt>
      <trkpt lat="44.41308" lon="6.75152">
        <ele>1311.77</ele>
        <time>2021-08-11T08:35:44Z</time>
      </trkpt>
      <trkpt lat="44.41311" lon="6.75154">
        <ele>1311.81</ele>
        <time>2021-08-11T08:35:46Z</time>
      </trkpt>
      <trkpt lat="44.41315" lon="6.75158">
        <ele>1312.26</ele>
        <time>2021-08-11T08:35:48Z</time>
      </trkpt>
      <trkpt lat="44.41318" lon="6.75161">
        <ele>1312.57</ele>
        <time>2021-08-11T08:35:50Z</time>
      </trkpt>
      <trkpt lat="44.41321" lon="6.75166">
        <ele>1313.46</ele>
        <time>2021-08-11T08:35:52Z</time>
      </trkpt>
      <trkpt lat="44.41323" lon="6.7517">
        <ele>1313.98</ele>
        <time>2021-08-11T08:35:54Z</time>
      </trkpt>
      <trkpt lat="44.41325" lon="6.75175">
        <ele>1314.72</ele>
        <time>2021-08-11T08:35:56Z</time>
      </trkpt>
      <trkpt lat="44.41327" lon="6.7518">
        <ele>1315.51</ele>
        <time>2021-08-11T08:35:58Z</time>
      </trkpt>
      <trkpt lat="44.41328" lon="6.75185">
        <ele>1316.52</ele>
        <time>2021-08-11T08:36:00Z</time>
      </trkpt>
      <trkpt lat="44.41329" lon="6.75191">
        <ele>1317.79</ele>
        <time>2021-08-11T08:36:02Z</time>
      </trkpt>
      <trkpt lat="44.4133" lon="6.75197">
        <ele>1318.76</ele>
        <time>2021-08-11T08:36:04Z</time>
      </trkpt>
      <trkpt lat="44.41331" lon="6.75202">
        <ele>1319.15</ele>
        <time>2021-08-11T08:36:06Z</time>
      </trkpt>
      <trkpt lat="44.41331" lon="6.75208">
        <ele>1319.8</ele>
        <time>2021-08-11T08:36:08Z</time>
      </trkpt>
      <trkpt lat="44.41332" lon="6.75213">
        <ele>1320.2</ele>
        <time>2021-08-11T08:36:10Z</time>
      </trkpt>
      <trkpt lat="44.41332" lon="6.75219">
        <ele>1320.84</ele>
        <time>2021-08-11T08:36:12Z</time>
      </trkpt>
      <trkpt lat="44.41333" lon="6.75225">
        <ele>1321.55</ele>
        <time>2021-08-11T08:36:14Z</time>
      </trkpt>
      <trkpt lat="44.41334" lon="6.7523">
        <ele>1322.36</ele>
        <time>2021-08-11T08:36:16Z</time>
      </trkpt>
      <trkpt lat="44.41335" lon="6.75236">
        <ele>1323.36</ele>
        <time>2021-08-11T08:36:18Z</time>
      </trkpt>
      <trkpt lat="44.41337" lon="6.75241">
        <ele>1324.07</ele>
        <time>2021-08-11T08:36:20Z</time>
      </trkpt>
      <trkpt lat="44.41338" lon="6.75246">
        <ele>1324.82</ele>
        <time>2021-08-11T08:36:22Z</time>
      </trkpt>
      <trkpt lat="44.41339" lon="6.75251">
        <ele>1325.5</ele>
        <time>2021-08-11T08:36:24Z</time>
      </trkpt>
      <trkpt lat="44.41341" lon="6.75257">
        <ele>1325.93</ele>
        <time>2021-08-11T08:36:26Z</time>
      </trkpt>
      <trkpt lat="44.41343" lon="6.75262">
        <ele>1326.25</ele>
        <time>2021-08-11T08:36:28Z</time>
      </trkpt>
      <trkpt lat="44.41345" lon="6.75267">
        <ele>1326.58</ele>
        <time>2021-08-11T08:36:30Z</time>
      </trkpt>
      <trkpt lat="44.41347" lon="6.75272">
        <ele>1326.9</ele>
        <time>2021-08-11T08:36:32Z</time>
      </trkpt>
      <trkpt lat="44.41349" lon="6.75276">
        <ele>1327.12</ele>
        <time>2021-08-11T08:36:34Z</time>
      </trkpt>
      <trkpt lat="44.41351" lon="6.75281">
        <ele>1327.25</ele>
        <time>2021-08-11T08:36:36Z</time>
      </trkpt>
      <trkpt lat="44.41353" lon="6.75286">
        <ele>1327.26</ele>
        <time>2021-08-11T08:36:38Z</time>
      </trkpt>
      <trkpt lat="44.41355" lon="6.7529">
        <ele>1327.2</ele>
        <time>2021-08-11T08:36:40Z</time>
      </trkpt>
      <trkpt lat="44.41357" lon="6.75295">
        <ele>1327.16</ele>
        <time>2021-08-11T08:36:42Z</time>
      </trkpt>
      <trkpt lat="44.41358" lon="6.753">
        <ele>1327.23</ele>
        <time>2021-08-11T08:36:44Z</time>
      </trkpt>
      <trkpt lat="44.4136" lon="6.75305">
        <ele>1327.14</ele>
        <time>2021-08-11T08:36:46Z</time>
      </trkpt>
      <trkpt lat="44.41361" lon="6.75311">
        <ele>1327.6</ele>
        <time>2021-08-11T08:36:48Z</time>
      </trkpt>
      <trkpt lat="44.41361" lon="6.75316">
        <ele>1328.14</ele>
        <time>2021-08-11T08:36:50Z</time>
      </trkpt>
      <trkpt lat="44.41361" lon="6.75321">
        <ele>1328.68</ele>
        <time>2021-08-11T08:36:53Z</time>
      </trkpt>
      <trkpt lat="44.41362" lon="6.75325">
        <ele>1328.96</ele>
        <time>2021-08-11T08:36:53Z</time>
      </trkpt>
      <trkpt lat="44.41362" lon="6.75331">
        <ele>1329.62</ele>
        <time>2021-08-11T08:36:55Z</time>
      </trkpt>
      <trkpt lat="44.41362" lon="6.75336">
        <ele>1330.16</ele>
        <time>2021-08-11T08:36:57Z</time>
      </trkpt>
      <trkpt lat="44.41362" lon="6.75342">
        <ele>1330.81</ele>
        <time>2021-08-11T08:36:59Z</time>
      </trkpt>
      <trkpt lat="44.41362" lon="6.75348">
        <ele>1331.46</ele>
        <time>2021-08-11T08:37:01Z</time>
      </trkpt>
      <trkpt lat="44.41362" lon="6.75352">
        <ele>1331.89</ele>
        <time>2021-08-11T08:37:03Z</time>
      </trkpt>
      <trkpt lat="44.41362" lon="6.75356">
        <ele>1332.32</ele>
        <time>2021-08-11T08:37:04Z</time>
      </trkpt>
      <trkpt lat="44.41362" lon="6.75362">
        <ele>1332.97</ele>
        <time>2021-08-11T08:37:06Z</time>
      </trkpt>
      <trkpt lat="44.41362" lon="6.75368">
        <ele>1333.6</ele>
        <time>2021-08-11T08:37:08Z</time>
      </trkpt>
      <trkpt lat="44.41362" lon="6.75374">
        <ele>1334.23</ele>
        <time>2021-08-11T08:37:10Z</time>
      </trkpt>
      <trkpt lat="44.41363" lon="6.75381">
        <ele>1334.78</ele>
        <time>2021-08-11T08:37:13Z</time>
      </trkpt>
      <trkpt lat="44.41364" lon="6.75386">
        <ele>1335.09</ele>
        <time>2021-08-11T08:37:14Z</time>
      </trkpt>
      <trkpt lat="44.41363" lon="6.75391">
        <ele>1335.73</ele>
        <time>2021-08-11T08:37:16Z</time>
      </trkpt>
      <trkpt lat="44.41362" lon="6.75397">
        <ele>1336.37</ele>
        <time>2021-08-11T08:37:18Z</time>
      </trkpt>
      <trkpt lat="44.41361" lon="6.75402">
        <ele>1336.95</ele>
        <time>2021-08-11T08:37:20Z</time>
      </trkpt>
      <trkpt lat="44.41357" lon="6.75405">
        <ele>1337.54</ele>
        <time>2021-08-11T08:37:23Z</time>
      </trkpt>
      <trkpt lat="44.41353" lon="6.75406">
        <ele>1338</ele>
        <time>2021-08-11T08:37:24Z</time>
      </trkpt>
      <trkpt lat="44.4135" lon="6.75405">
        <ele>1338.19</ele>
        <time>2021-08-11T08:37:26Z</time>
      </trkpt>
      <trkpt lat="44.41347" lon="6.75403">
        <ele>1338.29</ele>
        <time>2021-08-11T08:37:28Z</time>
      </trkpt>
      <trkpt lat="44.41345" lon="6.754">
        <ele>1338.19</ele>
        <time>2021-08-11T08:37:29Z</time>
      </trkpt>
      <trkpt lat="44.41343" lon="6.75395">
        <ele>1337.89</ele>
        <time>2021-08-11T08:37:31Z</time>
      </trkpt>
      <trkpt lat="44.41341" lon="6.7539">
        <ele>1337.56</ele>
        <time>2021-08-11T08:37:33Z</time>
      </trkpt>
      <trkpt lat="44.41339" lon="6.75386">
        <ele>1337.2</ele>
        <time>2021-08-11T08:37:35Z</time>
      </trkpt>
      <trkpt lat="44.41337" lon="6.75381">
        <ele>1336.64</ele>
        <time>2021-08-11T08:37:38Z</time>
      </trkpt>
      <trkpt lat="44.41335" lon="6.75378">
        <ele>1336.34</ele>
        <time>2021-08-11T08:37:39Z</time>
      </trkpt>
      <trkpt lat="44.41333" lon="6.75373">
        <ele>1335.82</ele>
        <time>2021-08-11T08:37:41Z</time>
      </trkpt>
      <trkpt lat="44.41331" lon="6.75369">
        <ele>1335.93</ele>
        <time>2021-08-11T08:37:43Z</time>
      </trkpt>
      <trkpt lat="44.4133" lon="6.75366">
        <ele>1335.86</ele>
        <time>2021-08-11T08:37:44Z</time>
      </trkpt>
      <trkpt lat="44.41327" lon="6.75362">
        <ele>1336.39</ele>
        <time>2021-08-11T08:37:46Z</time>
      </trkpt>
      <trkpt lat="44.41325" lon="6.75359">
        <ele>1336.87</ele>
        <time>2021-08-11T08:37:48Z</time>
      </trkpt>
      <trkpt lat="44.41322" lon="6.75354">
        <ele>1337.67</ele>
        <time>2021-08-11T08:37:50Z</time>
      </trkpt>
      <trkpt lat="44.41319" lon="6.75349">
        <ele>1338.51</ele>
        <time>2021-08-11T08:37:53Z</time>
      </trkpt>
      <trkpt lat="44.41317" lon="6.75346">
        <ele>1339.11</ele>
        <time>2021-08-11T08:37:54Z</time>
      </trkpt>
      <trkpt lat="44.41314" lon="6.75341">
        <ele>1340.02</ele>
        <time>2021-08-11T08:37:56Z</time>
      </trkpt>
      <trkpt lat="44.41311" lon="6.75338">
        <ele>1341.04</ele>
        <time>2021-08-11T08:37:58Z</time>
      </trkpt>
      <trkpt lat="44.41308" lon="6.75333">
        <ele>1342.01</ele>
        <time>2021-08-11T08:38:00Z</time>
      </trkpt>
      <trkpt lat="44.41305" lon="6.75328">
        <ele>1342.84</ele>
        <time>2021-08-11T08:38:03Z</time>
      </trkpt>
      <trkpt lat="44.41303" lon="6.75324">
        <ele>1343.34</ele>
        <time>2021-08-11T08:38:04Z</time>
      </trkpt>
      <trkpt lat="44.413" lon="6.7532">
        <ele>1344.15</ele>
        <time>2021-08-11T08:38:06Z</time>
      </trkpt>
      <trkpt lat="44.41297" lon="6.75316">
        <ele>1344.87</ele>
        <time>2021-08-11T08:38:08Z</time>
      </trkpt>
      <trkpt lat="44.41295" lon="6.75313">
        <ele>1345.26</ele>
        <time>2021-08-11T08:38:09Z</time>
      </trkpt>
      <trkpt lat="44.41292" lon="6.75309">
        <ele>1345.82</ele>
        <time>2021-08-11T08:38:11Z</time>
      </trkpt>
      <trkpt lat="44.41289" lon="6.75305">
        <ele>1346.25</ele>
        <time>2021-08-11T08:38:13Z</time>
      </trkpt>
      <trkpt lat="44.41286" lon="6.753">
        <ele>1346.11</ele>
        <time>2021-08-11T08:38:15Z</time>
      </trkpt>
      <trkpt lat="44.41284" lon="6.75296">
        <ele>1345.81</ele>
        <time>2021-08-11T08:38:17Z</time>
      </trkpt>
      <trkpt lat="44.41281" lon="6.75292">
        <ele>1345.71</ele>
        <time>2021-08-11T08:38:19Z</time>
      </trkpt>
      <trkpt lat="44.41278" lon="6.75288">
        <ele>1345.52</ele>
        <time>2021-08-11T08:38:21Z</time>
      </trkpt>
      <trkpt lat="44.41275" lon="6.75284">
        <ele>1345.21</ele>
        <time>2021-08-11T08:38:23Z</time>
      </trkpt>
      <trkpt lat="44.41272" lon="6.7528">
        <ele>1344.84</ele>
        <time>2021-08-11T08:38:25Z</time>
      </trkpt>
      <trkpt lat="44.41269" lon="6.75276">
        <ele>1344.32</ele>
        <time>2021-08-11T08:38:27Z</time>
      </trkpt>
      <trkpt lat="44.41265" lon="6.75273">
        <ele>1344.15</ele>
        <time>2021-08-11T08:38:29Z</time>
      </trkpt>
      <trkpt lat="44.41262" lon="6.75271">
        <ele>1344.04</ele>
        <time>2021-08-11T08:38:31Z</time>
      </trkpt>
      <trkpt lat="44.41258" lon="6.75269">
        <ele>1344.07</ele>
        <time>2021-08-11T08:38:33Z</time>
      </trkpt>
      <trkpt lat="44.41254" lon="6.75268">
        <ele>1344.42</ele>
        <time>2021-08-11T08:38:35Z</time>
      </trkpt>
      <trkpt lat="44.4125" lon="6.75268">
        <ele>1345.13</ele>
        <time>2021-08-11T08:38:37Z</time>
      </trkpt>
      <trkpt lat="44.41246" lon="6.7527">
        <ele>1347.15</ele>
        <time>2021-08-11T08:38:39Z</time>
      </trkpt>
      <trkpt lat="44.41244" lon="6.75272">
        <ele>1348.53</ele>
        <time>2021-08-11T08:38:41Z</time>
      </trkpt>
      <trkpt lat="44.41241" lon="6.75276">
        <ele>1350.93</ele>
        <time>2021-08-11T08:38:43Z</time>
      </trkpt>
      <trkpt lat="44.41238" lon="6.7528">
        <ele>1353.18</ele>
        <time>2021-08-11T08:38:45Z</time>
      </trkpt>
      <trkpt lat="44.41237" lon="6.75285">
        <ele>1355.08</ele>
        <time>2021-08-11T08:38:47Z</time>
      </trkpt>
      <trkpt lat="44.41236" lon="6.7529">
        <ele>1356.99</ele>
        <time>2021-08-11T08:38:49Z</time>
      </trkpt>
      <trkpt lat="44.41236" lon="6.75296">
        <ele>1358.94</ele>
        <time>2021-08-11T08:38:51Z</time>
      </trkpt>
      <trkpt lat="44.41237" lon="6.75301">
        <ele>1360.27</ele>
        <time>2021-08-11T08:38:53Z</time>
      </trkpt>
      <trkpt lat="44.41238" lon="6.75305">
        <ele>1361.28</ele>
        <time>2021-08-11T08:38:55Z</time>
      </trkpt>
      <trkpt lat="44.4124" lon="6.7531">
        <ele>1361.62</ele>
        <time>2021-08-11T08:38:57Z</time>
      </trkpt>
      <trkpt lat="44.41243" lon="6.75315">
        <ele>1361.63</ele>
        <time>2021-08-11T08:38:59Z</time>
      </trkpt>
      <trkpt lat="44.41246" lon="6.7532">
        <ele>1361.68</ele>
        <time>2021-08-11T08:39:01Z</time>
      </trkpt>
      <trkpt lat="44.41248" lon="6.75324">
        <ele>1361.85</ele>
        <time>2021-08-11T08:39:03Z</time>
      </trkpt>
      <trkpt lat="44.41251" lon="6.75329">
        <ele>1361.93</ele>
        <time>2021-08-11T08:39:05Z</time>
      </trkpt>
      <trkpt lat="44.41254" lon="6.75333">
        <ele>1361.79</ele>
        <time>2021-08-11T08:39:07Z</time>
      </trkpt>
      <trkpt lat="44.41256" lon="6.75338">
        <ele>1361.61</ele>
        <time>2021-08-11T08:39:09Z</time>
      </trkpt>
      <trkpt lat="44.41259" lon="6.75342">
        <ele>1361.03</ele>
        <time>2021-08-11T08:39:11Z</time>
      </trkpt>
      <trkpt lat="44.41261" lon="6.75347">
        <ele>1360.82</ele>
        <time>2021-08-11T08:39:13Z</time>
      </trkpt>
      <trkpt lat="44.41263" lon="6.75352">
        <ele>1360.6</ele>
        <time>2021-08-11T08:39:15Z</time>
      </trkpt>
      <trkpt lat="44.41266" lon="6.75357">
        <ele>1360.1</ele>
        <time>2021-08-11T08:39:17Z</time>
      </trkpt>
      <trkpt lat="44.41268" lon="6.75362">
        <ele>1359.83</ele>
        <time>2021-08-11T08:39:19Z</time>
      </trkpt>
      <trkpt lat="44.4127" lon="6.75367">
        <ele>1359.3</ele>
        <time>2021-08-11T08:39:21Z</time>
      </trkpt>
      <trkpt lat="44.41271" lon="6.75372">
        <ele>1359.05</ele>
        <time>2021-08-11T08:39:23Z</time>
      </trkpt>
      <trkpt lat="44.41273" lon="6.75378">
        <ele>1358.48</ele>
        <time>2021-08-11T08:39:25Z</time>
      </trkpt>
      <trkpt lat="44.41275" lon="6.75383">
        <ele>1357.88</ele>
        <time>2021-08-11T08:39:27Z</time>
      </trkpt>
      <trkpt lat="44.41277" lon="6.75389">
        <ele>1357.26</ele>
        <time>2021-08-11T08:39:29Z</time>
      </trkpt>
      <trkpt lat="44.41278" lon="6.75394">
        <ele>1357.46</ele>
        <time>2021-08-11T08:39:31Z</time>
      </trkpt>
      <trkpt lat="44.4128" lon="6.754">
        <ele>1357.32</ele>
        <time>2021-08-11T08:39:33Z</time>
      </trkpt>
      <trkpt lat="44.41282" lon="6.75404">
        <ele>1356.96</ele>
        <time>2021-08-11T08:39:35Z</time>
      </trkpt>
      <trkpt lat="44.41283" lon="6.7541">
        <ele>1357.21</ele>
        <time>2021-08-11T08:39:37Z</time>
      </trkpt>
      <trkpt lat="44.41284" lon="6.75414">
        <ele>1357.25</ele>
        <time>2021-08-11T08:39:38Z</time>
      </trkpt>
      <trkpt lat="44.41285" lon="6.75418">
        <ele>1357.21</ele>
        <time>2021-08-11T08:39:40Z</time>
      </trkpt>
      <trkpt lat="44.41287" lon="6.75423">
        <ele>1356.73</ele>
        <time>2021-08-11T08:39:42Z</time>
      </trkpt>
      <trkpt lat="44.41289" lon="6.75429">
        <ele>1356.36</ele>
        <time>2021-08-11T08:39:44Z</time>
      </trkpt>
      <trkpt lat="44.41291" lon="6.75434">
        <ele>1355.98</ele>
        <time>2021-08-11T08:39:46Z</time>
      </trkpt>
      <trkpt lat="44.41292" lon="6.7544">
        <ele>1356.07</ele>
        <time>2021-08-11T08:39:48Z</time>
      </trkpt>
      <trkpt lat="44.41294" lon="6.75444">
        <ele>1355.71</ele>
        <time>2021-08-11T08:39:50Z</time>
      </trkpt>
      <trkpt lat="44.41295" lon="6.75449">
        <ele>1355.87</ele>
        <time>2021-08-11T08:39:52Z</time>
      </trkpt>
      <trkpt lat="44.41297" lon="6.75454">
        <ele>1355.67</ele>
        <time>2021-08-11T08:39:54Z</time>
      </trkpt>
      <trkpt lat="44.41298" lon="6.75459">
        <ele>1355.78</ele>
        <time>2021-08-11T08:39:56Z</time>
      </trkpt>
      <trkpt lat="44.413" lon="6.75465">
        <ele>1355.58</ele>
        <time>2021-08-11T08:39:58Z</time>
      </trkpt>
      <trkpt lat="44.41301" lon="6.7547">
        <ele>1355.62</ele>
        <time>2021-08-11T08:40:00Z</time>
      </trkpt>
      <trkpt lat="44.41303" lon="6.75475">
        <ele>1355.11</ele>
        <time>2021-08-11T08:40:02Z</time>
      </trkpt>
      <trkpt lat="44.41304" lon="6.75481">
        <ele>1354.93</ele>
        <time>2021-08-11T08:40:04Z</time>
      </trkpt>
      <trkpt lat="44.41305" lon="6.75487">
        <ele>1354.75</ele>
        <time>2021-08-11T08:40:06Z</time>
      </trkpt>
      <trkpt lat="44.41306" lon="6.75492">
        <ele>1354.57</ele>
        <time>2021-08-11T08:40:08Z</time>
      </trkpt>
      <trkpt lat="44.41307" lon="6.75498">
        <ele>1354.46</ele>
        <time>2021-08-11T08:40:10Z</time>
      </trkpt>
      <trkpt lat="44.41307" lon="6.75505">
        <ele>1354.72</ele>
        <time>2021-08-11T08:40:12Z</time>
      </trkpt>
      <trkpt lat="44.41307" lon="6.7551">
        <ele>1354.91</ele>
        <time>2021-08-11T08:40:14Z</time>
      </trkpt>
      <trkpt lat="44.41306" lon="6.75516">
        <ele>1355.44</ele>
        <time>2021-08-11T08:40:16Z</time>
      </trkpt>
      <trkpt lat="44.41305" lon="6.75522">
        <ele>1356</ele>
        <time>2021-08-11T08:40:18Z</time>
      </trkpt>
      <trkpt lat="44.41304" lon="6.75528">
        <ele>1356.57</ele>
        <time>2021-08-11T08:40:20Z</time>
      </trkpt>
      <trkpt lat="44.41302" lon="6.75533">
        <ele>1357.54</ele>
        <time>2021-08-11T08:40:22Z</time>
      </trkpt>
      <trkpt lat="44.41301" lon="6.75538">
        <ele>1358.07</ele>
        <time>2021-08-11T08:40:24Z</time>
      </trkpt>
      <trkpt lat="44.413" lon="6.75542">
        <ele>1358.51</ele>
        <time>2021-08-11T08:40:56Z</time>
      </trkpt>
      <trkpt lat="44.41299" lon="6.75547">
        <ele>1358.93</ele>
        <time>2021-08-11T08:40:58Z</time>
      </trkpt>
      <trkpt lat="44.41297" lon="6.75551">
        <ele>1359.46</ele>
        <time>2021-08-11T08:41:00Z</time>
      </trkpt>
      <trkpt lat="44.41296" lon="6.75556">
        <ele>1359.75</ele>
        <time>2021-08-11T08:41:02Z</time>
      </trkpt>
      <trkpt lat="44.41294" lon="6.75561">
        <ele>1360.39</ele>
        <time>2021-08-11T08:41:04Z</time>
      </trkpt>
      <trkpt lat="44.41292" lon="6.75566">
        <ele>1361.01</ele>
        <time>2021-08-11T08:41:06Z</time>
      </trkpt>
      <trkpt lat="44.4129" lon="6.75572">
        <ele>1361.65</ele>
        <time>2021-08-11T08:41:08Z</time>
      </trkpt>
      <trkpt lat="44.41288" lon="6.75575">
        <ele>1362.12</ele>
        <time>2021-08-11T08:41:10Z</time>
      </trkpt>
      <trkpt lat="44.41286" lon="6.7558">
        <ele>1362.66</ele>
        <time>2021-08-11T08:41:12Z</time>
      </trkpt>
      <trkpt lat="44.41284" lon="6.75582">
        <ele>1363.05</ele>
        <time>2021-08-11T08:41:13Z</time>
      </trkpt>
      <trkpt lat="44.41281" lon="6.75585">
        <ele>1363.61</ele>
        <time>2021-08-11T08:41:15Z</time>
      </trkpt>
      <trkpt lat="44.41277" lon="6.75586">
        <ele>1364.15</ele>
        <time>2021-08-11T08:41:17Z</time>
      </trkpt>
      <trkpt lat="44.41274" lon="6.75586">
        <ele>1364.35</ele>
        <time>2021-08-11T08:41:18Z</time>
      </trkpt>
      <trkpt lat="44.41271" lon="6.75585">
        <ele>1364.53</ele>
        <time>2021-08-11T08:41:20Z</time>
      </trkpt>
      <trkpt lat="44.41267" lon="6.75581">
        <ele>1364.82</ele>
        <time>2021-08-11T08:41:22Z</time>
      </trkpt>
      <trkpt lat="44.41265" lon="6.75577">
        <ele>1365.11</ele>
        <time>2021-08-11T08:41:24Z</time>
      </trkpt>
      <trkpt lat="44.41264" lon="6.75571">
        <ele>1365.43</ele>
        <time>2021-08-11T08:41:26Z</time>
      </trkpt>
      <trkpt lat="44.41264" lon="6.75565">
        <ele>1365.64</ele>
        <time>2021-08-11T08:41:28Z</time>
      </trkpt>
      <trkpt lat="44.41265" lon="6.7556">
        <ele>1365.63</ele>
        <time>2021-08-11T08:41:30Z</time>
      </trkpt>
      <trkpt lat="44.41266" lon="6.75554">
        <ele>1365.74</ele>
        <time>2021-08-11T08:41:32Z</time>
      </trkpt>
      <trkpt lat="44.41268" lon="6.75549">
        <ele>1365.9</ele>
        <time>2021-08-11T08:41:34Z</time>
      </trkpt>
      <trkpt lat="44.41269" lon="6.75544">
        <ele>1366.28</ele>
        <time>2021-08-11T08:41:36Z</time>
      </trkpt>
      <trkpt lat="44.4127" lon="6.75538">
        <ele>1366.75</ele>
        <time>2021-08-11T08:41:38Z</time>
      </trkpt>
      <trkpt lat="44.41271" lon="6.75533">
        <ele>1367.1</ele>
        <time>2021-08-11T08:41:40Z</time>
      </trkpt>
      <trkpt lat="44.41273" lon="6.75527">
        <ele>1367.21</ele>
        <time>2021-08-11T08:41:42Z</time>
      </trkpt>
      <trkpt lat="44.41273" lon="6.75522">
        <ele>1367.28</ele>
        <time>2021-08-11T08:41:44Z</time>
      </trkpt>
      <trkpt lat="44.41274" lon="6.75516">
        <ele>1367.07</ele>
        <time>2021-08-11T08:41:46Z</time>
      </trkpt>
      <trkpt lat="44.41273" lon="6.7551">
        <ele>1367.42</ele>
        <time>2021-08-11T08:41:48Z</time>
      </trkpt>
      <trkpt lat="44.41272" lon="6.75504">
        <ele>1367.81</ele>
        <time>2021-08-11T08:41:50Z</time>
      </trkpt>
      <trkpt lat="44.41272" lon="6.75498">
        <ele>1367.8</ele>
        <time>2021-08-11T08:41:52Z</time>
      </trkpt>
      <trkpt lat="44.41271" lon="6.75493">
        <ele>1367.94</ele>
        <time>2021-08-11T08:41:54Z</time>
      </trkpt>
      <trkpt lat="44.41269" lon="6.75488">
        <ele>1368.41</ele>
        <time>2021-08-11T08:41:56Z</time>
      </trkpt>
      <trkpt lat="44.41268" lon="6.75482">
        <ele>1368.52</ele>
        <time>2021-08-11T08:41:58Z</time>
      </trkpt>
      <trkpt lat="44.41266" lon="6.75478">
        <ele>1369.02</ele>
        <time>2021-08-11T08:42:00Z</time>
      </trkpt>
      <trkpt lat="44.41264" lon="6.75473">
        <ele>1369.49</ele>
        <time>2021-08-11T08:42:02Z</time>
      </trkpt>
      <trkpt lat="44.41261" lon="6.75468">
        <ele>1369.83</ele>
        <time>2021-08-11T08:42:04Z</time>
      </trkpt>
      <trkpt lat="44.41258" lon="6.75464">
        <ele>1370.22</ele>
        <time>2021-08-11T08:42:06Z</time>
      </trkpt>
      <trkpt lat="44.41256" lon="6.75459">
        <ele>1370.15</ele>
        <time>2021-08-11T08:42:08Z</time>
      </trkpt>
      <trkpt lat="44.41253" lon="6.75455">
        <ele>1370.55</ele>
        <time>2021-08-11T08:42:10Z</time>
      </trkpt>
      <trkpt lat="44.4125" lon="6.75451">
        <ele>1370.94</ele>
        <time>2021-08-11T08:42:12Z</time>
      </trkpt>
      <trkpt lat="44.41247" lon="6.75447">
        <ele>1370.89</ele>
        <time>2021-08-11T08:42:14Z</time>
      </trkpt>
      <trkpt lat="44.41245" lon="6.75443">
        <ele>1370.77</ele>
        <time>2021-08-11T08:42:16Z</time>
      </trkpt>
      <trkpt lat="44.41242" lon="6.75439">
        <ele>1371.02</ele>
        <time>2021-08-11T08:42:18Z</time>
      </trkpt>
      <trkpt lat="44.41239" lon="6.75435">
        <ele>1371.36</ele>
        <time>2021-08-11T08:42:20Z</time>
      </trkpt>
      <trkpt lat="44.41236" lon="6.75431">
        <ele>1371.8</ele>
        <time>2021-08-11T08:42:22Z</time>
      </trkpt>
      <trkpt lat="44.41233" lon="6.75428">
        <ele>1372.37</ele>
        <time>2021-08-11T08:42:24Z</time>
      </trkpt>
      <trkpt lat="44.4123" lon="6.75423">
        <ele>1372.95</ele>
        <time>2021-08-11T08:42:26Z</time>
      </trkpt>
      <trkpt lat="44.41227" lon="6.75419">
        <ele>1373.67</ele>
        <time>2021-08-11T08:42:28Z</time>
      </trkpt>
      <trkpt lat="44.41225" lon="6.75416">
        <ele>1374.15</ele>
        <time>2021-08-11T08:42:30Z</time>
      </trkpt>
      <trkpt lat="44.41222" lon="6.75412">
        <ele>1374.72</ele>
        <time>2021-08-11T08:42:32Z</time>
      </trkpt>
      <trkpt lat="44.41219" lon="6.75408">
        <ele>1375.22</ele>
        <time>2021-08-11T08:42:34Z</time>
      </trkpt>
      <trkpt lat="44.41216" lon="6.75404">
        <ele>1375.84</ele>
        <time>2021-08-11T08:42:36Z</time>
      </trkpt>
      <trkpt lat="44.41213" lon="6.754">
        <ele>1376.59</ele>
        <time>2021-08-11T08:42:38Z</time>
      </trkpt>
      <trkpt lat="44.4121" lon="6.75396">
        <ele>1377.46</ele>
        <time>2021-08-11T08:42:40Z</time>
      </trkpt>
      <trkpt lat="44.41208" lon="6.75392">
        <ele>1378.11</ele>
        <time>2021-08-11T08:42:42Z</time>
      </trkpt>
      <trkpt lat="44.41205" lon="6.75388">
        <ele>1379.21</ele>
        <time>2021-08-11T08:42:44Z</time>
      </trkpt>
      <trkpt lat="44.41202" lon="6.75384">
        <ele>1380.36</ele>
        <time>2021-08-11T08:42:46Z</time>
      </trkpt>
      <trkpt lat="44.41199" lon="6.7538">
        <ele>1381.58</ele>
        <time>2021-08-11T08:42:48Z</time>
      </trkpt>
      <trkpt lat="44.41196" lon="6.75376">
        <ele>1382.85</ele>
        <time>2021-08-11T08:42:50Z</time>
      </trkpt>
      <trkpt lat="44.41193" lon="6.75372">
        <ele>1383.97</ele>
        <time>2021-08-11T08:42:52Z</time>
      </trkpt>
      <trkpt lat="44.4119" lon="6.75369">
        <ele>1384.84</ele>
        <time>2021-08-11T08:42:54Z</time>
      </trkpt>
      <trkpt lat="44.41187" lon="6.75365">
        <ele>1385.74</ele>
        <time>2021-08-11T08:42:56Z</time>
      </trkpt>
      <trkpt lat="44.41184" lon="6.75361">
        <ele>1386.62</ele>
        <time>2021-08-11T08:42:58Z</time>
      </trkpt>
      <trkpt lat="44.41181" lon="6.75357">
        <ele>1387.09</ele>
        <time>2021-08-11T08:43:00Z</time>
      </trkpt>
      <trkpt lat="44.41178" lon="6.75353">
        <ele>1387.61</ele>
        <time>2021-08-11T08:43:02Z</time>
      </trkpt>
      <trkpt lat="44.41175" lon="6.75349">
        <ele>1388.2</ele>
        <time>2021-08-11T08:43:04Z</time>
      </trkpt>
      <trkpt lat="44.41172" lon="6.75345">
        <ele>1388.85</ele>
        <time>2021-08-11T08:43:06Z</time>
      </trkpt>
      <trkpt lat="44.41169" lon="6.75341">
        <ele>1389.57</ele>
        <time>2021-08-11T08:43:08Z</time>
      </trkpt>
      <trkpt lat="44.41166" lon="6.75336">
        <ele>1390.1</ele>
        <time>2021-08-11T08:43:11Z</time>
      </trkpt>
      <trkpt lat="44.41164" lon="6.75333">
        <ele>1389.96</ele>
        <time>2021-08-11T08:43:12Z</time>
      </trkpt>
      <trkpt lat="44.41161" lon="6.75329">
        <ele>1389.5</ele>
        <time>2021-08-11T08:43:14Z</time>
      </trkpt>
      <trkpt lat="44.41158" lon="6.75325">
        <ele>1389.17</ele>
        <time>2021-08-11T08:43:16Z</time>
      </trkpt>
      <trkpt lat="44.41155" lon="6.75321">
        <ele>1388.97</ele>
        <time>2021-08-11T08:43:18Z</time>
      </trkpt>
      <trkpt lat="44.41152" lon="6.75318">
        <ele>1388.96</ele>
        <time>2021-08-11T08:43:20Z</time>
      </trkpt>
      <trkpt lat="44.41149" lon="6.75314">
        <ele>1388.99</ele>
        <time>2021-08-11T08:43:22Z</time>
      </trkpt>
      <trkpt lat="44.41147" lon="6.7531">
        <ele>1389.02</ele>
        <time>2021-08-11T08:43:24Z</time>
      </trkpt>
      <trkpt lat="44.41143" lon="6.75306">
        <ele>1389.42</ele>
        <time>2021-08-11T08:43:26Z</time>
      </trkpt>
      <trkpt lat="44.41141" lon="6.75303">
        <ele>1389.59</ele>
        <time>2021-08-11T08:43:28Z</time>
      </trkpt>
      <trkpt lat="44.41138" lon="6.75299">
        <ele>1389.77</ele>
        <time>2021-08-11T08:43:30Z</time>
      </trkpt>
      <trkpt lat="44.41135" lon="6.75296">
        <ele>1389.7</ele>
        <time>2021-08-11T08:43:32Z</time>
      </trkpt>
      <trkpt lat="44.41133" lon="6.75292">
        <ele>1389.62</ele>
        <time>2021-08-11T08:43:34Z</time>
      </trkpt>
      <trkpt lat="44.41131" lon="6.75288">
        <ele>1389.55</ele>
        <time>2021-08-11T08:43:36Z</time>
      </trkpt>
      <trkpt lat="44.41129" lon="6.75284">
        <ele>1389.5</ele>
        <time>2021-08-11T08:43:38Z</time>
      </trkpt>
      <trkpt lat="44.41127" lon="6.7528">
        <ele>1389.47</ele>
        <time>2021-08-11T08:43:40Z</time>
      </trkpt>
      <trkpt lat="44.41126" lon="6.75275">
        <ele>1389.46</ele>
        <time>2021-08-11T08:43:42Z</time>
      </trkpt>
      <trkpt lat="44.41125" lon="6.75271">
        <ele>1389.5</ele>
        <time>2021-08-11T08:43:44Z</time>
      </trkpt>
      <trkpt lat="44.41125" lon="6.75266">
        <ele>1389.5</ele>
        <time>2021-08-11T08:43:46Z</time>
      </trkpt>
      <trkpt lat="44.41125" lon="6.75261">
        <ele>1389.5</ele>
        <time>2021-08-11T08:43:48Z</time>
      </trkpt>
      <trkpt lat="44.41125" lon="6.75256">
        <ele>1389.5</ele>
        <time>2021-08-11T08:43:50Z</time>
      </trkpt>
      <trkpt lat="44.41125" lon="6.75251">
        <ele>1389.5</ele>
        <time>2021-08-11T08:43:52Z</time>
      </trkpt>
      <trkpt lat="44.41125" lon="6.75246">
        <ele>1389.64</ele>
        <time>2021-08-11T08:43:54Z</time>
      </trkpt>
      <trkpt lat="44.41125" lon="6.75242">
        <ele>1389.79</ele>
        <time>2021-08-11T08:43:56Z</time>
      </trkpt>
      <trkpt lat="44.41125" lon="6.75237">
        <ele>1389.97</ele>
        <time>2021-08-11T08:43:58Z</time>
      </trkpt>
      <trkpt lat="44.41124" lon="6.75232">
        <ele>1390.26</ele>
        <time>2021-08-11T08:44:00Z</time>
      </trkpt>
      <trkpt lat="44.41124" lon="6.75228">
        <ele>1390.4</ele>
        <time>2021-08-11T08:44:02Z</time>
      </trkpt>
      <trkpt lat="44.41125" lon="6.75223">
        <ele>1390.47</ele>
        <time>2021-08-11T08:44:04Z</time>
      </trkpt>
      <trkpt lat="44.41125" lon="6.7522">
        <ele>1390.46</ele>
        <time>2021-08-11T08:44:53Z</time>
      </trkpt>
      <trkpt lat="44.41124" lon="6.75216">
        <ele>1390.49</ele>
        <time>2021-08-11T08:44:55Z</time>
      </trkpt>
      <trkpt lat="44.41124" lon="6.75211">
        <ele>1390.39</ele>
        <time>2021-08-11T08:44:57Z</time>
      </trkpt>
      <trkpt lat="44.41123" lon="6.75207">
        <ele>1390.4</ele>
        <time>2021-08-11T08:44:59Z</time>
      </trkpt>
      <trkpt lat="44.41123" lon="6.75203">
        <ele>1390.32</ele>
        <time>2021-08-11T08:45:01Z</time>
      </trkpt>
      <trkpt lat="44.41123" lon="6.75198">
        <ele>1390.22</ele>
        <time>2021-08-11T08:45:03Z</time>
      </trkpt>
      <trkpt lat="44.41122" lon="6.75194">
        <ele>1390.21</ele>
        <time>2021-08-11T08:45:05Z</time>
      </trkpt>
      <trkpt lat="44.41122" lon="6.7519">
        <ele>1390.15</ele>
        <time>2021-08-11T08:45:07Z</time>
      </trkpt>
      <trkpt lat="44.41121" lon="6.75184">
        <ele>1390.15</ele>
        <time>2021-08-11T08:45:10Z</time>
      </trkpt>
      <trkpt lat="44.41121" lon="6.7518">
        <ele>1390.1</ele>
        <time>2021-08-11T08:45:11Z</time>
      </trkpt>
      <trkpt lat="44.4112" lon="6.75174">
        <ele>1390.12</ele>
        <time>2021-08-11T08:45:13Z</time>
      </trkpt>
      <trkpt lat="44.4112" lon="6.75169">
        <ele>1390.07</ele>
        <time>2021-08-11T08:45:15Z</time>
      </trkpt>
      <trkpt lat="44.4112" lon="6.75164">
        <ele>1389.97</ele>
        <time>2021-08-11T08:45:17Z</time>
      </trkpt>
      <trkpt lat="44.4112" lon="6.75158">
        <ele>1389.83</ele>
        <time>2021-08-11T08:45:19Z</time>
      </trkpt>
      <trkpt lat="44.4112" lon="6.75153">
        <ele>1389.71</ele>
        <time>2021-08-11T08:45:21Z</time>
      </trkpt>
      <trkpt lat="44.41121" lon="6.75148">
        <ele>1389.5</ele>
        <time>2021-08-11T08:45:23Z</time>
      </trkpt>
      <trkpt lat="44.41122" lon="6.75144">
        <ele>1389.33</ele>
        <time>2021-08-11T08:45:25Z</time>
      </trkpt>
      <trkpt lat="44.41122" lon="6.7514">
        <ele>1389.24</ele>
        <time>2021-08-11T08:45:26Z</time>
      </trkpt>
      <trkpt lat="44.41123" lon="6.75135">
        <ele>1389.2</ele>
        <time>2021-08-11T08:45:28Z</time>
      </trkpt>
      <trkpt lat="44.41124" lon="6.75129">
        <ele>1389.24</ele>
        <time>2021-08-11T08:45:30Z</time>
      </trkpt>
      <trkpt lat="44.41125" lon="6.75123">
        <ele>1389.29</ele>
        <time>2021-08-11T08:45:32Z</time>
      </trkpt>
      <trkpt lat="44.41126" lon="6.75118">
        <ele>1389.33</ele>
        <time>2021-08-11T08:45:34Z</time>
      </trkpt>
      <trkpt lat="44.41126" lon="6.75112">
        <ele>1389.45</ele>
        <time>2021-08-11T08:45:36Z</time>
      </trkpt>
      <trkpt lat="44.41125" lon="6.75107">
        <ele>1389.57</ele>
        <time>2021-08-11T08:45:38Z</time>
      </trkpt>
      <trkpt lat="44.41123" lon="6.75102">
        <ele>1389.71</ele>
        <time>2021-08-11T08:45:40Z</time>
      </trkpt>
      <trkpt lat="44.41121" lon="6.75097">
        <ele>1389.82</ele>
        <time>2021-08-11T08:45:42Z</time>
      </trkpt>
      <trkpt lat="44.41118" lon="6.75094">
        <ele>1389.9</ele>
        <time>2021-08-11T08:45:44Z</time>
      </trkpt>
      <trkpt lat="44.41114" lon="6.75093">
        <ele>1389.96</ele>
        <time>2021-08-11T08:45:46Z</time>
      </trkpt>
      <trkpt lat="44.4111" lon="6.75092">
        <ele>1389.97</ele>
        <time>2021-08-11T08:45:48Z</time>
      </trkpt>
      <trkpt lat="44.41106" lon="6.75093">
        <ele>1389.88</ele>
        <time>2021-08-11T08:45:50Z</time>
      </trkpt>
      <trkpt lat="44.41102" lon="6.75096">
        <ele>1389.82</ele>
        <time>2021-08-11T08:45:52Z</time>
      </trkpt>
      <trkpt lat="44.41099" lon="6.751">
        <ele>1389.83</ele>
        <time>2021-08-11T08:45:54Z</time>
      </trkpt>
      <trkpt lat="44.41097" lon="6.75105">
        <ele>1389.89</ele>
        <time>2021-08-11T08:45:56Z</time>
      </trkpt>
      <trkpt lat="44.41095" lon="6.7511">
        <ele>1389.98</ele>
        <time>2021-08-11T08:45:58Z</time>
      </trkpt>
      <trkpt lat="44.41094" lon="6.75117">
        <ele>1390.26</ele>
        <time>2021-08-11T08:46:00Z</time>
      </trkpt>
      <trkpt lat="44.41094" lon="6.75122">
        <ele>1390.48</ele>
        <time>2021-08-11T08:46:02Z</time>
      </trkpt>
      <trkpt lat="44.41093" lon="6.75127">
        <ele>1390.75</ele>
        <time>2021-08-11T08:46:04Z</time>
      </trkpt>
      <trkpt lat="44.41092" lon="6.75133">
        <ele>1391.08</ele>
        <time>2021-08-11T08:46:06Z</time>
      </trkpt>
      <trkpt lat="44.41091" lon="6.75138">
        <ele>1391.4</ele>
        <time>2021-08-11T08:46:08Z</time>
      </trkpt>
      <trkpt lat="44.41091" lon="6.75144">
        <ele>1391.9</ele>
        <time>2021-08-11T08:46:10Z</time>
      </trkpt>
      <trkpt lat="44.4109" lon="6.75149">
        <ele>1392.44</ele>
        <time>2021-08-11T08:46:12Z</time>
      </trkpt>
      <trkpt lat="44.4109" lon="6.75155">
        <ele>1392.98</ele>
        <time>2021-08-11T08:46:14Z</time>
      </trkpt>
      <trkpt lat="44.41089" lon="6.75161">
        <ele>1393.66</ele>
        <time>2021-08-11T08:46:16Z</time>
      </trkpt>
      <trkpt lat="44.41089" lon="6.75165">
        <ele>1394.03</ele>
        <time>2021-08-11T08:46:18Z</time>
      </trkpt>
      <trkpt lat="44.41089" lon="6.7517">
        <ele>1394.28</ele>
        <time>2021-08-11T08:46:20Z</time>
      </trkpt>
      <trkpt lat="44.41089" lon="6.75175">
        <ele>1394.42</ele>
        <time>2021-08-11T08:46:22Z</time>
      </trkpt>
      <trkpt lat="44.41089" lon="6.7518">
        <ele>1394.57</ele>
        <time>2021-08-11T08:46:25Z</time>
      </trkpt>
      <trkpt lat="44.41089" lon="6.75185">
        <ele>1394.71</ele>
        <time>2021-08-11T08:46:27Z</time>
      </trkpt>
      <trkpt lat="44.41089" lon="6.7519">
        <ele>1394.85</ele>
        <time>2021-08-11T08:46:29Z</time>
      </trkpt>
      <trkpt lat="44.41089" lon="6.75196">
        <ele>1394.9</ele>
        <time>2021-08-11T08:46:31Z</time>
      </trkpt>
      <trkpt lat="44.41089" lon="6.75201">
        <ele>1394.65</ele>
        <time>2021-08-11T08:46:33Z</time>
      </trkpt>
      <trkpt lat="44.41089" lon="6.75206">
        <ele>1394.4</ele>
        <time>2021-08-11T08:46:35Z</time>
      </trkpt>
      <trkpt lat="44.41088" lon="6.75212">
        <ele>1394.21</ele>
        <time>2021-08-11T08:46:37Z</time>
      </trkpt>
      <trkpt lat="44.41088" lon="6.75218">
        <ele>1393.89</ele>
        <time>2021-08-11T08:46:39Z</time>
      </trkpt>
      <trkpt lat="44.41088" lon="6.75222">
        <ele>1393.68</ele>
        <time>2021-08-11T08:46:40Z</time>
      </trkpt>
      <trkpt lat="44.41087" lon="6.75226">
        <ele>1393.48</ele>
        <time>2021-08-11T08:46:42Z</time>
      </trkpt>
      <trkpt lat="44.41086" lon="6.75231">
        <ele>1393.21</ele>
        <time>2021-08-11T08:46:44Z</time>
      </trkpt>
      <trkpt lat="44.41085" lon="6.75236">
        <ele>1392.92</ele>
        <time>2021-08-11T08:46:46Z</time>
      </trkpt>
      <trkpt lat="44.41083" lon="6.75241">
        <ele>1392.65</ele>
        <time>2021-08-11T08:46:48Z</time>
      </trkpt>
      <trkpt lat="44.41082" lon="6.75246">
        <ele>1392.29</ele>
        <time>2021-08-11T08:46:50Z</time>
      </trkpt>
      <trkpt lat="44.4108" lon="6.75251">
        <ele>1391.93</ele>
        <time>2021-08-11T08:46:52Z</time>
      </trkpt>
      <trkpt lat="44.41078" lon="6.75255">
        <ele>1391.64</ele>
        <time>2021-08-11T08:46:54Z</time>
      </trkpt>
      <trkpt lat="44.41076" lon="6.7526">
        <ele>1391.28</ele>
        <time>2021-08-11T08:46:56Z</time>
      </trkpt>
      <trkpt lat="44.41073" lon="6.75264">
        <ele>1390.99</ele>
        <time>2021-08-11T08:46:58Z</time>
      </trkpt>
      <trkpt lat="44.41071" lon="6.75268">
        <ele>1390.7</ele>
        <time>2021-08-11T08:47:00Z</time>
      </trkpt>
      <trkpt lat="44.41068" lon="6.75272">
        <ele>1390.42</ele>
        <time>2021-08-11T08:47:02Z</time>
      </trkpt>
      <trkpt lat="44.41065" lon="6.75275">
        <ele>1390.2</ele>
        <time>2021-08-11T08:47:04Z</time>
      </trkpt>
      <trkpt lat="44.41062" lon="6.75278">
        <ele>1390</ele>
        <time>2021-08-11T08:47:06Z</time>
      </trkpt>
      <trkpt lat="44.41059" lon="6.75282">
        <ele>1390</ele>
        <time>2021-08-11T08:47:08Z</time>
      </trkpt>
      <trkpt lat="44.41055" lon="6.75286">
        <ele>1389.97</ele>
        <time>2021-08-11T08:47:10Z</time>
      </trkpt>
      <trkpt lat="44.41052" lon="6.75289">
        <ele>1389.85</ele>
        <time>2021-08-11T08:47:12Z</time>
      </trkpt>
      <trkpt lat="44.4105" lon="6.75292">
        <ele>1389.8</ele>
        <time>2021-08-11T08:47:14Z</time>
      </trkpt>
      <trkpt lat="44.41046" lon="6.75295">
        <ele>1389.74</ele>
        <time>2021-08-11T08:47:16Z</time>
      </trkpt>
      <trkpt lat="44.41043" lon="6.75298">
        <ele>1389.75</ele>
        <time>2021-08-11T08:47:18Z</time>
      </trkpt>
      <trkpt lat="44.41039" lon="6.75301">
        <ele>1389.8</ele>
        <time>2021-08-11T08:47:20Z</time>
      </trkpt>
      <trkpt lat="44.41036" lon="6.75305">
        <ele>1389.97</ele>
        <time>2021-08-11T08:47:22Z</time>
      </trkpt>
      <trkpt lat="44.41033" lon="6.75308">
        <ele>1390.32</ele>
        <time>2021-08-11T08:47:24Z</time>
      </trkpt>
      <trkpt lat="44.4103" lon="6.7531">
        <ele>1390.61</ele>
        <time>2021-08-11T08:47:26Z</time>
      </trkpt>
      <trkpt lat="44.41027" lon="6.75313">
        <ele>1391.09</ele>
        <time>2021-08-11T08:47:28Z</time>
      </trkpt>
      <trkpt lat="44.41023" lon="6.75315">
        <ele>1391.54</ele>
        <time>2021-08-11T08:47:30Z</time>
      </trkpt>
      <trkpt lat="44.4102" lon="6.75317">
        <ele>1391.99</ele>
        <time>2021-08-11T08:47:32Z</time>
      </trkpt>
      <trkpt lat="44.41016" lon="6.75319">
        <ele>1392.55</ele>
        <time>2021-08-11T08:47:34Z</time>
      </trkpt>
      <trkpt lat="44.41013" lon="6.7532">
        <ele>1392.91</ele>
        <time>2021-08-11T08:47:36Z</time>
      </trkpt>
      <trkpt lat="44.41009" lon="6.75322">
        <ele>1393.57</ele>
        <time>2021-08-11T08:47:38Z</time>
      </trkpt>
      <trkpt lat="44.41006" lon="6.75324">
        <ele>1394.22</ele>
        <time>2021-08-11T08:47:40Z</time>
      </trkpt>
      <trkpt lat="44.41002" lon="6.75326">
        <ele>1394.99</ele>
        <time>2021-08-11T08:47:42Z</time>
      </trkpt>
      <trkpt lat="44.40999" lon="6.75328">
        <ele>1395.87</ele>
        <time>2021-08-11T08:47:44Z</time>
      </trkpt>
      <trkpt lat="44.40996" lon="6.7533">
        <ele>1397.01</ele>
        <time>2021-08-11T08:47:46Z</time>
      </trkpt>
      <trkpt lat="44.40992" lon="6.75332">
        <ele>1398.38</ele>
        <time>2021-08-11T08:47:48Z</time>
      </trkpt>
      <trkpt lat="44.40988" lon="6.75334">
        <ele>1399.82</ele>
        <time>2021-08-11T08:47:51Z</time>
      </trkpt>
      <trkpt lat="44.40985" lon="6.75336">
        <ele>1401.15</ele>
        <time>2021-08-11T08:47:52Z</time>
      </trkpt>
      <trkpt lat="44.40981" lon="6.75339">
        <ele>1403</ele>
        <time>2021-08-11T08:47:54Z</time>
      </trkpt>
      <trkpt lat="44.40978" lon="6.7534">
        <ele>1403.96</ele>
        <time>2021-08-11T08:47:55Z</time>
      </trkpt>
      <trkpt lat="44.40975" lon="6.75341">
        <ele>1404.91</ele>
        <time>2021-08-11T08:47:57Z</time>
      </trkpt>
      <trkpt lat="44.40971" lon="6.75342">
        <ele>1405.9</ele>
        <time>2021-08-11T08:47:59Z</time>
      </trkpt>
      <trkpt lat="44.40968" lon="6.75343">
        <ele>1406.44</ele>
        <time>2021-08-11T08:48:00Z</time>
      </trkpt>
      <trkpt lat="44.40964" lon="6.75342">
        <ele>1406.4</ele>
        <time>2021-08-11T08:48:02Z</time>
      </trkpt>
      <trkpt lat="44.4096" lon="6.75342">
        <ele>1406.69</ele>
        <time>2021-08-11T08:48:04Z</time>
      </trkpt>
      <trkpt lat="44.40957" lon="6.75341">
        <ele>1406.58</ele>
        <time>2021-08-11T08:48:06Z</time>
      </trkpt>
      <trkpt lat="44.40953" lon="6.75341">
        <ele>1406.87</ele>
        <time>2021-08-11T08:48:07Z</time>
      </trkpt>
      <trkpt lat="44.40948" lon="6.7534">
        <ele>1406.9</ele>
        <time>2021-08-11T08:48:09Z</time>
      </trkpt>
      <trkpt lat="44.40945" lon="6.7534">
        <ele>1407.12</ele>
        <time>2021-08-11T08:48:10Z</time>
      </trkpt>
      <trkpt lat="44.40941" lon="6.75339">
        <ele>1406.91</ele>
        <time>2021-08-11T08:48:12Z</time>
      </trkpt>
      <trkpt lat="44.40937" lon="6.75338">
        <ele>1406.69</ele>
        <time>2021-08-11T08:48:14Z</time>
      </trkpt>
      <trkpt lat="44.40934" lon="6.75338">
        <ele>1406.76</ele>
        <time>2021-08-11T08:48:16Z</time>
      </trkpt>
      <trkpt lat="44.4093" lon="6.75337">
        <ele>1406.57</ele>
        <time>2021-08-11T08:48:17Z</time>
      </trkpt>
      <trkpt lat="44.40926" lon="6.75337">
        <ele>1406.68</ele>
        <time>2021-08-11T08:48:19Z</time>
      </trkpt>
      <trkpt lat="44.40921" lon="6.75337">
        <ele>1406.81</ele>
        <time>2021-08-11T08:48:21Z</time>
      </trkpt>
      <trkpt lat="44.40917" lon="6.75337">
        <ele>1406.92</ele>
        <time>2021-08-11T08:48:23Z</time>
      </trkpt>
      <trkpt lat="44.40911" lon="6.75337">
        <ele>1406.46</ele>
        <time>2021-08-11T08:48:25Z</time>
      </trkpt>
      <trkpt lat="44.40908" lon="6.75338">
        <ele>1406.45</ele>
        <time>2021-08-11T08:48:27Z</time>
      </trkpt>
      <trkpt lat="44.40903" lon="6.75339">
        <ele>1406.24</ele>
        <time>2021-08-11T08:48:29Z</time>
      </trkpt>
      <trkpt lat="44.409" lon="6.7534">
        <ele>1406.19</ele>
        <time>2021-08-11T08:48:30Z</time>
      </trkpt>
      <trkpt lat="44.40897" lon="6.75342">
        <ele>1406.33</ele>
        <time>2021-08-11T08:50:45Z</time>
      </trkpt>
      <trkpt lat="44.40894" lon="6.75344">
        <ele>1406.43</ele>
        <time>2021-08-11T08:50:48Z</time>
      </trkpt>
      <trkpt lat="44.4089" lon="6.75346">
        <ele>1406.4</ele>
        <time>2021-08-11T08:50:49Z</time>
      </trkpt>
      <trkpt lat="44.40886" lon="6.75349">
        <ele>1406.81</ele>
        <time>2021-08-11T08:50:51Z</time>
      </trkpt>
      <trkpt lat="44.40883" lon="6.75351">
        <ele>1407.12</ele>
        <time>2021-08-11T08:50:53Z</time>
      </trkpt>
      <trkpt lat="44.4088" lon="6.75353">
        <ele>1407.41</ele>
        <time>2021-08-11T08:50:55Z</time>
      </trkpt>
      <trkpt lat="44.40877" lon="6.75357">
        <ele>1407.96</ele>
        <time>2021-08-11T08:50:58Z</time>
      </trkpt>
      <trkpt lat="44.40875" lon="6.75361">
        <ele>1408.48</ele>
        <time>2021-08-11T08:50:59Z</time>
      </trkpt>
      <trkpt lat="44.40872" lon="6.75364">
        <ele>1408.91</ele>
        <time>2021-08-11T08:51:01Z</time>
      </trkpt>
      <trkpt lat="44.40869" lon="6.75366">
        <ele>1409.16</ele>
        <time>2021-08-11T08:51:03Z</time>
      </trkpt>
      <trkpt lat="44.40866" lon="6.75371">
        <ele>1409.96</ele>
        <time>2021-08-11T08:51:05Z</time>
      </trkpt>
      <trkpt lat="44.40863" lon="6.75374">
        <ele>1410.39</ele>
        <time>2021-08-11T08:51:07Z</time>
      </trkpt>
      <trkpt lat="44.4086" lon="6.75377">
        <ele>1411.01</ele>
        <time>2021-08-11T08:51:09Z</time>
      </trkpt>
      <trkpt lat="44.40857" lon="6.7538">
        <ele>1411.94</ele>
        <time>2021-08-11T08:51:11Z</time>
      </trkpt>
      <trkpt lat="44.40854" lon="6.75384">
        <ele>1412.98</ele>
        <time>2021-08-11T08:51:13Z</time>
      </trkpt>
      <trkpt lat="44.40851" lon="6.75386">
        <ele>1413.65</ele>
        <time>2021-08-11T08:51:15Z</time>
      </trkpt>
      <trkpt lat="44.40847" lon="6.75389">
        <ele>1414.55</ele>
        <time>2021-08-11T08:51:18Z</time>
      </trkpt>
      <trkpt lat="44.40844" lon="6.75393">
        <ele>1415.64</ele>
        <time>2021-08-11T08:51:19Z</time>
      </trkpt>
      <trkpt lat="44.40841" lon="6.75396">
        <ele>1416.52</ele>
        <time>2021-08-11T08:51:21Z</time>
      </trkpt>
      <trkpt lat="44.40837" lon="6.75399">
        <ele>1417.47</ele>
        <time>2021-08-11T08:51:23Z</time>
      </trkpt>
      <trkpt lat="44.40834" lon="6.75401">
        <ele>1418.12</ele>
        <time>2021-08-11T08:51:25Z</time>
      </trkpt>
      <trkpt lat="44.4083" lon="6.75403">
        <ele>1418.66</ele>
        <time>2021-08-11T08:51:28Z</time>
      </trkpt>
      <trkpt lat="44.40826" lon="6.75405">
        <ele>1419.21</ele>
        <time>2021-08-11T08:51:29Z</time>
      </trkpt>
      <trkpt lat="44.40822" lon="6.75406">
        <ele>1419.58</ele>
        <time>2021-08-11T08:51:31Z</time>
      </trkpt>
      <trkpt lat="44.40819" lon="6.75407">
        <ele>1419.93</ele>
        <time>2021-08-11T08:51:33Z</time>
      </trkpt>
      <trkpt lat="44.40815" lon="6.75408">
        <ele>1420.35</ele>
        <time>2021-08-11T08:51:35Z</time>
      </trkpt>
      <trkpt lat="44.4081" lon="6.7541">
        <ele>1421.08</ele>
        <time>2021-08-11T08:51:37Z</time>
      </trkpt>
      <trkpt lat="44.40807" lon="6.7541">
        <ele>1421.24</ele>
        <time>2021-08-11T08:51:39Z</time>
      </trkpt>
      <trkpt lat="44.40803" lon="6.75411">
        <ele>1421.28</ele>
        <time>2021-08-11T08:51:41Z</time>
      </trkpt>
      <trkpt lat="44.40799" lon="6.75411">
        <ele>1420.82</ele>
        <time>2021-08-11T08:51:43Z</time>
      </trkpt>
      <trkpt lat="44.40794" lon="6.75412">
        <ele>1420.44</ele>
        <time>2021-08-11T08:51:45Z</time>
      </trkpt>
      <trkpt lat="44.4079" lon="6.75412">
        <ele>1419.96</ele>
        <time>2021-08-11T08:51:47Z</time>
      </trkpt>
      <trkpt lat="44.40787" lon="6.75413">
        <ele>1419.76</ele>
        <time>2021-08-11T08:51:49Z</time>
      </trkpt>
      <trkpt lat="44.40783" lon="6.75414">
        <ele>1419.39</ele>
        <time>2021-08-11T08:51:51Z</time>
      </trkpt>
      <trkpt lat="44.40778" lon="6.75414">
        <ele>1418.74</ele>
        <time>2021-08-11T08:51:53Z</time>
      </trkpt>
      <trkpt lat="44.40774" lon="6.75415">
        <ele>1419.11</ele>
        <time>2021-08-11T08:51:55Z</time>
      </trkpt>
      <trkpt lat="44.40769" lon="6.75415">
        <ele>1419.49</ele>
        <time>2021-08-11T08:51:57Z</time>
      </trkpt>
      <trkpt lat="44.40766" lon="6.75416">
        <ele>1419.8</ele>
        <time>2021-08-11T08:51:59Z</time>
      </trkpt>
      <trkpt lat="44.40762" lon="6.75417">
        <ele>1420.19</ele>
        <time>2021-08-11T08:52:01Z</time>
      </trkpt>
      <trkpt lat="44.40758" lon="6.75419">
        <ele>1420.78</ele>
        <time>2021-08-11T08:52:03Z</time>
      </trkpt>
      <trkpt lat="44.40754" lon="6.75422">
        <ele>1421.51</ele>
        <time>2021-08-11T08:52:05Z</time>
      </trkpt>
      <trkpt lat="44.4075" lon="6.75425">
        <ele>1422.2</ele>
        <time>2021-08-11T08:52:07Z</time>
      </trkpt>
      <trkpt lat="44.40747" lon="6.75427">
        <ele>1422.84</ele>
        <time>2021-08-11T08:52:09Z</time>
      </trkpt>
      <trkpt lat="44.40744" lon="6.7543">
        <ele>1423.58</ele>
        <time>2021-08-11T08:52:11Z</time>
      </trkpt>
      <trkpt lat="44.40741" lon="6.75433">
        <ele>1424.27</ele>
        <time>2021-08-11T08:52:13Z</time>
      </trkpt>
      <trkpt lat="44.40738" lon="6.75436">
        <ele>1424.91</ele>
        <time>2021-08-11T08:52:15Z</time>
      </trkpt>
      <trkpt lat="44.40735" lon="6.7544">
        <ele>1425.61</ele>
        <time>2021-08-11T08:52:17Z</time>
      </trkpt>
      <trkpt lat="44.40732" lon="6.75444">
        <ele>1426.25</ele>
        <time>2021-08-11T08:52:19Z</time>
      </trkpt>
      <trkpt lat="44.4073" lon="6.75449">
        <ele>1426.98</ele>
        <time>2021-08-11T08:52:21Z</time>
      </trkpt>
      <trkpt lat="44.40727" lon="6.75454">
        <ele>1427.75</ele>
        <time>2021-08-11T08:52:23Z</time>
      </trkpt>
      <trkpt lat="44.40726" lon="6.75457">
        <ele>1428.15</ele>
        <time>2021-08-11T08:52:25Z</time>
      </trkpt>
      <trkpt lat="44.40724" lon="6.75462">
        <ele>1428.81</ele>
        <time>2021-08-11T08:53:08Z</time>
      </trkpt>
      <trkpt lat="44.40724" lon="6.75466">
        <ele>1429.25</ele>
        <time>2021-08-11T08:53:10Z</time>
      </trkpt>
      <trkpt lat="44.40723" lon="6.75471">
        <ele>1429.84</ele>
        <time>2021-08-11T08:53:12Z</time>
      </trkpt>
      <trkpt lat="44.40722" lon="6.75476">
        <ele>1430.43</ele>
        <time>2021-08-11T08:53:14Z</time>
      </trkpt>
      <trkpt lat="44.40721" lon="6.75482">
        <ele>1431.19</ele>
        <time>2021-08-11T08:53:16Z</time>
      </trkpt>
      <trkpt lat="44.4072" lon="6.75486">
        <ele>1431.73</ele>
        <time>2021-08-11T08:53:18Z</time>
      </trkpt>
      <trkpt lat="44.40718" lon="6.7549">
        <ele>1432.38</ele>
        <time>2021-08-11T08:56:36Z</time>
      </trkpt>
      <trkpt lat="44.40718" lon="6.75495">
        <ele>1432.92</ele>
        <time>2021-08-11T08:56:38Z</time>
      </trkpt>
      <trkpt lat="44.40717" lon="6.75501">
        <ele>1433.7</ele>
        <time>2021-08-11T08:56:40Z</time>
      </trkpt>
      <trkpt lat="44.40716" lon="6.75506">
        <ele>1434.49</ele>
        <time>2021-08-11T08:56:42Z</time>
      </trkpt>
      <trkpt lat="44.40714" lon="6.75512">
        <ele>1435.49</ele>
        <time>2021-08-11T08:56:44Z</time>
      </trkpt>
      <trkpt lat="44.40713" lon="6.75517">
        <ele>1436.24</ele>
        <time>2021-08-11T08:56:46Z</time>
      </trkpt>
      <trkpt lat="44.40711" lon="6.75522">
        <ele>1437.06</ele>
        <time>2021-08-11T08:56:48Z</time>
      </trkpt>
      <trkpt lat="44.40709" lon="6.75527">
        <ele>1437.85</ele>
        <time>2021-08-11T08:56:50Z</time>
      </trkpt>
      <trkpt lat="44.40706" lon="6.75531">
        <ele>1438.56</ele>
        <time>2021-08-11T08:56:52Z</time>
      </trkpt>
      <trkpt lat="44.40701" lon="6.75535">
        <ele>1439.37</ele>
        <time>2021-08-11T08:56:54Z</time>
      </trkpt>
      <trkpt lat="44.40698" lon="6.75536">
        <ele>1439.67</ele>
        <time>2021-08-11T08:56:56Z</time>
      </trkpt>
      <trkpt lat="44.40694" lon="6.75537">
        <ele>1440.11</ele>
        <time>2021-08-11T08:56:58Z</time>
      </trkpt>
      <trkpt lat="44.40691" lon="6.75538">
        <ele>1440.97</ele>
        <time>2021-08-11T08:56:59Z</time>
      </trkpt>
      <trkpt lat="44.40687" lon="6.75537">
        <ele>1441.87</ele>
        <time>2021-08-11T08:57:01Z</time>
      </trkpt>
      <trkpt lat="44.40683" lon="6.75536">
        <ele>1442.77</ele>
        <time>2021-08-11T08:57:03Z</time>
      </trkpt>
      <trkpt lat="44.40679" lon="6.75534">
        <ele>1443.56</ele>
        <time>2021-08-11T08:57:05Z</time>
      </trkpt>
      <trkpt lat="44.40675" lon="6.75531">
        <ele>1444.25</ele>
        <time>2021-08-11T08:57:07Z</time>
      </trkpt>
      <trkpt lat="44.40671" lon="6.75528">
        <ele>1444.93</ele>
        <time>2021-08-11T08:57:09Z</time>
      </trkpt>
      <trkpt lat="44.40668" lon="6.75524">
        <ele>1445.26</ele>
        <time>2021-08-11T08:57:11Z</time>
      </trkpt>
      <trkpt lat="44.40665" lon="6.75519">
        <ele>1445.43</ele>
        <time>2021-08-11T08:57:13Z</time>
      </trkpt>
      <trkpt lat="44.40663" lon="6.75513">
        <ele>1445.27</ele>
        <time>2021-08-11T08:57:15Z</time>
      </trkpt>
      <trkpt lat="44.40661" lon="6.75508">
        <ele>1445.23</ele>
        <time>2021-08-11T08:57:17Z</time>
      </trkpt>
      <trkpt lat="44.40659" lon="6.75503">
        <ele>1445.23</ele>
        <time>2021-08-11T08:57:19Z</time>
      </trkpt>
      <trkpt lat="44.40657" lon="6.755">
        <ele>1445.44</ele>
        <time>2021-08-11T08:57:21Z</time>
      </trkpt>
      <trkpt lat="44.40655" lon="6.75495">
        <ele>1445.32</ele>
        <time>2021-08-11T08:57:22Z</time>
      </trkpt>
      <trkpt lat="44.40653" lon="6.75491">
        <ele>1445.31</ele>
        <time>2021-08-11T08:57:24Z</time>
      </trkpt>
      <trkpt lat="44.40652" lon="6.75488">
        <ele>1445.17</ele>
        <time>2021-08-11T08:57:26Z</time>
      </trkpt>
      <trkpt lat="44.4065" lon="6.75483">
        <ele>1445</ele>
        <time>2021-08-11T08:57:27Z</time>
      </trkpt>
      <trkpt lat="44.40647" lon="6.75478">
        <ele>1445.02</ele>
        <time>2021-08-11T08:57:29Z</time>
      </trkpt>
      <trkpt lat="44.40644" lon="6.75472">
        <ele>1444.87</ele>
        <time>2021-08-11T08:57:31Z</time>
      </trkpt>
      <trkpt lat="44.40641" lon="6.75468">
        <ele>1444.96</ele>
        <time>2021-08-11T08:57:33Z</time>
      </trkpt>
      <trkpt lat="44.40637" lon="6.75464">
        <ele>1444.66</ele>
        <time>2021-08-11T08:57:36Z</time>
      </trkpt>
      <trkpt lat="44.40634" lon="6.75461">
        <ele>1443.96</ele>
        <time>2021-08-11T08:57:37Z</time>
      </trkpt>
      <trkpt lat="44.4063" lon="6.75458">
        <ele>1443.15</ele>
        <time>2021-08-11T08:57:39Z</time>
      </trkpt>
      <trkpt lat="44.40628" lon="6.75457">
        <ele>1442.81</ele>
        <time>2021-08-11T08:57:41Z</time>
      </trkpt>
      <trkpt lat="44.40624" lon="6.75455">
        <ele>1442.12</ele>
        <time>2021-08-11T08:57:42Z</time>
      </trkpt>
      <trkpt lat="44.4062" lon="6.75454">
        <ele>1441.57</ele>
        <time>2021-08-11T08:57:44Z</time>
      </trkpt>
      <trkpt lat="44.40616" lon="6.75453">
        <ele>1441.01</ele>
        <time>2021-08-11T08:57:47Z</time>
      </trkpt>
      <trkpt lat="44.40611" lon="6.75452">
        <ele>1440.33</ele>
        <time>2021-08-11T08:57:48Z</time>
      </trkpt>
      <trkpt lat="44.40607" lon="6.75452">
        <ele>1439.36</ele>
        <time>2021-08-11T08:57:50Z</time>
      </trkpt>
      <trkpt lat="44.40602" lon="6.75453">
        <ele>1438.35</ele>
        <time>2021-08-11T08:57:52Z</time>
      </trkpt>
      <trkpt lat="44.40598" lon="6.75455">
        <ele>1437.78</ele>
        <time>2021-08-11T08:57:54Z</time>
      </trkpt>
      <trkpt lat="44.40593" lon="6.75457">
        <ele>1436.99</ele>
        <time>2021-08-11T08:57:56Z</time>
      </trkpt>
      <trkpt lat="44.40589" lon="6.75459">
        <ele>1436.47</ele>
        <time>2021-08-11T08:57:58Z</time>
      </trkpt>
      <trkpt lat="44.40585" lon="6.75462">
        <ele>1436.17</ele>
        <time>2021-08-11T08:58:00Z</time>
      </trkpt>
      <trkpt lat="44.40581" lon="6.75466">
        <ele>1436.09</ele>
        <time>2021-08-11T08:58:02Z</time>
      </trkpt>
      <trkpt lat="44.40578" lon="6.7547">
        <ele>1436.19</ele>
        <time>2021-08-11T08:58:04Z</time>
      </trkpt>
      <trkpt lat="44.40575" lon="6.75475">
        <ele>1436.6</ele>
        <time>2021-08-11T08:58:06Z</time>
      </trkpt>
      <trkpt lat="44.40572" lon="6.7548">
        <ele>1437.1</ele>
        <time>2021-08-11T08:58:08Z</time>
      </trkpt>
      <trkpt lat="44.4057" lon="6.75484">
        <ele>1437.61</ele>
        <time>2021-08-11T08:58:10Z</time>
      </trkpt>
      <trkpt lat="44.40567" lon="6.7549">
        <ele>1438.36</ele>
        <time>2021-08-11T08:58:12Z</time>
      </trkpt>
      <trkpt lat="44.40566" lon="6.75496">
        <ele>1439.62</ele>
        <time>2021-08-11T08:58:14Z</time>
      </trkpt>
      <trkpt lat="44.40564" lon="6.75502">
        <ele>1440.59</ele>
        <time>2021-08-11T08:58:16Z</time>
      </trkpt>
      <trkpt lat="44.40563" lon="6.75509">
        <ele>1441.97</ele>
        <time>2021-08-11T08:58:18Z</time>
      </trkpt>
      <trkpt lat="44.40562" lon="6.75516">
        <ele>1443.39</ele>
        <time>2021-08-11T08:58:20Z</time>
      </trkpt>
      <trkpt lat="44.40561" lon="6.75522">
        <ele>1444.61</ele>
        <time>2021-08-11T08:58:22Z</time>
      </trkpt>
      <trkpt lat="44.4056" lon="6.75527">
        <ele>1445.61</ele>
        <time>2021-08-11T08:58:24Z</time>
      </trkpt>
      <trkpt lat="44.4056" lon="6.75533">
        <ele>1447.06</ele>
        <time>2021-08-11T08:58:26Z</time>
      </trkpt>
      <trkpt lat="44.40559" lon="6.75538">
        <ele>1448.1</ele>
        <time>2021-08-11T08:58:28Z</time>
      </trkpt>
      <trkpt lat="44.40558" lon="6.75545">
        <ele>1449.67</ele>
        <time>2021-08-11T08:58:30Z</time>
      </trkpt>
      <trkpt lat="44.40557" lon="6.75551">
        <ele>1451.03</ele>
        <time>2021-08-11T08:58:32Z</time>
      </trkpt>
      <trkpt lat="44.40557" lon="6.75558">
        <ele>1452.08</ele>
        <time>2021-08-11T08:58:34Z</time>
      </trkpt>
      <trkpt lat="44.40557" lon="6.75565">
        <ele>1451.87</ele>
        <time>2021-08-11T08:58:36Z</time>
      </trkpt>
      <trkpt lat="44.40557" lon="6.7557">
        <ele>1451.72</ele>
        <time>2021-08-11T08:58:38Z</time>
      </trkpt>
      <trkpt lat="44.40558" lon="6.75574">
        <ele>1451.78</ele>
        <time>2021-08-11T08:58:40Z</time>
      </trkpt>
      <trkpt lat="44.40559" lon="6.75579">
        <ele>1451.84</ele>
        <time>2021-08-11T08:58:42Z</time>
      </trkpt>
      <trkpt lat="44.40559" lon="6.75584">
        <ele>1451.7</ele>
        <time>2021-08-11T08:58:44Z</time>
      </trkpt>
      <trkpt lat="44.4056" lon="6.7559">
        <ele>1451.56</ele>
        <time>2021-08-11T08:58:46Z</time>
      </trkpt>
      <trkpt lat="44.40561" lon="6.75596">
        <ele>1451.44</ele>
        <time>2021-08-11T08:58:48Z</time>
      </trkpt>
      <trkpt lat="44.40562" lon="6.75602">
        <ele>1451.36</ele>
        <time>2021-08-11T08:58:50Z</time>
      </trkpt>
      <trkpt lat="44.40562" lon="6.75607">
        <ele>1451.08</ele>
        <time>2021-08-11T08:58:52Z</time>
      </trkpt>
      <trkpt lat="44.40563" lon="6.75613">
        <ele>1451.09</ele>
        <time>2021-08-11T08:58:54Z</time>
      </trkpt>
      <trkpt lat="44.40563" lon="6.7562">
        <ele>1450.91</ele>
        <time>2021-08-11T08:58:56Z</time>
      </trkpt>
      <trkpt lat="44.40563" lon="6.75626">
        <ele>1450.75</ele>
        <time>2021-08-11T08:58:58Z</time>
      </trkpt>
      <trkpt lat="44.40562" lon="6.75632">
        <ele>1450.28</ele>
        <time>2021-08-11T08:59:00Z</time>
      </trkpt>
      <trkpt lat="44.40561" lon="6.75636">
        <ele>1449.85</ele>
        <time>2021-08-11T08:59:02Z</time>
      </trkpt>
      <trkpt lat="44.40559" lon="6.7564">
        <ele>1449.19</ele>
        <time>2021-08-11T08:59:03Z</time>
      </trkpt>
      <trkpt lat="44.40557" lon="6.75645">
        <ele>1448.9</ele>
        <time>2021-08-11T08:59:05Z</time>
      </trkpt>
      <trkpt lat="44.40555" lon="6.75648">
        <ele>1448.5</ele>
        <time>2021-08-11T08:59:07Z</time>
      </trkpt>
      <trkpt lat="44.40552" lon="6.7565">
        <ele>1447.83</ele>
        <time>2021-08-11T08:59:08Z</time>
      </trkpt>
      <trkpt lat="44.40549" lon="6.75654">
        <ele>1447.33</ele>
        <time>2021-08-11T09:02:22Z</time>
      </trkpt>
      <trkpt lat="44.40545" lon="6.75658">
        <ele>1446.6</ele>
        <time>2021-08-11T09:02:24Z</time>
      </trkpt>
      <trkpt lat="44.40541" lon="6.75662">
        <ele>1445.91</ele>
        <time>2021-08-11T09:02:26Z</time>
      </trkpt>
      <trkpt lat="44.40538" lon="6.75667">
        <ele>1445.63</ele>
        <time>2021-08-11T09:02:28Z</time>
      </trkpt>
      <trkpt lat="44.40535" lon="6.7567">
        <ele>1445.39</ele>
        <time>2021-08-11T09:02:29Z</time>
      </trkpt>
      <trkpt lat="44.40532" lon="6.75675">
        <ele>1445.52</ele>
        <time>2021-08-11T09:02:31Z</time>
      </trkpt>
      <trkpt lat="44.40528" lon="6.75682">
        <ele>1445.81</ele>
        <time>2021-08-11T09:02:33Z</time>
      </trkpt>
      <trkpt lat="44.40526" lon="6.75685">
        <ele>1445.83</ele>
        <time>2021-08-11T09:02:34Z</time>
      </trkpt>
      <trkpt lat="44.40523" lon="6.7569">
        <ele>1445.97</ele>
        <time>2021-08-11T09:02:36Z</time>
      </trkpt>
      <trkpt lat="44.4052" lon="6.75695">
        <ele>1446.19</ele>
        <time>2021-08-11T09:02:38Z</time>
      </trkpt>
      <trkpt lat="44.40518" lon="6.75698">
        <ele>1446.48</ele>
        <time>2021-08-11T09:02:39Z</time>
      </trkpt>
      <trkpt lat="44.40515" lon="6.75703">
        <ele>1447.08</ele>
        <time>2021-08-11T09:02:41Z</time>
      </trkpt>
      <trkpt lat="44.40511" lon="6.75709">
        <ele>1447.76</ele>
        <time>2021-08-11T09:02:43Z</time>
      </trkpt>
      <trkpt lat="44.40508" lon="6.75713">
        <ele>1448.17</ele>
        <time>2021-08-11T09:02:44Z</time>
      </trkpt>
      <trkpt lat="44.40505" lon="6.75718">
        <ele>1448.89</ele>
        <time>2021-08-11T09:02:46Z</time>
      </trkpt>
      <trkpt lat="44.405" lon="6.75723">
        <ele>1449.2</ele>
        <time>2021-08-11T09:02:48Z</time>
      </trkpt>
      <trkpt lat="44.40497" lon="6.75728">
        <ele>1449.35</ele>
        <time>2021-08-11T09:02:49Z</time>
      </trkpt>
      <trkpt lat="44.40495" lon="6.75731">
        <ele>1449.36</ele>
        <time>2021-08-11T09:02:50Z</time>
      </trkpt>
      <trkpt lat="44.40492" lon="6.75734">
        <ele>1448.97</ele>
        <time>2021-08-11T09:02:51Z</time>
      </trkpt>
      <trkpt lat="44.4049" lon="6.75737">
        <ele>1448.93</ele>
        <time>2021-08-11T09:02:52Z</time>
      </trkpt>
      <trkpt lat="44.40487" lon="6.7574">
        <ele>1448.5</ele>
        <time>2021-08-11T09:02:53Z</time>
      </trkpt>
      <trkpt lat="44.40484" lon="6.75744">
        <ele>1448.28</ele>
        <time>2021-08-11T09:02:54Z</time>
      </trkpt>
      <trkpt lat="44.40481" lon="6.75752">
        <ele>1448.79</ele>
        <time>2021-08-11T09:02:56Z</time>
      </trkpt>
      <trkpt lat="44.40481" lon="6.75757">
        <ele>1449.56</ele>
        <time>2021-08-11T09:02:57Z</time>
      </trkpt>
      <trkpt lat="44.4048" lon="6.75761">
        <ele>1449.77</ele>
        <time>2021-08-11T09:02:58Z</time>
      </trkpt>
      <trkpt lat="44.4048" lon="6.75767">
        <ele>1450.7</ele>
        <time>2021-08-11T09:02:59Z</time>
      </trkpt>
      <trkpt lat="44.40481" lon="6.75772">
        <ele>1451.89</ele>
        <time>2021-08-11T09:03:00Z</time>
      </trkpt>
      <trkpt lat="44.40481" lon="6.75777">
        <ele>1452.67</ele>
        <time>2021-08-11T09:03:01Z</time>
      </trkpt>
      <trkpt lat="44.40482" lon="6.75782">
        <ele>1453.48</ele>
        <time>2021-08-11T09:03:02Z</time>
      </trkpt>
      <trkpt lat="44.40483" lon="6.75786">
        <ele>1454.18</ele>
        <time>2021-08-11T09:03:03Z</time>
      </trkpt>
      <trkpt lat="44.40484" lon="6.75792">
        <ele>1455.03</ele>
        <time>2021-08-11T09:03:04Z</time>
      </trkpt>
      <trkpt lat="44.40485" lon="6.75796">
        <ele>1455.78</ele>
        <time>2021-08-11T09:03:05Z</time>
      </trkpt>
      <trkpt lat="44.40486" lon="6.75801">
        <ele>1456.62</ele>
        <time>2021-08-11T09:03:06Z</time>
      </trkpt>
      <trkpt lat="44.40487" lon="6.75807">
        <ele>1457.48</ele>
        <time>2021-08-11T09:03:07Z</time>
      </trkpt>
      <trkpt lat="44.40488" lon="6.75812">
        <ele>1458.08</ele>
        <time>2021-08-11T09:03:08Z</time>
      </trkpt>
      <trkpt lat="44.40489" lon="6.75818">
        <ele>1458.73</ele>
        <time>2021-08-11T09:03:09Z</time>
      </trkpt>
      <trkpt lat="44.40489" lon="6.75822">
        <ele>1458.81</ele>
        <time>2021-08-11T09:03:10Z</time>
      </trkpt>
      <trkpt lat="44.4049" lon="6.75826">
        <ele>1459.43</ele>
        <time>2021-08-11T09:03:11Z</time>
      </trkpt>
      <trkpt lat="44.40491" lon="6.75831">
        <ele>1460.08</ele>
        <time>2021-08-11T09:03:12Z</time>
      </trkpt>
      <trkpt lat="44.40491" lon="6.75835">
        <ele>1460.06</ele>
        <time>2021-08-11T09:03:13Z</time>
      </trkpt>
      <trkpt lat="44.40492" lon="6.7584">
        <ele>1460.34</ele>
        <time>2021-08-11T09:03:14Z</time>
      </trkpt>
      <trkpt lat="44.40492" lon="6.75845">
        <ele>1460.08</ele>
        <time>2021-08-11T09:03:15Z</time>
      </trkpt>
      <trkpt lat="44.40492" lon="6.7585">
        <ele>1459.83</ele>
        <time>2021-08-11T09:03:16Z</time>
      </trkpt>
      <trkpt lat="44.40492" lon="6.75856">
        <ele>1459.52</ele>
        <time>2021-08-11T09:03:17Z</time>
      </trkpt>
      <trkpt lat="44.40492" lon="6.75861">
        <ele>1459.26</ele>
        <time>2021-08-11T09:03:18Z</time>
      </trkpt>
      <trkpt lat="44.40491" lon="6.75868">
        <ele>1458.79</ele>
        <time>2021-08-11T09:03:19Z</time>
      </trkpt>
      <trkpt lat="44.4049" lon="6.75875">
        <ele>1458.32</ele>
        <time>2021-08-11T09:03:20Z</time>
      </trkpt>
      <trkpt lat="44.40488" lon="6.75882">
        <ele>1457.38</ele>
        <time>2021-08-11T09:03:21Z</time>
      </trkpt>
      <trkpt lat="44.40487" lon="6.75888">
        <ele>1456.92</ele>
        <time>2021-08-11T09:03:22Z</time>
      </trkpt>
      <trkpt lat="44.40485" lon="6.75894">
        <ele>1456.36</ele>
        <time>2021-08-11T09:03:23Z</time>
      </trkpt>
      <trkpt lat="44.40484" lon="6.75899">
        <ele>1456.3</ele>
        <time>2021-08-11T09:03:24Z</time>
      </trkpt>
      <trkpt lat="44.40484" lon="6.75905">
        <ele>1456.76</ele>
        <time>2021-08-11T09:03:26Z</time>
      </trkpt>
      <trkpt lat="44.40482" lon="6.75914">
        <ele>1456.65</ele>
        <time>2021-08-11T09:03:29Z</time>
      </trkpt>
      <trkpt lat="44.40475" lon="6.75919">
        <ele>1454.43</ele>
        <time>2021-08-11T09:03:29Z</time>
      </trkpt>
      <trkpt lat="44.40467" lon="6.7593">
        <ele>1454.07</ele>
        <time>2021-08-11T09:03:30Z</time>
      </trkpt>
      <trkpt lat="44.40462" lon="6.75935">
        <ele>1454.04</ele>
        <time>2021-08-11T09:03:31Z</time>
      </trkpt>
      <trkpt lat="44.40457" lon="6.75939">
        <ele>1453.92</ele>
        <time>2021-08-11T09:03:32Z</time>
      </trkpt>
      <trkpt lat="44.40452" lon="6.75942">
        <ele>1453.67</ele>
        <time>2021-08-11T09:03:33Z</time>
      </trkpt>
      <trkpt lat="44.40447" lon="6.75946">
        <ele>1453.59</ele>
        <time>2021-08-11T09:03:34Z</time>
      </trkpt>
      <trkpt lat="44.40442" lon="6.75949">
        <ele>1453.35</ele>
        <time>2021-08-11T09:03:35Z</time>
      </trkpt>
      <trkpt lat="44.40438" lon="6.75953">
        <ele>1453.32</ele>
        <time>2021-08-11T09:03:36Z</time>
      </trkpt>
      <trkpt lat="44.40433" lon="6.75957">
        <ele>1453.01</ele>
        <time>2021-08-11T09:03:37Z</time>
      </trkpt>
      <trkpt lat="44.40428" lon="6.75961">
        <ele>1452.55</ele>
        <time>2021-08-11T09:03:38Z</time>
      </trkpt>
      <trkpt lat="44.40423" lon="6.75964">
        <ele>1451.87</ele>
        <time>2021-08-11T09:03:39Z</time>
      </trkpt>
      <trkpt lat="44.40417" lon="6.75968">
        <ele>1450.91</ele>
        <time>2021-08-11T09:03:40Z</time>
      </trkpt>
      <trkpt lat="44.40413" lon="6.75971">
        <ele>1450.03</ele>
        <time>2021-08-11T09:03:41Z</time>
      </trkpt>
      <trkpt lat="44.40408" lon="6.75973">
        <ele>1448.87</ele>
        <time>2021-08-11T09:03:42Z</time>
      </trkpt>
      <trkpt lat="44.40404" lon="6.75976">
        <ele>1448.08</ele>
        <time>2021-08-11T09:03:43Z</time>
      </trkpt>
      <trkpt lat="44.40401" lon="6.75977">
        <ele>1447.4</ele>
        <time>2021-08-11T09:03:44Z</time>
      </trkpt>
      <trkpt lat="44.40397" lon="6.75979">
        <ele>1446.53</ele>
        <time>2021-08-11T09:03:45Z</time>
      </trkpt>
      <trkpt lat="44.40394" lon="6.75981">
        <ele>1445.92</ele>
        <time>2021-08-11T09:03:46Z</time>
      </trkpt>
      <trkpt lat="44.4039" lon="6.75983">
        <ele>1445.06</ele>
        <time>2021-08-11T09:03:47Z</time>
      </trkpt>
      <trkpt lat="44.40386" lon="6.75985">
        <ele>1444.28</ele>
        <time>2021-08-11T09:03:48Z</time>
      </trkpt>
      <trkpt lat="44.40382" lon="6.75988">
        <ele>1443.72</ele>
        <time>2021-08-11T09:03:49Z</time>
      </trkpt>
      <trkpt lat="44.40378" lon="6.75992">
        <ele>1443.4</ele>
        <time>2021-08-11T09:03:50Z</time>
      </trkpt>
      <trkpt lat="44.40375" lon="6.75995">
        <ele>1443.28</ele>
        <time>2021-08-11T09:03:51Z</time>
      </trkpt>
      <trkpt lat="44.40372" lon="6.75998">
        <ele>1443.25</ele>
        <time>2021-08-11T09:03:52Z</time>
      </trkpt>
      <trkpt lat="44.4037" lon="6.76001">
        <ele>1443.54</ele>
        <time>2021-08-11T09:03:53Z</time>
      </trkpt>
      <trkpt lat="44.40367" lon="6.76004">
        <ele>1443.94</ele>
        <time>2021-08-11T09:03:54Z</time>
      </trkpt>
      <trkpt lat="44.40363" lon="6.76007">
        <ele>1444.25</ele>
        <time>2021-08-11T09:03:55Z</time>
      </trkpt>
      <trkpt lat="44.4036" lon="6.7601">
        <ele>1444.69</ele>
        <time>2021-08-11T09:03:56Z</time>
      </trkpt>
      <trkpt lat="44.40357" lon="6.76013">
        <ele>1445.07</ele>
        <time>2021-08-11T09:03:57Z</time>
      </trkpt>
      <trkpt lat="44.40353" lon="6.76015">
        <ele>1445.02</ele>
        <time>2021-08-11T09:03:58Z</time>
      </trkpt>
      <trkpt lat="44.4035" lon="6.76018">
        <ele>1445.44</ele>
        <time>2021-08-11T09:03:59Z</time>
      </trkpt>
      <trkpt lat="44.40346" lon="6.7602">
        <ele>1445.43</ele>
        <time>2021-08-11T09:04:00Z</time>
      </trkpt>
      <trkpt lat="44.40341" lon="6.76023">
        <ele>1445.6</ele>
        <time>2021-08-11T09:04:01Z</time>
      </trkpt>
      <trkpt lat="44.40337" lon="6.76025">
        <ele>1445.64</ele>
        <time>2021-08-11T09:04:02Z</time>
      </trkpt>
      <trkpt lat="44.40333" lon="6.76028">
        <ele>1446.04</ele>
        <time>2021-08-11T09:04:03Z</time>
      </trkpt>
      <trkpt lat="44.4033" lon="6.7603">
        <ele>1446.33</ele>
        <time>2021-08-11T09:04:04Z</time>
      </trkpt>
      <trkpt lat="44.40326" lon="6.76032">
        <ele>1446.46</ele>
        <time>2021-08-11T09:04:05Z</time>
      </trkpt>
      <trkpt lat="44.40322" lon="6.76034">
        <ele>1446.52</ele>
        <time>2021-08-11T09:04:06Z</time>
      </trkpt>
      <trkpt lat="44.40318" lon="6.76036">
        <ele>1446.52</ele>
        <time>2021-08-11T09:04:07Z</time>
      </trkpt>
      <trkpt lat="44.40314" lon="6.76038">
        <ele>1446.46</ele>
        <time>2021-08-11T09:04:08Z</time>
      </trkpt>
      <trkpt lat="44.4031" lon="6.7604">
        <ele>1446.33</ele>
        <time>2021-08-11T09:04:09Z</time>
      </trkpt>
      <trkpt lat="44.40307" lon="6.76042">
        <ele>1446.31</ele>
        <time>2021-08-11T09:04:10Z</time>
      </trkpt>
      <trkpt lat="44.40303" lon="6.76043">
        <ele>1445.78</ele>
        <time>2021-08-11T09:04:11Z</time>
      </trkpt>
      <trkpt lat="44.40299" lon="6.76045">
        <ele>1445.39</ele>
        <time>2021-08-11T09:04:12Z</time>
      </trkpt>
      <trkpt lat="44.40295" lon="6.76046">
        <ele>1444.79</ele>
        <time>2021-08-11T09:04:13Z</time>
      </trkpt>
      <trkpt lat="44.40291" lon="6.76048">
        <ele>1444.37</ele>
        <time>2021-08-11T09:04:14Z</time>
      </trkpt>
      <trkpt lat="44.40288" lon="6.7605">
        <ele>1444.13</ele>
        <time>2021-08-11T09:04:15Z</time>
      </trkpt>
      <trkpt lat="44.40284" lon="6.76053">
        <ele>1443.86</ele>
        <time>2021-08-11T09:04:16Z</time>
      </trkpt>
      <trkpt lat="44.4028" lon="6.76057">
        <ele>1443.89</ele>
        <time>2021-08-11T09:04:17Z</time>
      </trkpt>
      <trkpt lat="44.40277" lon="6.7606">
        <ele>1444.14</ele>
        <time>2021-08-11T09:04:18Z</time>
      </trkpt>
      <trkpt lat="44.40275" lon="6.76063">
        <ele>1444.64</ele>
        <time>2021-08-11T09:04:19Z</time>
      </trkpt>
      <trkpt lat="44.40272" lon="6.76067">
        <ele>1445.26</ele>
        <time>2021-08-11T09:04:20Z</time>
      </trkpt>
      <trkpt lat="44.4027" lon="6.76071">
        <ele>1446.05</ele>
        <time>2021-08-11T09:04:21Z</time>
      </trkpt>
      <trkpt lat="44.40269" lon="6.76076">
        <ele>1447.31</ele>
        <time>2021-08-11T09:04:22Z</time>
      </trkpt>
      <trkpt lat="44.40268" lon="6.7608">
        <ele>1448.28</ele>
        <time>2021-08-11T09:04:23Z</time>
      </trkpt>
      <trkpt lat="44.40267" lon="6.76084">
        <ele>1449.22</ele>
        <time>2021-08-11T09:04:24Z</time>
      </trkpt>
      <trkpt lat="44.40266" lon="6.76089">
        <ele>1450.22</ele>
        <time>2021-08-11T09:04:25Z</time>
      </trkpt>
      <trkpt lat="44.40265" lon="6.76093">
        <ele>1450.98</ele>
        <time>2021-08-11T09:04:26Z</time>
      </trkpt>
      <trkpt lat="44.40264" lon="6.76098">
        <ele>1451.95</ele>
        <time>2021-08-11T09:04:27Z</time>
      </trkpt>
      <trkpt lat="44.40263" lon="6.76102">
        <ele>1452.69</ele>
        <time>2021-08-11T09:04:28Z</time>
      </trkpt>
      <trkpt lat="44.40262" lon="6.76107">
        <ele>1453.64</ele>
        <time>2021-08-11T09:04:29Z</time>
      </trkpt>
      <trkpt lat="44.4026" lon="6.76111">
        <ele>1454.13</ele>
        <time>2021-08-11T09:04:30Z</time>
      </trkpt>
      <trkpt lat="44.40258" lon="6.76115">
        <ele>1454.25</ele>
        <time>2021-08-11T09:04:31Z</time>
      </trkpt>
      <trkpt lat="44.40255" lon="6.76118">
        <ele>1454.03</ele>
        <time>2021-08-11T09:04:32Z</time>
      </trkpt>
      <trkpt lat="44.40253" lon="6.76121">
        <ele>1454.03</ele>
        <time>2021-08-11T09:04:33Z</time>
      </trkpt>
      <trkpt lat="44.4025" lon="6.76125">
        <ele>1454</ele>
        <time>2021-08-11T09:04:34Z</time>
      </trkpt>
      <trkpt lat="44.40249" lon="6.76128">
        <ele>1454.23</ele>
        <time>2021-08-11T09:04:35Z</time>
      </trkpt>
      <trkpt lat="44.40247" lon="6.76133">
        <ele>1454.53</ele>
        <time>2021-08-11T09:04:36Z</time>
      </trkpt>
      <trkpt lat="44.40246" lon="6.76137">
        <ele>1454.87</ele>
        <time>2021-08-11T09:04:37Z</time>
      </trkpt>
      <trkpt lat="44.40244" lon="6.76141">
        <ele>1454.84</ele>
        <time>2021-08-11T09:04:38Z</time>
      </trkpt>
      <trkpt lat="44.40243" lon="6.76145">
        <ele>1454.87</ele>
        <time>2021-08-11T09:04:39Z</time>
      </trkpt>
      <trkpt lat="44.40242" lon="6.76149">
        <ele>1454.9</ele>
        <time>2021-08-11T09:04:40Z</time>
      </trkpt>
      <trkpt lat="44.40241" lon="6.76153">
        <ele>1454.91</ele>
        <time>2021-08-11T09:04:41Z</time>
      </trkpt>
      <trkpt lat="44.40239" lon="6.76157">
        <ele>1454.67</ele>
        <time>2021-08-11T09:04:42Z</time>
      </trkpt>
      <trkpt lat="44.40238" lon="6.76161">
        <ele>1454.66</ele>
        <time>2021-08-11T09:04:43Z</time>
      </trkpt>
      <trkpt lat="44.40237" lon="6.76165">
        <ele>1454.63</ele>
        <time>2021-08-11T09:04:44Z</time>
      </trkpt>
      <trkpt lat="44.40236" lon="6.76169">
        <ele>1454.6</ele>
        <time>2021-08-11T09:04:45Z</time>
      </trkpt>
      <trkpt lat="44.40235" lon="6.76174">
        <ele>1454.61</ele>
        <time>2021-08-11T09:04:46Z</time>
      </trkpt>
      <trkpt lat="44.40235" lon="6.76179">
        <ele>1454.87</ele>
        <time>2021-08-11T09:04:47Z</time>
      </trkpt>
      <trkpt lat="44.40234" lon="6.76184">
        <ele>1454.86</ele>
        <time>2021-08-11T09:04:48Z</time>
      </trkpt>
      <trkpt lat="44.40233" lon="6.76188">
        <ele>1454.78</ele>
        <time>2021-08-11T09:04:49Z</time>
      </trkpt>
      <trkpt lat="44.40232" lon="6.76192">
        <ele>1454.7</ele>
        <time>2021-08-11T09:04:50Z</time>
      </trkpt>
      <trkpt lat="44.4023" lon="6.76197">
        <ele>1454.49</ele>
        <time>2021-08-11T09:04:51Z</time>
      </trkpt>
      <trkpt lat="44.40229" lon="6.76201">
        <ele>1454.6</ele>
        <time>2021-08-11T09:04:52Z</time>
      </trkpt>
      <trkpt lat="44.40227" lon="6.76205">
        <ele>1454.45</ele>
        <time>2021-08-11T09:04:53Z</time>
      </trkpt>
      <trkpt lat="44.40226" lon="6.76209">
        <ele>1454.59</ele>
        <time>2021-08-11T09:04:54Z</time>
      </trkpt>
      <trkpt lat="44.40224" lon="6.76214">
        <ele>1454.58</ele>
        <time>2021-08-11T09:04:55Z</time>
      </trkpt>
      <trkpt lat="44.40223" lon="6.76218">
        <ele>1454.74</ele>
        <time>2021-08-11T09:04:56Z</time>
      </trkpt>
      <trkpt lat="44.40222" lon="6.76222">
        <ele>1454.95</ele>
        <time>2021-08-11T09:04:57Z</time>
      </trkpt>
      <trkpt lat="44.40221" lon="6.76226">
        <ele>1455.42</ele>
        <time>2021-08-11T09:04:58Z</time>
      </trkpt>
      <trkpt lat="44.40219" lon="6.7623">
        <ele>1455.84</ele>
        <time>2021-08-11T09:04:59Z</time>
      </trkpt>
      <trkpt lat="44.40218" lon="6.76234">
        <ele>1456.37</ele>
        <time>2021-08-11T09:05:00Z</time>
      </trkpt>
      <trkpt lat="44.40217" lon="6.76238">
        <ele>1456.92</ele>
        <time>2021-08-11T09:05:01Z</time>
      </trkpt>
      <trkpt lat="44.40216" lon="6.76241">
        <ele>1457.33</ele>
        <time>2021-08-11T09:05:02Z</time>
      </trkpt>
      <trkpt lat="44.40215" lon="6.76245">
        <ele>1457.93</ele>
        <time>2021-08-11T09:05:03Z</time>
      </trkpt>
      <trkpt lat="44.40214" lon="6.76249">
        <ele>1458.54</ele>
        <time>2021-08-11T09:05:04Z</time>
      </trkpt>
      <trkpt lat="44.40213" lon="6.76252">
        <ele>1459.08</ele>
        <time>2021-08-11T09:05:05Z</time>
      </trkpt>
      <trkpt lat="44.40211" lon="6.76256">
        <ele>1459.85</ele>
        <time>2021-08-11T09:05:06Z</time>
      </trkpt>
      <trkpt lat="44.4021" lon="6.7626">
        <ele>1460.68</ele>
        <time>2021-08-11T09:05:07Z</time>
      </trkpt>
      <trkpt lat="44.40209" lon="6.76264">
        <ele>1461.52</ele>
        <time>2021-08-11T09:05:08Z</time>
      </trkpt>
      <trkpt lat="44.40208" lon="6.76269">
        <ele>1462.61</ele>
        <time>2021-08-11T09:05:09Z</time>
      </trkpt>
      <trkpt lat="44.40207" lon="6.76273">
        <ele>1463.5</ele>
        <time>2021-08-11T09:05:10Z</time>
      </trkpt>
      <trkpt lat="44.40206" lon="6.76277">
        <ele>1464.41</ele>
        <time>2021-08-11T09:05:11Z</time>
      </trkpt>
      <trkpt lat="44.40206" lon="6.76282">
        <ele>1465.43</ele>
        <time>2021-08-11T09:05:12Z</time>
      </trkpt>
      <trkpt lat="44.40205" lon="6.76287">
        <ele>1466.49</ele>
        <time>2021-08-11T09:05:13Z</time>
      </trkpt>
      <trkpt lat="44.40204" lon="6.76291">
        <ele>1467.35</ele>
        <time>2021-08-11T09:05:14Z</time>
      </trkpt>
      <trkpt lat="44.40203" lon="6.76296">
        <ele>1468.43</ele>
        <time>2021-08-11T09:05:15Z</time>
      </trkpt>
      <trkpt lat="44.40202" lon="6.763">
        <ele>1469.31</ele>
        <time>2021-08-11T09:05:16Z</time>
      </trkpt>
      <trkpt lat="44.40202" lon="6.76305">
        <ele>1470.34</ele>
        <time>2021-08-11T09:05:17Z</time>
      </trkpt>
      <trkpt lat="44.40201" lon="6.7631">
        <ele>1471.29</ele>
        <time>2021-08-11T09:05:18Z</time>
      </trkpt>
      <trkpt lat="44.402" lon="6.76314">
        <ele>1472.06</ele>
        <time>2021-08-11T09:05:19Z</time>
      </trkpt>
      <trkpt lat="44.40199" lon="6.76319">
        <ele>1473.01</ele>
        <time>2021-08-11T09:05:20Z</time>
      </trkpt>
      <trkpt lat="44.40198" lon="6.76322">
        <ele>1473.63</ele>
        <time>2021-08-11T09:05:21Z</time>
      </trkpt>
      <trkpt lat="44.40194" lon="6.76327">
        <ele>1474.81</ele>
        <time>2021-08-11T09:05:23Z</time>
      </trkpt>
      <trkpt lat="44.40191" lon="6.76327">
        <ele>1474.46</ele>
        <time>2021-08-11T09:05:24Z</time>
      </trkpt>
      <trkpt lat="44.40187" lon="6.76327">
        <ele>1473.99</ele>
        <time>2021-08-11T09:05:25Z</time>
      </trkpt>
      <trkpt lat="44.40183" lon="6.76325">
        <ele>1473.14</ele>
        <time>2021-08-11T09:05:26Z</time>
      </trkpt>
      <trkpt lat="44.40179" lon="6.76322">
        <ele>1472.07</ele>
        <time>2021-08-11T09:05:27Z</time>
      </trkpt>
      <trkpt lat="44.40176" lon="6.76317">
        <ele>1470.68</ele>
        <time>2021-08-11T09:05:28Z</time>
      </trkpt>
      <trkpt lat="44.40175" lon="6.76312">
        <ele>1469.52</ele>
        <time>2021-08-11T09:05:29Z</time>
      </trkpt>
      <trkpt lat="44.40173" lon="6.76306">
        <ele>1468</ele>
        <time>2021-08-11T09:05:30Z</time>
      </trkpt>
      <trkpt lat="44.40172" lon="6.76301">
        <ele>1466.65</ele>
        <time>2021-08-11T09:05:31Z</time>
      </trkpt>
      <trkpt lat="44.40171" lon="6.76297">
        <ele>1465.52</ele>
        <time>2021-08-11T09:05:32Z</time>
      </trkpt>
      <trkpt lat="44.40169" lon="6.76292">
        <ele>1463.96</ele>
        <time>2021-08-11T09:05:33Z</time>
      </trkpt>
      <trkpt lat="44.40167" lon="6.76288">
        <ele>1462.63</ele>
        <time>2021-08-11T09:05:34Z</time>
      </trkpt>
      <trkpt lat="44.40165" lon="6.76285">
        <ele>1461.62</ele>
        <time>2021-08-11T09:05:35Z</time>
      </trkpt>
      <trkpt lat="44.40162" lon="6.76282">
        <ele>1460.53</ele>
        <time>2021-08-11T09:05:36Z</time>
      </trkpt>
      <trkpt lat="44.40158" lon="6.7628">
        <ele>1459.6</ele>
        <time>2021-08-11T09:05:37Z</time>
      </trkpt>
      <trkpt lat="44.40155" lon="6.76278">
        <ele>1458.79</ele>
        <time>2021-08-11T09:05:38Z</time>
      </trkpt>
      <trkpt lat="44.40151" lon="6.76277">
        <ele>1458.16</ele>
        <time>2021-08-11T09:05:39Z</time>
      </trkpt>
      <trkpt lat="44.40148" lon="6.76277">
        <ele>1457.83</ele>
        <time>2021-08-11T09:05:40Z</time>
      </trkpt>
      <trkpt lat="44.40145" lon="6.76278">
        <ele>1457.71</ele>
        <time>2021-08-11T09:05:41Z</time>
      </trkpt>
      <trkpt lat="44.40142" lon="6.7628">
        <ele>1457.82</ele>
        <time>2021-08-11T09:05:42Z</time>
      </trkpt>
      <trkpt lat="44.40139" lon="6.76282">
        <ele>1457.92</ele>
        <time>2021-08-11T09:05:43Z</time>
      </trkpt>
      <trkpt lat="44.40136" lon="6.76285">
        <ele>1458.79</ele>
        <time>2021-08-11T09:05:44Z</time>
      </trkpt>
      <trkpt lat="44.40133" lon="6.76286">
        <ele>1459.22</ele>
        <time>2021-08-11T09:05:45Z</time>
      </trkpt>
      <trkpt lat="44.4013" lon="6.76287">
        <ele>1459.63</ele>
        <time>2021-08-11T09:05:46Z</time>
      </trkpt>
      <trkpt lat="44.40127" lon="6.76288">
        <ele>1460.02</ele>
        <time>2021-08-11T09:05:47Z</time>
      </trkpt>
      <trkpt lat="44.40124" lon="6.76289">
        <ele>1460.38</ele>
        <time>2021-08-11T09:05:48Z</time>
      </trkpt>
      <trkpt lat="44.40121" lon="6.7629">
        <ele>1460.72</ele>
        <time>2021-08-11T09:05:49Z</time>
      </trkpt>
      <trkpt lat="44.40117" lon="6.76292">
        <ele>1461.23</ele>
        <time>2021-08-11T09:05:52Z</time>
      </trkpt>
      <trkpt lat="44.40113" lon="6.76294">
        <ele>1461.67</ele>
        <time>2021-08-11T09:05:52Z</time>
      </trkpt>
      <trkpt lat="44.40108" lon="6.76298">
        <ele>1462.24</ele>
        <time>2021-08-11T09:05:54Z</time>
      </trkpt>
      <trkpt lat="44.40102" lon="6.76301">
        <ele>1462.73</ele>
        <time>2021-08-11T09:05:56Z</time>
      </trkpt>
      <trkpt lat="44.40093" lon="6.76305">
        <ele>1463.57</ele>
        <time>2021-08-11T09:05:58Z</time>
      </trkpt>
      <trkpt lat="44.40085" lon="6.76309">
        <ele>1464.21</ele>
        <time>2021-08-11T09:06:02Z</time>
      </trkpt>
      <trkpt lat="44.4008" lon="6.76313">
        <ele>1464.24</ele>
        <time>2021-08-11T09:06:04Z</time>
      </trkpt>
      <trkpt lat="44.40072" lon="6.76317">
        <ele>1463.94</ele>
        <time>2021-08-11T09:06:06Z</time>
      </trkpt>
      <trkpt lat="44.40066" lon="6.76322">
        <ele>1464.05</ele>
        <time>2021-08-11T09:06:08Z</time>
      </trkpt>
      <trkpt lat="44.40059" lon="6.76329">
        <ele>1464.54</ele>
        <time>2021-08-11T09:06:11Z</time>
      </trkpt>
      <trkpt lat="44.40054" lon="6.76338">
        <ele>1465.57</ele>
        <time>2021-08-11T09:06:14Z</time>
      </trkpt>
      <trkpt lat="44.40049" lon="6.76346">
        <ele>1466.71</ele>
        <time>2021-08-11T09:06:16Z</time>
      </trkpt>
      <trkpt lat="44.40046" lon="6.76353">
        <ele>1467.71</ele>
        <time>2021-08-11T09:06:19Z</time>
      </trkpt>
      <trkpt lat="44.40042" lon="6.76362">
        <ele>1469.14</ele>
        <time>2021-08-11T09:06:22Z</time>
      </trkpt>
      <trkpt lat="44.40039" lon="6.76367">
        <ele>1470.21</ele>
        <time>2021-08-11T09:06:24Z</time>
      </trkpt>
      <trkpt lat="44.40036" lon="6.76372">
        <ele>1471.21</ele>
        <time>2021-08-11T09:06:26Z</time>
      </trkpt>
      <trkpt lat="44.40033" lon="6.76376">
        <ele>1471.97</ele>
        <time>2021-08-11T09:06:28Z</time>
      </trkpt>
      <trkpt lat="44.40029" lon="6.76381">
        <ele>1472.84</ele>
        <time>2021-08-11T09:06:30Z</time>
      </trkpt>
      <trkpt lat="44.40027" lon="6.76383">
        <ele>1473.22</ele>
        <time>2021-08-11T09:06:31Z</time>
      </trkpt>
      <trkpt lat="44.40022" lon="6.76387">
        <ele>1474.17</ele>
        <time>2021-08-11T09:06:33Z</time>
      </trkpt>
      <trkpt lat="44.40018" lon="6.76389">
        <ele>1474.71</ele>
        <time>2021-08-11T09:06:35Z</time>
      </trkpt>
      <trkpt lat="44.40013" lon="6.7639">
        <ele>1475.16</ele>
        <time>2021-08-11T09:06:37Z</time>
      </trkpt>
      <trkpt lat="44.40008" lon="6.76392">
        <ele>1475.68</ele>
        <time>2021-08-11T09:06:39Z</time>
      </trkpt>
      <trkpt lat="44.40004" lon="6.76393">
        <ele>1476.03</ele>
        <time>2021-08-11T09:06:41Z</time>
      </trkpt>
      <trkpt lat="44.40001" lon="6.76394">
        <ele>1476.3</ele>
        <time>2021-08-11T09:07:59Z</time>
      </trkpt>
      <trkpt lat="44.39997" lon="6.76395">
        <ele>1476.46</ele>
        <time>2021-08-11T09:08:01Z</time>
      </trkpt>
      <trkpt lat="44.39994" lon="6.76396">
        <ele>1476.57</ele>
        <time>2021-08-11T09:08:03Z</time>
      </trkpt>
      <trkpt lat="44.39987" lon="6.76395">
        <ele>1476.54</ele>
        <time>2021-08-11T09:08:09Z</time>
      </trkpt>
      <trkpt lat="44.39981" lon="6.76401">
        <ele>1477.17</ele>
        <time>2021-08-11T09:08:12Z</time>
      </trkpt>
      <trkpt lat="44.39977" lon="6.76412">
        <ele>1478.35</ele>
        <time>2021-08-11T09:08:15Z</time>
      </trkpt>
      <trkpt lat="44.3998" lon="6.76422">
        <ele>1479.38</ele>
        <time>2021-08-11T09:08:19Z</time>
      </trkpt>
      <trkpt lat="44.39985" lon="6.76427">
        <ele>1479.69</ele>
        <time>2021-08-11T09:08:21Z</time>
      </trkpt>
      <trkpt lat="44.39991" lon="6.76426">
        <ele>1479.21</ele>
        <time>2021-08-11T09:08:24Z</time>
      </trkpt>
      <trkpt lat="44.39995" lon="6.76423">
        <ele>1478.72</ele>
        <time>2021-08-11T09:08:26Z</time>
      </trkpt>
      <trkpt lat="44.39999" lon="6.7642">
        <ele>1478.28</ele>
        <time>2021-08-11T09:08:28Z</time>
      </trkpt>
      <trkpt lat="44.40002" lon="6.76418">
        <ele>1478.03</ele>
        <time>2021-08-11T09:08:30Z</time>
      </trkpt>
      <trkpt lat="44.40007" lon="6.76417">
        <ele>1477.78</ele>
        <time>2021-08-11T09:08:32Z</time>
      </trkpt>
      <trkpt lat="44.40011" lon="6.76418">
        <ele>1477.72</ele>
        <time>2021-08-11T09:08:34Z</time>
      </trkpt>
      <trkpt lat="44.40016" lon="6.76419">
        <ele>1477.64</ele>
        <time>2021-08-11T09:08:36Z</time>
      </trkpt>
      <trkpt lat="44.4002" lon="6.76421">
        <ele>1477.7</ele>
        <time>2021-08-11T09:08:38Z</time>
      </trkpt>
      <trkpt lat="44.40024" lon="6.76424">
        <ele>1477.89</ele>
        <time>2021-08-11T09:08:40Z</time>
      </trkpt>
      <trkpt lat="44.40028" lon="6.76427">
        <ele>1478.13</ele>
        <time>2021-08-11T09:08:42Z</time>
      </trkpt>
      <trkpt lat="44.40032" lon="6.76429">
        <ele>1478.57</ele>
        <time>2021-08-11T09:08:44Z</time>
      </trkpt>
      <trkpt lat="44.40036" lon="6.76431">
        <ele>1478.99</ele>
        <time>2021-08-11T09:08:46Z</time>
      </trkpt>
      <trkpt lat="44.4004" lon="6.76433">
        <ele>1479.39</ele>
        <time>2021-08-11T09:08:48Z</time>
      </trkpt>
      <trkpt lat="44.40044" lon="6.76435">
        <ele>1479.76</ele>
        <time>2021-08-11T09:08:50Z</time>
      </trkpt>
      <trkpt lat="44.40048" lon="6.76438">
        <ele>1480.2</ele>
        <time>2021-08-11T09:08:52Z</time>
      </trkpt>
      <trkpt lat="44.40052" lon="6.7644">
        <ele>1480.53</ele>
        <time>2021-08-11T09:08:54Z</time>
      </trkpt>
      <trkpt lat="44.40056" lon="6.76443">
        <ele>1480.94</ele>
        <time>2021-08-11T09:08:56Z</time>
      </trkpt>
      <trkpt lat="44.4006" lon="6.76446">
        <ele>1481.57</ele>
        <time>2021-08-11T09:08:58Z</time>
      </trkpt>
      <trkpt lat="44.40064" lon="6.76447">
        <ele>1482.12</ele>
        <time>2021-08-11T09:09:00Z</time>
      </trkpt>
      <trkpt lat="44.40068" lon="6.76448">
        <ele>1482.7</ele>
        <time>2021-08-11T09:09:02Z</time>
      </trkpt>
      <trkpt lat="44.40073" lon="6.76448">
        <ele>1483.33</ele>
        <time>2021-08-11T09:09:04Z</time>
      </trkpt>
      <trkpt lat="44.40077" lon="6.76446">
        <ele>1483.54</ele>
        <time>2021-08-11T09:09:06Z</time>
      </trkpt>
      <trkpt lat="44.4008" lon="6.76443">
        <ele>1483.49</ele>
        <time>2021-08-11T09:09:08Z</time>
      </trkpt>
      <trkpt lat="44.40084" lon="6.76439">
        <ele>1483.54</ele>
        <time>2021-08-11T09:09:10Z</time>
      </trkpt>
      <trkpt lat="44.40087" lon="6.76434">
        <ele>1483.52</ele>
        <time>2021-08-11T09:09:12Z</time>
      </trkpt>
      <trkpt lat="44.4009" lon="6.7643">
        <ele>1483.51</ele>
        <time>2021-08-11T09:09:14Z</time>
      </trkpt>
      <trkpt lat="44.40093" lon="6.76424">
        <ele>1483.11</ele>
        <time>2021-08-11T09:09:16Z</time>
      </trkpt>
      <trkpt lat="44.40096" lon="6.76418">
        <ele>1482.58</ele>
        <time>2021-08-11T09:09:18Z</time>
      </trkpt>
      <trkpt lat="44.40098" lon="6.76415">
        <ele>1482.19</ele>
        <time>2021-08-11T09:09:19Z</time>
      </trkpt>
      <trkpt lat="44.40101" lon="6.76411">
        <ele>1481.55</ele>
        <time>2021-08-11T09:09:21Z</time>
      </trkpt>
      <trkpt lat="44.40106" lon="6.76408">
        <ele>1481.32</ele>
        <time>2021-08-11T09:09:23Z</time>
      </trkpt>
      <trkpt lat="44.4011" lon="6.76405">
        <ele>1480.96</ele>
        <time>2021-08-11T09:09:25Z</time>
      </trkpt>
      <trkpt lat="44.40113" lon="6.76404">
        <ele>1481.18</ele>
        <time>2021-08-11T09:09:26Z</time>
      </trkpt>
      <trkpt lat="44.40116" lon="6.76402">
        <ele>1481.27</ele>
        <time>2021-08-11T09:09:27Z</time>
      </trkpt>
      <trkpt lat="44.40121" lon="6.76401">
        <ele>1481.99</ele>
        <time>2021-08-11T09:09:29Z</time>
      </trkpt>
      <trkpt lat="44.40126" lon="6.76401">
        <ele>1482.97</ele>
        <time>2021-08-11T09:09:31Z</time>
      </trkpt>
      <trkpt lat="44.40128" lon="6.76401">
        <ele>1483.36</ele>
        <time>2021-08-11T09:09:32Z</time>
      </trkpt>
      <trkpt lat="44.40133" lon="6.76404">
        <ele>1485.18</ele>
        <time>2021-08-11T09:09:34Z</time>
      </trkpt>
      <trkpt lat="44.40136" lon="6.76409">
        <ele>1487.2</ele>
        <time>2021-08-11T09:09:36Z</time>
      </trkpt>
      <trkpt lat="44.40136" lon="6.76417">
        <ele>1489.46</ele>
        <time>2021-08-11T09:09:38Z</time>
      </trkpt>
      <trkpt lat="44.40133" lon="6.76423">
        <ele>1490.28</ele>
        <time>2021-08-11T09:09:40Z</time>
      </trkpt>
      <trkpt lat="44.40132" lon="6.76426">
        <ele>1490.78</ele>
        <time>2021-08-11T09:09:41Z</time>
      </trkpt>
      <trkpt lat="44.4013" lon="6.76429">
        <ele>1491.05</ele>
        <time>2021-08-11T09:09:42Z</time>
      </trkpt>
      <trkpt lat="44.40127" lon="6.76431">
        <ele>1490.82</ele>
        <time>2021-08-11T09:09:43Z</time>
      </trkpt>
      <trkpt lat="44.40124" lon="6.76434">
        <ele>1490.82</ele>
        <time>2021-08-11T09:09:46Z</time>
      </trkpt>
      <trkpt lat="44.40119" lon="6.76437">
        <ele>1490.3</ele>
        <time>2021-08-11T09:09:48Z</time>
      </trkpt>
      <trkpt lat="44.40112" lon="6.76442">
        <ele>1489.69</ele>
        <time>2021-08-11T09:09:50Z</time>
      </trkpt>
      <trkpt lat="44.40108" lon="6.76449">
        <ele>1490.15</ele>
        <time>2021-08-11T09:09:53Z</time>
      </trkpt>
      <trkpt lat="44.40106" lon="6.76459">
        <ele>1491.52</ele>
        <time>2021-08-11T09:09:55Z</time>
      </trkpt>
      <trkpt lat="44.40107" lon="6.76468">
        <ele>1493.35</ele>
        <time>2021-08-11T09:09:56Z</time>
      </trkpt>
      <trkpt lat="44.40108" lon="6.76479">
        <ele>1495.03</ele>
        <time>2021-08-11T09:10:02Z</time>
      </trkpt>
      <trkpt lat="44.40109" lon="6.76492">
        <ele>1496.63</ele>
        <time>2021-08-11T09:10:06Z</time>
      </trkpt>
      <trkpt lat="44.40108" lon="6.76501">
        <ele>1497.22</ele>
        <time>2021-08-11T09:10:08Z</time>
      </trkpt>
      <trkpt lat="44.40107" lon="6.76514">
        <ele>1497.04</ele>
        <time>2021-08-11T09:10:11Z</time>
      </trkpt>
      <trkpt lat="44.40103" lon="6.76523">
        <ele>1496.2</ele>
        <time>2021-08-11T09:10:13Z</time>
      </trkpt>
      <trkpt lat="44.40099" lon="6.76532">
        <ele>1495.67</ele>
        <time>2021-08-11T09:10:15Z</time>
      </trkpt>
      <trkpt lat="44.40096" lon="6.76538">
        <ele>1495.5</ele>
        <time>2021-08-11T09:10:17Z</time>
      </trkpt>
      <trkpt lat="44.40093" lon="6.76544">
        <ele>1495.43</ele>
        <time>2021-08-11T09:10:19Z</time>
      </trkpt>
      <trkpt lat="44.40091" lon="6.76547">
        <ele>1495.35</ele>
        <time>2021-08-11T09:10:20Z</time>
      </trkpt>
      <trkpt lat="44.40089" lon="6.76553">
        <ele>1495.58</ele>
        <time>2021-08-11T09:10:22Z</time>
      </trkpt>
      <trkpt lat="44.40087" lon="6.76557">
        <ele>1495.7</ele>
        <time>2021-08-11T09:10:23Z</time>
      </trkpt>
      <trkpt lat="44.40085" lon="6.7656">
        <ele>1495.74</ele>
        <time>2021-08-11T09:10:24Z</time>
      </trkpt>
      <trkpt lat="44.40083" lon="6.76564">
        <ele>1495.84</ele>
        <time>2021-08-11T09:10:25Z</time>
      </trkpt>
      <trkpt lat="44.40082" lon="6.76567">
        <ele>1495.93</ele>
        <time>2021-08-11T09:10:26Z</time>
      </trkpt>
      <trkpt lat="44.40079" lon="6.76573">
        <ele>1495.85</ele>
        <time>2021-08-11T09:10:28Z</time>
      </trkpt>
      <trkpt lat="44.40077" lon="6.7658">
        <ele>1496.07</ele>
        <time>2021-08-11T09:10:30Z</time>
      </trkpt>
      <trkpt lat="44.40074" lon="6.76586">
        <ele>1495.97</ele>
        <time>2021-08-11T09:10:32Z</time>
      </trkpt>
      <trkpt lat="44.40073" lon="6.7659">
        <ele>1496.21</ele>
        <time>2021-08-11T09:10:33Z</time>
      </trkpt>
      <trkpt lat="44.40072" lon="6.76594">
        <ele>1496.45</ele>
        <time>2021-08-11T09:10:34Z</time>
      </trkpt>
      <trkpt lat="44.4007" lon="6.76601">
        <ele>1496.85</ele>
        <time>2021-08-11T09:10:36Z</time>
      </trkpt>
      <trkpt lat="44.40069" lon="6.76605">
        <ele>1497.13</ele>
        <time>2021-08-11T09:10:37Z</time>
      </trkpt>
      <trkpt lat="44.40068" lon="6.76609">
        <ele>1497.42</ele>
        <time>2021-08-11T09:10:38Z</time>
      </trkpt>
      <trkpt lat="44.40067" lon="6.76613">
        <ele>1497.73</ele>
        <time>2021-08-11T09:10:39Z</time>
      </trkpt>
      <trkpt lat="44.40066" lon="6.76617">
        <ele>1498.08</ele>
        <time>2021-08-11T09:10:40Z</time>
      </trkpt>
      <trkpt lat="44.40065" lon="6.76621">
        <ele>1498.46</ele>
        <time>2021-08-11T09:10:41Z</time>
      </trkpt>
      <trkpt lat="44.40063" lon="6.76624">
        <ele>1498.55</ele>
        <time>2021-08-11T09:10:42Z</time>
      </trkpt>
      <trkpt lat="44.40062" lon="6.76627">
        <ele>1498.85</ele>
        <time>2021-08-11T09:10:43Z</time>
      </trkpt>
      <trkpt lat="44.4006" lon="6.76631">
        <ele>1499.2</ele>
        <time>2021-08-11T09:10:44Z</time>
      </trkpt>
      <trkpt lat="44.40058" lon="6.76634">
        <ele>1499.43</ele>
        <time>2021-08-11T09:10:45Z</time>
      </trkpt>
      <trkpt lat="44.40056" lon="6.76637">
        <ele>1499.71</ele>
        <time>2021-08-11T09:10:46Z</time>
      </trkpt>
      <trkpt lat="44.40054" lon="6.7664">
        <ele>1500.1</ele>
        <time>2021-08-11T09:10:47Z</time>
      </trkpt>
      <trkpt lat="44.40052" lon="6.76644">
        <ele>1500.61</ele>
        <time>2021-08-11T09:10:48Z</time>
      </trkpt>
      <trkpt lat="44.40049" lon="6.76648">
        <ele>1501.08</ele>
        <time>2021-08-11T09:10:50Z</time>
      </trkpt>
      <trkpt lat="44.40048" lon="6.76651">
        <ele>1501.47</ele>
        <time>2021-08-11T09:10:52Z</time>
      </trkpt>
      <trkpt lat="44.40045" lon="6.76655">
        <ele>1501.94</ele>
        <time>2021-08-11T09:11:22Z</time>
      </trkpt>
      <trkpt lat="44.40043" lon="6.76659">
        <ele>1502.44</ele>
        <time>2021-08-11T09:11:25Z</time>
      </trkpt>
      <trkpt lat="44.40039" lon="6.76665">
        <ele>1503.16</ele>
        <time>2021-08-11T09:11:27Z</time>
      </trkpt>
      <trkpt lat="44.40036" lon="6.76671">
        <ele>1504.19</ele>
        <time>2021-08-11T09:11:29Z</time>
      </trkpt>
      <trkpt lat="44.40031" lon="6.76678">
        <ele>1505.52</ele>
        <time>2021-08-11T09:11:30Z</time>
      </trkpt>
      <trkpt lat="44.40024" lon="6.76686">
        <ele>1507.26</ele>
        <time>2021-08-11T09:11:34Z</time>
      </trkpt>
      <trkpt lat="44.40017" lon="6.7669">
        <ele>1508.16</ele>
        <time>2021-08-11T09:11:36Z</time>
      </trkpt>
      <trkpt lat="44.40011" lon="6.76694">
        <ele>1508.92</ele>
        <time>2021-08-11T09:11:39Z</time>
      </trkpt>
      <trkpt lat="44.40004" lon="6.76697">
        <ele>1509.54</ele>
        <time>2021-08-11T09:11:41Z</time>
      </trkpt>
      <trkpt lat="44.39996" lon="6.76701">
        <ele>1510.81</ele>
        <time>2021-08-11T09:11:44Z</time>
      </trkpt>
      <trkpt lat="44.39988" lon="6.767">
        <ele>1511.41</ele>
        <time>2021-08-11T09:11:47Z</time>
      </trkpt>
      <trkpt lat="44.3998" lon="6.76702">
        <ele>1512.6</ele>
        <time>2021-08-11T09:11:51Z</time>
      </trkpt>
      <trkpt lat="44.39973" lon="6.76705">
        <ele>1513.83</ele>
        <time>2021-08-11T09:11:53Z</time>
      </trkpt>
      <trkpt lat="44.39963" lon="6.76708">
        <ele>1515.44</ele>
        <time>2021-08-11T09:11:56Z</time>
      </trkpt>
      <trkpt lat="44.39952" lon="6.7671">
        <ele>1516.98</ele>
        <time>2021-08-11T09:12:00Z</time>
      </trkpt>
      <trkpt lat="44.39942" lon="6.76712">
        <ele>1518.28</ele>
        <time>2021-08-11T09:12:04Z</time>
      </trkpt>
      <trkpt lat="44.39933" lon="6.76715">
        <ele>1519.22</ele>
        <time>2021-08-11T09:12:07Z</time>
      </trkpt>
      <trkpt lat="44.39925" lon="6.76721">
        <ele>1520.51</ele>
        <time>2021-08-11T09:12:11Z</time>
      </trkpt>
      <trkpt lat="44.39917" lon="6.7673">
        <ele>1521.55</ele>
        <time>2021-08-11T09:12:15Z</time>
      </trkpt>
      <trkpt lat="44.39909" lon="6.76737">
        <ele>1522.62</ele>
        <time>2021-08-11T09:12:17Z</time>
      </trkpt>
      <trkpt lat="44.399" lon="6.76742">
        <ele>1523.62</ele>
        <time>2021-08-11T09:12:20Z</time>
      </trkpt>
      <trkpt lat="44.3989" lon="6.76739">
        <ele>1524.13</ele>
        <time>2021-08-11T09:12:24Z</time>
      </trkpt>
      <trkpt lat="44.39882" lon="6.76734">
        <ele>1524.31</ele>
        <time>2021-08-11T09:12:27Z</time>
      </trkpt>
      <trkpt lat="44.39876" lon="6.76731">
        <ele>1524.39</ele>
        <time>2021-08-11T09:12:29Z</time>
      </trkpt>
      <trkpt lat="44.3987" lon="6.76728">
        <ele>1524.38</ele>
        <time>2021-08-11T09:12:32Z</time>
      </trkpt>
      <trkpt lat="44.39863" lon="6.76725">
        <ele>1524.32</ele>
        <time>2021-08-11T09:12:33Z</time>
      </trkpt>
      <trkpt lat="44.39852" lon="6.76724">
        <ele>1526.57</ele>
        <time>2021-08-11T09:12:38Z</time>
      </trkpt>
      <trkpt lat="44.39842" lon="6.76727">
        <ele>1529.62</ele>
        <time>2021-08-11T09:12:44Z</time>
      </trkpt>
      <trkpt lat="44.39832" lon="6.76721">
        <ele>1531.31</ele>
        <time>2021-08-11T09:12:49Z</time>
      </trkpt>
      <trkpt lat="44.39822" lon="6.76716">
        <ele>1534.28</ele>
        <time>2021-08-11T09:12:52Z</time>
      </trkpt>
      <trkpt lat="44.39814" lon="6.76712">
        <ele>1536.74</ele>
        <time>2021-08-11T09:12:54Z</time>
      </trkpt>
      <trkpt lat="44.39806" lon="6.76706">
        <ele>1539.08</ele>
        <time>2021-08-11T09:12:57Z</time>
      </trkpt>
      <trkpt lat="44.39799" lon="6.76697">
        <ele>1540.4</ele>
        <time>2021-08-11T09:12:59Z</time>
      </trkpt>
      <trkpt lat="44.39793" lon="6.76687">
        <ele>1540.97</ele>
        <time>2021-08-11T09:13:02Z</time>
      </trkpt>
      <trkpt lat="44.39788" lon="6.7667">
        <ele>1540.4</ele>
        <time>2021-08-11T09:13:08Z</time>
      </trkpt>
      <trkpt lat="44.39783" lon="6.76659">
        <ele>1541.21</ele>
        <time>2021-08-11T09:13:10Z</time>
      </trkpt>
      <trkpt lat="44.39778" lon="6.76641">
        <ele>1541.15</ele>
        <time>2021-08-11T09:13:14Z</time>
      </trkpt>
      <trkpt lat="44.39774" lon="6.76629">
        <ele>1540.39</ele>
        <time>2021-08-11T09:13:17Z</time>
      </trkpt>
      <trkpt lat="44.39769" lon="6.76613">
        <ele>1539.17</ele>
        <time>2021-08-11T09:13:22Z</time>
      </trkpt>
      <trkpt lat="44.39765" lon="6.76601">
        <ele>1538.67</ele>
        <time>2021-08-11T09:13:26Z</time>
      </trkpt>
      <trkpt lat="44.39759" lon="6.7659">
        <ele>1538.78</ele>
        <time>2021-08-11T09:13:31Z</time>
      </trkpt>
      <trkpt lat="44.3975" lon="6.76586">
        <ele>1540.29</ele>
        <time>2021-08-11T09:13:36Z</time>
      </trkpt>
      <trkpt lat="44.3974" lon="6.76584">
        <ele>1541.85</ele>
        <time>2021-08-11T09:13:40Z</time>
      </trkpt>
      <trkpt lat="44.39731" lon="6.76584">
        <ele>1543.44</ele>
        <time>2021-08-11T09:13:43Z</time>
      </trkpt>
      <trkpt lat="44.39728" lon="6.76584">
        <ele>1543.97</ele>
        <time>2021-08-11T09:14:02Z</time>
      </trkpt>
      <trkpt lat="44.39724" lon="6.76584">
        <ele>1544.68</ele>
        <time>2021-08-11T09:17:41Z</time>
      </trkpt>
      <trkpt lat="44.39721" lon="6.76584">
        <ele>1544.96</ele>
        <time>2021-08-11T09:17:43Z</time>
      </trkpt>
      <trkpt lat="44.39718" lon="6.76584">
        <ele>1544.85</ele>
        <time>2021-08-11T09:17:45Z</time>
      </trkpt>
      <trkpt lat="44.39712" lon="6.7658">
        <ele>1544.28</ele>
        <time>2021-08-11T09:17:53Z</time>
      </trkpt>
      <trkpt lat="44.397" lon="6.76584">
        <ele>1544.2</ele>
        <time>2021-08-11T09:17:57Z</time>
      </trkpt>
      <trkpt lat="44.39688" lon="6.76591">
        <ele>1543.96</ele>
        <time>2021-08-11T09:18:03Z</time>
      </trkpt>
      <trkpt lat="44.3968" lon="6.76599">
        <ele>1544.36</ele>
        <time>2021-08-11T09:18:10Z</time>
      </trkpt>
      <trkpt lat="44.39673" lon="6.76612">
        <ele>1545.7</ele>
        <time>2021-08-11T09:18:15Z</time>
      </trkpt>
      <trkpt lat="44.39664" lon="6.76624">
        <ele>1548.47</ele>
        <time>2021-08-11T09:18:19Z</time>
      </trkpt>
      <trkpt lat="44.39654" lon="6.76632">
        <ele>1550.1</ele>
        <time>2021-08-11T09:18:23Z</time>
      </trkpt>
      <trkpt lat="44.39645" lon="6.76639">
        <ele>1551.02</ele>
        <time>2021-08-11T09:18:27Z</time>
      </trkpt>
      <trkpt lat="44.39635" lon="6.76645">
        <ele>1552.44</ele>
        <time>2021-08-11T09:18:31Z</time>
      </trkpt>
      <trkpt lat="44.39626" lon="6.76652">
        <ele>1554.73</ele>
        <time>2021-08-11T09:18:37Z</time>
      </trkpt>
      <trkpt lat="44.39616" lon="6.76656">
        <ele>1556.74</ele>
        <time>2021-08-11T09:18:40Z</time>
      </trkpt>
      <trkpt lat="44.39607" lon="6.7666">
        <ele>1557.91</ele>
        <time>2021-08-11T09:18:45Z</time>
      </trkpt>
      <trkpt lat="44.39598" lon="6.76663">
        <ele>1557.72</ele>
        <time>2021-08-11T09:18:50Z</time>
      </trkpt>
      <trkpt lat="44.39588" lon="6.76667">
        <ele>1557.57</ele>
        <time>2021-08-11T09:18:55Z</time>
      </trkpt>
      <trkpt lat="44.39577" lon="6.76672">
        <ele>1557.88</ele>
        <time>2021-08-11T09:19:01Z</time>
      </trkpt>
      <trkpt lat="44.39567" lon="6.76675">
        <ele>1558.04</ele>
        <time>2021-08-11T09:19:05Z</time>
      </trkpt>
      <trkpt lat="44.39558" lon="6.76677">
        <ele>1557.98</ele>
        <time>2021-08-11T09:19:09Z</time>
      </trkpt>
      <trkpt lat="44.39549" lon="6.76678">
        <ele>1558.15</ele>
        <time>2021-08-11T09:19:13Z</time>
      </trkpt>
      <trkpt lat="44.39537" lon="6.76682">
        <ele>1559.64</ele>
        <time>2021-08-11T09:19:18Z</time>
      </trkpt>
      <trkpt lat="44.39529" lon="6.76688">
        <ele>1562.33</ele>
        <time>2021-08-11T09:19:22Z</time>
      </trkpt>
      <trkpt lat="44.3952" lon="6.76697">
        <ele>1564.54</ele>
        <time>2021-08-11T09:19:26Z</time>
      </trkpt>
      <trkpt lat="44.39512" lon="6.76704">
        <ele>1565.11</ele>
        <time>2021-08-11T09:19:31Z</time>
      </trkpt>
      <trkpt lat="44.39505" lon="6.76712">
        <ele>1566.51</ele>
        <time>2021-08-11T09:19:36Z</time>
      </trkpt>
      <trkpt lat="44.39497" lon="6.7672">
        <ele>1567.59</ele>
        <time>2021-08-11T09:19:40Z</time>
      </trkpt>
      <trkpt lat="44.39489" lon="6.76728">
        <ele>1566.79</ele>
        <time>2021-08-11T09:19:45Z</time>
      </trkpt>
      <trkpt lat="44.39482" lon="6.76736">
        <ele>1565.97</ele>
        <time>2021-08-11T09:19:48Z</time>
      </trkpt>
      <trkpt lat="44.39474" lon="6.76746">
        <ele>1564.99</ele>
        <time>2021-08-11T09:19:52Z</time>
      </trkpt>
      <trkpt lat="44.39467" lon="6.76756">
        <ele>1564.55</ele>
        <time>2021-08-11T09:19:56Z</time>
      </trkpt>
      <trkpt lat="44.39464" lon="6.76767">
        <ele>1565.38</ele>
        <time>2021-08-11T09:20:00Z</time>
      </trkpt>
      <trkpt lat="44.39461" lon="6.76781">
        <ele>1566.52</ele>
        <time>2021-08-11T09:20:05Z</time>
      </trkpt>
      <trkpt lat="44.39458" lon="6.76794">
        <ele>1567.17</ele>
        <time>2021-08-11T09:20:08Z</time>
      </trkpt>
      <trkpt lat="44.39455" lon="6.76803">
        <ele>1567.38</ele>
        <time>2021-08-11T09:20:11Z</time>
      </trkpt>
      <trkpt lat="44.39452" lon="6.76814">
        <ele>1568.04</ele>
        <time>2021-08-11T09:20:14Z</time>
      </trkpt>
      <trkpt lat="44.39448" lon="6.76824">
        <ele>1568.47</ele>
        <time>2021-08-11T09:20:18Z</time>
      </trkpt>
      <trkpt lat="44.39445" lon="6.76835">
        <ele>1569.42</ele>
        <time>2021-08-11T09:20:22Z</time>
      </trkpt>
      <trkpt lat="44.39441" lon="6.76845">
        <ele>1570.55</ele>
        <time>2021-08-11T09:20:25Z</time>
      </trkpt>
      <trkpt lat="44.39438" lon="6.76855">
        <ele>1571.79</ele>
        <time>2021-08-11T09:20:28Z</time>
      </trkpt>
      <trkpt lat="44.39434" lon="6.76865">
        <ele>1572.91</ele>
        <time>2021-08-11T09:20:31Z</time>
      </trkpt>
      <trkpt lat="44.39431" lon="6.76873">
        <ele>1573.94</ele>
        <time>2021-08-11T09:20:34Z</time>
      </trkpt>
      <trkpt lat="44.39428" lon="6.76884">
        <ele>1575.5</ele>
        <time>2021-08-11T09:20:37Z</time>
      </trkpt>
      <trkpt lat="44.39427" lon="6.76891">
        <ele>1576.63</ele>
        <time>2021-08-11T09:20:44Z</time>
      </trkpt>
      <trkpt lat="44.39426" lon="6.76896">
        <ele>1577.38</ele>
        <time>2021-08-11T09:21:04Z</time>
      </trkpt>
      <trkpt lat="44.39426" lon="6.769">
        <ele>1578.15</ele>
        <time>2021-08-11T09:21:06Z</time>
      </trkpt>
      <trkpt lat="44.39424" lon="6.7691">
        <ele>1579.74</ele>
        <time>2021-08-11T09:21:09Z</time>
      </trkpt>
      <trkpt lat="44.39422" lon="6.76925">
        <ele>1582.15</ele>
        <time>2021-08-11T09:21:15Z</time>
      </trkpt>
      <trkpt lat="44.39422" lon="6.76934">
        <ele>1583.65</ele>
        <time>2021-08-11T09:21:17Z</time>
      </trkpt>
      <trkpt lat="44.39422" lon="6.76938">
        <ele>1584.31</ele>
        <time>2021-08-11T09:21:30Z</time>
      </trkpt>
      <trkpt lat="44.39422" lon="6.76942">
        <ele>1584.98</ele>
        <time>2021-08-11T09:21:37Z</time>
      </trkpt>
      <trkpt lat="44.39422" lon="6.76949">
        <ele>1585.71</ele>
        <time>2021-08-11T09:21:38Z</time>
      </trkpt>
      <trkpt lat="44.39422" lon="6.76966">
        <ele>1586.94</ele>
        <time>2021-08-11T09:21:44Z</time>
      </trkpt>
      <trkpt lat="44.39421" lon="6.76976">
        <ele>1587.61</ele>
        <time>2021-08-11T09:21:46Z</time>
      </trkpt>
      <trkpt lat="44.3942" lon="6.76986">
        <ele>1588.29</ele>
        <time>2021-08-11T09:21:48Z</time>
      </trkpt>
      <trkpt lat="44.39417" lon="6.77002">
        <ele>1589.18</ele>
        <time>2021-08-11T09:21:54Z</time>
      </trkpt>
      <trkpt lat="44.39414" lon="6.77017">
        <ele>1589.55</ele>
        <time>2021-08-11T09:21:58Z</time>
      </trkpt>
      <trkpt lat="44.39411" lon="6.77029">
        <ele>1589.78</ele>
        <time>2021-08-11T09:22:03Z</time>
      </trkpt>
      <trkpt lat="44.39405" lon="6.77044">
        <ele>1590.73</ele>
        <time>2021-08-11T09:22:08Z</time>
      </trkpt>
      <trkpt lat="44.39409" lon="6.77057">
        <ele>1594.04</ele>
        <time>2021-08-11T09:22:12Z</time>
      </trkpt>
      <trkpt lat="44.39417" lon="6.77052">
        <ele>1595.44</ele>
        <time>2021-08-11T09:22:16Z</time>
      </trkpt>
      <trkpt lat="44.39425" lon="6.77041">
        <ele>1595.17</ele>
        <time>2021-08-11T09:22:20Z</time>
      </trkpt>
      <trkpt lat="44.39432" lon="6.77026">
        <ele>1593.56</ele>
        <time>2021-08-11T09:22:26Z</time>
      </trkpt>
      <trkpt lat="44.39434" lon="6.77021">
        <ele>1593.33</ele>
        <time>2021-08-11T09:22:34Z</time>
      </trkpt>
      <trkpt lat="44.39438" lon="6.77022">
        <ele>1594.1</ele>
        <time>2021-08-11T09:24:51Z</time>
      </trkpt>
      <trkpt lat="44.39439" lon="6.77028">
        <ele>1595.07</ele>
        <time>2021-08-11T09:24:52Z</time>
      </trkpt>
      <trkpt lat="44.39437" lon="6.77034">
        <ele>1596.11</ele>
        <time>2021-08-11T09:24:54Z</time>
      </trkpt>
      <trkpt lat="44.39434" lon="6.7704">
        <ele>1596.87</ele>
        <time>2021-08-11T09:24:56Z</time>
      </trkpt>
      <trkpt lat="44.39432" lon="6.77045">
        <ele>1597.54</ele>
        <time>2021-08-11T09:24:57Z</time>
      </trkpt>
      <trkpt lat="44.39429" lon="6.77049">
        <ele>1597.72</ele>
        <time>2021-08-11T09:24:59Z</time>
      </trkpt>
      <trkpt lat="44.39426" lon="6.77055">
        <ele>1598.24</ele>
        <time>2021-08-11T09:25:01Z</time>
      </trkpt>
      <trkpt lat="44.39423" lon="6.77059">
        <ele>1598.36</ele>
        <time>2021-08-11T09:25:02Z</time>
      </trkpt>
      <trkpt lat="44.3942" lon="6.77064">
        <ele>1598.54</ele>
        <time>2021-08-11T09:25:04Z</time>
      </trkpt>
      <trkpt lat="44.39418" lon="6.77066">
        <ele>1598.31</ele>
        <time>2021-08-11T09:25:05Z</time>
      </trkpt>
      <trkpt lat="44.39415" lon="6.77072">
        <ele>1598.44</ele>
        <time>2021-08-11T09:25:07Z</time>
      </trkpt>
      <trkpt lat="44.39411" lon="6.77077">
        <ele>1598.07</ele>
        <time>2021-08-11T09:25:09Z</time>
      </trkpt>
      <trkpt lat="44.39407" lon="6.77082">
        <ele>1597.64</ele>
        <time>2021-08-11T09:25:11Z</time>
      </trkpt>
      <trkpt lat="44.39404" lon="6.77085">
        <ele>1597.23</ele>
        <time>2021-08-11T09:25:12Z</time>
      </trkpt>
      <trkpt lat="44.39401" lon="6.77089">
        <ele>1597.01</ele>
        <time>2021-08-11T09:25:14Z</time>
      </trkpt>
      <trkpt lat="44.39399" lon="6.77092">
        <ele>1596.86</ele>
        <time>2021-08-11T09:25:15Z</time>
      </trkpt>
      <trkpt lat="44.39397" lon="6.77095">
        <ele>1596.68</ele>
        <time>2021-08-11T09:25:16Z</time>
      </trkpt>
      <trkpt lat="44.39394" lon="6.77097">
        <ele>1595.9</ele>
        <time>2021-08-11T09:25:17Z</time>
      </trkpt>
      <trkpt lat="44.39392" lon="6.771">
        <ele>1595.61</ele>
        <time>2021-08-11T09:25:18Z</time>
      </trkpt>
      <trkpt lat="44.39388" lon="6.77105">
        <ele>1594.9</ele>
        <time>2021-08-11T09:25:20Z</time>
      </trkpt>
      <trkpt lat="44.39384" lon="6.77109">
        <ele>1594.48</ele>
        <time>2021-08-11T09:25:22Z</time>
      </trkpt>
      <trkpt lat="44.39381" lon="6.77113">
        <ele>1594.47</ele>
        <time>2021-08-11T09:25:23Z</time>
      </trkpt>
      <trkpt lat="44.39378" lon="6.77117">
        <ele>1594.66</ele>
        <time>2021-08-11T09:25:25Z</time>
      </trkpt>
      <trkpt lat="44.39376" lon="6.77119">
        <ele>1594.61</ele>
        <time>2021-08-11T09:25:26Z</time>
      </trkpt>
      <trkpt lat="44.39373" lon="6.77122">
        <ele>1594.52</ele>
        <time>2021-08-11T09:25:27Z</time>
      </trkpt>
      <trkpt lat="44.39371" lon="6.77125">
        <ele>1594.67</ele>
        <time>2021-08-11T09:25:28Z</time>
      </trkpt>
      <trkpt lat="44.39368" lon="6.77129">
        <ele>1594.76</ele>
        <time>2021-08-11T09:25:30Z</time>
      </trkpt>
      <trkpt lat="44.39366" lon="6.77131">
        <ele>1594.65</ele>
        <time>2021-08-11T09:25:31Z</time>
      </trkpt>
      <trkpt lat="44.39363" lon="6.77134">
        <ele>1594.48</ele>
        <time>2021-08-11T09:25:32Z</time>
      </trkpt>
      <trkpt lat="44.39361" lon="6.77137">
        <ele>1594.58</ele>
        <time>2021-08-11T09:25:33Z</time>
      </trkpt>
      <trkpt lat="44.39358" lon="6.77141">
        <ele>1595.34</ele>
        <time>2021-08-11T09:25:35Z</time>
      </trkpt>
      <trkpt lat="44.39354" lon="6.77146">
        <ele>1596.47</ele>
        <time>2021-08-11T09:25:37Z</time>
      </trkpt>
      <trkpt lat="44.39352" lon="6.7715">
        <ele>1597.48</ele>
        <time>2021-08-11T09:25:38Z</time>
      </trkpt>
      <trkpt lat="44.39349" lon="6.77154">
        <ele>1598.35</ele>
        <time>2021-08-11T09:25:40Z</time>
      </trkpt>
      <trkpt lat="44.39346" lon="6.77159">
        <ele>1599.49</ele>
        <time>2021-08-11T09:25:42Z</time>
      </trkpt>
      <trkpt lat="44.39344" lon="6.77162">
        <ele>1600.13</ele>
        <time>2021-08-11T09:25:43Z</time>
      </trkpt>
      <trkpt lat="44.39341" lon="6.77166">
        <ele>1600.91</ele>
        <time>2021-08-11T09:25:45Z</time>
      </trkpt>
      <trkpt lat="44.39337" lon="6.77171">
        <ele>1601.57</ele>
        <time>2021-08-11T09:25:47Z</time>
      </trkpt>
      <trkpt lat="44.39335" lon="6.77175">
        <ele>1602.13</ele>
        <time>2021-08-11T09:25:48Z</time>
      </trkpt>
      <trkpt lat="44.39333" lon="6.77179">
        <ele>1602.63</ele>
        <time>2021-08-11T09:25:50Z</time>
      </trkpt>
      <trkpt lat="44.39329" lon="6.77185">
        <ele>1603.59</ele>
        <time>2021-08-11T09:25:52Z</time>
      </trkpt>
      <trkpt lat="44.39327" lon="6.77189">
        <ele>1604.32</ele>
        <time>2021-08-11T09:25:53Z</time>
      </trkpt>
      <trkpt lat="44.39325" lon="6.77194">
        <ele>1605.3</ele>
        <time>2021-08-11T09:25:55Z</time>
      </trkpt>
      <trkpt lat="44.39322" lon="6.772">
        <ele>1606.46</ele>
        <time>2021-08-11T09:25:57Z</time>
      </trkpt>
      <trkpt lat="44.3932" lon="6.77203">
        <ele>1606.91</ele>
        <time>2021-08-11T09:25:58Z</time>
      </trkpt>
      <trkpt lat="44.39317" lon="6.77208">
        <ele>1607.58</ele>
        <time>2021-08-11T09:26:00Z</time>
      </trkpt>
      <trkpt lat="44.39314" lon="6.77212">
        <ele>1607.9</ele>
        <time>2021-08-11T09:26:02Z</time>
      </trkpt>
      <trkpt lat="44.39312" lon="6.77215">
        <ele>1608.11</ele>
        <time>2021-08-11T09:26:03Z</time>
      </trkpt>
      <trkpt lat="44.39309" lon="6.77221">
        <ele>1608.55</ele>
        <time>2021-08-11T09:26:05Z</time>
      </trkpt>
      <trkpt lat="44.39307" lon="6.77227">
        <ele>1609.03</ele>
        <time>2021-08-11T09:26:07Z</time>
      </trkpt>
      <trkpt lat="44.39305" lon="6.77232">
        <ele>1609.3</ele>
        <time>2021-08-11T09:26:08Z</time>
      </trkpt>
      <trkpt lat="44.39303" lon="6.77236">
        <ele>1609.48</ele>
        <time>2021-08-11T09:26:10Z</time>
      </trkpt>
      <trkpt lat="44.39301" lon="6.77243">
        <ele>1610.13</ele>
        <time>2021-08-11T09:26:12Z</time>
      </trkpt>
      <trkpt lat="44.393" lon="6.77247">
        <ele>1610.55</ele>
        <time>2021-08-11T09:26:13Z</time>
      </trkpt>
      <trkpt lat="44.39299" lon="6.77252">
        <ele>1611.07</ele>
        <time>2021-08-11T09:26:15Z</time>
      </trkpt>
      <trkpt lat="44.39297" lon="6.77259">
        <ele>1611.56</ele>
        <time>2021-08-11T09:26:17Z</time>
      </trkpt>
      <trkpt lat="44.39297" lon="6.77264">
        <ele>1612.17</ele>
        <time>2021-08-11T09:26:18Z</time>
      </trkpt>
      <trkpt lat="44.39296" lon="6.77269">
        <ele>1612.55</ele>
        <time>2021-08-11T09:26:20Z</time>
      </trkpt>
      <trkpt lat="44.39295" lon="6.77276">
        <ele>1613.13</ele>
        <time>2021-08-11T09:26:22Z</time>
      </trkpt>
      <trkpt lat="44.39294" lon="6.77282">
        <ele>1613.57</ele>
        <time>2021-08-11T09:26:23Z</time>
      </trkpt>
      <trkpt lat="44.39293" lon="6.77287">
        <ele>1613.86</ele>
        <time>2021-08-11T09:26:25Z</time>
      </trkpt>
      <trkpt lat="44.39292" lon="6.77293">
        <ele>1614.24</ele>
        <time>2021-08-11T09:26:27Z</time>
      </trkpt>
      <trkpt lat="44.39291" lon="6.77298">
        <ele>1614.48</ele>
        <time>2021-08-11T09:26:28Z</time>
      </trkpt>
      <trkpt lat="44.39289" lon="6.77304">
        <ele>1614.48</ele>
        <time>2021-08-11T09:26:30Z</time>
      </trkpt>
      <trkpt lat="44.39288" lon="6.7731">
        <ele>1614.89</ele>
        <time>2021-08-11T09:26:32Z</time>
      </trkpt>
      <trkpt lat="44.39287" lon="6.77314">
        <ele>1615.1</ele>
        <time>2021-08-11T09:26:33Z</time>
      </trkpt>
      <trkpt lat="44.39285" lon="6.7732">
        <ele>1615.28</ele>
        <time>2021-08-11T09:26:35Z</time>
      </trkpt>
      <trkpt lat="44.39283" lon="6.77327">
        <ele>1615.63</ele>
        <time>2021-08-11T09:26:37Z</time>
      </trkpt>
      <trkpt lat="44.39282" lon="6.77331">
        <ele>1615.89</ele>
        <time>2021-08-11T09:26:38Z</time>
      </trkpt>
      <trkpt lat="44.3928" lon="6.77337">
        <ele>1616.17</ele>
        <time>2021-08-11T09:26:40Z</time>
      </trkpt>
      <trkpt lat="44.39277" lon="6.77343">
        <ele>1616.15</ele>
        <time>2021-08-11T09:26:42Z</time>
      </trkpt>
      <trkpt lat="44.39276" lon="6.77346">
        <ele>1616.28</ele>
        <time>2021-08-11T09:26:43Z</time>
      </trkpt>
      <trkpt lat="44.39273" lon="6.77351">
        <ele>1616.11</ele>
        <time>2021-08-11T09:26:45Z</time>
      </trkpt>
      <trkpt lat="44.39272" lon="6.77355">
        <ele>1616.41</ele>
        <time>2021-08-11T09:26:46Z</time>
      </trkpt>
      <trkpt lat="44.39268" lon="6.77362">
        <ele>1616.38</ele>
        <time>2021-08-11T09:26:48Z</time>
      </trkpt>
      <trkpt lat="44.39266" lon="6.77366">
        <ele>1616.66</ele>
        <time>2021-08-11T09:26:50Z</time>
      </trkpt>
      <trkpt lat="44.39264" lon="6.7737">
        <ele>1616.95</ele>
        <time>2021-08-11T09:26:52Z</time>
      </trkpt>
      <trkpt lat="44.39262" lon="6.77374">
        <ele>1617.24</ele>
        <time>2021-08-11T09:26:53Z</time>
      </trkpt>
      <trkpt lat="44.3926" lon="6.77378">
        <ele>1617.53</ele>
        <time>2021-08-11T09:26:55Z</time>
      </trkpt>
      <trkpt lat="44.39257" lon="6.77383">
        <ele>1617.74</ele>
        <time>2021-08-11T09:26:57Z</time>
      </trkpt>
      <trkpt lat="44.39256" lon="6.77387">
        <ele>1618.32</ele>
        <time>2021-08-11T09:26:58Z</time>
      </trkpt>
      <trkpt lat="44.39253" lon="6.77392">
        <ele>1618.31</ele>
        <time>2021-08-11T09:27:00Z</time>
      </trkpt>
      <trkpt lat="44.3925" lon="6.77398">
        <ele>1618.31</ele>
        <time>2021-08-11T09:27:02Z</time>
      </trkpt>
      <trkpt lat="44.39249" lon="6.77402">
        <ele>1618.7</ele>
        <time>2021-08-11T09:27:03Z</time>
      </trkpt>
      <trkpt lat="44.39247" lon="6.77406">
        <ele>1618.97</ele>
        <time>2021-08-11T09:27:05Z</time>
      </trkpt>
      <trkpt lat="44.39244" lon="6.77412">
        <ele>1619.53</ele>
        <time>2021-08-11T09:27:07Z</time>
      </trkpt>
      <trkpt lat="44.39243" lon="6.77415">
        <ele>1619.94</ele>
        <time>2021-08-11T09:27:08Z</time>
      </trkpt>
      <trkpt lat="44.3924" lon="6.77421">
        <ele>1621.01</ele>
        <time>2021-08-11T09:27:10Z</time>
      </trkpt>
      <trkpt lat="44.39239" lon="6.77424">
        <ele>1621.66</ele>
        <time>2021-08-11T09:27:11Z</time>
      </trkpt>
      <trkpt lat="44.39237" lon="6.77427">
        <ele>1622.2</ele>
        <time>2021-08-11T09:27:12Z</time>
      </trkpt>
      <trkpt lat="44.39236" lon="6.77432">
        <ele>1623.35</ele>
        <time>2021-08-11T09:27:13Z</time>
      </trkpt>
      <trkpt lat="44.39233" lon="6.77436">
        <ele>1624.04</ele>
        <time>2021-08-11T09:27:15Z</time>
      </trkpt>
      <trkpt lat="44.3923" lon="6.77442">
        <ele>1625.22</ele>
        <time>2021-08-11T09:27:17Z</time>
      </trkpt>
      <trkpt lat="44.39228" lon="6.77446">
        <ele>1625.87</ele>
        <time>2021-08-11T09:27:18Z</time>
      </trkpt>
      <trkpt lat="44.39226" lon="6.77451">
        <ele>1626.42</ele>
        <time>2021-08-11T09:27:20Z</time>
      </trkpt>
      <trkpt lat="44.39223" lon="6.77457">
        <ele>1626.92</ele>
        <time>2021-08-11T09:27:22Z</time>
      </trkpt>
      <trkpt lat="44.39221" lon="6.7746">
        <ele>1627.03</ele>
        <time>2021-08-11T09:27:23Z</time>
      </trkpt>
      <trkpt lat="44.39219" lon="6.77465">
        <ele>1627.44</ele>
        <time>2021-08-11T09:27:25Z</time>
      </trkpt>
      <trkpt lat="44.39217" lon="6.77468">
        <ele>1627.58</ele>
        <time>2021-08-11T09:27:26Z</time>
      </trkpt>
      <trkpt lat="44.39214" lon="6.77474">
        <ele>1628.09</ele>
        <time>2021-08-11T09:27:28Z</time>
      </trkpt>
      <trkpt lat="44.39211" lon="6.77478">
        <ele>1628.3</ele>
        <time>2021-08-11T09:27:29Z</time>
      </trkpt>
      <trkpt lat="44.39208" lon="6.77482">
        <ele>1628.54</ele>
        <time>2021-08-11T09:27:31Z</time>
      </trkpt>
      <trkpt lat="44.39204" lon="6.77487">
        <ele>1628.85</ele>
        <time>2021-08-11T09:27:33Z</time>
      </trkpt>
      <trkpt lat="44.39202" lon="6.7749">
        <ele>1629.11</ele>
        <time>2021-08-11T09:27:34Z</time>
      </trkpt>
      <trkpt lat="44.39198" lon="6.77494">
        <ele>1629.33</ele>
        <time>2021-08-11T09:27:36Z</time>
      </trkpt>
      <trkpt lat="44.39194" lon="6.77498">
        <ele>1629.54</ele>
        <time>2021-08-11T09:27:38Z</time>
      </trkpt>
      <trkpt lat="44.39191" lon="6.77501">
        <ele>1629.36</ele>
        <time>2021-08-11T09:27:39Z</time>
      </trkpt>
      <trkpt lat="44.39188" lon="6.77504">
        <ele>1629.04</ele>
        <time>2021-08-11T09:27:41Z</time>
      </trkpt>
      <trkpt lat="44.39183" lon="6.77508">
        <ele>1628.39</ele>
        <time>2021-08-11T09:27:43Z</time>
      </trkpt>
      <trkpt lat="44.39181" lon="6.77511">
        <ele>1628.28</ele>
        <time>2021-08-11T09:27:44Z</time>
      </trkpt>
      <trkpt lat="44.39178" lon="6.77513">
        <ele>1627.85</ele>
        <time>2021-08-11T09:27:46Z</time>
      </trkpt>
      <trkpt lat="44.39176" lon="6.77516">
        <ele>1627.74</ele>
        <time>2021-08-11T09:27:48Z</time>
      </trkpt>
      <trkpt lat="44.39173" lon="6.77521">
        <ele>1627.64</ele>
        <time>2021-08-11T09:27:50Z</time>
      </trkpt>
      <trkpt lat="44.39169" lon="6.77526">
        <ele>1627.31</ele>
        <time>2021-08-11T09:27:52Z</time>
      </trkpt>
      <trkpt lat="44.39165" lon="6.77532">
        <ele>1627.27</ele>
        <time>2021-08-11T09:27:54Z</time>
      </trkpt>
      <trkpt lat="44.39164" lon="6.77537">
        <ele>1627.82</ele>
        <time>2021-08-11T09:27:56Z</time>
      </trkpt>
      <trkpt lat="44.39164" lon="6.77543">
        <ele>1628.72</ele>
        <time>2021-08-11T09:27:58Z</time>
      </trkpt>
      <trkpt lat="44.39166" lon="6.77548">
        <ele>1629.8</ele>
        <time>2021-08-11T09:27:59Z</time>
      </trkpt>
      <trkpt lat="44.39168" lon="6.77553">
        <ele>1630.92</ele>
        <time>2021-08-11T09:28:01Z</time>
      </trkpt>
      <trkpt lat="44.39171" lon="6.77556">
        <ele>1632.05</ele>
        <time>2021-08-11T09:31:18Z</time>
      </trkpt>
      <trkpt lat="44.39174" lon="6.77557">
        <ele>1632.93</ele>
        <time>2021-08-11T09:31:21Z</time>
      </trkpt>
      <trkpt lat="44.39177" lon="6.77558">
        <ele>1633.82</ele>
        <time>2021-08-11T09:31:24Z</time>
      </trkpt>
      <trkpt lat="44.3918" lon="6.77558">
        <ele>1634.45</ele>
        <time>2021-08-11T09:31:28Z</time>
      </trkpt>
      <trkpt lat="44.39182" lon="6.77555">
        <ele>1634.23</ele>
        <time>2021-08-11T09:32:25Z</time>
      </trkpt>
      <trkpt lat="44.39185" lon="6.77554">
        <ele>1634.74</ele>
        <time>2021-08-11T09:32:27Z</time>
      </trkpt>
      <trkpt lat="44.39189" lon="6.77553">
        <ele>1635.46</ele>
        <time>2021-08-11T09:32:30Z</time>
      </trkpt>
      <trkpt lat="44.39192" lon="6.7755">
        <ele>1635.67</ele>
        <time>2021-08-11T09:32:32Z</time>
      </trkpt>
      <trkpt lat="44.39196" lon="6.77548">
        <ele>1636.27</ele>
        <time>2021-08-11T09:32:34Z</time>
      </trkpt>
      <trkpt lat="44.39199" lon="6.77547">
        <ele>1636.81</ele>
        <time>2021-08-11T09:32:36Z</time>
      </trkpt>
      <trkpt lat="44.39203" lon="6.77545">
        <ele>1637.4</ele>
        <time>2021-08-11T09:32:38Z</time>
      </trkpt>
      <trkpt lat="44.39206" lon="6.77543">
        <ele>1637.73</ele>
        <time>2021-08-11T09:32:40Z</time>
      </trkpt>
      <trkpt lat="44.3921" lon="6.77541">
        <ele>1638.24</ele>
        <time>2021-08-11T09:32:42Z</time>
      </trkpt>
      <trkpt lat="44.39213" lon="6.77539">
        <ele>1638.5</ele>
        <time>2021-08-11T09:32:44Z</time>
      </trkpt>
      <trkpt lat="44.39217" lon="6.77536">
        <ele>1638.72</ele>
        <time>2021-08-11T09:32:46Z</time>
      </trkpt>
      <trkpt lat="44.3922" lon="6.77533">
        <ele>1638.7</ele>
        <time>2021-08-11T09:32:48Z</time>
      </trkpt>
      <trkpt lat="44.39224" lon="6.7753">
        <ele>1639.06</ele>
        <time>2021-08-11T09:32:50Z</time>
      </trkpt>
      <trkpt lat="44.39227" lon="6.77526">
        <ele>1639.21</ele>
        <time>2021-08-11T09:32:52Z</time>
      </trkpt>
      <trkpt lat="44.3923" lon="6.77524">
        <ele>1639.76</ele>
        <time>2021-08-11T09:32:53Z</time>
      </trkpt>
      <trkpt lat="44.39233" lon="6.7752">
        <ele>1639.87</ele>
        <time>2021-08-11T09:32:55Z</time>
      </trkpt>
      <trkpt lat="44.39238" lon="6.77516">
        <ele>1640.51</ele>
        <time>2021-08-11T09:32:57Z</time>
      </trkpt>
      <trkpt lat="44.3924" lon="6.77513">
        <ele>1640.42</ele>
        <time>2021-08-11T09:32:58Z</time>
      </trkpt>
      <trkpt lat="44.39243" lon="6.77509">
        <ele>1640.34</ele>
        <time>2021-08-11T09:33:00Z</time>
      </trkpt>
      <trkpt lat="44.39247" lon="6.77504">
        <ele>1640.22</ele>
        <time>2021-08-11T09:33:02Z</time>
      </trkpt>
      <trkpt lat="44.3925" lon="6.77501">
        <ele>1640.25</ele>
        <time>2021-08-11T09:33:03Z</time>
      </trkpt>
      <trkpt lat="44.39254" lon="6.77497">
        <ele>1640.92</ele>
        <time>2021-08-11T09:33:05Z</time>
      </trkpt>
      <trkpt lat="44.39256" lon="6.77494">
        <ele>1641.03</ele>
        <time>2021-08-11T09:33:06Z</time>
      </trkpt>
      <trkpt lat="44.39258" lon="6.77492">
        <ele>1641.36</ele>
        <time>2021-08-11T09:33:07Z</time>
      </trkpt>
      <trkpt lat="44.3926" lon="6.77489">
        <ele>1641.44</ele>
        <time>2021-08-11T09:33:08Z</time>
      </trkpt>
      <trkpt lat="44.39264" lon="6.77484">
        <ele>1641.8</ele>
        <time>2021-08-11T09:33:10Z</time>
      </trkpt>
      <trkpt lat="44.39266" lon="6.77482">
        <ele>1642.07</ele>
        <time>2021-08-11T09:33:11Z</time>
      </trkpt>
      <trkpt lat="44.39268" lon="6.77479">
        <ele>1642.1</ele>
        <time>2021-08-11T09:33:12Z</time>
      </trkpt>
      <trkpt lat="44.39271" lon="6.77475">
        <ele>1642.24</ele>
        <time>2021-08-11T09:33:13Z</time>
      </trkpt>
      <trkpt lat="44.39274" lon="6.77471">
        <ele>1642.34</ele>
        <time>2021-08-11T09:33:15Z</time>
      </trkpt>
      <trkpt lat="44.39277" lon="6.77465">
        <ele>1641.91</ele>
        <time>2021-08-11T09:33:17Z</time>
      </trkpt>
      <trkpt lat="44.39279" lon="6.77461">
        <ele>1641.79</ele>
        <time>2021-08-11T09:33:18Z</time>
      </trkpt>
      <trkpt lat="44.39282" lon="6.77456">
        <ele>1642.04</ele>
        <time>2021-08-11T09:33:20Z</time>
      </trkpt>
      <trkpt lat="44.39285" lon="6.7745">
        <ele>1642.04</ele>
        <time>2021-08-11T09:33:22Z</time>
      </trkpt>
      <trkpt lat="44.39287" lon="6.77446">
        <ele>1642.04</ele>
        <time>2021-08-11T09:33:23Z</time>
      </trkpt>
      <trkpt lat="44.39291" lon="6.77442">
        <ele>1642.92</ele>
        <time>2021-08-11T09:33:25Z</time>
      </trkpt>
      <trkpt lat="44.39295" lon="6.77438">
        <ele>1643.68</ele>
        <time>2021-08-11T09:33:27Z</time>
      </trkpt>
      <trkpt lat="44.39297" lon="6.77435">
        <ele>1643.73</ele>
        <time>2021-08-11T09:33:28Z</time>
      </trkpt>
      <trkpt lat="44.39301" lon="6.77431">
        <ele>1644.43</ele>
        <time>2021-08-11T09:33:30Z</time>
      </trkpt>
      <trkpt lat="44.39305" lon="6.77426">
        <ele>1644.76</ele>
        <time>2021-08-11T09:33:32Z</time>
      </trkpt>
      <trkpt lat="44.39307" lon="6.77423">
        <ele>1644.79</ele>
        <time>2021-08-11T09:33:33Z</time>
      </trkpt>
      <trkpt lat="44.3931" lon="6.77419">
        <ele>1645.01</ele>
        <time>2021-08-11T09:33:34Z</time>
      </trkpt>
      <trkpt lat="44.39313" lon="6.77414">
        <ele>1644.93</ele>
        <time>2021-08-11T09:33:36Z</time>
      </trkpt>
      <trkpt lat="44.39315" lon="6.77411">
        <ele>1644.92</ele>
        <time>2021-08-11T09:33:37Z</time>
      </trkpt>
      <trkpt lat="44.39318" lon="6.77407">
        <ele>1644.9</ele>
        <time>2021-08-11T09:33:38Z</time>
      </trkpt>
      <trkpt lat="44.39321" lon="6.77402">
        <ele>1644.33</ele>
        <time>2021-08-11T09:33:40Z</time>
      </trkpt>
      <trkpt lat="44.39324" lon="6.77396">
        <ele>1643.12</ele>
        <time>2021-08-11T09:33:42Z</time>
      </trkpt>
      <trkpt lat="44.39326" lon="6.77392">
        <ele>1642.17</ele>
        <time>2021-08-11T09:33:43Z</time>
      </trkpt>
      <trkpt lat="44.39329" lon="6.77386">
        <ele>1640.83</ele>
        <time>2021-08-11T09:33:45Z</time>
      </trkpt>
      <trkpt lat="44.3933" lon="6.77383">
        <ele>1640.16</ele>
        <time>2021-08-11T09:33:46Z</time>
      </trkpt>
      <trkpt lat="44.39332" lon="6.7738">
        <ele>1639.75</ele>
        <time>2021-08-11T09:33:47Z</time>
      </trkpt>
      <trkpt lat="44.39334" lon="6.77374">
        <ele>1638.56</ele>
        <time>2021-08-11T09:33:48Z</time>
      </trkpt>
      <trkpt lat="44.39337" lon="6.77369">
        <ele>1638.55</ele>
        <time>2021-08-11T09:33:50Z</time>
      </trkpt>
      <trkpt lat="44.39339" lon="6.77366">
        <ele>1638.58</ele>
        <time>2021-08-11T09:33:51Z</time>
      </trkpt>
      <trkpt lat="44.39341" lon="6.77363">
        <ele>1638.55</ele>
        <time>2021-08-11T09:33:52Z</time>
      </trkpt>
      <trkpt lat="44.39342" lon="6.77359">
        <ele>1637.99</ele>
        <time>2021-08-11T09:33:53Z</time>
      </trkpt>
      <trkpt lat="44.39345" lon="6.77354">
        <ele>1638.53</ele>
        <time>2021-08-11T09:33:55Z</time>
      </trkpt>
      <trkpt lat="44.39349" lon="6.77349">
        <ele>1639.41</ele>
        <time>2021-08-11T09:33:57Z</time>
      </trkpt>
      <trkpt lat="44.39351" lon="6.77345">
        <ele>1639.48</ele>
        <time>2021-08-11T09:33:58Z</time>
      </trkpt>
      <trkpt lat="44.39354" lon="6.7734">
        <ele>1639.68</ele>
        <time>2021-08-11T09:34:00Z</time>
      </trkpt>
      <trkpt lat="44.39356" lon="6.77338">
        <ele>1640.06</ele>
        <time>2021-08-11T09:34:01Z</time>
      </trkpt>
      <trkpt lat="44.39358" lon="6.77334">
        <ele>1639.93</ele>
        <time>2021-08-11T09:34:02Z</time>
      </trkpt>
      <trkpt lat="44.39361" lon="6.77329">
        <ele>1640.18</ele>
        <time>2021-08-11T09:34:03Z</time>
      </trkpt>
      <trkpt lat="44.39364" lon="6.77325">
        <ele>1640.73</ele>
        <time>2021-08-11T09:34:05Z</time>
      </trkpt>
      <trkpt lat="44.39365" lon="6.77322">
        <ele>1640.55</ele>
        <time>2021-08-11T09:34:06Z</time>
      </trkpt>
      <trkpt lat="44.39367" lon="6.77318">
        <ele>1640.53</ele>
        <time>2021-08-11T09:34:07Z</time>
      </trkpt>
      <trkpt lat="44.3937" lon="6.77314">
        <ele>1640.79</ele>
        <time>2021-08-11T09:34:08Z</time>
      </trkpt>
      <trkpt lat="44.39372" lon="6.7731">
        <ele>1640.58</ele>
        <time>2021-08-11T09:34:10Z</time>
      </trkpt>
      <trkpt lat="44.39377" lon="6.77306">
        <ele>1641.26</ele>
        <time>2021-08-11T09:34:12Z</time>
      </trkpt>
      <trkpt lat="44.3938" lon="6.77303">
        <ele>1641.63</ele>
        <time>2021-08-11T09:34:13Z</time>
      </trkpt>
      <trkpt lat="44.39384" lon="6.77302">
        <ele>1642.69</ele>
        <time>2021-08-11T09:34:15Z</time>
      </trkpt>
      <trkpt lat="44.39389" lon="6.773">
        <ele>1643.85</ele>
        <time>2021-08-11T09:34:17Z</time>
      </trkpt>
      <trkpt lat="44.39393" lon="6.773">
        <ele>1645.49</ele>
        <time>2021-08-11T09:34:18Z</time>
      </trkpt>
      <trkpt lat="44.39397" lon="6.77299">
        <ele>1646.88</ele>
        <time>2021-08-11T09:34:20Z</time>
      </trkpt>
      <trkpt lat="44.39403" lon="6.77299">
        <ele>1649.32</ele>
        <time>2021-08-11T09:34:22Z</time>
      </trkpt>
      <trkpt lat="44.39407" lon="6.77298">
        <ele>1650.66</ele>
        <time>2021-08-11T09:34:23Z</time>
      </trkpt>
      <trkpt lat="44.39411" lon="6.77295">
        <ele>1651.36</ele>
        <time>2021-08-11T09:34:25Z</time>
      </trkpt>
      <trkpt lat="44.39416" lon="6.77292">
        <ele>1652.36</ele>
        <time>2021-08-11T09:34:27Z</time>
      </trkpt>
      <trkpt lat="44.3942" lon="6.7729">
        <ele>1652.73</ele>
        <time>2021-08-11T09:34:28Z</time>
      </trkpt>
      <trkpt lat="44.39424" lon="6.77288">
        <ele>1652.99</ele>
        <time>2021-08-11T09:34:30Z</time>
      </trkpt>
      <trkpt lat="44.39429" lon="6.77284">
        <ele>1652.78</ele>
        <time>2021-08-11T09:34:32Z</time>
      </trkpt>
      <trkpt lat="44.39433" lon="6.77283">
        <ele>1653.33</ele>
        <time>2021-08-11T09:34:33Z</time>
      </trkpt>
      <trkpt lat="44.39438" lon="6.7728">
        <ele>1653.39</ele>
        <time>2021-08-11T09:34:35Z</time>
      </trkpt>
      <trkpt lat="44.39441" lon="6.77279">
        <ele>1653.69</ele>
        <time>2021-08-11T09:34:36Z</time>
      </trkpt>
      <trkpt lat="44.39444" lon="6.77277">
        <ele>1653.74</ele>
        <time>2021-08-11T09:34:37Z</time>
      </trkpt>
      <trkpt lat="44.39449" lon="6.77275">
        <ele>1654.33</ele>
        <time>2021-08-11T09:34:38Z</time>
      </trkpt>
      <trkpt lat="44.39454" lon="6.77274">
        <ele>1655.11</ele>
        <time>2021-08-11T09:34:40Z</time>
      </trkpt>
      <trkpt lat="44.39457" lon="6.77274">
        <ele>1655.71</ele>
        <time>2021-08-11T09:34:41Z</time>
      </trkpt>
      <trkpt lat="44.3946" lon="6.77274">
        <ele>1656.32</ele>
        <time>2021-08-11T09:34:42Z</time>
      </trkpt>
      <trkpt lat="44.39463" lon="6.77273">
        <ele>1656.63</ele>
        <time>2021-08-11T09:34:43Z</time>
      </trkpt>
      <trkpt lat="44.39468" lon="6.77273">
        <ele>1657.62</ele>
        <time>2021-08-11T09:34:44Z</time>
      </trkpt>
      <trkpt lat="44.39472" lon="6.77273">
        <ele>1658.41</ele>
        <time>2021-08-11T09:34:46Z</time>
      </trkpt>
      <trkpt lat="44.39478" lon="6.77273">
        <ele>1659.36</ele>
        <time>2021-08-11T09:34:48Z</time>
      </trkpt>
      <trkpt lat="44.39483" lon="6.77273">
        <ele>1660.14</ele>
        <time>2021-08-11T09:34:49Z</time>
      </trkpt>
      <trkpt lat="44.39488" lon="6.77273">
        <ele>1660.92</ele>
        <time>2021-08-11T09:34:51Z</time>
      </trkpt>
      <trkpt lat="44.39491" lon="6.77274">
        <ele>1661.66</ele>
        <time>2021-08-11T09:34:52Z</time>
      </trkpt>
      <trkpt lat="44.39494" lon="6.77275">
        <ele>1662.39</ele>
        <time>2021-08-11T09:34:53Z</time>
      </trkpt>
      <trkpt lat="44.39497" lon="6.77276">
        <ele>1663.11</ele>
        <time>2021-08-11T09:34:54Z</time>
      </trkpt>
      <trkpt lat="44.39502" lon="6.77279">
        <ele>1664.53</ele>
        <time>2021-08-11T09:34:56Z</time>
      </trkpt>
      <trkpt lat="44.39504" lon="6.77281">
        <ele>1665.28</ele>
        <time>2021-08-11T09:34:57Z</time>
      </trkpt>
      <trkpt lat="44.39507" lon="6.77283">
        <ele>1666.05</ele>
        <time>2021-08-11T09:34:58Z</time>
      </trkpt>
      <trkpt lat="44.39511" lon="6.77284">
        <ele>1666.54</ele>
        <time>2021-08-11T09:34:59Z</time>
      </trkpt>
      <trkpt lat="44.39513" lon="6.77285">
        <ele>1666.91</ele>
        <time>2021-08-11T09:35:00Z</time>
      </trkpt>
      <trkpt lat="44.39519" lon="6.77286">
        <ele>1667.42</ele>
        <time>2021-08-11T09:35:02Z</time>
      </trkpt>
      <trkpt lat="44.39522" lon="6.77287">
        <ele>1667.78</ele>
        <time>2021-08-11T09:35:03Z</time>
      </trkpt>
      <trkpt lat="44.39526" lon="6.77288">
        <ele>1668.15</ele>
        <time>2021-08-11T09:35:04Z</time>
      </trkpt>
      <trkpt lat="44.39528" lon="6.77289">
        <ele>1668.42</ele>
        <time>2021-08-11T09:35:05Z</time>
      </trkpt>
      <trkpt lat="44.39531" lon="6.77289">
        <ele>1668.31</ele>
        <time>2021-08-11T09:35:06Z</time>
      </trkpt>
      <trkpt lat="44.39534" lon="6.77289">
        <ele>1668.2</ele>
        <time>2021-08-11T09:35:07Z</time>
      </trkpt>
      <trkpt lat="44.39539" lon="6.7729">
        <ele>1668.24</ele>
        <time>2021-08-11T09:35:09Z</time>
      </trkpt>
      <trkpt lat="44.39543" lon="6.77292">
        <ele>1668.52</ele>
        <time>2021-08-11T09:35:11Z</time>
      </trkpt>
      <trkpt lat="44.39549" lon="6.77293">
        <ele>1668.52</ele>
        <time>2021-08-11T09:35:13Z</time>
      </trkpt>
      <trkpt lat="44.39553" lon="6.77294">
        <ele>1668.6</ele>
        <time>2021-08-11T09:35:14Z</time>
      </trkpt>
      <trkpt lat="44.39558" lon="6.77295">
        <ele>1668.63</ele>
        <time>2021-08-11T09:35:16Z</time>
      </trkpt>
      <trkpt lat="44.3956" lon="6.77296">
        <ele>1668.78</ele>
        <time>2021-08-11T09:35:17Z</time>
      </trkpt>
      <trkpt lat="44.39563" lon="6.77296">
        <ele>1668.67</ele>
        <time>2021-08-11T09:35:18Z</time>
      </trkpt>
      <trkpt lat="44.39568" lon="6.77297">
        <ele>1668.7</ele>
        <time>2021-08-11T09:35:19Z</time>
      </trkpt>
      <trkpt lat="44.39572" lon="6.77297">
        <ele>1668.56</ele>
        <time>2021-08-11T09:35:21Z</time>
      </trkpt>
      <trkpt lat="44.39578" lon="6.77298">
        <ele>1668.56</ele>
        <time>2021-08-11T09:35:23Z</time>
      </trkpt>
      <trkpt lat="44.39582" lon="6.77298">
        <ele>1668.42</ele>
        <time>2021-08-11T09:35:24Z</time>
      </trkpt>
      <trkpt lat="44.39586" lon="6.77298">
        <ele>1668.37</ele>
        <time>2021-08-11T09:35:26Z</time>
      </trkpt>
      <trkpt lat="44.39589" lon="6.77299">
        <ele>1668.58</ele>
        <time>2021-08-11T09:35:27Z</time>
      </trkpt>
      <trkpt lat="44.39592" lon="6.77299">
        <ele>1668.58</ele>
        <time>2021-08-11T09:35:28Z</time>
      </trkpt>
      <trkpt lat="44.39595" lon="6.77299">
        <ele>1668.58</ele>
        <time>2021-08-11T09:35:29Z</time>
      </trkpt>
      <trkpt lat="44.39599" lon="6.77299">
        <ele>1668.58</ele>
        <time>2021-08-11T09:35:31Z</time>
      </trkpt>
      <trkpt lat="44.39603" lon="6.77298">
        <ele>1668.37</ele>
        <time>2021-08-11T09:35:32Z</time>
      </trkpt>
      <trkpt lat="44.39606" lon="6.77296">
        <ele>1667.94</ele>
        <time>2021-08-11T09:35:33Z</time>
      </trkpt>
      <trkpt lat="44.39609" lon="6.77295">
        <ele>1667.72</ele>
        <time>2021-08-11T09:35:34Z</time>
      </trkpt>
      <trkpt lat="44.39612" lon="6.77294">
        <ele>1667.58</ele>
        <time>2021-08-11T09:35:35Z</time>
      </trkpt>
      <trkpt lat="44.39615" lon="6.77294">
        <ele>1667.82</ele>
        <time>2021-08-11T09:35:36Z</time>
      </trkpt>
      <trkpt lat="44.39618" lon="6.77293">
        <ele>1667.87</ele>
        <time>2021-08-11T09:35:37Z</time>
      </trkpt>
      <trkpt lat="44.39621" lon="6.77293">
        <ele>1668.13</ele>
        <time>2021-08-11T09:35:38Z</time>
      </trkpt>
      <trkpt lat="44.39625" lon="6.77294">
        <ele>1668.63</ele>
        <time>2021-08-11T09:35:39Z</time>
      </trkpt>
      <trkpt lat="44.3963" lon="6.77295">
        <ele>1669.18</ele>
        <time>2021-08-11T09:35:41Z</time>
      </trkpt>
      <trkpt lat="44.39633" lon="6.77296">
        <ele>1669.54</ele>
        <time>2021-08-11T09:35:42Z</time>
      </trkpt>
      <trkpt lat="44.39636" lon="6.77297">
        <ele>1669.88</ele>
        <time>2021-08-11T09:35:43Z</time>
      </trkpt>
      <trkpt lat="44.3964" lon="6.77298">
        <ele>1670.25</ele>
        <time>2021-08-11T09:35:44Z</time>
      </trkpt>
      <trkpt lat="44.39643" lon="6.77299">
        <ele>1670.55</ele>
        <time>2021-08-11T09:35:45Z</time>
      </trkpt>
      <trkpt lat="44.39645" lon="6.77301">
        <ele>1670.91</ele>
        <time>2021-08-11T09:35:46Z</time>
      </trkpt>
      <trkpt lat="44.39648" lon="6.77303">
        <ele>1671.35</ele>
        <time>2021-08-11T09:35:47Z</time>
      </trkpt>
      <trkpt lat="44.39651" lon="6.77305">
        <ele>1671.8</ele>
        <time>2021-08-11T09:35:48Z</time>
      </trkpt>
      <trkpt lat="44.39655" lon="6.77306">
        <ele>1672.26</ele>
        <time>2021-08-11T09:35:49Z</time>
      </trkpt>
      <trkpt lat="44.3966" lon="6.77308">
        <ele>1673.07</ele>
        <time>2021-08-11T09:35:51Z</time>
      </trkpt>
      <trkpt lat="44.39665" lon="6.77307">
        <ele>1673.2</ele>
        <time>2021-08-11T09:35:53Z</time>
      </trkpt>
      <trkpt lat="44.39668" lon="6.77307">
        <ele>1673.41</ele>
        <time>2021-08-11T09:35:54Z</time>
      </trkpt>
      <trkpt lat="44.39673" lon="6.77306">
        <ele>1673.55</ele>
        <time>2021-08-11T09:35:56Z</time>
      </trkpt>
      <trkpt lat="44.39676" lon="6.77306">
        <ele>1673.76</ele>
        <time>2021-08-11T09:35:57Z</time>
      </trkpt>
      <trkpt lat="44.39679" lon="6.77305">
        <ele>1673.82</ele>
        <time>2021-08-11T09:35:58Z</time>
      </trkpt>
      <trkpt lat="44.39683" lon="6.77305">
        <ele>1674.11</ele>
        <time>2021-08-11T09:35:59Z</time>
      </trkpt>
      <trkpt lat="44.39687" lon="6.77304">
        <ele>1674.28</ele>
        <time>2021-08-11T09:36:01Z</time>
      </trkpt>
      <trkpt lat="44.39692" lon="6.77303">
        <ele>1674.54</ele>
        <time>2021-08-11T09:36:03Z</time>
      </trkpt>
      <trkpt lat="44.39695" lon="6.77303">
        <ele>1674.78</ele>
        <time>2021-08-11T09:36:04Z</time>
      </trkpt>
      <trkpt lat="44.39699" lon="6.77303">
        <ele>1675.22</ele>
        <time>2021-08-11T09:36:06Z</time>
      </trkpt>
      <trkpt lat="44.39702" lon="6.77303">
        <ele>1675.54</ele>
        <time>2021-08-11T09:36:07Z</time>
      </trkpt>
      <trkpt lat="44.39705" lon="6.77303">
        <ele>1675.86</ele>
        <time>2021-08-11T09:36:08Z</time>
      </trkpt>
      <trkpt lat="44.39709" lon="6.77303">
        <ele>1676.3</ele>
        <time>2021-08-11T09:36:09Z</time>
      </trkpt>
      <trkpt lat="44.39714" lon="6.773">
        <ele>1676.51</ele>
        <time>2021-08-11T09:36:11Z</time>
      </trkpt>
      <trkpt lat="44.39717" lon="6.77298">
        <ele>1676.62</ele>
        <time>2021-08-11T09:36:12Z</time>
      </trkpt>
      <trkpt lat="44.39721" lon="6.77297">
        <ele>1676.94</ele>
        <time>2021-08-11T09:36:13Z</time>
      </trkpt>
      <trkpt lat="44.39726" lon="6.77297">
        <ele>1677.72</ele>
        <time>2021-08-11T09:36:14Z</time>
      </trkpt>
      <trkpt lat="44.3973" lon="6.773">
        <ele>1678.86</ele>
        <time>2021-08-11T09:36:16Z</time>
      </trkpt>
      <trkpt lat="44.39731" lon="6.77307">
        <ele>1680.26</ele>
        <time>2021-08-11T09:36:18Z</time>
      </trkpt>
      <trkpt lat="44.39729" lon="6.77311">
        <ele>1680.78</ele>
        <time>2021-08-11T09:36:19Z</time>
      </trkpt>
      <trkpt lat="44.39726" lon="6.77316">
        <ele>1681.23</ele>
        <time>2021-08-11T09:36:21Z</time>
      </trkpt>
      <trkpt lat="44.39724" lon="6.77319">
        <ele>1681.38</ele>
        <time>2021-08-11T09:36:22Z</time>
      </trkpt>
      <trkpt lat="44.39722" lon="6.77322">
        <ele>1681.52</ele>
        <time>2021-08-11T09:36:23Z</time>
      </trkpt>
      <trkpt lat="44.39719" lon="6.77325">
        <ele>1681.77</ele>
        <time>2021-08-11T09:36:24Z</time>
      </trkpt>
      <trkpt lat="44.39715" lon="6.77328">
        <ele>1681.86</ele>
        <time>2021-08-11T09:36:26Z</time>
      </trkpt>
      <trkpt lat="44.39711" lon="6.77333">
        <ele>1682.32</ele>
        <time>2021-08-11T09:36:28Z</time>
      </trkpt>
      <trkpt lat="44.39707" lon="6.77336">
        <ele>1682.62</ele>
        <time>2021-08-11T09:36:29Z</time>
      </trkpt>
      <trkpt lat="44.39704" lon="6.77341">
        <ele>1683.68</ele>
        <time>2021-08-11T09:36:31Z</time>
      </trkpt>
      <trkpt lat="44.39699" lon="6.77346">
        <ele>1684.38</ele>
        <time>2021-08-11T09:36:33Z</time>
      </trkpt>
      <trkpt lat="44.39696" lon="6.77348">
        <ele>1684.48</ele>
        <time>2021-08-11T09:36:34Z</time>
      </trkpt>
      <trkpt lat="44.39692" lon="6.77352">
        <ele>1684.93</ele>
        <time>2021-08-11T09:36:36Z</time>
      </trkpt>
      <trkpt lat="44.39689" lon="6.77353">
        <ele>1684.64</ele>
        <time>2021-08-11T09:36:38Z</time>
      </trkpt>
      <trkpt lat="44.39686" lon="6.77356">
        <ele>1684.74</ele>
        <time>2021-08-11T09:36:40Z</time>
      </trkpt>
      <trkpt lat="44.39683" lon="6.77359">
        <ele>1684.7</ele>
        <time>2021-08-11T09:36:42Z</time>
      </trkpt>
      <trkpt lat="44.3968" lon="6.77361">
        <ele>1684.34</ele>
        <time>2021-08-11T09:36:43Z</time>
      </trkpt>
      <trkpt lat="44.39676" lon="6.77364">
        <ele>1685.05</ele>
        <time>2021-08-11T09:36:44Z</time>
      </trkpt>
      <trkpt lat="44.39673" lon="6.77366">
        <ele>1685.45</ele>
        <time>2021-08-11T09:36:46Z</time>
      </trkpt>
      <trkpt lat="44.39667" lon="6.77368">
        <ele>1685.05</ele>
        <time>2021-08-11T09:36:48Z</time>
      </trkpt>
      <trkpt lat="44.39663" lon="6.77369">
        <ele>1686.07</ele>
        <time>2021-08-11T09:36:49Z</time>
      </trkpt>
      <trkpt lat="44.39658" lon="6.7737">
        <ele>1687.29</ele>
        <time>2021-08-11T09:36:51Z</time>
      </trkpt>
      <trkpt lat="44.39652" lon="6.77371">
        <ele>1688.55</ele>
        <time>2021-08-11T09:36:53Z</time>
      </trkpt>
      <trkpt lat="44.39648" lon="6.77371">
        <ele>1689.05</ele>
        <time>2021-08-11T09:36:54Z</time>
      </trkpt>
      <trkpt lat="44.39645" lon="6.77371">
        <ele>1689.43</ele>
        <time>2021-08-11T09:36:55Z</time>
      </trkpt>
      <trkpt lat="44.3964" lon="6.7737">
        <ele>1689.73</ele>
        <time>2021-08-11T09:36:57Z</time>
      </trkpt>
      <trkpt lat="44.39637" lon="6.7737">
        <ele>1689.9</ele>
        <time>2021-08-11T09:36:58Z</time>
      </trkpt>
      <trkpt lat="44.39631" lon="6.7737">
        <ele>1689.97</ele>
        <time>2021-08-11T09:36:59Z</time>
      </trkpt>
      <trkpt lat="44.39626" lon="6.7737">
        <ele>1690.03</ele>
        <time>2021-08-11T09:37:01Z</time>
      </trkpt>
      <trkpt lat="44.3962" lon="6.7737">
        <ele>1690.1</ele>
        <time>2021-08-11T09:37:03Z</time>
      </trkpt>
      <trkpt lat="44.39615" lon="6.77371">
        <ele>1690.51</ele>
        <time>2021-08-11T09:37:04Z</time>
      </trkpt>
      <trkpt lat="44.39611" lon="6.77371">
        <ele>1690.57</ele>
        <time>2021-08-11T09:37:06Z</time>
      </trkpt>
      <trkpt lat="44.39604" lon="6.77372">
        <ele>1691.59</ele>
        <time>2021-08-11T09:37:08Z</time>
      </trkpt>
      <trkpt lat="44.396" lon="6.77372">
        <ele>1691.96</ele>
        <time>2021-08-11T09:37:09Z</time>
      </trkpt>
      <trkpt lat="44.39595" lon="6.77373">
        <ele>1692.77</ele>
        <time>2021-08-11T09:37:11Z</time>
      </trkpt>
      <trkpt lat="44.39592" lon="6.77373">
        <ele>1693.05</ele>
        <time>2021-08-11T09:37:12Z</time>
      </trkpt>
      <trkpt lat="44.39588" lon="6.77373">
        <ele>1693.42</ele>
        <time>2021-08-11T09:37:13Z</time>
      </trkpt>
      <trkpt lat="44.39584" lon="6.77374">
        <ele>1694.12</ele>
        <time>2021-08-11T09:37:14Z</time>
      </trkpt>
      <trkpt lat="44.39579" lon="6.77374">
        <ele>1694.78</ele>
        <time>2021-08-11T09:37:16Z</time>
      </trkpt>
      <trkpt lat="44.39576" lon="6.77374">
        <ele>1695.19</ele>
        <time>2021-08-11T09:37:17Z</time>
      </trkpt>
      <trkpt lat="44.39573" lon="6.77374">
        <ele>1695.61</ele>
        <time>2021-08-11T09:37:18Z</time>
      </trkpt>
      <trkpt lat="44.39567" lon="6.77375">
        <ele>1696.85</ele>
        <time>2021-08-11T09:37:19Z</time>
      </trkpt>
      <trkpt lat="44.39563" lon="6.77375">
        <ele>1697.43</ele>
        <time>2021-08-11T09:37:21Z</time>
      </trkpt>
      <trkpt lat="44.3956" lon="6.77375">
        <ele>1697.86</ele>
        <time>2021-08-11T09:37:22Z</time>
      </trkpt>
      <trkpt lat="44.39557" lon="6.77375">
        <ele>1698.29</ele>
        <time>2021-08-11T09:37:23Z</time>
      </trkpt>
      <trkpt lat="44.39554" lon="6.77375">
        <ele>1698.64</ele>
        <time>2021-08-11T09:37:24Z</time>
      </trkpt>
      <trkpt lat="44.3955" lon="6.77375">
        <ele>1699</ele>
        <time>2021-08-11T09:37:26Z</time>
      </trkpt>
      <trkpt lat="44.39543" lon="6.77375">
        <ele>1699.63</ele>
        <time>2021-08-11T09:37:28Z</time>
      </trkpt>
      <trkpt lat="44.39539" lon="6.77375">
        <ele>1699.99</ele>
        <time>2021-08-11T09:37:29Z</time>
      </trkpt>
      <trkpt lat="44.39535" lon="6.77375">
        <ele>1700.35</ele>
        <time>2021-08-11T09:37:31Z</time>
      </trkpt>
      <trkpt lat="44.39531" lon="6.77377">
        <ele>1701.46</ele>
        <time>2021-08-11T09:37:33Z</time>
      </trkpt>
      <trkpt lat="44.39526" lon="6.77379">
        <ele>1702.1</ele>
        <time>2021-08-11T09:37:35Z</time>
      </trkpt>
      <trkpt lat="44.39521" lon="6.77381">
        <ele>1701.87</ele>
        <time>2021-08-11T09:37:37Z</time>
      </trkpt>
      <trkpt lat="44.39518" lon="6.77383">
        <ele>1702.05</ele>
        <time>2021-08-11T09:37:38Z</time>
      </trkpt>
      <trkpt lat="44.39514" lon="6.77386">
        <ele>1702.43</ele>
        <time>2021-08-11T09:37:39Z</time>
      </trkpt>
      <trkpt lat="44.3951" lon="6.77389">
        <ele>1702.83</ele>
        <time>2021-08-11T09:37:41Z</time>
      </trkpt>
      <trkpt lat="44.39505" lon="6.77393">
        <ele>1703.13</ele>
        <time>2021-08-11T09:37:43Z</time>
      </trkpt>
      <trkpt lat="44.39502" lon="6.77396">
        <ele>1703.59</ele>
        <time>2021-08-11T09:37:44Z</time>
      </trkpt>
      <trkpt lat="44.39498" lon="6.774">
        <ele>1704.05</ele>
        <time>2021-08-11T09:37:45Z</time>
      </trkpt>
      <trkpt lat="44.39494" lon="6.77405">
        <ele>1704.42</ele>
        <time>2021-08-11T09:37:47Z</time>
      </trkpt>
      <trkpt lat="44.39491" lon="6.77408">
        <ele>1704.36</ele>
        <time>2021-08-11T09:37:49Z</time>
      </trkpt>
      <trkpt lat="44.39488" lon="6.77406">
        <ele>1702.89</ele>
        <time>2021-08-11T09:38:30Z</time>
      </trkpt>
      <trkpt lat="44.39485" lon="6.77407">
        <ele>1702.22</ele>
        <time>2021-08-11T09:38:32Z</time>
      </trkpt>
      <trkpt lat="44.39481" lon="6.7741">
        <ele>1701.66</ele>
        <time>2021-08-11T09:38:34Z</time>
      </trkpt>
      <trkpt lat="44.39479" lon="6.77413">
        <ele>1701.65</ele>
        <time>2021-08-11T09:38:35Z</time>
      </trkpt>
      <trkpt lat="44.39476" lon="6.77417">
        <ele>1701.45</ele>
        <time>2021-08-11T09:38:37Z</time>
      </trkpt>
      <trkpt lat="44.39472" lon="6.77421">
        <ele>1701.22</ele>
        <time>2021-08-11T09:38:39Z</time>
      </trkpt>
      <trkpt lat="44.3947" lon="6.77423">
        <ele>1701.57</ele>
        <time>2021-08-11T09:38:40Z</time>
      </trkpt>
      <trkpt lat="44.39466" lon="6.77426">
        <ele>1701.94</ele>
        <time>2021-08-11T09:38:42Z</time>
      </trkpt>
      <trkpt lat="44.39462" lon="6.7743">
        <ele>1702.56</ele>
        <time>2021-08-11T09:38:44Z</time>
      </trkpt>
      <trkpt lat="44.39458" lon="6.77432">
        <ele>1702.6</ele>
        <time>2021-08-11T09:38:45Z</time>
      </trkpt>
      <trkpt lat="44.39454" lon="6.77435">
        <ele>1702.88</ele>
        <time>2021-08-11T09:38:47Z</time>
      </trkpt>
      <trkpt lat="44.3945" lon="6.77438">
        <ele>1703.13</ele>
        <time>2021-08-11T09:38:49Z</time>
      </trkpt>
      <trkpt lat="44.39446" lon="6.7744">
        <ele>1703.1</ele>
        <time>2021-08-11T09:38:50Z</time>
      </trkpt>
      <trkpt lat="44.39442" lon="6.77443">
        <ele>1703.03</ele>
        <time>2021-08-11T09:38:52Z</time>
      </trkpt>
      <trkpt lat="44.39437" lon="6.77447">
        <ele>1702.68</ele>
        <time>2021-08-11T09:38:54Z</time>
      </trkpt>
      <trkpt lat="44.39434" lon="6.77451">
        <ele>1702.78</ele>
        <time>2021-08-11T09:38:55Z</time>
      </trkpt>
      <trkpt lat="44.39432" lon="6.77456">
        <ele>1703.36</ele>
        <time>2021-08-11T09:38:57Z</time>
      </trkpt>
      <trkpt lat="44.39432" lon="6.77462">
        <ele>1704.66</ele>
        <time>2021-08-11T09:38:59Z</time>
      </trkpt>
      <trkpt lat="44.39433" lon="6.77467">
        <ele>1705.99</ele>
        <time>2021-08-11T09:39:00Z</time>
      </trkpt>
      <trkpt lat="44.39436" lon="6.77471">
        <ele>1707.61</ele>
        <time>2021-08-11T09:39:02Z</time>
      </trkpt>
      <trkpt lat="44.3944" lon="6.77473">
        <ele>1709.04</ele>
        <time>2021-08-11T09:39:04Z</time>
      </trkpt>
      <trkpt lat="44.39443" lon="6.77474">
        <ele>1710.01</ele>
        <time>2021-08-11T09:39:05Z</time>
      </trkpt>
      <trkpt lat="44.39446" lon="6.77471">
        <ele>1710.12</ele>
        <time>2021-08-11T09:39:15Z</time>
      </trkpt>
      <trkpt lat="44.39449" lon="6.77469">
        <ele>1710.39</ele>
        <time>2021-08-11T09:39:17Z</time>
      </trkpt>
      <trkpt lat="44.39454" lon="6.77466">
        <ele>1710.83</ele>
        <time>2021-08-11T09:39:19Z</time>
      </trkpt>
      <trkpt lat="44.39457" lon="6.77465">
        <ele>1711.25</ele>
        <time>2021-08-11T09:39:20Z</time>
      </trkpt>
      <trkpt lat="44.39461" lon="6.77463">
        <ele>1711.59</ele>
        <time>2021-08-11T09:39:22Z</time>
      </trkpt>
      <trkpt lat="44.39466" lon="6.7746">
        <ele>1711.77</ele>
        <time>2021-08-11T09:39:24Z</time>
      </trkpt>
      <trkpt lat="44.39469" lon="6.77458">
        <ele>1711.76</ele>
        <time>2021-08-11T09:39:25Z</time>
      </trkpt>
      <trkpt lat="44.39473" lon="6.77455">
        <ele>1711.53</ele>
        <time>2021-08-11T09:39:27Z</time>
      </trkpt>
      <trkpt lat="44.39477" lon="6.77451">
        <ele>1710.81</ele>
        <time>2021-08-11T09:39:29Z</time>
      </trkpt>
      <trkpt lat="44.3948" lon="6.77447">
        <ele>1709.95</ele>
        <time>2021-08-11T09:39:30Z</time>
      </trkpt>
      <trkpt lat="44.39483" lon="6.77444">
        <ele>1709.46</ele>
        <time>2021-08-11T09:39:32Z</time>
      </trkpt>
      <trkpt lat="44.39488" lon="6.7744">
        <ele>1709.54</ele>
        <time>2021-08-11T09:39:34Z</time>
      </trkpt>
      <trkpt lat="44.3949" lon="6.77438">
        <ele>1709.59</ele>
        <time>2021-08-11T09:39:35Z</time>
      </trkpt>
      <trkpt lat="44.39495" lon="6.77437">
        <ele>1710.45</ele>
        <time>2021-08-11T09:39:37Z</time>
      </trkpt>
      <trkpt lat="44.395" lon="6.77436">
        <ele>1711.39</ele>
        <time>2021-08-11T09:39:39Z</time>
      </trkpt>
      <trkpt lat="44.39503" lon="6.77436">
        <ele>1711.88</ele>
        <time>2021-08-11T09:39:40Z</time>
      </trkpt>
      <trkpt lat="44.39507" lon="6.77435">
        <ele>1712.4</ele>
        <time>2021-08-11T09:39:42Z</time>
      </trkpt>
      <trkpt lat="44.39512" lon="6.77434">
        <ele>1713.03</ele>
        <time>2021-08-11T09:39:44Z</time>
      </trkpt>
      <trkpt lat="44.39515" lon="6.77434">
        <ele>1713.47</ele>
        <time>2021-08-11T09:39:45Z</time>
      </trkpt>
      <trkpt lat="44.3952" lon="6.77433">
        <ele>1714.01</ele>
        <time>2021-08-11T09:39:47Z</time>
      </trkpt>
      <trkpt lat="44.39525" lon="6.77432">
        <ele>1714.49</ele>
        <time>2021-08-11T09:39:49Z</time>
      </trkpt>
      <trkpt lat="44.3953" lon="6.77432">
        <ele>1714.86</ele>
        <time>2021-08-11T09:39:50Z</time>
      </trkpt>
      <trkpt lat="44.39535" lon="6.77432">
        <ele>1714.86</ele>
        <time>2021-08-11T09:39:52Z</time>
      </trkpt>
      <trkpt lat="44.39541" lon="6.77432">
        <ele>1714.86</ele>
        <time>2021-08-11T09:39:54Z</time>
      </trkpt>
      <trkpt lat="44.39545" lon="6.77432">
        <ele>1714.86</ele>
        <time>2021-08-11T09:39:55Z</time>
      </trkpt>
      <trkpt lat="44.39549" lon="6.77432">
        <ele>1714.86</ele>
        <time>2021-08-11T09:39:57Z</time>
      </trkpt>
      <trkpt lat="44.39552" lon="6.77431">
        <ele>1714.61</ele>
        <time>2021-08-11T09:39:58Z</time>
      </trkpt>
      <trkpt lat="44.39555" lon="6.77431">
        <ele>1714.61</ele>
        <time>2021-08-11T09:39:59Z</time>
      </trkpt>
      <trkpt lat="44.39559" lon="6.77431">
        <ele>1714.49</ele>
        <time>2021-08-11T09:40:00Z</time>
      </trkpt>
      <trkpt lat="44.39564" lon="6.77431">
        <ele>1714.32</ele>
        <time>2021-08-11T09:40:02Z</time>
      </trkpt>
      <trkpt lat="44.39567" lon="6.77431">
        <ele>1714.21</ele>
        <time>2021-08-11T09:40:03Z</time>
      </trkpt>
      <trkpt lat="44.39571" lon="6.77431">
        <ele>1714.07</ele>
        <time>2021-08-11T09:40:04Z</time>
      </trkpt>
      <trkpt lat="44.39575" lon="6.7743">
        <ele>1713.63</ele>
        <time>2021-08-11T09:40:05Z</time>
      </trkpt>
      <trkpt lat="44.39579" lon="6.7743">
        <ele>1713.48</ele>
        <time>2021-08-11T09:40:07Z</time>
      </trkpt>
      <trkpt lat="44.39584" lon="6.77429">
        <ele>1712.97</ele>
        <time>2021-08-11T09:40:09Z</time>
      </trkpt>
      <trkpt lat="44.39589" lon="6.77429">
        <ele>1712.77</ele>
        <time>2021-08-11T09:40:10Z</time>
      </trkpt>
      <trkpt lat="44.39594" lon="6.77429">
        <ele>1712.57</ele>
        <time>2021-08-11T09:40:12Z</time>
      </trkpt>
      <trkpt lat="44.39599" lon="6.77428">
        <ele>1712</ele>
        <time>2021-08-11T09:40:14Z</time>
      </trkpt>
      <trkpt lat="44.39602" lon="6.77428">
        <ele>1711.88</ele>
        <time>2021-08-11T09:40:15Z</time>
      </trkpt>
      <trkpt lat="44.39607" lon="6.77427">
        <ele>1711.28</ele>
        <time>2021-08-11T09:40:16Z</time>
      </trkpt>
      <trkpt lat="44.39612" lon="6.77426">
        <ele>1710.79</ele>
        <time>2021-08-11T09:40:18Z</time>
      </trkpt>
      <trkpt lat="44.39619" lon="6.77425">
        <ele>1711.15</ele>
        <time>2021-08-11T09:40:20Z</time>
      </trkpt>
      <trkpt lat="44.39623" lon="6.77425">
        <ele>1711.58</ele>
        <time>2021-08-11T09:40:22Z</time>
      </trkpt>
      <trkpt lat="44.39629" lon="6.77425">
        <ele>1712.23</ele>
        <time>2021-08-11T09:40:24Z</time>
      </trkpt>
      <trkpt lat="44.39633" lon="6.77426">
        <ele>1713.06</ele>
        <time>2021-08-11T09:40:25Z</time>
      </trkpt>
      <trkpt lat="44.39638" lon="6.77427">
        <ele>1714</ele>
        <time>2021-08-11T09:40:27Z</time>
      </trkpt>
      <trkpt lat="44.39641" lon="6.77428">
        <ele>1715.13</ele>
        <time>2021-08-11T09:40:28Z</time>
      </trkpt>
      <trkpt lat="44.39643" lon="6.7743">
        <ele>1716.59</ele>
        <time>2021-08-11T09:40:29Z</time>
      </trkpt>
      <trkpt lat="44.39646" lon="6.77431">
        <ele>1718</ele>
        <time>2021-08-11T09:40:30Z</time>
      </trkpt>
      <trkpt lat="44.39651" lon="6.77434">
        <ele>1721.11</ele>
        <time>2021-08-11T09:40:31Z</time>
      </trkpt>
      <trkpt lat="44.39654" lon="6.77438">
        <ele>1724.22</ele>
        <time>2021-08-11T09:40:33Z</time>
      </trkpt>
      <trkpt lat="44.39657" lon="6.77441">
        <ele>1726.97</ele>
        <time>2021-08-11T09:40:35Z</time>
      </trkpt>
      <trkpt lat="44.39659" lon="6.77443">
        <ele>1728.89</ele>
        <time>2021-08-11T09:41:16Z</time>
      </trkpt>
      <trkpt lat="44.39662" lon="6.77442">
        <ele>1729.58</ele>
        <time>2021-08-11T09:43:40Z</time>
      </trkpt>
      <trkpt lat="44.39665" lon="6.7744">
        <ele>1729.62</ele>
        <time>2021-08-11T09:43:44Z</time>
      </trkpt>
      <trkpt lat="44.39669" lon="6.77441">
        <ele>1731.54</ele>
        <time>2021-08-11T09:43:46Z</time>
      </trkpt>
      <trkpt lat="44.39674" lon="6.77442">
        <ele>1733.49</ele>
        <time>2021-08-11T09:43:48Z</time>
      </trkpt>
      <trkpt lat="44.39679" lon="6.77442">
        <ele>1734.85</ele>
        <time>2021-08-11T09:43:50Z</time>
      </trkpt>
      <trkpt lat="44.39683" lon="6.77441">
        <ele>1735.45</ele>
        <time>2021-08-11T09:43:52Z</time>
      </trkpt>
      <trkpt lat="44.39687" lon="6.77441">
        <ele>1736.56</ele>
        <time>2021-08-11T09:43:54Z</time>
      </trkpt>
      <trkpt lat="44.39692" lon="6.77441">
        <ele>1737.95</ele>
        <time>2021-08-11T09:43:56Z</time>
      </trkpt>
      <trkpt lat="44.39694" lon="6.7744">
        <ele>1738.11</ele>
        <time>2021-08-11T09:43:57Z</time>
      </trkpt>
      <trkpt lat="44.39697" lon="6.7744">
        <ele>1737.98</ele>
        <time>2021-08-11T09:43:58Z</time>
      </trkpt>
      <trkpt lat="44.39701" lon="6.7744">
        <ele>1737.57</ele>
        <time>2021-08-11T09:43:59Z</time>
      </trkpt>
      <trkpt lat="44.39705" lon="6.77439">
        <ele>1736.78</ele>
        <time>2021-08-11T09:44:01Z</time>
      </trkpt>
      <trkpt lat="44.39709" lon="6.77438">
        <ele>1736</ele>
        <time>2021-08-11T09:44:03Z</time>
      </trkpt>
      <trkpt lat="44.39714" lon="6.77436">
        <ele>1734.76</ele>
        <time>2021-08-11T09:44:05Z</time>
      </trkpt>
      <trkpt lat="44.39718" lon="6.77434">
        <ele>1733.64</ele>
        <time>2021-08-11T09:44:07Z</time>
      </trkpt>
      <trkpt lat="44.39721" lon="6.77432">
        <ele>1732.63</ele>
        <time>2021-08-11T09:44:08Z</time>
      </trkpt>
      <trkpt lat="44.39725" lon="6.77431">
        <ele>1732.56</ele>
        <time>2021-08-11T09:44:09Z</time>
      </trkpt>
      <trkpt lat="44.39728" lon="6.77429">
        <ele>1732.27</ele>
        <time>2021-08-11T09:44:11Z</time>
      </trkpt>
      <trkpt lat="44.39733" lon="6.77427">
        <ele>1732.27</ele>
        <time>2021-08-11T09:44:13Z</time>
      </trkpt>
      <trkpt lat="44.39737" lon="6.77425">
        <ele>1732.13</ele>
        <time>2021-08-11T09:44:15Z</time>
      </trkpt>
      <trkpt lat="44.39742" lon="6.77422">
        <ele>1731.77</ele>
        <time>2021-08-11T09:44:17Z</time>
      </trkpt>
      <trkpt lat="44.39746" lon="6.7742">
        <ele>1731.62</ele>
        <time>2021-08-11T09:44:19Z</time>
      </trkpt>
      <trkpt lat="44.3975" lon="6.77417">
        <ele>1731.12</ele>
        <time>2021-08-11T09:44:21Z</time>
      </trkpt>
      <trkpt lat="44.39755" lon="6.77415">
        <ele>1731.21</ele>
        <time>2021-08-11T09:44:23Z</time>
      </trkpt>
      <trkpt lat="44.3976" lon="6.77413">
        <ele>1731.39</ele>
        <time>2021-08-11T09:44:25Z</time>
      </trkpt>
      <trkpt lat="44.39764" lon="6.77411">
        <ele>1731.49</ele>
        <time>2021-08-11T09:44:27Z</time>
      </trkpt>
      <trkpt lat="44.39769" lon="6.77409">
        <ele>1731.82</ele>
        <time>2021-08-11T09:44:29Z</time>
      </trkpt>
      <trkpt lat="44.39773" lon="6.77406">
        <ele>1731.81</ele>
        <time>2021-08-11T09:44:31Z</time>
      </trkpt>
      <trkpt lat="44.39778" lon="6.77403">
        <ele>1732.08</ele>
        <time>2021-08-11T09:44:33Z</time>
      </trkpt>
      <trkpt lat="44.39782" lon="6.774">
        <ele>1732.01</ele>
        <time>2021-08-11T09:44:35Z</time>
      </trkpt>
      <trkpt lat="44.39787" lon="6.77397">
        <ele>1732.08</ele>
        <time>2021-08-11T09:44:37Z</time>
      </trkpt>
      <trkpt lat="44.3979" lon="6.77395">
        <ele>1732.08</ele>
        <time>2021-08-11T09:44:38Z</time>
      </trkpt>
      <trkpt lat="44.39793" lon="6.77393">
        <ele>1732.08</ele>
        <time>2021-08-11T09:44:39Z</time>
      </trkpt>
      <trkpt lat="44.39797" lon="6.7739">
        <ele>1732.01</ele>
        <time>2021-08-11T09:44:41Z</time>
      </trkpt>
      <trkpt lat="44.39801" lon="6.77388">
        <ele>1732.17</ele>
        <time>2021-08-11T09:44:43Z</time>
      </trkpt>
      <trkpt lat="44.39806" lon="6.77385">
        <ele>1732.38</ele>
        <time>2021-08-11T09:44:45Z</time>
      </trkpt>
      <trkpt lat="44.39808" lon="6.77383">
        <ele>1732.38</ele>
        <time>2021-08-11T09:44:46Z</time>
      </trkpt>
      <trkpt lat="44.39811" lon="6.77382">
        <ele>1732.74</ele>
        <time>2021-08-11T09:44:47Z</time>
      </trkpt>
      <trkpt lat="44.39814" lon="6.7738">
        <ele>1732.92</ele>
        <time>2021-08-11T09:44:48Z</time>
      </trkpt>
      <trkpt lat="44.39817" lon="6.77378">
        <ele>1733.1</ele>
        <time>2021-08-11T09:44:49Z</time>
      </trkpt>
      <trkpt lat="44.39821" lon="6.77376">
        <ele>1733.46</ele>
        <time>2021-08-11T09:44:51Z</time>
      </trkpt>
      <trkpt lat="44.39826" lon="6.77373">
        <ele>1733.82</ele>
        <time>2021-08-11T09:44:53Z</time>
      </trkpt>
      <trkpt lat="44.3983" lon="6.77371">
        <ele>1734.18</ele>
        <time>2021-08-11T09:44:54Z</time>
      </trkpt>
      <trkpt lat="44.39833" lon="6.77369">
        <ele>1734.36</ele>
        <time>2021-08-11T09:44:56Z</time>
      </trkpt>
      <trkpt lat="44.39838" lon="6.77367">
        <ele>1735.17</ele>
        <time>2021-08-11T09:44:58Z</time>
      </trkpt>
      <trkpt lat="44.39841" lon="6.77366">
        <ele>1735.68</ele>
        <time>2021-08-11T09:44:59Z</time>
      </trkpt>
      <trkpt lat="44.39846" lon="6.77364">
        <ele>1736.4</ele>
        <time>2021-08-11T09:45:01Z</time>
      </trkpt>
      <trkpt lat="44.3985" lon="6.77363">
        <ele>1737.06</ele>
        <time>2021-08-11T09:45:03Z</time>
      </trkpt>
      <trkpt lat="44.39853" lon="6.77362">
        <ele>1737.48</ele>
        <time>2021-08-11T09:45:04Z</time>
      </trkpt>
      <trkpt lat="44.39857" lon="6.7736">
        <ele>1737.82</ele>
        <time>2021-08-11T09:45:06Z</time>
      </trkpt>
      <trkpt lat="44.39863" lon="6.77358">
        <ele>1738.32</ele>
        <time>2021-08-11T09:45:08Z</time>
      </trkpt>
      <trkpt lat="44.39866" lon="6.77357">
        <ele>1738.4</ele>
        <time>2021-08-11T09:45:09Z</time>
      </trkpt>
      <trkpt lat="44.3987" lon="6.77355">
        <ele>1738.34</ele>
        <time>2021-08-11T09:45:11Z</time>
      </trkpt>
      <trkpt lat="44.39875" lon="6.77353">
        <ele>1738.46</ele>
        <time>2021-08-11T09:45:13Z</time>
      </trkpt>
      <trkpt lat="44.39878" lon="6.77352">
        <ele>1738.6</ele>
        <time>2021-08-11T09:45:14Z</time>
      </trkpt>
      <trkpt lat="44.39882" lon="6.77351">
        <ele>1738.89</ele>
        <time>2021-08-11T09:45:16Z</time>
      </trkpt>
      <trkpt lat="44.39887" lon="6.77349">
        <ele>1739.12</ele>
        <time>2021-08-11T09:45:18Z</time>
      </trkpt>
      <trkpt lat="44.39892" lon="6.77348">
        <ele>1739.68</ele>
        <time>2021-08-11T09:45:20Z</time>
      </trkpt>
      <trkpt lat="44.39896" lon="6.77348">
        <ele>1740.33</ele>
        <time>2021-08-11T09:45:22Z</time>
      </trkpt>
      <trkpt lat="44.39901" lon="6.77347">
        <ele>1740.91</ele>
        <time>2021-08-11T09:45:24Z</time>
      </trkpt>
      <trkpt lat="44.39904" lon="6.77347">
        <ele>1741.4</ele>
        <time>2021-08-11T09:45:25Z</time>
      </trkpt>
      <trkpt lat="44.39908" lon="6.77347">
        <ele>1742.04</ele>
        <time>2021-08-11T09:45:27Z</time>
      </trkpt>
      <trkpt lat="44.39913" lon="6.77347">
        <ele>1742.85</ele>
        <time>2021-08-11T09:45:29Z</time>
      </trkpt>
      <trkpt lat="44.39917" lon="6.77347">
        <ele>1743.47</ele>
        <time>2021-08-11T09:45:30Z</time>
      </trkpt>
      <trkpt lat="44.3992" lon="6.77347">
        <ele>1743.69</ele>
        <time>2021-08-11T09:45:32Z</time>
      </trkpt>
      <trkpt lat="44.39925" lon="6.77346">
        <ele>1743.82</ele>
        <time>2021-08-11T09:45:34Z</time>
      </trkpt>
      <trkpt lat="44.39929" lon="6.77346">
        <ele>1744.12</ele>
        <time>2021-08-11T09:45:35Z</time>
      </trkpt>
      <trkpt lat="44.39932" lon="6.77345">
        <ele>1744.13</ele>
        <time>2021-08-11T09:45:37Z</time>
      </trkpt>
      <trkpt lat="44.39938" lon="6.77343">
        <ele>1744.21</ele>
        <time>2021-08-11T09:45:39Z</time>
      </trkpt>
      <trkpt lat="44.39942" lon="6.77342">
        <ele>1744.35</ele>
        <time>2021-08-11T09:45:40Z</time>
      </trkpt>
      <trkpt lat="44.39946" lon="6.77341">
        <ele>1744.72</ele>
        <time>2021-08-11T09:45:42Z</time>
      </trkpt>
      <trkpt lat="44.39951" lon="6.77338">
        <ele>1745.26</ele>
        <time>2021-08-11T09:45:44Z</time>
      </trkpt>
      <trkpt lat="44.39955" lon="6.77336">
        <ele>1745.76</ele>
        <time>2021-08-11T09:45:45Z</time>
      </trkpt>
      <trkpt lat="44.39959" lon="6.77334">
        <ele>1746.26</ele>
        <time>2021-08-11T09:45:47Z</time>
      </trkpt>
      <trkpt lat="44.39964" lon="6.77333">
        <ele>1747.12</ele>
        <time>2021-08-11T09:45:49Z</time>
      </trkpt>
      <trkpt lat="44.39967" lon="6.77333">
        <ele>1747.77</ele>
        <time>2021-08-11T09:45:50Z</time>
      </trkpt>
      <trkpt lat="44.3997" lon="6.77332">
        <ele>1748.1</ele>
        <time>2021-08-11T09:45:52Z</time>
      </trkpt>
      <trkpt lat="44.39976" lon="6.77333">
        <ele>1748.89</ele>
        <time>2021-08-11T09:45:54Z</time>
      </trkpt>
      <trkpt lat="44.3998" lon="6.77333">
        <ele>1748.89</ele>
        <time>2021-08-11T09:45:55Z</time>
      </trkpt>
      <trkpt lat="44.39985" lon="6.77335">
        <ele>1749.33</ele>
        <time>2021-08-11T09:45:57Z</time>
      </trkpt>
      <trkpt lat="44.39987" lon="6.77336">
        <ele>1749.53</ele>
        <time>2021-08-11T09:45:58Z</time>
      </trkpt>
      <trkpt lat="44.39991" lon="6.77337">
        <ele>1749.75</ele>
        <time>2021-08-11T09:45:59Z</time>
      </trkpt>
      <trkpt lat="44.39995" lon="6.7734">
        <ele>1750.4</ele>
        <time>2021-08-11T09:46:00Z</time>
      </trkpt>
      <trkpt lat="44.39998" lon="6.77342">
        <ele>1750.85</ele>
        <time>2021-08-11T09:46:01Z</time>
      </trkpt>
      <trkpt lat="44.4" lon="6.77343">
        <ele>1751.09</ele>
        <time>2021-08-11T09:46:02Z</time>
      </trkpt>
      <trkpt lat="44.40003" lon="6.77346">
        <ele>1751.24</ele>
        <time>2021-08-11T09:46:03Z</time>
      </trkpt>
      <trkpt lat="44.40006" lon="6.77348">
        <ele>1751.21</ele>
        <time>2021-08-11T09:46:04Z</time>
      </trkpt>
      <trkpt lat="44.4001" lon="6.77351">
        <ele>1751.34</ele>
        <time>2021-08-11T09:46:05Z</time>
      </trkpt>
      <trkpt lat="44.40013" lon="6.77354">
        <ele>1751.7</ele>
        <time>2021-08-11T09:46:07Z</time>
      </trkpt>
      <trkpt lat="44.40018" lon="6.77358">
        <ele>1752.17</ele>
        <time>2021-08-11T09:46:09Z</time>
      </trkpt>
      <trkpt lat="44.40021" lon="6.77359">
        <ele>1752.1</ele>
        <time>2021-08-11T09:46:10Z</time>
      </trkpt>
      <trkpt lat="44.40024" lon="6.77361">
        <ele>1752.37</ele>
        <time>2021-08-11T09:46:12Z</time>
      </trkpt>
      <trkpt lat="44.40029" lon="6.77364">
        <ele>1752.55</ele>
        <time>2021-08-11T09:46:14Z</time>
      </trkpt>
      <trkpt lat="44.40033" lon="6.77366">
        <ele>1752.48</ele>
        <time>2021-08-11T09:46:15Z</time>
      </trkpt>
      <trkpt lat="44.40037" lon="6.77369">
        <ele>1752.66</ele>
        <time>2021-08-11T09:46:17Z</time>
      </trkpt>
      <trkpt lat="44.40042" lon="6.77372">
        <ele>1752.7</ele>
        <time>2021-08-11T09:46:19Z</time>
      </trkpt>
      <trkpt lat="44.40045" lon="6.77374">
        <ele>1752.77</ele>
        <time>2021-08-11T09:46:20Z</time>
      </trkpt>
      <trkpt lat="44.40049" lon="6.77377">
        <ele>1752.95</ele>
        <time>2021-08-11T09:46:22Z</time>
      </trkpt>
      <trkpt lat="44.40051" lon="6.77379">
        <ele>1753.16</ele>
        <time>2021-08-11T09:46:23Z</time>
      </trkpt>
      <trkpt lat="44.40054" lon="6.77382">
        <ele>1753.49</ele>
        <time>2021-08-11T09:46:24Z</time>
      </trkpt>
      <trkpt lat="44.40057" lon="6.77385">
        <ele>1753.82</ele>
        <time>2021-08-11T09:46:25Z</time>
      </trkpt>
      <trkpt lat="44.4006" lon="6.7739">
        <ele>1754.51</ele>
        <time>2021-08-11T09:46:27Z</time>
      </trkpt>
      <trkpt lat="44.40062" lon="6.77392">
        <ele>1754.49</ele>
        <time>2021-08-11T09:46:28Z</time>
      </trkpt>
      <trkpt lat="44.40065" lon="6.77395">
        <ele>1754.45</ele>
        <time>2021-08-11T09:46:29Z</time>
      </trkpt>
      <trkpt lat="44.40068" lon="6.77398">
        <ele>1754.37</ele>
        <time>2021-08-11T09:46:30Z</time>
      </trkpt>
      <trkpt lat="44.40072" lon="6.77402">
        <ele>1754.24</ele>
        <time>2021-08-11T09:46:32Z</time>
      </trkpt>
      <trkpt lat="44.40074" lon="6.77405">
        <ele>1754.28</ele>
        <time>2021-08-11T09:46:33Z</time>
      </trkpt>
      <trkpt lat="44.40076" lon="6.77409">
        <ele>1754.42</ele>
        <time>2021-08-11T09:46:34Z</time>
      </trkpt>
      <trkpt lat="44.40079" lon="6.77414">
        <ele>1754.48</ele>
        <time>2021-08-11T09:46:35Z</time>
      </trkpt>
      <trkpt lat="44.4008" lon="6.77419">
        <ele>1754.78</ele>
        <time>2021-08-11T09:46:37Z</time>
      </trkpt>
      <trkpt lat="44.40083" lon="6.77426">
        <ele>1754.74</ele>
        <time>2021-08-11T09:46:39Z</time>
      </trkpt>
      <trkpt lat="44.40084" lon="6.77431">
        <ele>1754.9</ele>
        <time>2021-08-11T09:46:40Z</time>
      </trkpt>
      <trkpt lat="44.40085" lon="6.77438">
        <ele>1755.19</ele>
        <time>2021-08-11T09:46:42Z</time>
      </trkpt>
      <trkpt lat="44.40086" lon="6.77442">
        <ele>1755.26</ele>
        <time>2021-08-11T09:46:43Z</time>
      </trkpt>
      <trkpt lat="44.40086" lon="6.77447">
        <ele>1755.54</ele>
        <time>2021-08-11T09:46:44Z</time>
      </trkpt>
      <trkpt lat="44.40087" lon="6.77451">
        <ele>1755.54</ele>
        <time>2021-08-11T09:46:45Z</time>
      </trkpt>
      <trkpt lat="44.40087" lon="6.77455">
        <ele>1755.74</ele>
        <time>2021-08-11T09:46:47Z</time>
      </trkpt>
      <trkpt lat="44.40088" lon="6.7746">
        <ele>1755.83</ele>
        <time>2021-08-11T09:46:49Z</time>
      </trkpt>
      <trkpt lat="44.40088" lon="6.77465">
        <ele>1756.1</ele>
        <time>2021-08-11T09:46:50Z</time>
      </trkpt>
      <trkpt lat="44.40089" lon="6.77473">
        <ele>1756.49</ele>
        <time>2021-08-11T09:46:52Z</time>
      </trkpt>
      <trkpt lat="44.40089" lon="6.77477">
        <ele>1757.04</ele>
        <time>2021-08-11T09:46:53Z</time>
      </trkpt>
      <trkpt lat="44.40089" lon="6.77482">
        <ele>1757.72</ele>
        <time>2021-08-11T09:46:54Z</time>
      </trkpt>
      <trkpt lat="44.4009" lon="6.77487">
        <ele>1758.28</ele>
        <time>2021-08-11T09:46:55Z</time>
      </trkpt>
      <trkpt lat="44.40091" lon="6.77495">
        <ele>1759.23</ele>
        <time>2021-08-11T09:46:57Z</time>
      </trkpt>
      <trkpt lat="44.40092" lon="6.77498">
        <ele>1759.49</ele>
        <time>2021-08-11T09:46:58Z</time>
      </trkpt>
      <trkpt lat="44.40094" lon="6.77507">
        <ele>1759.75</ele>
        <time>2021-08-11T09:47:00Z</time>
      </trkpt>
      <trkpt lat="44.40095" lon="6.77514">
        <ele>1759.96</ele>
        <time>2021-08-11T09:47:02Z</time>
      </trkpt>
      <trkpt lat="44.40096" lon="6.77518">
        <ele>1760.06</ele>
        <time>2021-08-11T09:47:03Z</time>
      </trkpt>
      <trkpt lat="44.40097" lon="6.77522">
        <ele>1760.2</ele>
        <time>2021-08-11T09:47:04Z</time>
      </trkpt>
      <trkpt lat="44.40098" lon="6.77529">
        <ele>1760.47</ele>
        <time>2021-08-11T09:47:05Z</time>
      </trkpt>
      <trkpt lat="44.40097" lon="6.77536">
        <ele>1760.51</ele>
        <time>2021-08-11T09:47:07Z</time>
      </trkpt>
      <trkpt lat="44.40096" lon="6.77543">
        <ele>1760.54</ele>
        <time>2021-08-11T09:47:09Z</time>
      </trkpt>
      <trkpt lat="44.40095" lon="6.77549">
        <ele>1760.58</ele>
        <time>2021-08-11T09:47:10Z</time>
      </trkpt>
      <trkpt lat="44.40092" lon="6.77556">
        <ele>1760.7</ele>
        <time>2021-08-11T09:47:12Z</time>
      </trkpt>
      <trkpt lat="44.40091" lon="6.7756">
        <ele>1760.84</ele>
        <time>2021-08-11T09:47:13Z</time>
      </trkpt>
      <trkpt lat="44.4009" lon="6.77564">
        <ele>1760.99</ele>
        <time>2021-08-11T09:47:14Z</time>
      </trkpt>
      <trkpt lat="44.40088" lon="6.7757">
        <ele>1761.26</ele>
        <time>2021-08-11T09:47:15Z</time>
      </trkpt>
      <trkpt lat="44.40087" lon="6.77574">
        <ele>1761.44</ele>
        <time>2021-08-11T09:47:16Z</time>
      </trkpt>
      <trkpt lat="44.40086" lon="6.77577">
        <ele>1761.6</ele>
        <time>2021-08-11T09:47:17Z</time>
      </trkpt>
      <trkpt lat="44.40085" lon="6.77581">
        <ele>1761.8</ele>
        <time>2021-08-11T09:47:18Z</time>
      </trkpt>
      <trkpt lat="44.40085" lon="6.77586">
        <ele>1761.97</ele>
        <time>2021-08-11T09:47:19Z</time>
      </trkpt>
      <trkpt lat="44.40084" lon="6.77591">
        <ele>1762.22</ele>
        <time>2021-08-11T09:47:20Z</time>
      </trkpt>
      <trkpt lat="44.40084" lon="6.77598">
        <ele>1762.47</ele>
        <time>2021-08-11T09:47:22Z</time>
      </trkpt>
      <trkpt lat="44.40083" lon="6.77606">
        <ele>1762.83</ele>
        <time>2021-08-11T09:47:24Z</time>
      </trkpt>
      <trkpt lat="44.40083" lon="6.77613">
        <ele>1763.21</ele>
        <time>2021-08-11T09:47:25Z</time>
      </trkpt>
      <trkpt lat="44.40084" lon="6.77619">
        <ele>1763.76</ele>
        <time>2021-08-11T09:47:27Z</time>
      </trkpt>
      <trkpt lat="44.40084" lon="6.77624">
        <ele>1764.29</ele>
        <time>2021-08-11T09:47:28Z</time>
      </trkpt>
      <trkpt lat="44.40085" lon="6.77628">
        <ele>1764.53</ele>
        <time>2021-08-11T09:47:29Z</time>
      </trkpt>
      <trkpt lat="44.40085" lon="6.77633">
        <ele>1765.04</ele>
        <time>2021-08-11T09:47:30Z</time>
      </trkpt>
      <trkpt lat="44.40086" lon="6.7764">
        <ele>1765.38</ele>
        <time>2021-08-11T09:47:32Z</time>
      </trkpt>
      <trkpt lat="44.40087" lon="6.77644">
        <ele>1765.02</ele>
        <time>2021-08-11T09:47:33Z</time>
      </trkpt>
      <trkpt lat="44.40088" lon="6.77648">
        <ele>1764.66</ele>
        <time>2021-08-11T09:47:34Z</time>
      </trkpt>
      <trkpt lat="44.40089" lon="6.77653">
        <ele>1764.27</ele>
        <time>2021-08-11T09:47:35Z</time>
      </trkpt>
      <trkpt lat="44.40091" lon="6.7766">
        <ele>1763.58</ele>
        <time>2021-08-11T09:47:37Z</time>
      </trkpt>
      <trkpt lat="44.40091" lon="6.77666">
        <ele>1763.37</ele>
        <time>2021-08-11T09:47:39Z</time>
      </trkpt>
      <trkpt lat="44.40093" lon="6.77673">
        <ele>1762.75</ele>
        <time>2021-08-11T09:47:40Z</time>
      </trkpt>
      <trkpt lat="44.40094" lon="6.77677">
        <ele>1762.41</ele>
        <time>2021-08-11T09:47:41Z</time>
      </trkpt>
      <trkpt lat="44.40094" lon="6.77681">
        <ele>1762.3</ele>
        <time>2021-08-11T09:47:42Z</time>
      </trkpt>
      <trkpt lat="44.40095" lon="6.77685">
        <ele>1761.93</ele>
        <time>2021-08-11T09:47:43Z</time>
      </trkpt>
      <trkpt lat="44.40096" lon="6.7769">
        <ele>1761.5</ele>
        <time>2021-08-11T09:47:44Z</time>
      </trkpt>
      <trkpt lat="44.40096" lon="6.77698">
        <ele>1761.14</ele>
        <time>2021-08-11T09:47:45Z</time>
      </trkpt>
      <trkpt lat="44.40096" lon="6.77705">
        <ele>1760.73</ele>
        <time>2021-08-11T09:47:47Z</time>
      </trkpt>
      <trkpt lat="44.40096" lon="6.77709">
        <ele>1760.5</ele>
        <time>2021-08-11T09:47:48Z</time>
      </trkpt>
      <trkpt lat="44.40096" lon="6.77713">
        <ele>1760.26</ele>
        <time>2021-08-11T09:47:49Z</time>
      </trkpt>
      <trkpt lat="44.40096" lon="6.7772">
        <ele>1759.85</ele>
        <time>2021-08-11T09:47:50Z</time>
      </trkpt>
      <trkpt lat="44.40096" lon="6.77727">
        <ele>1759.89</ele>
        <time>2021-08-11T09:47:52Z</time>
      </trkpt>
      <trkpt lat="44.40095" lon="6.77731">
        <ele>1760.22</ele>
        <time>2021-08-11T09:47:53Z</time>
      </trkpt>
      <trkpt lat="44.40095" lon="6.77736">
        <ele>1760.4</ele>
        <time>2021-08-11T09:47:54Z</time>
      </trkpt>
      <trkpt lat="44.40094" lon="6.77741">
        <ele>1760.76</ele>
        <time>2021-08-11T09:47:55Z</time>
      </trkpt>
      <trkpt lat="44.40093" lon="6.77745">
        <ele>1761.08</ele>
        <time>2021-08-11T09:47:56Z</time>
      </trkpt>
      <trkpt lat="44.40092" lon="6.7775">
        <ele>1761.44</ele>
        <time>2021-08-11T09:47:57Z</time>
      </trkpt>
      <trkpt lat="44.40091" lon="6.77755">
        <ele>1762.03</ele>
        <time>2021-08-11T09:47:58Z</time>
      </trkpt>
      <trkpt lat="44.4009" lon="6.77761">
        <ele>1762.69</ele>
        <time>2021-08-11T09:47:59Z</time>
      </trkpt>
      <trkpt lat="44.40089" lon="6.77769">
        <ele>1763.49</ele>
        <time>2021-08-11T09:48:00Z</time>
      </trkpt>
      <trkpt lat="44.40089" lon="6.77777">
        <ele>1764.12</ele>
        <time>2021-08-11T09:48:01Z</time>
      </trkpt>
      <trkpt lat="44.40088" lon="6.77785">
        <ele>1764.76</ele>
        <time>2021-08-11T09:48:02Z</time>
      </trkpt>
      <trkpt lat="44.40088" lon="6.77792">
        <ele>1765.18</ele>
        <time>2021-08-11T09:48:03Z</time>
      </trkpt>
      <trkpt lat="44.40088" lon="6.77799">
        <ele>1765.61</ele>
        <time>2021-08-11T09:48:04Z</time>
      </trkpt>
      <trkpt lat="44.40088" lon="6.77805">
        <ele>1765.97</ele>
        <time>2021-08-11T09:48:05Z</time>
      </trkpt>
      <trkpt lat="44.40094" lon="6.77814">
        <ele>1766.61</ele>
        <time>2021-08-11T09:48:11Z</time>
      </trkpt>
      <trkpt lat="44.40104" lon="6.7781">
        <ele>1766.32</ele>
        <time>2021-08-11T09:48:16Z</time>
      </trkpt>
      <trkpt lat="44.40111" lon="6.77797">
        <ele>1764.46</ele>
        <time>2021-08-11T09:48:17Z</time>
      </trkpt>
      <trkpt lat="44.40117" lon="6.77785">
        <ele>1762.67</ele>
        <time>2021-08-11T09:48:19Z</time>
      </trkpt>
      <trkpt lat="44.40125" lon="6.77777">
        <ele>1761.89</ele>
        <time>2021-08-11T09:48:21Z</time>
      </trkpt>
      <trkpt lat="44.4013" lon="6.77774">
        <ele>1761.77</ele>
        <time>2021-08-11T09:48:22Z</time>
      </trkpt>
      <trkpt lat="44.40135" lon="6.77772">
        <ele>1761.74</ele>
        <time>2021-08-11T09:48:23Z</time>
      </trkpt>
      <trkpt lat="44.40141" lon="6.7777">
        <ele>1761.32</ele>
        <time>2021-08-11T09:48:24Z</time>
      </trkpt>
      <trkpt lat="44.40147" lon="6.77767">
        <ele>1760.01</ele>
        <time>2021-08-11T09:48:25Z</time>
      </trkpt>
      <trkpt lat="44.40152" lon="6.77764">
        <ele>1758.87</ele>
        <time>2021-08-11T09:48:26Z</time>
      </trkpt>
      <trkpt lat="44.40157" lon="6.77761">
        <ele>1757.77</ele>
        <time>2021-08-11T09:48:27Z</time>
      </trkpt>
      <trkpt lat="44.40162" lon="6.7776">
        <ele>1757</ele>
        <time>2021-08-11T09:48:28Z</time>
      </trkpt>
      <trkpt lat="44.40167" lon="6.7776">
        <ele>1756.39</ele>
        <time>2021-08-11T09:48:29Z</time>
      </trkpt>
      <trkpt lat="44.40173" lon="6.77763">
        <ele>1755.95</ele>
        <time>2021-08-11T09:48:30Z</time>
      </trkpt>
      <trkpt lat="44.40179" lon="6.77767">
        <ele>1755.77</ele>
        <time>2021-08-11T09:48:31Z</time>
      </trkpt>
      <trkpt lat="44.40185" lon="6.77772">
        <ele>1755.91</ele>
        <time>2021-08-11T09:48:32Z</time>
      </trkpt>
      <trkpt lat="44.4019" lon="6.77779">
        <ele>1756.61</ele>
        <time>2021-08-11T09:48:33Z</time>
      </trkpt>
      <trkpt lat="44.40194" lon="6.77786">
        <ele>1756.94</ele>
        <time>2021-08-11T09:48:34Z</time>
      </trkpt>
      <trkpt lat="44.40198" lon="6.77795">
        <ele>1757.4</ele>
        <time>2021-08-11T09:48:35Z</time>
      </trkpt>
      <trkpt lat="44.402" lon="6.77804">
        <ele>1758.04</ele>
        <time>2021-08-11T09:48:36Z</time>
      </trkpt>
      <trkpt lat="44.40201" lon="6.77814">
        <ele>1758.36</ele>
        <time>2021-08-11T09:48:37Z</time>
      </trkpt>
      <trkpt lat="44.40202" lon="6.77824">
        <ele>1758.58</ele>
        <time>2021-08-11T09:48:38Z</time>
      </trkpt>
      <trkpt lat="44.40202" lon="6.77834">
        <ele>1758.93</ele>
        <time>2021-08-11T09:48:39Z</time>
      </trkpt>
      <trkpt lat="44.40202" lon="6.77843">
        <ele>1759.17</ele>
        <time>2021-08-11T09:48:40Z</time>
      </trkpt>
      <trkpt lat="44.40201" lon="6.77852">
        <ele>1759.57</ele>
        <time>2021-08-11T09:48:41Z</time>
      </trkpt>
      <trkpt lat="44.40199" lon="6.7786">
        <ele>1760.15</ele>
        <time>2021-08-11T09:48:42Z</time>
      </trkpt>
      <trkpt lat="44.40198" lon="6.77868">
        <ele>1760.64</ele>
        <time>2021-08-11T09:48:43Z</time>
      </trkpt>
      <trkpt lat="44.40196" lon="6.77876">
        <ele>1761.29</ele>
        <time>2021-08-11T09:48:44Z</time>
      </trkpt>
      <trkpt lat="44.40195" lon="6.77883">
        <ele>1761.7</ele>
        <time>2021-08-11T09:48:45Z</time>
      </trkpt>
      <trkpt lat="44.40195" lon="6.77889">
        <ele>1761.93</ele>
        <time>2021-08-11T09:48:46Z</time>
      </trkpt>
      <trkpt lat="44.40196" lon="6.77893">
        <ele>1762.08</ele>
        <time>2021-08-11T09:48:47Z</time>
      </trkpt>
      <trkpt lat="44.40199" lon="6.77896">
        <ele>1761.9</ele>
        <time>2021-08-11T09:48:48Z</time>
      </trkpt>
      <trkpt lat="44.40203" lon="6.77897">
        <ele>1761.44</ele>
        <time>2021-08-11T09:48:49Z</time>
      </trkpt>
      <trkpt lat="44.40206" lon="6.77896">
        <ele>1760.95</ele>
        <time>2021-08-11T09:48:50Z</time>
      </trkpt>
      <trkpt lat="44.4021" lon="6.77895">
        <ele>1760.32</ele>
        <time>2021-08-11T09:48:51Z</time>
      </trkpt>
      <trkpt lat="44.40213" lon="6.77891">
        <ele>1759.53</ele>
        <time>2021-08-11T09:48:52Z</time>
      </trkpt>
      <trkpt lat="44.40217" lon="6.77885">
        <ele>1758.5</ele>
        <time>2021-08-11T09:48:53Z</time>
      </trkpt>
      <trkpt lat="44.4022" lon="6.77879">
        <ele>1757.64</ele>
        <time>2021-08-11T09:48:54Z</time>
      </trkpt>
      <trkpt lat="44.40224" lon="6.77872">
        <ele>1756.75</ele>
        <time>2021-08-11T09:48:55Z</time>
      </trkpt>
      <trkpt lat="44.40228" lon="6.77866">
        <ele>1756.18</ele>
        <time>2021-08-11T09:48:56Z</time>
      </trkpt>
      <trkpt lat="44.40232" lon="6.7786">
        <ele>1755.61</ele>
        <time>2021-08-11T09:48:57Z</time>
      </trkpt>
      <trkpt lat="44.40237" lon="6.77855">
        <ele>1755.12</ele>
        <time>2021-08-11T09:48:58Z</time>
      </trkpt>
      <trkpt lat="44.40242" lon="6.77852">
        <ele>1754.59</ele>
        <time>2021-08-11T09:48:59Z</time>
      </trkpt>
      <trkpt lat="44.40248" lon="6.77851">
        <ele>1754.06</ele>
        <time>2021-08-11T09:49:00Z</time>
      </trkpt>
      <trkpt lat="44.40253" lon="6.77852">
        <ele>1753.76</ele>
        <time>2021-08-11T09:49:01Z</time>
      </trkpt>
      <trkpt lat="44.40257" lon="6.77854">
        <ele>1753.66</ele>
        <time>2021-08-11T09:49:02Z</time>
      </trkpt>
      <trkpt lat="44.40262" lon="6.77866">
        <ele>1754.74</ele>
        <time>2021-08-11T09:49:07Z</time>
      </trkpt>
      <trkpt lat="44.40259" lon="6.77881">
        <ele>1756.73</ele>
        <time>2021-08-11T09:49:10Z</time>
      </trkpt>
      <trkpt lat="44.40255" lon="6.77893">
        <ele>1758.12</ele>
        <time>2021-08-11T09:49:13Z</time>
      </trkpt>
      <trkpt lat="44.4025" lon="6.77909">
        <ele>1759.45</ele>
        <time>2021-08-11T09:49:18Z</time>
      </trkpt>
      <trkpt lat="44.40246" lon="6.77922">
        <ele>1760.56</ele>
        <time>2021-08-11T09:49:21Z</time>
      </trkpt>
      <trkpt lat="44.40241" lon="6.77935">
        <ele>1761.86</ele>
        <time>2021-08-11T09:49:24Z</time>
      </trkpt>
      <trkpt lat="44.40236" lon="6.77951">
        <ele>1763.36</ele>
        <time>2021-08-11T09:49:28Z</time>
      </trkpt>
      <trkpt lat="44.40229" lon="6.77964">
        <ele>1764.75</ele>
        <time>2021-08-11T09:49:32Z</time>
      </trkpt>
      <trkpt lat="44.40221" lon="6.77973">
        <ele>1766.23</ele>
        <time>2021-08-11T09:49:36Z</time>
      </trkpt>
      <trkpt lat="44.40214" lon="6.77981">
        <ele>1768.08</ele>
        <time>2021-08-11T09:49:39Z</time>
      </trkpt>
      <trkpt lat="44.40203" lon="6.77989">
        <ele>1769.99</ele>
        <time>2021-08-11T09:49:42Z</time>
      </trkpt>
      <trkpt lat="44.40194" lon="6.77994">
        <ele>1771.15</ele>
        <time>2021-08-11T09:49:46Z</time>
      </trkpt>
      <trkpt lat="44.40185" lon="6.77996">
        <ele>1771.67</ele>
        <time>2021-08-11T09:49:48Z</time>
      </trkpt>
      <trkpt lat="44.40173" lon="6.77998">
        <ele>1772.37</ele>
        <time>2021-08-11T09:49:52Z</time>
      </trkpt>
      <trkpt lat="44.40169" lon="6.78015">
        <ele>1775.62</ele>
        <time>2021-08-11T09:49:57Z</time>
      </trkpt>
      <trkpt lat="44.40179" lon="6.78022">
        <ele>1776.52</ele>
        <time>2021-08-11T09:50:00Z</time>
      </trkpt>
      <trkpt lat="44.40189" lon="6.78025">
        <ele>1776.7</ele>
        <time>2021-08-11T09:50:03Z</time>
      </trkpt>
      <trkpt lat="44.40197" lon="6.78032">
        <ele>1777.62</ele>
        <time>2021-08-11T09:50:06Z</time>
      </trkpt>
      <trkpt lat="44.40193" lon="6.78045">
        <ele>1780.15</ele>
        <time>2021-08-11T09:50:09Z</time>
      </trkpt>
      <trkpt lat="44.40183" lon="6.78046">
        <ele>1780.69</ele>
        <time>2021-08-11T09:50:12Z</time>
      </trkpt>
      <trkpt lat="44.40168" lon="6.78047">
        <ele>1781.41</ele>
        <time>2021-08-11T09:50:16Z</time>
      </trkpt>
      <trkpt lat="44.40158" lon="6.78051">
        <ele>1783.38</ele>
        <time>2021-08-11T09:50:20Z</time>
      </trkpt>
      <trkpt lat="44.40159" lon="6.78065">
        <ele>1786.3</ele>
        <time>2021-08-11T09:50:24Z</time>
      </trkpt>
      <trkpt lat="44.40169" lon="6.78071">
        <ele>1786.9</ele>
        <time>2021-08-11T09:50:26Z</time>
      </trkpt>
      <trkpt lat="44.40179" lon="6.78078">
        <ele>1788.93</ele>
        <time>2021-08-11T09:50:29Z</time>
      </trkpt>
      <trkpt lat="44.40187" lon="6.78084">
        <ele>1790.88</ele>
        <time>2021-08-11T09:50:32Z</time>
      </trkpt>
      <trkpt lat="44.40196" lon="6.78093">
        <ele>1793.2</ele>
        <time>2021-08-11T09:50:35Z</time>
      </trkpt>
      <trkpt lat="44.40203" lon="6.781">
        <ele>1795.46</ele>
        <time>2021-08-11T09:50:41Z</time>
      </trkpt>
      <trkpt lat="44.402" lon="6.78099">
        <ele>1794.92</ele>
        <time>2021-08-11T09:52:24Z</time>
      </trkpt>
      <trkpt lat="44.40197" lon="6.78099">
        <ele>1794.63</ele>
        <time>2021-08-11T09:52:26Z</time>
      </trkpt>
      <trkpt lat="44.40194" lon="6.78099">
        <ele>1794.37</ele>
        <time>2021-08-11T09:52:53Z</time>
      </trkpt>
      <trkpt lat="44.40197" lon="6.78102">
        <ele>1795.31</ele>
        <time>2021-08-11T09:53:08Z</time>
      </trkpt>
      <trkpt lat="44.40201" lon="6.78104">
        <ele>1796.23</ele>
        <time>2021-08-11T09:53:10Z</time>
      </trkpt>
      <trkpt lat="44.40205" lon="6.78105">
        <ele>1796.95</ele>
        <time>2021-08-11T09:53:11Z</time>
      </trkpt>
      <trkpt lat="44.4021" lon="6.78106">
        <ele>1797.83</ele>
        <time>2021-08-11T09:53:13Z</time>
      </trkpt>
      <trkpt lat="44.40213" lon="6.78106">
        <ele>1798.2</ele>
        <time>2021-08-11T09:53:14Z</time>
      </trkpt>
      <trkpt lat="44.40216" lon="6.78106">
        <ele>1798.57</ele>
        <time>2021-08-11T09:53:15Z</time>
      </trkpt>
      <trkpt lat="44.40221" lon="6.78105">
        <ele>1798.87</ele>
        <time>2021-08-11T09:53:16Z</time>
      </trkpt>
      <trkpt lat="44.40225" lon="6.78104">
        <ele>1798.92</ele>
        <time>2021-08-11T09:53:18Z</time>
      </trkpt>
      <trkpt lat="44.4023" lon="6.78105">
        <ele>1799.68</ele>
        <time>2021-08-11T09:53:20Z</time>
      </trkpt>
      <trkpt lat="44.40233" lon="6.78106">
        <ele>1800.29</ele>
        <time>2021-08-11T09:53:21Z</time>
      </trkpt>
      <trkpt lat="44.40235" lon="6.7811">
        <ele>1801.96</ele>
        <time>2021-08-11T09:53:23Z</time>
      </trkpt>
      <trkpt lat="44.40233" lon="6.78116">
        <ele>1803.79</ele>
        <time>2021-08-11T09:53:25Z</time>
      </trkpt>
      <trkpt lat="44.40231" lon="6.7812">
        <ele>1804.95</ele>
        <time>2021-08-11T09:53:26Z</time>
      </trkpt>
      <trkpt lat="44.40226" lon="6.78122">
        <ele>1805.22</ele>
        <time>2021-08-11T09:53:28Z</time>
      </trkpt>
      <trkpt lat="44.40223" lon="6.78122">
        <ele>1804.98</ele>
        <time>2021-08-11T09:53:29Z</time>
      </trkpt>
      <trkpt lat="44.4022" lon="6.78123">
        <ele>1804.93</ele>
        <time>2021-08-11T09:53:30Z</time>
      </trkpt>
      <trkpt lat="44.40216" lon="6.78123">
        <ele>1804.29</ele>
        <time>2021-08-11T09:53:31Z</time>
      </trkpt>
      <trkpt lat="44.40213" lon="6.78124">
        <ele>1804.16</ele>
        <time>2021-08-11T09:53:33Z</time>
      </trkpt>
      <trkpt lat="44.40208" lon="6.78127">
        <ele>1804.38</ele>
        <time>2021-08-11T09:53:35Z</time>
      </trkpt>
      <trkpt lat="44.40205" lon="6.78129">
        <ele>1804.56</ele>
        <time>2021-08-11T09:53:36Z</time>
      </trkpt>
      <trkpt lat="44.402" lon="6.78133">
        <ele>1805.05</ele>
        <time>2021-08-11T09:53:38Z</time>
      </trkpt>
      <trkpt lat="44.40198" lon="6.78135">
        <ele>1805.36</ele>
        <time>2021-08-11T09:53:39Z</time>
      </trkpt>
      <trkpt lat="44.40195" lon="6.78137">
        <ele>1805.49</ele>
        <time>2021-08-11T09:53:40Z</time>
      </trkpt>
      <trkpt lat="44.40192" lon="6.7814">
        <ele>1806.35</ele>
        <time>2021-08-11T09:53:41Z</time>
      </trkpt>
      <trkpt lat="44.40188" lon="6.78144">
        <ele>1807.75</ele>
        <time>2021-08-11T09:53:43Z</time>
      </trkpt>
      <trkpt lat="44.40185" lon="6.78146">
        <ele>1808.39</ele>
        <time>2021-08-11T09:53:44Z</time>
      </trkpt>
      <trkpt lat="44.40183" lon="6.78148">
        <ele>1809.06</ele>
        <time>2021-08-11T09:53:45Z</time>
      </trkpt>
      <trkpt lat="44.40179" lon="6.7815">
        <ele>1809.62</ele>
        <time>2021-08-11T09:53:46Z</time>
      </trkpt>
      <trkpt lat="44.40174" lon="6.78152">
        <ele>1810.11</ele>
        <time>2021-08-11T09:53:48Z</time>
      </trkpt>
      <trkpt lat="44.40172" lon="6.78153">
        <ele>1810.37</ele>
        <time>2021-08-11T09:53:49Z</time>
      </trkpt>
      <trkpt lat="44.40169" lon="6.78153">
        <ele>1810.21</ele>
        <time>2021-08-11T09:53:50Z</time>
      </trkpt>
      <trkpt lat="44.40165" lon="6.78154">
        <ele>1810.53</ele>
        <time>2021-08-11T09:53:51Z</time>
      </trkpt>
      <trkpt lat="44.40159" lon="6.78155">
        <ele>1811.24</ele>
        <time>2021-08-11T09:53:53Z</time>
      </trkpt>
      <trkpt lat="44.40156" lon="6.78156">
        <ele>1811.78</ele>
        <time>2021-08-11T09:53:54Z</time>
      </trkpt>
      <trkpt lat="44.40153" lon="6.78157">
        <ele>1812.33</ele>
        <time>2021-08-11T09:53:55Z</time>
      </trkpt>
      <trkpt lat="44.40149" lon="6.78157">
        <ele>1812.57</ele>
        <time>2021-08-11T09:53:56Z</time>
      </trkpt>
      <trkpt lat="44.40145" lon="6.78158">
        <ele>1813.2</ele>
        <time>2021-08-11T09:53:58Z</time>
      </trkpt>
      <trkpt lat="44.40142" lon="6.78158">
        <ele>1813.38</ele>
        <time>2021-08-11T09:53:59Z</time>
      </trkpt>
      <trkpt lat="44.40139" lon="6.78158">
        <ele>1813.56</ele>
        <time>2021-08-11T09:54:00Z</time>
      </trkpt>
      <trkpt lat="44.40136" lon="6.78158">
        <ele>1813.67</ele>
        <time>2021-08-11T09:54:01Z</time>
      </trkpt>
      <trkpt lat="44.40131" lon="6.7816">
        <ele>1814.64</ele>
        <time>2021-08-11T09:54:03Z</time>
      </trkpt>
      <trkpt lat="44.40127" lon="6.78161">
        <ele>1815.18</ele>
        <time>2021-08-11T09:54:05Z</time>
      </trkpt>
      <trkpt lat="44.40124" lon="6.78163">
        <ele>1816.08</ele>
        <time>2021-08-11T09:54:07Z</time>
      </trkpt>
      <trkpt lat="44.4012" lon="6.78165">
        <ele>1817.02</ele>
        <time>2021-08-11T09:54:09Z</time>
      </trkpt>
      <trkpt lat="44.40117" lon="6.78172">
        <ele>1819.78</ele>
        <time>2021-08-11T09:54:11Z</time>
      </trkpt>
      <trkpt lat="44.40119" lon="6.78178">
        <ele>1821.86</ele>
        <time>2021-08-11T09:54:13Z</time>
      </trkpt>
      <trkpt lat="44.40123" lon="6.78181">
        <ele>1822.59</ele>
        <time>2021-08-11T09:54:15Z</time>
      </trkpt>
      <trkpt lat="44.40127" lon="6.78182">
        <ele>1822.55</ele>
        <time>2021-08-11T09:54:16Z</time>
      </trkpt>
      <trkpt lat="44.40131" lon="6.7818">
        <ele>1821.53</ele>
        <time>2021-08-11T09:54:18Z</time>
      </trkpt>
      <trkpt lat="44.40134" lon="6.7818">
        <ele>1821.27</ele>
        <time>2021-08-11T09:54:19Z</time>
      </trkpt>
      <trkpt lat="44.40137" lon="6.78179">
        <ele>1820.71</ele>
        <time>2021-08-11T09:54:20Z</time>
      </trkpt>
      <trkpt lat="44.4014" lon="6.78178">
        <ele>1820.2</ele>
        <time>2021-08-11T09:54:21Z</time>
      </trkpt>
      <trkpt lat="44.40145" lon="6.78178">
        <ele>1819.91</ele>
        <time>2021-08-11T09:54:23Z</time>
      </trkpt>
      <trkpt lat="44.40147" lon="6.78179">
        <ele>1820.1</ele>
        <time>2021-08-11T09:54:24Z</time>
      </trkpt>
      <trkpt lat="44.40151" lon="6.7818">
        <ele>1820.18</ele>
        <time>2021-08-11T09:54:25Z</time>
      </trkpt>
      <trkpt lat="44.40154" lon="6.78181">
        <ele>1820.32</ele>
        <time>2021-08-11T09:54:26Z</time>
      </trkpt>
      <trkpt lat="44.40158" lon="6.78183">
        <ele>1820.73</ele>
        <time>2021-08-11T09:54:28Z</time>
      </trkpt>
      <trkpt lat="44.40164" lon="6.78185">
        <ele>1821.07</ele>
        <time>2021-08-11T09:54:30Z</time>
      </trkpt>
      <trkpt lat="44.40167" lon="6.78186">
        <ele>1821.3</ele>
        <time>2021-08-11T09:54:31Z</time>
      </trkpt>
      <trkpt lat="44.40171" lon="6.78187">
        <ele>1822.01</ele>
        <time>2021-08-11T09:54:32Z</time>
      </trkpt>
      <trkpt lat="44.40175" lon="6.78186">
        <ele>1822.07</ele>
        <time>2021-08-11T09:54:34Z</time>
      </trkpt>
      <trkpt lat="44.40178" lon="6.78185">
        <ele>1822.03</ele>
        <time>2021-08-11T09:54:35Z</time>
      </trkpt>
      <trkpt lat="44.40181" lon="6.78184">
        <ele>1821.97</ele>
        <time>2021-08-11T09:54:36Z</time>
      </trkpt>
      <trkpt lat="44.40185" lon="6.78182">
        <ele>1821.65</ele>
        <time>2021-08-11T09:54:37Z</time>
      </trkpt>
      <trkpt lat="44.40189" lon="6.7818">
        <ele>1821.31</ele>
        <time>2021-08-11T09:54:39Z</time>
      </trkpt>
      <trkpt lat="44.40192" lon="6.78179">
        <ele>1821.22</ele>
        <time>2021-08-11T09:54:40Z</time>
      </trkpt>
      <trkpt lat="44.40195" lon="6.78178">
        <ele>1821.18</ele>
        <time>2021-08-11T09:54:41Z</time>
      </trkpt>
      <trkpt lat="44.40199" lon="6.78177">
        <ele>1821.54</ele>
        <time>2021-08-11T09:54:42Z</time>
      </trkpt>
      <trkpt lat="44.40203" lon="6.78175">
        <ele>1821.54</ele>
        <time>2021-08-11T09:54:44Z</time>
      </trkpt>
      <trkpt lat="44.40206" lon="6.78174">
        <ele>1821.72</ele>
        <time>2021-08-11T09:54:45Z</time>
      </trkpt>
      <trkpt lat="44.40209" lon="6.78173">
        <ele>1821.9</ele>
        <time>2021-08-11T09:54:46Z</time>
      </trkpt>
      <trkpt lat="44.40214" lon="6.78172">
        <ele>1822.44</ele>
        <time>2021-08-11T09:54:47Z</time>
      </trkpt>
      <trkpt lat="44.40218" lon="6.78172">
        <ele>1823.16</ele>
        <time>2021-08-11T09:54:49Z</time>
      </trkpt>
      <trkpt lat="44.40221" lon="6.78173">
        <ele>1824.06</ele>
        <time>2021-08-11T09:54:50Z</time>
      </trkpt>
      <trkpt lat="44.40224" lon="6.78174">
        <ele>1824.66</ele>
        <time>2021-08-11T09:54:51Z</time>
      </trkpt>
      <trkpt lat="44.40228" lon="6.78176">
        <ele>1825.43</ele>
        <time>2021-08-11T09:54:52Z</time>
      </trkpt>
      <trkpt lat="44.40231" lon="6.78179">
        <ele>1826.58</ele>
        <time>2021-08-11T09:54:54Z</time>
      </trkpt>
      <trkpt lat="44.40234" lon="6.78181">
        <ele>1827.38</ele>
        <time>2021-08-11T09:54:57Z</time>
      </trkpt>
      <trkpt lat="44.40236" lon="6.78186">
        <ele>1829.31</ele>
        <time>2021-08-11T09:55:12Z</time>
      </trkpt>
      <trkpt lat="44.40238" lon="6.7819">
        <ele>1830.88</ele>
        <time>2021-08-11T09:55:14Z</time>
      </trkpt>
      <trkpt lat="44.40242" lon="6.78194">
        <ele>1832.54</ele>
        <time>2021-08-11T09:55:16Z</time>
      </trkpt>
      <trkpt lat="44.40244" lon="6.78198">
        <ele>1833.91</ele>
        <time>2021-08-11T09:55:17Z</time>
      </trkpt>
      <trkpt lat="44.40247" lon="6.78203">
        <ele>1835.63</ele>
        <time>2021-08-11T09:55:19Z</time>
      </trkpt>
      <trkpt lat="44.40251" lon="6.78207">
        <ele>1837.03</ele>
        <time>2021-08-11T09:55:21Z</time>
      </trkpt>
      <trkpt lat="44.40255" lon="6.78209">
        <ele>1837.55</ele>
        <time>2021-08-11T09:55:22Z</time>
      </trkpt>
      <trkpt lat="44.40259" lon="6.78209">
        <ele>1837.42</ele>
        <time>2021-08-11T09:55:24Z</time>
      </trkpt>
      <trkpt lat="44.40264" lon="6.78207">
        <ele>1836.47</ele>
        <time>2021-08-11T09:55:26Z</time>
      </trkpt>
      <trkpt lat="44.40268" lon="6.78203">
        <ele>1834.63</ele>
        <time>2021-08-11T09:55:27Z</time>
      </trkpt>
      <trkpt lat="44.40271" lon="6.78198">
        <ele>1832.27</ele>
        <time>2021-08-11T09:55:29Z</time>
      </trkpt>
      <trkpt lat="44.40275" lon="6.78193">
        <ele>1829.77</ele>
        <time>2021-08-11T09:55:31Z</time>
      </trkpt>
      <trkpt lat="44.40277" lon="6.7819">
        <ele>1828.48</ele>
        <time>2021-08-11T09:55:32Z</time>
      </trkpt>
      <trkpt lat="44.40281" lon="6.78185">
        <ele>1826.6</ele>
        <time>2021-08-11T09:55:34Z</time>
      </trkpt>
      <trkpt lat="44.40286" lon="6.7818">
        <ele>1824.8</ele>
        <time>2021-08-11T09:55:36Z</time>
      </trkpt>
      <trkpt lat="44.40289" lon="6.78178">
        <ele>1824.08</ele>
        <time>2021-08-11T09:55:37Z</time>
      </trkpt>
      <trkpt lat="44.40294" lon="6.78175">
        <ele>1823</ele>
        <time>2021-08-11T09:55:39Z</time>
      </trkpt>
      <trkpt lat="44.40296" lon="6.78174">
        <ele>1822.64</ele>
        <time>2021-08-11T09:55:40Z</time>
      </trkpt>
      <trkpt lat="44.403" lon="6.78172">
        <ele>1821.92</ele>
        <time>2021-08-11T09:55:41Z</time>
      </trkpt>
      <trkpt lat="44.40304" lon="6.7817">
        <ele>1821.2</ele>
        <time>2021-08-11T09:55:42Z</time>
      </trkpt>
      <trkpt lat="44.40308" lon="6.78168">
        <ele>1821.11</ele>
        <time>2021-08-11T09:55:44Z</time>
      </trkpt>
      <trkpt lat="44.40314" lon="6.78167">
        <ele>1822.26</ele>
        <time>2021-08-11T09:55:46Z</time>
      </trkpt>
      <trkpt lat="44.40318" lon="6.78166">
        <ele>1822.89</ele>
        <time>2021-08-11T09:55:47Z</time>
      </trkpt>
      <trkpt lat="44.40323" lon="6.78165">
        <ele>1823.76</ele>
        <time>2021-08-11T09:55:49Z</time>
      </trkpt>
      <trkpt lat="44.40326" lon="6.78165">
        <ele>1824.51</ele>
        <time>2021-08-11T09:55:50Z</time>
      </trkpt>
      <trkpt lat="44.40329" lon="6.78164">
        <ele>1824.87</ele>
        <time>2021-08-11T09:55:51Z</time>
      </trkpt>
      <trkpt lat="44.40332" lon="6.78164">
        <ele>1825.61</ele>
        <time>2021-08-11T09:55:52Z</time>
      </trkpt>
      <trkpt lat="44.40337" lon="6.78164">
        <ele>1827.09</ele>
        <time>2021-08-11T09:55:53Z</time>
      </trkpt>
      <trkpt lat="44.40342" lon="6.78163">
        <ele>1828.23</ele>
        <time>2021-08-11T09:55:55Z</time>
      </trkpt>
      <trkpt lat="44.40345" lon="6.78163">
        <ele>1829.16</ele>
        <time>2021-08-11T09:55:56Z</time>
      </trkpt>
      <trkpt lat="44.4035" lon="6.78163">
        <ele>1830.71</ele>
        <time>2021-08-11T09:55:57Z</time>
      </trkpt>
      <trkpt lat="44.40355" lon="6.78161">
        <ele>1831.3</ele>
        <time>2021-08-11T09:55:59Z</time>
      </trkpt>
      <trkpt lat="44.4036" lon="6.7816">
        <ele>1832.31</ele>
        <time>2021-08-11T09:56:01Z</time>
      </trkpt>
      <trkpt lat="44.40366" lon="6.78157">
        <ele>1833.48</ele>
        <time>2021-08-11T09:56:03Z</time>
      </trkpt>
      <trkpt lat="44.40371" lon="6.78153">
        <ele>1833.92</ele>
        <time>2021-08-11T09:56:05Z</time>
      </trkpt>
      <trkpt lat="44.40376" lon="6.78148">
        <ele>1833.92</ele>
        <time>2021-08-11T09:56:07Z</time>
      </trkpt>
      <trkpt lat="44.40379" lon="6.78144">
        <ele>1833.47</ele>
        <time>2021-08-11T09:56:08Z</time>
      </trkpt>
      <trkpt lat="44.40383" lon="6.7814">
        <ele>1833.56</ele>
        <time>2021-08-11T09:56:10Z</time>
      </trkpt>
      <trkpt lat="44.40387" lon="6.78135">
        <ele>1833.43</ele>
        <time>2021-08-11T09:56:12Z</time>
      </trkpt>
      <trkpt lat="44.40391" lon="6.78131">
        <ele>1833.45</ele>
        <time>2021-08-11T09:56:13Z</time>
      </trkpt>
      <trkpt lat="44.40395" lon="6.78126">
        <ele>1832.95</ele>
        <time>2021-08-11T09:56:15Z</time>
      </trkpt>
      <trkpt lat="44.40398" lon="6.78124">
        <ele>1833.35</ele>
        <time>2021-08-11T09:56:16Z</time>
      </trkpt>
      <trkpt lat="44.404" lon="6.78121">
        <ele>1832.93</ele>
        <time>2021-08-11T09:56:17Z</time>
      </trkpt>
      <trkpt lat="44.40403" lon="6.78117">
        <ele>1832.53</ele>
        <time>2021-08-11T09:56:18Z</time>
      </trkpt>
      <trkpt lat="44.40407" lon="6.78113">
        <ele>1832.6</ele>
        <time>2021-08-11T09:56:20Z</time>
      </trkpt>
      <trkpt lat="44.40412" lon="6.78109">
        <ele>1833.4</ele>
        <time>2021-08-11T09:56:22Z</time>
      </trkpt>
      <trkpt lat="44.40416" lon="6.78106">
        <ele>1834.25</ele>
        <time>2021-08-11T09:56:23Z</time>
      </trkpt>
      <trkpt lat="44.40421" lon="6.78104">
        <ele>1834.54</ele>
        <time>2021-08-11T09:56:25Z</time>
      </trkpt>
      <trkpt lat="44.40426" lon="6.78104">
        <ele>1835.21</ele>
        <time>2021-08-11T09:56:27Z</time>
      </trkpt>
      <trkpt lat="44.40431" lon="6.78104">
        <ele>1835.88</ele>
        <time>2021-08-11T09:56:28Z</time>
      </trkpt>
      <trkpt lat="44.40434" lon="6.78105">
        <ele>1836.6</ele>
        <time>2021-08-11T09:56:30Z</time>
      </trkpt>
      <trkpt lat="44.40439" lon="6.78108">
        <ele>1838.23</ele>
        <time>2021-08-11T09:56:32Z</time>
      </trkpt>
      <trkpt lat="44.40443" lon="6.78109">
        <ele>1839.11</ele>
        <time>2021-08-11T09:56:33Z</time>
      </trkpt>
      <trkpt lat="44.40447" lon="6.78113">
        <ele>1841.72</ele>
        <time>2021-08-11T09:56:35Z</time>
      </trkpt>
      <trkpt lat="44.40452" lon="6.78116">
        <ele>1844.58</ele>
        <time>2021-08-11T09:56:37Z</time>
      </trkpt>
      <trkpt lat="44.40456" lon="6.78118">
        <ele>1846.53</ele>
        <time>2021-08-11T09:56:38Z</time>
      </trkpt>
      <trkpt lat="44.40462" lon="6.78117">
        <ele>1847.57</ele>
        <time>2021-08-11T09:56:40Z</time>
      </trkpt>
      <trkpt lat="44.40465" lon="6.78116">
        <ele>1847.91</ele>
        <time>2021-08-11T09:56:41Z</time>
      </trkpt>
      <trkpt lat="44.40468" lon="6.78115">
        <ele>1848.29</ele>
        <time>2021-08-11T09:56:42Z</time>
      </trkpt>
      <trkpt lat="44.40471" lon="6.78114">
        <ele>1848.71</ele>
        <time>2021-08-11T09:56:43Z</time>
      </trkpt>
      <trkpt lat="44.40475" lon="6.78111">
        <ele>1848.05</ele>
        <time>2021-08-11T09:56:45Z</time>
      </trkpt>
      <trkpt lat="44.4048" lon="6.78107">
        <ele>1846.4</ele>
        <time>2021-08-11T09:56:47Z</time>
      </trkpt>
      <trkpt lat="44.40484" lon="6.78104">
        <ele>1845.2</ele>
        <time>2021-08-11T09:56:48Z</time>
      </trkpt>
      <trkpt lat="44.40487" lon="6.78102">
        <ele>1844.44</ele>
        <time>2021-08-11T09:56:50Z</time>
      </trkpt>
      <trkpt lat="44.4049" lon="6.781">
        <ele>1843.7</ele>
        <time>2021-08-11T09:56:52Z</time>
      </trkpt>
      <trkpt lat="44.40494" lon="6.78098">
        <ele>1843.02</ele>
        <time>2021-08-11T09:56:53Z</time>
      </trkpt>
      <trkpt lat="44.40498" lon="6.78095">
        <ele>1841.93</ele>
        <time>2021-08-11T09:56:55Z</time>
      </trkpt>
      <trkpt lat="44.40503" lon="6.78092">
        <ele>1841.58</ele>
        <time>2021-08-11T09:56:57Z</time>
      </trkpt>
      <trkpt lat="44.40507" lon="6.7809">
        <ele>1841.91</ele>
        <time>2021-08-11T09:56:58Z</time>
      </trkpt>
      <trkpt lat="44.4051" lon="6.78088">
        <ele>1842.01</ele>
        <time>2021-08-11T09:57:00Z</time>
      </trkpt>
      <trkpt lat="44.40515" lon="6.78085">
        <ele>1842.45</ele>
        <time>2021-08-11T09:57:02Z</time>
      </trkpt>
      <trkpt lat="44.4052" lon="6.78083">
        <ele>1843.31</ele>
        <time>2021-08-11T09:57:03Z</time>
      </trkpt>
      <trkpt lat="44.40524" lon="6.78079">
        <ele>1842.52</ele>
        <time>2021-08-11T09:57:05Z</time>
      </trkpt>
      <trkpt lat="44.40527" lon="6.78077">
        <ele>1842.35</ele>
        <time>2021-08-11T09:57:06Z</time>
      </trkpt>
      <trkpt lat="44.4053" lon="6.78075">
        <ele>1842.08</ele>
        <time>2021-08-11T09:57:07Z</time>
      </trkpt>
      <trkpt lat="44.40534" lon="6.78071">
        <ele>1841.01</ele>
        <time>2021-08-11T09:57:08Z</time>
      </trkpt>
      <trkpt lat="44.40538" lon="6.78067">
        <ele>1839.97</ele>
        <time>2021-08-11T09:57:10Z</time>
      </trkpt>
      <trkpt lat="44.40541" lon="6.78064">
        <ele>1839.22</ele>
        <time>2021-08-11T09:57:11Z</time>
      </trkpt>
      <trkpt lat="44.40544" lon="6.78062">
        <ele>1839.02</ele>
        <time>2021-08-11T09:57:12Z</time>
      </trkpt>
      <trkpt lat="44.40548" lon="6.78058">
        <ele>1838.08</ele>
        <time>2021-08-11T09:57:13Z</time>
      </trkpt>
      <trkpt lat="44.40551" lon="6.78055">
        <ele>1837.54</ele>
        <time>2021-08-11T09:57:15Z</time>
      </trkpt>
      <trkpt lat="44.40557" lon="6.78052">
        <ele>1838.6</ele>
        <time>2021-08-11T09:57:17Z</time>
      </trkpt>
      <trkpt lat="44.4056" lon="6.78049">
        <ele>1838.83</ele>
        <time>2021-08-11T09:57:18Z</time>
      </trkpt>
      <trkpt lat="44.40564" lon="6.78046">
        <ele>1839.32</ele>
        <time>2021-08-11T09:57:20Z</time>
      </trkpt>
      <trkpt lat="44.40569" lon="6.78043">
        <ele>1840.02</ele>
        <time>2021-08-11T09:57:22Z</time>
      </trkpt>
      <trkpt lat="44.40574" lon="6.78041">
        <ele>1840.93</ele>
        <time>2021-08-11T09:57:23Z</time>
      </trkpt>
      <trkpt lat="44.40579" lon="6.78038">
        <ele>1841.42</ele>
        <time>2021-08-11T09:57:25Z</time>
      </trkpt>
      <trkpt lat="44.40584" lon="6.78035">
        <ele>1841.76</ele>
        <time>2021-08-11T09:57:27Z</time>
      </trkpt>
      <trkpt lat="44.40588" lon="6.78032">
        <ele>1841.32</ele>
        <time>2021-08-11T09:57:28Z</time>
      </trkpt>
      <trkpt lat="44.40592" lon="6.78029">
        <ele>1840.31</ele>
        <time>2021-08-11T09:57:30Z</time>
      </trkpt>
      <trkpt lat="44.40595" lon="6.78027">
        <ele>1839.69</ele>
        <time>2021-08-11T09:57:31Z</time>
      </trkpt>
      <trkpt lat="44.40597" lon="6.78024">
        <ele>1839.24</ele>
        <time>2021-08-11T09:57:32Z</time>
      </trkpt>
      <trkpt lat="44.406" lon="6.78022">
        <ele>1839.04</ele>
        <time>2021-08-11T09:57:33Z</time>
      </trkpt>
      <trkpt lat="44.40603" lon="6.78019">
        <ele>1838.61</ele>
        <time>2021-08-11T09:57:34Z</time>
      </trkpt>
      <trkpt lat="44.40608" lon="6.78015">
        <ele>1838.07</ele>
        <time>2021-08-11T09:57:36Z</time>
      </trkpt>
      <trkpt lat="44.40611" lon="6.78013">
        <ele>1837.8</ele>
        <time>2021-08-11T09:57:37Z</time>
      </trkpt>
      <trkpt lat="44.40613" lon="6.78011">
        <ele>1838.08</ele>
        <time>2021-08-11T09:57:38Z</time>
      </trkpt>
      <trkpt lat="44.40617" lon="6.78009">
        <ele>1838.97</ele>
        <time>2021-08-11T09:57:39Z</time>
      </trkpt>
      <trkpt lat="44.40621" lon="6.78005">
        <ele>1838.92</ele>
        <time>2021-08-11T09:57:41Z</time>
      </trkpt>
      <trkpt lat="44.40626" lon="6.78001">
        <ele>1838.64</ele>
        <time>2021-08-11T09:57:43Z</time>
      </trkpt>
      <trkpt lat="44.40629" lon="6.77998">
        <ele>1838.41</ele>
        <time>2021-08-11T09:57:44Z</time>
      </trkpt>
      <trkpt lat="44.40631" lon="6.77995">
        <ele>1838.14</ele>
        <time>2021-08-11T09:57:45Z</time>
      </trkpt>
      <trkpt lat="44.40633" lon="6.77992">
        <ele>1837.83</ele>
        <time>2021-08-11T09:57:46Z</time>
      </trkpt>
      <trkpt lat="44.40635" lon="6.7799">
        <ele>1837.74</ele>
        <time>2021-08-11T09:57:47Z</time>
      </trkpt>
      <trkpt lat="44.40638" lon="6.77987">
        <ele>1837.56</ele>
        <time>2021-08-11T09:57:48Z</time>
      </trkpt>
      <trkpt lat="44.4064" lon="6.77984">
        <ele>1837.28</ele>
        <time>2021-08-11T09:57:49Z</time>
      </trkpt>
      <trkpt lat="44.40644" lon="6.7798">
        <ele>1837.27</ele>
        <time>2021-08-11T09:57:51Z</time>
      </trkpt>
      <trkpt lat="44.40647" lon="6.77978">
        <ele>1837.45</ele>
        <time>2021-08-11T09:57:52Z</time>
      </trkpt>
      <trkpt lat="44.40649" lon="6.77976">
        <ele>1837.33</ele>
        <time>2021-08-11T09:57:53Z</time>
      </trkpt>
      <trkpt lat="44.40652" lon="6.77973">
        <ele>1837.08</ele>
        <time>2021-08-11T09:57:54Z</time>
      </trkpt>
      <trkpt lat="44.40657" lon="6.77969">
        <ele>1837.29</ele>
        <time>2021-08-11T09:57:56Z</time>
      </trkpt>
      <trkpt lat="44.4066" lon="6.77968">
        <ele>1837.76</ele>
        <time>2021-08-11T09:57:58Z</time>
      </trkpt>
      <trkpt lat="44.40664" lon="6.77966">
        <ele>1838.28</ele>
        <time>2021-08-11T09:58:01Z</time>
      </trkpt>
      <trkpt lat="44.40667" lon="6.77963">
        <ele>1838.43</ele>
        <time>2021-08-11T09:58:03Z</time>
      </trkpt>
      <trkpt lat="44.4067" lon="6.77961">
        <ele>1838.89</ele>
        <time>2021-08-11T09:58:04Z</time>
      </trkpt>
      <trkpt lat="44.40674" lon="6.77957">
        <ele>1839.23</ele>
        <time>2021-08-11T09:58:06Z</time>
      </trkpt>
      <trkpt lat="44.40679" lon="6.77954">
        <ele>1839.98</ele>
        <time>2021-08-11T09:58:08Z</time>
      </trkpt>
      <trkpt lat="44.40682" lon="6.77952">
        <ele>1840.37</ele>
        <time>2021-08-11T09:58:09Z</time>
      </trkpt>
      <trkpt lat="44.40685" lon="6.77949">
        <ele>1840.55</ele>
        <time>2021-08-11T09:58:11Z</time>
      </trkpt>
      <trkpt lat="44.4069" lon="6.77945">
        <ele>1841</ele>
        <time>2021-08-11T09:58:13Z</time>
      </trkpt>
      <trkpt lat="44.40693" lon="6.77943">
        <ele>1841.23</ele>
        <time>2021-08-11T09:58:14Z</time>
      </trkpt>
      <trkpt lat="44.40697" lon="6.77939">
        <ele>1841.04</ele>
        <time>2021-08-11T09:58:16Z</time>
      </trkpt>
      <trkpt lat="44.407" lon="6.77937">
        <ele>1841.22</ele>
        <time>2021-08-11T09:58:17Z</time>
      </trkpt>
      <trkpt lat="44.40702" lon="6.77935">
        <ele>1841.19</ele>
        <time>2021-08-11T09:58:18Z</time>
      </trkpt>
      <trkpt lat="44.40705" lon="6.77933">
        <ele>1841.45</ele>
        <time>2021-08-11T09:58:19Z</time>
      </trkpt>
      <trkpt lat="44.40709" lon="6.7793">
        <ele>1841.8</ele>
        <time>2021-08-11T09:58:21Z</time>
      </trkpt>
      <trkpt lat="44.40712" lon="6.77927">
        <ele>1841.96</ele>
        <time>2021-08-11T09:58:22Z</time>
      </trkpt>
      <trkpt lat="44.40715" lon="6.77926">
        <ele>1842.6</ele>
        <time>2021-08-11T09:58:23Z</time>
      </trkpt>
      <trkpt lat="44.40719" lon="6.77923">
        <ele>1843.18</ele>
        <time>2021-08-11T09:58:24Z</time>
      </trkpt>
      <trkpt lat="44.40722" lon="6.77921">
        <ele>1843.71</ele>
        <time>2021-08-11T09:58:26Z</time>
      </trkpt>
      <trkpt lat="44.40727" lon="6.77917">
        <ele>1846.86</ele>
        <time>2021-08-11T09:58:28Z</time>
      </trkpt>
      <trkpt lat="44.4073" lon="6.77915">
        <ele>1848.71</ele>
        <time>2021-08-11T09:58:29Z</time>
      </trkpt>
      <trkpt lat="44.40733" lon="6.77912">
        <ele>1850.23</ele>
        <time>2021-08-11T09:58:31Z</time>
      </trkpt>
      <trkpt lat="44.40736" lon="6.77909">
        <ele>1851.71</ele>
        <time>2021-08-11T09:58:32Z</time>
      </trkpt>
      <trkpt lat="44.40738" lon="6.77907">
        <ele>1852.66</ele>
        <time>2021-08-11T09:58:33Z</time>
      </trkpt>
      <trkpt lat="44.40741" lon="6.77903">
        <ele>1853.76</ele>
        <time>2021-08-11T09:58:34Z</time>
      </trkpt>
      <trkpt lat="44.40745" lon="6.77898">
        <ele>1855.23</ele>
        <time>2021-08-11T09:58:36Z</time>
      </trkpt>
      <trkpt lat="44.40747" lon="6.77896">
        <ele>1856.09</ele>
        <time>2021-08-11T09:58:37Z</time>
      </trkpt>
      <trkpt lat="44.4075" lon="6.77892">
        <ele>1857.01</ele>
        <time>2021-08-11T09:58:38Z</time>
      </trkpt>
      <trkpt lat="44.40753" lon="6.77887">
        <ele>1857.77</ele>
        <time>2021-08-11T09:58:39Z</time>
      </trkpt>
      <trkpt lat="44.40756" lon="6.77883">
        <ele>1859.14</ele>
        <time>2021-08-11T09:58:41Z</time>
      </trkpt>
      <trkpt lat="44.4076" lon="6.77877">
        <ele>1860.94</ele>
        <time>2021-08-11T09:58:43Z</time>
      </trkpt>
      <trkpt lat="44.40763" lon="6.77873">
        <ele>1862.46</ele>
        <time>2021-08-11T09:58:44Z</time>
      </trkpt>
      <trkpt lat="44.40766" lon="6.77867">
        <ele>1863.7</ele>
        <time>2021-08-11T09:58:46Z</time>
      </trkpt>
      <trkpt lat="44.40768" lon="6.77864">
        <ele>1864.75</ele>
        <time>2021-08-11T09:58:47Z</time>
      </trkpt>
      <trkpt lat="44.40771" lon="6.7786">
        <ele>1866.48</ele>
        <time>2021-08-11T09:58:48Z</time>
      </trkpt>
      <trkpt lat="44.40773" lon="6.77855">
        <ele>1867.37</ele>
        <time>2021-08-11T09:58:49Z</time>
      </trkpt>
      <trkpt lat="44.40776" lon="6.7785">
        <ele>1869.02</ele>
        <time>2021-08-11T09:58:51Z</time>
      </trkpt>
      <trkpt lat="44.40778" lon="6.77846">
        <ele>1869.92</ele>
        <time>2021-08-11T09:58:52Z</time>
      </trkpt>
      <trkpt lat="44.4078" lon="6.77843">
        <ele>1870.38</ele>
        <time>2021-08-11T09:58:53Z</time>
      </trkpt>
      <trkpt lat="44.40783" lon="6.77839">
        <ele>1871.18</ele>
        <time>2021-08-11T09:58:54Z</time>
      </trkpt>
      <trkpt lat="44.40786" lon="6.77834">
        <ele>1871.93</ele>
        <time>2021-08-11T09:58:56Z</time>
      </trkpt>
      <trkpt lat="44.40789" lon="6.77832">
        <ele>1873.11</ele>
        <time>2021-08-11T09:58:57Z</time>
      </trkpt>
      <trkpt lat="44.40791" lon="6.77829">
        <ele>1873.72</ele>
        <time>2021-08-11T09:58:58Z</time>
      </trkpt>
      <trkpt lat="44.40794" lon="6.77826">
        <ele>1874.8</ele>
        <time>2021-08-11T09:58:59Z</time>
      </trkpt>
      <trkpt lat="44.40799" lon="6.77826">
        <ele>1877.14</ele>
        <time>2021-08-11T09:59:01Z</time>
      </trkpt>
      <trkpt lat="44.40801" lon="6.77828">
        <ele>1878.29</ele>
        <time>2021-08-11T09:59:02Z</time>
      </trkpt>
      <trkpt lat="44.40803" lon="6.77832">
        <ele>1879.66</ele>
        <time>2021-08-11T09:59:03Z</time>
      </trkpt>
      <trkpt lat="44.40804" lon="6.77836">
        <ele>1880.47</ele>
        <time>2021-08-11T09:59:04Z</time>
      </trkpt>
      <trkpt lat="44.40807" lon="6.77839">
        <ele>1881.22</ele>
        <time>2021-08-11T09:59:16Z</time>
      </trkpt>
      <trkpt lat="44.4081" lon="6.77839">
        <ele>1880.83</ele>
        <time>2021-08-11T09:59:59Z</time>
      </trkpt>
      <trkpt lat="44.40813" lon="6.77841">
        <ele>1880.53</ele>
        <time>2021-08-11T10:00:14Z</time>
      </trkpt>
      <trkpt lat="44.40815" lon="6.77843">
        <ele>1880.32</ele>
        <time>2021-08-11T10:00:18Z</time>
      </trkpt>
      <trkpt lat="44.40817" lon="6.77849">
        <ele>1880.19</ele>
        <time>2021-08-11T10:00:26Z</time>
      </trkpt>
      <trkpt lat="44.40819" lon="6.77853">
        <ele>1879.94</ele>
        <time>2021-08-11T10:00:27Z</time>
      </trkpt>
      <trkpt lat="44.4082" lon="6.77861">
        <ele>1879.88</ele>
        <time>2021-08-11T10:00:29Z</time>
      </trkpt>
      <trkpt lat="44.4082" lon="6.77866">
        <ele>1879.98</ele>
        <time>2021-08-11T10:00:30Z</time>
      </trkpt>
      <trkpt lat="44.4082" lon="6.77871">
        <ele>1880.08</ele>
        <time>2021-08-11T10:00:31Z</time>
      </trkpt>
      <trkpt lat="44.40821" lon="6.77878">
        <ele>1880.07</ele>
        <time>2021-08-11T10:00:32Z</time>
      </trkpt>
      <trkpt lat="44.40822" lon="6.77888">
        <ele>1880.2</ele>
        <time>2021-08-11T10:00:34Z</time>
      </trkpt>
      <trkpt lat="44.40822" lon="6.77893">
        <ele>1880.55</ele>
        <time>2021-08-11T10:00:35Z</time>
      </trkpt>
      <trkpt lat="44.40823" lon="6.77899">
        <ele>1880.94</ele>
        <time>2021-08-11T10:00:36Z</time>
      </trkpt>
      <trkpt lat="44.40825" lon="6.77908">
        <ele>1881.55</ele>
        <time>2021-08-11T10:00:37Z</time>
      </trkpt>
      <trkpt lat="44.40826" lon="6.77914">
        <ele>1882.03</ele>
        <time>2021-08-11T10:00:38Z</time>
      </trkpt>
      <trkpt lat="44.40827" lon="6.7792">
        <ele>1882.43</ele>
        <time>2021-08-11T10:00:39Z</time>
      </trkpt>
      <trkpt lat="44.40829" lon="6.77926">
        <ele>1882.65</ele>
        <time>2021-08-11T10:00:41Z</time>
      </trkpt>
      <trkpt lat="44.40831" lon="6.77934">
        <ele>1882.87</ele>
        <time>2021-08-11T10:00:42Z</time>
      </trkpt>
      <trkpt lat="44.40834" lon="6.77947">
        <ele>1883.25</ele>
        <time>2021-08-11T10:00:46Z</time>
      </trkpt>
      <trkpt lat="44.40837" lon="6.77963">
        <ele>1884.96</ele>
        <time>2021-08-11T10:00:48Z</time>
      </trkpt>
      <trkpt lat="44.40839" lon="6.77981">
        <ele>1887.07</ele>
        <time>2021-08-11T10:00:52Z</time>
      </trkpt>
      <trkpt lat="44.40842" lon="6.77998">
        <ele>1888.84</ele>
        <time>2021-08-11T10:00:54Z</time>
      </trkpt>
      <trkpt lat="44.40846" lon="6.78018">
        <ele>1891.87</ele>
        <time>2021-08-11T10:00:57Z</time>
      </trkpt>
      <trkpt lat="44.40854" lon="6.78037">
        <ele>1894.6</ele>
        <time>2021-08-11T10:01:00Z</time>
      </trkpt>
      <trkpt lat="44.40863" lon="6.78051">
        <ele>1895.75</ele>
        <time>2021-08-11T10:01:04Z</time>
      </trkpt>
      <trkpt lat="44.40873" lon="6.78066">
        <ele>1894.86</ele>
        <time>2021-08-11T10:01:08Z</time>
      </trkpt>
      <trkpt lat="44.40881" lon="6.78081">
        <ele>1893.03</ele>
        <time>2021-08-11T10:01:10Z</time>
      </trkpt>
      <trkpt lat="44.40889" lon="6.78096">
        <ele>1890.43</ele>
        <time>2021-08-11T10:01:14Z</time>
      </trkpt>
      <trkpt lat="44.40902" lon="6.78117">
        <ele>1887.28</ele>
        <time>2021-08-11T10:01:18Z</time>
      </trkpt>
      <trkpt lat="44.40914" lon="6.78131">
        <ele>1882.66</ele>
        <time>2021-08-11T10:01:22Z</time>
      </trkpt>
      <trkpt lat="44.40921" lon="6.78148">
        <ele>1878.52</ele>
        <time>2021-08-11T10:01:25Z</time>
      </trkpt>
      <trkpt lat="44.40925" lon="6.78175">
        <ele>1874.89</ele>
        <time>2021-08-11T10:01:29Z</time>
      </trkpt>
      <trkpt lat="44.40924" lon="6.78195">
        <ele>1873.35</ele>
        <time>2021-08-11T10:01:33Z</time>
      </trkpt>
      <trkpt lat="44.40921" lon="6.7822">
        <ele>1873.81</ele>
        <time>2021-08-11T10:01:36Z</time>
      </trkpt>
      <trkpt lat="44.40917" lon="6.78235">
        <ele>1876.27</ele>
        <time>2021-08-11T10:01:39Z</time>
      </trkpt>
      <trkpt lat="44.40916" lon="6.78248">
        <ele>1877.94</ele>
        <time>2021-08-11T10:01:40Z</time>
      </trkpt>
      <trkpt lat="44.40914" lon="6.7826">
        <ele>1877.86</ele>
        <time>2021-08-11T10:01:42Z</time>
      </trkpt>
      <trkpt lat="44.40913" lon="6.78272">
        <ele>1877.21</ele>
        <time>2021-08-11T10:01:45Z</time>
      </trkpt>
      <trkpt lat="44.40912" lon="6.78292">
        <ele>1877.69</ele>
        <time>2021-08-11T10:01:47Z</time>
      </trkpt>
      <trkpt lat="44.40911" lon="6.78322">
        <ele>1881.11</ele>
        <time>2021-08-11T10:01:52Z</time>
      </trkpt>
      <trkpt lat="44.40911" lon="6.78339">
        <ele>1882.77</ele>
        <time>2021-08-11T10:01:55Z</time>
      </trkpt>
      <trkpt lat="44.40915" lon="6.78363">
        <ele>1882.32</ele>
        <time>2021-08-11T10:01:59Z</time>
      </trkpt>
      <trkpt lat="44.40916" lon="6.7838">
        <ele>1883.43</ele>
        <time>2021-08-11T10:02:01Z</time>
      </trkpt>
      <trkpt lat="44.40918" lon="6.78394">
        <ele>1884.62</ele>
        <time>2021-08-11T10:02:03Z</time>
      </trkpt>
      <trkpt lat="44.40919" lon="6.784">
        <ele>1885.46</ele>
        <time>2021-08-11T10:02:04Z</time>
      </trkpt>
      <trkpt lat="44.4092" lon="6.78407">
        <ele>1886.46</ele>
        <time>2021-08-11T10:02:05Z</time>
      </trkpt>
      <trkpt lat="44.40922" lon="6.78414">
        <ele>1887.19</ele>
        <time>2021-08-11T10:02:06Z</time>
      </trkpt>
      <trkpt lat="44.40923" lon="6.78421">
        <ele>1888.06</ele>
        <time>2021-08-11T10:02:07Z</time>
      </trkpt>
      <trkpt lat="44.40925" lon="6.78428">
        <ele>1888.65</ele>
        <time>2021-08-11T10:02:08Z</time>
      </trkpt>
      <trkpt lat="44.40926" lon="6.78435">
        <ele>1889.51</ele>
        <time>2021-08-11T10:02:09Z</time>
      </trkpt>
      <trkpt lat="44.40927" lon="6.78442">
        <ele>1890.38</ele>
        <time>2021-08-11T10:02:10Z</time>
      </trkpt>
      <trkpt lat="44.40928" lon="6.78449">
        <ele>1890.81</ele>
        <time>2021-08-11T10:02:11Z</time>
      </trkpt>
      <trkpt lat="44.40928" lon="6.78456">
        <ele>1891.21</ele>
        <time>2021-08-11T10:02:12Z</time>
      </trkpt>
      <trkpt lat="44.40929" lon="6.78463">
        <ele>1891.38</ele>
        <time>2021-08-11T10:02:13Z</time>
      </trkpt>
      <trkpt lat="44.4093" lon="6.78471">
        <ele>1891.57</ele>
        <time>2021-08-11T10:02:14Z</time>
      </trkpt>
      <trkpt lat="44.40931" lon="6.78477">
        <ele>1891.74</ele>
        <time>2021-08-11T10:02:15Z</time>
      </trkpt>
      <trkpt lat="44.40933" lon="6.78484">
        <ele>1891.81</ele>
        <time>2021-08-11T10:02:16Z</time>
      </trkpt>
      <trkpt lat="44.40935" lon="6.78489">
        <ele>1891.78</ele>
        <time>2021-08-11T10:02:17Z</time>
      </trkpt>
      <trkpt lat="44.4094" lon="6.785">
        <ele>1891.8</ele>
        <time>2021-08-11T10:02:19Z</time>
      </trkpt>
      <trkpt lat="44.40943" lon="6.78506">
        <ele>1891.1</ele>
        <time>2021-08-11T10:02:20Z</time>
      </trkpt>
      <trkpt lat="44.40945" lon="6.78512">
        <ele>1890.39</ele>
        <time>2021-08-11T10:02:21Z</time>
      </trkpt>
      <trkpt lat="44.40948" lon="6.78518">
        <ele>1889.2</ele>
        <time>2021-08-11T10:02:22Z</time>
      </trkpt>
      <trkpt lat="44.40951" lon="6.78525">
        <ele>1887.98</ele>
        <time>2021-08-11T10:02:23Z</time>
      </trkpt>
      <trkpt lat="44.40953" lon="6.78531">
        <ele>1887.25</ele>
        <time>2021-08-11T10:02:24Z</time>
      </trkpt>
      <trkpt lat="44.40955" lon="6.78537">
        <ele>1886.75</ele>
        <time>2021-08-11T10:02:25Z</time>
      </trkpt>
      <trkpt lat="44.40958" lon="6.78543">
        <ele>1886.13</ele>
        <time>2021-08-11T10:02:26Z</time>
      </trkpt>
      <trkpt lat="44.40962" lon="6.78553">
        <ele>1885.7</ele>
        <time>2021-08-11T10:02:28Z</time>
      </trkpt>
      <trkpt lat="44.40965" lon="6.78562">
        <ele>1885.36</ele>
        <time>2021-08-11T10:02:30Z</time>
      </trkpt>
      <trkpt lat="44.40969" lon="6.78572">
        <ele>1884.65</ele>
        <time>2021-08-11T10:02:31Z</time>
      </trkpt>
      <trkpt lat="44.40973" lon="6.78584">
        <ele>1883.46</ele>
        <time>2021-08-11T10:02:33Z</time>
      </trkpt>
      <trkpt lat="44.4098" lon="6.78605">
        <ele>1876.77</ele>
        <time>2021-08-11T10:02:38Z</time>
      </trkpt>
      <trkpt lat="44.40984" lon="6.78633">
        <ele>1872.4</ele>
        <time>2021-08-11T10:02:42Z</time>
      </trkpt>
      <trkpt lat="44.40987" lon="6.78652">
        <ele>1870.93</ele>
        <time>2021-08-11T10:02:46Z</time>
      </trkpt>
      <trkpt lat="44.40996" lon="6.78672">
        <ele>1869.95</ele>
        <time>2021-08-11T10:02:49Z</time>
      </trkpt>
      <trkpt lat="44.41" lon="6.78688">
        <ele>1869.23</ele>
        <time>2021-08-11T10:02:51Z</time>
      </trkpt>
      <trkpt lat="44.41" lon="6.78701">
        <ele>1868.76</ele>
        <time>2021-08-11T10:02:53Z</time>
      </trkpt>
      <trkpt lat="44.41" lon="6.78708">
        <ele>1868.51</ele>
        <time>2021-08-11T10:02:54Z</time>
      </trkpt>
      <trkpt lat="44.40999" lon="6.78715">
        <ele>1868.32</ele>
        <time>2021-08-11T10:02:55Z</time>
      </trkpt>
      <trkpt lat="44.40997" lon="6.78721">
        <ele>1868.26</ele>
        <time>2021-08-11T10:02:56Z</time>
      </trkpt>
      <trkpt lat="44.40995" lon="6.78727">
        <ele>1868.45</ele>
        <time>2021-08-11T10:02:57Z</time>
      </trkpt>
      <trkpt lat="44.40983" lon="6.78745">
        <ele>1870.73</ele>
        <time>2021-08-11T10:03:01Z</time>
      </trkpt>
      <trkpt lat="44.40973" lon="6.7876">
        <ele>1873.55</ele>
        <time>2021-08-11T10:03:04Z</time>
      </trkpt>
      <trkpt lat="44.40967" lon="6.7877">
        <ele>1876.03</ele>
        <time>2021-08-11T10:03:06Z</time>
      </trkpt>
      <trkpt lat="44.40961" lon="6.78786">
        <ele>1880.24</ele>
        <time>2021-08-11T10:03:09Z</time>
      </trkpt>
      <trkpt lat="44.4096" lon="6.78801">
        <ele>1883.51</ele>
        <time>2021-08-11T10:03:12Z</time>
      </trkpt>
      <trkpt lat="44.40963" lon="6.78816">
        <ele>1884.32</ele>
        <time>2021-08-11T10:03:14Z</time>
      </trkpt>
      <trkpt lat="44.40969" lon="6.78826">
        <ele>1883.28</ele>
        <time>2021-08-11T10:03:16Z</time>
      </trkpt>
      <trkpt lat="44.40972" lon="6.78831">
        <ele>1882.82</ele>
        <time>2021-08-11T10:03:17Z</time>
      </trkpt>
      <trkpt lat="44.40976" lon="6.78835">
        <ele>1881.56</ele>
        <time>2021-08-11T10:03:18Z</time>
      </trkpt>
      <trkpt lat="44.40979" lon="6.78841">
        <ele>1880.34</ele>
        <time>2021-08-11T10:03:19Z</time>
      </trkpt>
      <trkpt lat="44.40981" lon="6.78846">
        <ele>1879.65</ele>
        <time>2021-08-11T10:03:20Z</time>
      </trkpt>
      <trkpt lat="44.40984" lon="6.78852">
        <ele>1878.84</ele>
        <time>2021-08-11T10:03:21Z</time>
      </trkpt>
      <trkpt lat="44.40987" lon="6.78858">
        <ele>1878.27</ele>
        <time>2021-08-11T10:03:22Z</time>
      </trkpt>
      <trkpt lat="44.4099" lon="6.78863">
        <ele>1877.96</ele>
        <time>2021-08-11T10:03:23Z</time>
      </trkpt>
      <trkpt lat="44.40993" lon="6.78868">
        <ele>1877.88</ele>
        <time>2021-08-11T10:03:24Z</time>
      </trkpt>
      <trkpt lat="44.40996" lon="6.78871">
        <ele>1877.69</ele>
        <time>2021-08-11T10:03:25Z</time>
      </trkpt>
      <trkpt lat="44.40999" lon="6.78874">
        <ele>1877.54</ele>
        <time>2021-08-11T10:03:26Z</time>
      </trkpt>
      <trkpt lat="44.41001" lon="6.78877">
        <ele>1877.58</ele>
        <time>2021-08-11T10:03:27Z</time>
      </trkpt>
      <trkpt lat="44.41004" lon="6.78881">
        <ele>1877.7</ele>
        <time>2021-08-11T10:03:28Z</time>
      </trkpt>
      <trkpt lat="44.41008" lon="6.78885">
        <ele>1877.84</ele>
        <time>2021-08-11T10:03:29Z</time>
      </trkpt>
      <trkpt lat="44.41011" lon="6.7889">
        <ele>1878.29</ele>
        <time>2021-08-11T10:03:30Z</time>
      </trkpt>
      <trkpt lat="44.41014" lon="6.78895">
        <ele>1878.43</ele>
        <time>2021-08-11T10:03:31Z</time>
      </trkpt>
      <trkpt lat="44.41017" lon="6.789">
        <ele>1878.58</ele>
        <time>2021-08-11T10:03:32Z</time>
      </trkpt>
      <trkpt lat="44.4103" lon="6.78903">
        <ele>1877.5</ele>
        <time>2021-08-11T10:03:38Z</time>
      </trkpt>
      <trkpt lat="44.41043" lon="6.78916">
        <ele>1875.65</ele>
        <time>2021-08-11T10:03:40Z</time>
      </trkpt>
      <trkpt lat="44.41045" lon="6.78933">
        <ele>1877.41</ele>
        <time>2021-08-11T10:03:41Z</time>
      </trkpt>
      <trkpt lat="44.41046" lon="6.78948">
        <ele>1879.49</ele>
        <time>2021-08-11T10:03:43Z</time>
      </trkpt>
      <trkpt lat="44.41046" lon="6.78961">
        <ele>1882.3</ele>
        <time>2021-08-11T10:03:45Z</time>
      </trkpt>
      <trkpt lat="44.41052" lon="6.78979">
        <ele>1885.84</ele>
        <time>2021-08-11T10:03:48Z</time>
      </trkpt>
      <trkpt lat="44.41059" lon="6.78991">
        <ele>1888.76</ele>
        <time>2021-08-11T10:03:50Z</time>
      </trkpt>
      <trkpt lat="44.41067" lon="6.78999">
        <ele>1890.82</ele>
        <time>2021-08-11T10:03:52Z</time>
      </trkpt>
      <trkpt lat="44.41072" lon="6.79002">
        <ele>1891.54</ele>
        <time>2021-08-11T10:03:53Z</time>
      </trkpt>
      <trkpt lat="44.41079" lon="6.79006">
        <ele>1892.47</ele>
        <time>2021-08-11T10:03:55Z</time>
      </trkpt>
      <trkpt lat="44.41086" lon="6.79011">
        <ele>1893.86</ele>
        <time>2021-08-11T10:03:56Z</time>
      </trkpt>
      <trkpt lat="44.41091" lon="6.79013">
        <ele>1894.4</ele>
        <time>2021-08-11T10:03:57Z</time>
      </trkpt>
      <trkpt lat="44.41096" lon="6.79016">
        <ele>1895.3</ele>
        <time>2021-08-11T10:03:58Z</time>
      </trkpt>
      <trkpt lat="44.41101" lon="6.79019">
        <ele>1896.2</ele>
        <time>2021-08-11T10:03:59Z</time>
      </trkpt>
      <trkpt lat="44.41106" lon="6.79022">
        <ele>1897.1</ele>
        <time>2021-08-11T10:04:00Z</time>
      </trkpt>
      <trkpt lat="44.41111" lon="6.79024">
        <ele>1897.64</ele>
        <time>2021-08-11T10:04:01Z</time>
      </trkpt>
      <trkpt lat="44.41115" lon="6.79026">
        <ele>1897.63</ele>
        <time>2021-08-11T10:04:02Z</time>
      </trkpt>
      <trkpt lat="44.41123" lon="6.7903">
        <ele>1897.51</ele>
        <time>2021-08-11T10:04:04Z</time>
      </trkpt>
      <trkpt lat="44.41127" lon="6.79033">
        <ele>1897.62</ele>
        <time>2021-08-11T10:04:05Z</time>
      </trkpt>
      <trkpt lat="44.41131" lon="6.79037">
        <ele>1897.93</ele>
        <time>2021-08-11T10:04:06Z</time>
      </trkpt>
      <trkpt lat="44.41135" lon="6.7904">
        <ele>1897.9</ele>
        <time>2021-08-11T10:04:07Z</time>
      </trkpt>
      <trkpt lat="44.41139" lon="6.79044">
        <ele>1898.03</ele>
        <time>2021-08-11T10:04:08Z</time>
      </trkpt>
      <trkpt lat="44.41143" lon="6.79049">
        <ele>1897.28</ele>
        <time>2021-08-11T10:04:09Z</time>
      </trkpt>
      <trkpt lat="44.41147" lon="6.79054">
        <ele>1896.75</ele>
        <time>2021-08-11T10:04:10Z</time>
      </trkpt>
      <trkpt lat="44.4115" lon="6.79059">
        <ele>1895.85</ele>
        <time>2021-08-11T10:04:11Z</time>
      </trkpt>
      <trkpt lat="44.41153" lon="6.79065">
        <ele>1894.57</ele>
        <time>2021-08-11T10:04:12Z</time>
      </trkpt>
      <trkpt lat="44.41155" lon="6.7907">
        <ele>1893.76</ele>
        <time>2021-08-11T10:04:13Z</time>
      </trkpt>
      <trkpt lat="44.41158" lon="6.79075">
        <ele>1892.54</ele>
        <time>2021-08-11T10:04:14Z</time>
      </trkpt>
      <trkpt lat="44.41161" lon="6.79083">
        <ele>1891.44</ele>
        <time>2021-08-11T10:04:17Z</time>
      </trkpt>
      <trkpt lat="44.41166" lon="6.79091">
        <ele>1889.81</ele>
        <time>2021-08-11T10:04:19Z</time>
      </trkpt>
      <trkpt lat="44.4117" lon="6.79107">
        <ele>1889.93</ele>
        <time>2021-08-11T10:04:20Z</time>
      </trkpt>
      <trkpt lat="44.41176" lon="6.79124">
        <ele>1890.99</ele>
        <time>2021-08-11T10:04:23Z</time>
      </trkpt>
      <trkpt lat="44.4118" lon="6.79129">
        <ele>1890.72</ele>
        <time>2021-08-11T10:04:24Z</time>
      </trkpt>
      <trkpt lat="44.41184" lon="6.79134">
        <ele>1890.35</ele>
        <time>2021-08-11T10:04:25Z</time>
      </trkpt>
      <trkpt lat="44.41188" lon="6.79137">
        <ele>1889.62</ele>
        <time>2021-08-11T10:04:26Z</time>
      </trkpt>
      <trkpt lat="44.41193" lon="6.79141">
        <ele>1888.8</ele>
        <time>2021-08-11T10:04:27Z</time>
      </trkpt>
      <trkpt lat="44.41198" lon="6.79144">
        <ele>1887.9</ele>
        <time>2021-08-11T10:04:28Z</time>
      </trkpt>
      <trkpt lat="44.41202" lon="6.79148">
        <ele>1887.46</ele>
        <time>2021-08-11T10:04:29Z</time>
      </trkpt>
      <trkpt lat="44.41207" lon="6.79151">
        <ele>1886.56</ele>
        <time>2021-08-11T10:04:30Z</time>
      </trkpt>
      <trkpt lat="44.41211" lon="6.79154">
        <ele>1885.95</ele>
        <time>2021-08-11T10:04:31Z</time>
      </trkpt>
      <trkpt lat="44.41216" lon="6.79158">
        <ele>1885.23</ele>
        <time>2021-08-11T10:04:32Z</time>
      </trkpt>
      <trkpt lat="44.4122" lon="6.79162">
        <ele>1884.8</ele>
        <time>2021-08-11T10:04:33Z</time>
      </trkpt>
      <trkpt lat="44.41224" lon="6.79166">
        <ele>1884.37</ele>
        <time>2021-08-11T10:04:34Z</time>
      </trkpt>
      <trkpt lat="44.41228" lon="6.79171">
        <ele>1884.05</ele>
        <time>2021-08-11T10:04:35Z</time>
      </trkpt>
      <trkpt lat="44.41232" lon="6.79176">
        <ele>1883.63</ele>
        <time>2021-08-11T10:04:36Z</time>
      </trkpt>
      <trkpt lat="44.41236" lon="6.79181">
        <ele>1883.1</ele>
        <time>2021-08-11T10:04:37Z</time>
      </trkpt>
      <trkpt lat="44.41239" lon="6.79188">
        <ele>1883.08</ele>
        <time>2021-08-11T10:04:38Z</time>
      </trkpt>
      <trkpt lat="44.41241" lon="6.79194">
        <ele>1883.18</ele>
        <time>2021-08-11T10:04:39Z</time>
      </trkpt>
      <trkpt lat="44.41243" lon="6.79201">
        <ele>1882.99</ele>
        <time>2021-08-11T10:04:40Z</time>
      </trkpt>
      <trkpt lat="44.41243" lon="6.79208">
        <ele>1883.5</ele>
        <time>2021-08-11T10:04:41Z</time>
      </trkpt>
      <trkpt lat="44.41243" lon="6.79215">
        <ele>1884</ele>
        <time>2021-08-11T10:04:42Z</time>
      </trkpt>
      <trkpt lat="44.41243" lon="6.79223">
        <ele>1884.56</ele>
        <time>2021-08-11T10:04:43Z</time>
      </trkpt>
      <trkpt lat="44.41242" lon="6.7923">
        <ele>1885.24</ele>
        <time>2021-08-11T10:04:44Z</time>
      </trkpt>
      <trkpt lat="44.41242" lon="6.79237">
        <ele>1885.57</ele>
        <time>2021-08-11T10:04:45Z</time>
      </trkpt>
      <trkpt lat="44.41242" lon="6.79243">
        <ele>1885.84</ele>
        <time>2021-08-11T10:04:46Z</time>
      </trkpt>
      <trkpt lat="44.41242" lon="6.7925">
        <ele>1886.17</ele>
        <time>2021-08-11T10:04:47Z</time>
      </trkpt>
      <trkpt lat="44.41243" lon="6.79257">
        <ele>1886.21</ele>
        <time>2021-08-11T10:04:48Z</time>
      </trkpt>
      <trkpt lat="44.41245" lon="6.79264">
        <ele>1885.76</ele>
        <time>2021-08-11T10:04:49Z</time>
      </trkpt>
      <trkpt lat="44.41248" lon="6.7927">
        <ele>1884.67</ele>
        <time>2021-08-11T10:04:50Z</time>
      </trkpt>
      <trkpt lat="44.4125" lon="6.79276">
        <ele>1883.94</ele>
        <time>2021-08-11T10:04:51Z</time>
      </trkpt>
      <trkpt lat="44.41254" lon="6.79282">
        <ele>1882.85</ele>
        <time>2021-08-11T10:04:52Z</time>
      </trkpt>
      <trkpt lat="44.41258" lon="6.79287">
        <ele>1881.73</ele>
        <time>2021-08-11T10:04:53Z</time>
      </trkpt>
      <trkpt lat="44.41262" lon="6.79292">
        <ele>1880.56</ele>
        <time>2021-08-11T10:04:54Z</time>
      </trkpt>
      <trkpt lat="44.41266" lon="6.79296">
        <ele>1879.25</ele>
        <time>2021-08-11T10:04:55Z</time>
      </trkpt>
      <trkpt lat="44.4127" lon="6.793">
        <ele>1877.9</ele>
        <time>2021-08-11T10:04:56Z</time>
      </trkpt>
      <trkpt lat="44.41274" lon="6.79303">
        <ele>1876.44</ele>
        <time>2021-08-11T10:04:57Z</time>
      </trkpt>
      <trkpt lat="44.41278" lon="6.79307">
        <ele>1875.29</ele>
        <time>2021-08-11T10:04:58Z</time>
      </trkpt>
      <trkpt lat="44.41282" lon="6.79309">
        <ele>1874.61</ele>
        <time>2021-08-11T10:04:59Z</time>
      </trkpt>
      <trkpt lat="44.41289" lon="6.79312">
        <ele>1873.55</ele>
        <time>2021-08-11T10:05:01Z</time>
      </trkpt>
      <trkpt lat="44.41294" lon="6.79314">
        <ele>1872.94</ele>
        <time>2021-08-11T10:05:02Z</time>
      </trkpt>
      <trkpt lat="44.41298" lon="6.79315">
        <ele>1872.31</ele>
        <time>2021-08-11T10:05:03Z</time>
      </trkpt>
      <trkpt lat="44.41303" lon="6.79316">
        <ele>1871.51</ele>
        <time>2021-08-11T10:05:04Z</time>
      </trkpt>
      <trkpt lat="44.41309" lon="6.79317">
        <ele>1870.49</ele>
        <time>2021-08-11T10:05:05Z</time>
      </trkpt>
      <trkpt lat="44.41314" lon="6.79317">
        <ele>1869.23</ele>
        <time>2021-08-11T10:05:06Z</time>
      </trkpt>
      <trkpt lat="44.41319" lon="6.79317">
        <ele>1867.97</ele>
        <time>2021-08-11T10:05:07Z</time>
      </trkpt>
      <trkpt lat="44.41324" lon="6.79317">
        <ele>1866.71</ele>
        <time>2021-08-11T10:05:08Z</time>
      </trkpt>
      <trkpt lat="44.41329" lon="6.79318">
        <ele>1865.92</ele>
        <time>2021-08-11T10:05:09Z</time>
      </trkpt>
      <trkpt lat="44.41335" lon="6.79319">
        <ele>1865.02</ele>
        <time>2021-08-11T10:05:10Z</time>
      </trkpt>
      <trkpt lat="44.4134" lon="6.79319">
        <ele>1864.2</ele>
        <time>2021-08-11T10:05:11Z</time>
      </trkpt>
      <trkpt lat="44.41345" lon="6.7932">
        <ele>1863.9</ele>
        <time>2021-08-11T10:05:12Z</time>
      </trkpt>
      <trkpt lat="44.4135" lon="6.79321">
        <ele>1863.63</ele>
        <time>2021-08-11T10:05:13Z</time>
      </trkpt>
      <trkpt lat="44.41356" lon="6.79321">
        <ele>1862.69</ele>
        <time>2021-08-11T10:05:14Z</time>
      </trkpt>
      <trkpt lat="44.41361" lon="6.79322">
        <ele>1862.49</ele>
        <time>2021-08-11T10:05:15Z</time>
      </trkpt>
      <trkpt lat="44.41366" lon="6.79322">
        <ele>1862.83</ele>
        <time>2021-08-11T10:05:16Z</time>
      </trkpt>
      <trkpt lat="44.41372" lon="6.79322">
        <ele>1863.27</ele>
        <time>2021-08-11T10:05:17Z</time>
      </trkpt>
      <trkpt lat="44.41377" lon="6.79323">
        <ele>1864.11</ele>
        <time>2021-08-11T10:05:18Z</time>
      </trkpt>
      <trkpt lat="44.41382" lon="6.79323">
        <ele>1864.45</ele>
        <time>2021-08-11T10:05:19Z</time>
      </trkpt>
      <trkpt lat="44.41387" lon="6.79323">
        <ele>1864.78</ele>
        <time>2021-08-11T10:05:20Z</time>
      </trkpt>
      <trkpt lat="44.41392" lon="6.79323">
        <ele>1865.29</ele>
        <time>2021-08-11T10:05:21Z</time>
      </trkpt>
      <trkpt lat="44.41398" lon="6.79323">
        <ele>1866.01</ele>
        <time>2021-08-11T10:05:22Z</time>
      </trkpt>
      <trkpt lat="44.41403" lon="6.79323">
        <ele>1866.62</ele>
        <time>2021-08-11T10:05:23Z</time>
      </trkpt>
      <trkpt lat="44.41408" lon="6.79323">
        <ele>1867.23</ele>
        <time>2021-08-11T10:05:24Z</time>
      </trkpt>
      <trkpt lat="44.41413" lon="6.79324">
        <ele>1868.2</ele>
        <time>2021-08-11T10:05:25Z</time>
      </trkpt>
      <trkpt lat="44.41417" lon="6.79324">
        <ele>1868.73</ele>
        <time>2021-08-11T10:05:26Z</time>
      </trkpt>
      <trkpt lat="44.41422" lon="6.79325">
        <ele>1870.4</ele>
        <time>2021-08-11T10:05:27Z</time>
      </trkpt>
      <trkpt lat="44.41427" lon="6.79326">
        <ele>1872.06</ele>
        <time>2021-08-11T10:05:28Z</time>
      </trkpt>
      <trkpt lat="44.41431" lon="6.79327">
        <ele>1873.45</ele>
        <time>2021-08-11T10:05:29Z</time>
      </trkpt>
      <trkpt lat="44.41436" lon="6.79329">
        <ele>1875.42</ele>
        <time>2021-08-11T10:05:30Z</time>
      </trkpt>
      <trkpt lat="44.41441" lon="6.79333">
        <ele>1878.02</ele>
        <time>2021-08-11T10:05:31Z</time>
      </trkpt>
      <trkpt lat="44.41445" lon="6.79336">
        <ele>1879.2</ele>
        <time>2021-08-11T10:05:32Z</time>
      </trkpt>
      <trkpt lat="44.4145" lon="6.79339">
        <ele>1878.73</ele>
        <time>2021-08-11T10:05:33Z</time>
      </trkpt>
      <trkpt lat="44.41454" lon="6.79344">
        <ele>1878.51</ele>
        <time>2021-08-11T10:05:34Z</time>
      </trkpt>
      <trkpt lat="44.41458" lon="6.79348">
        <ele>1878.12</ele>
        <time>2021-08-11T10:05:35Z</time>
      </trkpt>
      <trkpt lat="44.41461" lon="6.79353">
        <ele>1877.9</ele>
        <time>2021-08-11T10:05:36Z</time>
      </trkpt>
      <trkpt lat="44.41464" lon="6.79359">
        <ele>1877.66</ele>
        <time>2021-08-11T10:05:37Z</time>
      </trkpt>
      <trkpt lat="44.41466" lon="6.79366">
        <ele>1877.42</ele>
        <time>2021-08-11T10:05:38Z</time>
      </trkpt>
      <trkpt lat="44.41467" lon="6.79374">
        <ele>1877.3</ele>
        <time>2021-08-11T10:05:39Z</time>
      </trkpt>
      <trkpt lat="44.41467" lon="6.79381">
        <ele>1877.4</ele>
        <time>2021-08-11T10:05:40Z</time>
      </trkpt>
      <trkpt lat="44.41466" lon="6.7939">
        <ele>1877.75</ele>
        <time>2021-08-11T10:05:41Z</time>
      </trkpt>
      <trkpt lat="44.41466" lon="6.79398">
        <ele>1877.46</ele>
        <time>2021-08-11T10:05:42Z</time>
      </trkpt>
      <trkpt lat="44.41466" lon="6.79405">
        <ele>1877.21</ele>
        <time>2021-08-11T10:05:43Z</time>
      </trkpt>
      <trkpt lat="44.41466" lon="6.79413">
        <ele>1876.92</ele>
        <time>2021-08-11T10:05:44Z</time>
      </trkpt>
      <trkpt lat="44.41466" lon="6.7942">
        <ele>1876.58</ele>
        <time>2021-08-11T10:05:45Z</time>
      </trkpt>
      <trkpt lat="44.41468" lon="6.79428">
        <ele>1875.46</ele>
        <time>2021-08-11T10:05:46Z</time>
      </trkpt>
      <trkpt lat="44.41469" lon="6.79436">
        <ele>1874.62</ele>
        <time>2021-08-11T10:05:47Z</time>
      </trkpt>
      <trkpt lat="44.4147" lon="6.79443">
        <ele>1873.82</ele>
        <time>2021-08-11T10:05:48Z</time>
      </trkpt>
      <trkpt lat="44.41471" lon="6.7945">
        <ele>1873</ele>
        <time>2021-08-11T10:05:49Z</time>
      </trkpt>
      <trkpt lat="44.41472" lon="6.79457">
        <ele>1872.17</ele>
        <time>2021-08-11T10:05:50Z</time>
      </trkpt>
      <trkpt lat="44.41473" lon="6.79464">
        <ele>1871.4</ele>
        <time>2021-08-11T10:05:51Z</time>
      </trkpt>
      <trkpt lat="44.41474" lon="6.79472">
        <ele>1870.57</ele>
        <time>2021-08-11T10:05:52Z</time>
      </trkpt>
      <trkpt lat="44.41474" lon="6.7948">
        <ele>1870.24</ele>
        <time>2021-08-11T10:05:53Z</time>
      </trkpt>
      <trkpt lat="44.41475" lon="6.79487">
        <ele>1869.66</ele>
        <time>2021-08-11T10:05:54Z</time>
      </trkpt>
      <trkpt lat="44.41476" lon="6.79495">
        <ele>1869</ele>
        <time>2021-08-11T10:05:55Z</time>
      </trkpt>
      <trkpt lat="44.41476" lon="6.79503">
        <ele>1868.47</ele>
        <time>2021-08-11T10:05:56Z</time>
      </trkpt>
      <trkpt lat="44.41476" lon="6.79512">
        <ele>1867.54</ele>
        <time>2021-08-11T10:05:57Z</time>
      </trkpt>
      <trkpt lat="44.41476" lon="6.7952">
        <ele>1866.71</ele>
        <time>2021-08-11T10:05:58Z</time>
      </trkpt>
      <trkpt lat="44.41475" lon="6.79528">
        <ele>1866.19</ele>
        <time>2021-08-11T10:05:59Z</time>
      </trkpt>
      <trkpt lat="44.41474" lon="6.79536">
        <ele>1865.93</ele>
        <time>2021-08-11T10:06:00Z</time>
      </trkpt>
      <trkpt lat="44.41472" lon="6.79544">
        <ele>1865.9</ele>
        <time>2021-08-11T10:06:01Z</time>
      </trkpt>
      <trkpt lat="44.4147" lon="6.79551">
        <ele>1865.98</ele>
        <time>2021-08-11T10:06:02Z</time>
      </trkpt>
      <trkpt lat="44.41467" lon="6.79558">
        <ele>1866.43</ele>
        <time>2021-08-11T10:06:03Z</time>
      </trkpt>
      <trkpt lat="44.41464" lon="6.79565">
        <ele>1867.13</ele>
        <time>2021-08-11T10:06:04Z</time>
      </trkpt>
      <trkpt lat="44.41461" lon="6.79572">
        <ele>1867.88</ele>
        <time>2021-08-11T10:06:05Z</time>
      </trkpt>
      <trkpt lat="44.41459" lon="6.79579">
        <ele>1868.37</ele>
        <time>2021-08-11T10:06:06Z</time>
      </trkpt>
      <trkpt lat="44.41456" lon="6.79586">
        <ele>1869.45</ele>
        <time>2021-08-11T10:06:07Z</time>
      </trkpt>
      <trkpt lat="44.41454" lon="6.79594">
        <ele>1870.67</ele>
        <time>2021-08-11T10:06:08Z</time>
      </trkpt>
      <trkpt lat="44.41452" lon="6.79601">
        <ele>1871.82</ele>
        <time>2021-08-11T10:06:09Z</time>
      </trkpt>
      <trkpt lat="44.4145" lon="6.79609">
        <ele>1873.05</ele>
        <time>2021-08-11T10:06:10Z</time>
      </trkpt>
      <trkpt lat="44.41449" lon="6.79617">
        <ele>1873.35</ele>
        <time>2021-08-11T10:06:11Z</time>
      </trkpt>
      <trkpt lat="44.41446" lon="6.79631">
        <ele>1873.82</ele>
        <time>2021-08-11T10:06:13Z</time>
      </trkpt>
      <trkpt lat="44.41443" lon="6.79646">
        <ele>1874.76</ele>
        <time>2021-08-11T10:06:15Z</time>
      </trkpt>
      <trkpt lat="44.41437" lon="6.79659">
        <ele>1877.21</ele>
        <time>2021-08-11T10:06:17Z</time>
      </trkpt>
      <trkpt lat="44.41431" lon="6.79671">
        <ele>1879.2</ele>
        <time>2021-08-11T10:06:19Z</time>
      </trkpt>
      <trkpt lat="44.41425" lon="6.79682">
        <ele>1880.75</ele>
        <time>2021-08-11T10:06:21Z</time>
      </trkpt>
      <trkpt lat="44.4142" lon="6.79693">
        <ele>1881.97</ele>
        <time>2021-08-11T10:06:23Z</time>
      </trkpt>
      <trkpt lat="44.41417" lon="6.79698">
        <ele>1882.89</ele>
        <time>2021-08-11T10:06:24Z</time>
      </trkpt>
      <trkpt lat="44.41415" lon="6.79702">
        <ele>1883.56</ele>
        <time>2021-08-11T10:06:25Z</time>
      </trkpt>
      <trkpt lat="44.41412" lon="6.79708">
        <ele>1884.59</ele>
        <time>2021-08-11T10:06:26Z</time>
      </trkpt>
      <trkpt lat="44.4141" lon="6.79715">
        <ele>1885.34</ele>
        <time>2021-08-11T10:06:27Z</time>
      </trkpt>
      <trkpt lat="44.41409" lon="6.79722">
        <ele>1885.76</ele>
        <time>2021-08-11T10:06:28Z</time>
      </trkpt>
      <trkpt lat="44.41408" lon="6.79729">
        <ele>1886.03</ele>
        <time>2021-08-11T10:06:29Z</time>
      </trkpt>
      <trkpt lat="44.41408" lon="6.79737">
        <ele>1885.92</ele>
        <time>2021-08-11T10:06:30Z</time>
      </trkpt>
      <trkpt lat="44.41411" lon="6.79754">
        <ele>1884.59</ele>
        <time>2021-08-11T10:06:32Z</time>
      </trkpt>
      <trkpt lat="44.41416" lon="6.79768">
        <ele>1882.94</ele>
        <time>2021-08-11T10:06:34Z</time>
      </trkpt>
      <trkpt lat="44.4142" lon="6.7978">
        <ele>1882.22</ele>
        <time>2021-08-11T10:06:36Z</time>
      </trkpt>
      <trkpt lat="44.41423" lon="6.79792">
        <ele>1882.43</ele>
        <time>2021-08-11T10:06:38Z</time>
      </trkpt>
      <trkpt lat="44.41426" lon="6.79803">
        <ele>1882.74</ele>
        <time>2021-08-11T10:06:40Z</time>
      </trkpt>
      <trkpt lat="44.41429" lon="6.79847">
        <ele>1880.38</ele>
        <time>2021-08-11T10:06:48Z</time>
      </trkpt>
      <trkpt lat="44.41431" lon="6.79863">
        <ele>1876.44</ele>
        <time>2021-08-11T10:06:53Z</time>
      </trkpt>
      <trkpt lat="44.41432" lon="6.7986">
        <ele>1876.28</ele>
        <time>2021-08-11T10:07:25Z</time>
      </trkpt>
      <trkpt lat="44.4143" lon="6.79855">
        <ele>1878.43</ele>
        <time>2021-08-11T10:07:31Z</time>
      </trkpt>
      <trkpt lat="44.41428" lon="6.79853">
        <ele>1879.95</ele>
        <time>2021-08-11T10:07:34Z</time>
      </trkpt>
      <trkpt lat="44.41425" lon="6.79851">
        <ele>1881.98</ele>
        <time>2021-08-11T10:07:36Z</time>
      </trkpt>
      <trkpt lat="44.41422" lon="6.79849">
        <ele>1883.92</ele>
        <time>2021-08-11T10:07:38Z</time>
      </trkpt>
      <trkpt lat="44.4142" lon="6.79846">
        <ele>1885.32</ele>
        <time>2021-08-11T10:07:49Z</time>
      </trkpt>
      <trkpt lat="44.41416" lon="6.79843">
        <ele>1887.45</ele>
        <time>2021-08-11T10:07:51Z</time>
      </trkpt>
      <trkpt lat="44.41415" lon="6.79839">
        <ele>1887.93</ele>
        <time>2021-08-11T10:07:57Z</time>
      </trkpt>
      <trkpt lat="44.41412" lon="6.7984">
        <ele>1888.48</ele>
        <time>2021-08-11T10:08:07Z</time>
      </trkpt>
      <trkpt lat="44.41412" lon="6.79851">
        <ele>1887.89</ele>
        <time>2021-08-11T10:08:11Z</time>
      </trkpt>
      <trkpt lat="44.41411" lon="6.79868">
        <ele>1886.69</ele>
        <time>2021-08-11T10:08:13Z</time>
      </trkpt>
      <trkpt lat="44.41408" lon="6.79893">
        <ele>1884.66</ele>
        <time>2021-08-11T10:08:17Z</time>
      </trkpt>
      <trkpt lat="44.41405" lon="6.7991">
        <ele>1885.02</ele>
        <time>2021-08-11T10:08:21Z</time>
      </trkpt>
      <trkpt lat="44.414" lon="6.79931">
        <ele>1886.81</ele>
        <time>2021-08-11T10:08:24Z</time>
      </trkpt>
      <trkpt lat="44.41396" lon="6.79955">
        <ele>1889.97</ele>
        <time>2021-08-11T10:08:27Z</time>
      </trkpt>
      <trkpt lat="44.41398" lon="6.79971">
        <ele>1890.62</ele>
        <time>2021-08-11T10:08:29Z</time>
      </trkpt>
      <trkpt lat="44.41399" lon="6.79982">
        <ele>1891.93</ele>
        <time>2021-08-11T10:08:32Z</time>
      </trkpt>
      <trkpt lat="44.41403" lon="6.79995">
        <ele>1892.51</ele>
        <time>2021-08-11T10:08:33Z</time>
      </trkpt>
      <trkpt lat="44.41408" lon="6.80007">
        <ele>1892.11</ele>
        <time>2021-08-11T10:08:35Z</time>
      </trkpt>
      <trkpt lat="44.41411" lon="6.80012">
        <ele>1891.45</ele>
        <time>2021-08-11T10:08:36Z</time>
      </trkpt>
      <trkpt lat="44.41414" lon="6.80018">
        <ele>1890.94</ele>
        <time>2021-08-11T10:08:37Z</time>
      </trkpt>
      <trkpt lat="44.41417" lon="6.80023">
        <ele>1890.35</ele>
        <time>2021-08-11T10:08:38Z</time>
      </trkpt>
      <trkpt lat="44.41419" lon="6.80029">
        <ele>1890.12</ele>
        <time>2021-08-11T10:08:39Z</time>
      </trkpt>
      <trkpt lat="44.41422" lon="6.80035">
        <ele>1889.1</ele>
        <time>2021-08-11T10:08:40Z</time>
      </trkpt>
      <trkpt lat="44.41423" lon="6.80041">
        <ele>1888.86</ele>
        <time>2021-08-11T10:08:41Z</time>
      </trkpt>
      <trkpt lat="44.41425" lon="6.80048">
        <ele>1888.21</ele>
        <time>2021-08-11T10:08:42Z</time>
      </trkpt>
      <trkpt lat="44.41427" lon="6.80055">
        <ele>1887.52</ele>
        <time>2021-08-11T10:08:43Z</time>
      </trkpt>
      <trkpt lat="44.41428" lon="6.80061">
        <ele>1886.91</ele>
        <time>2021-08-11T10:08:44Z</time>
      </trkpt>
      <trkpt lat="44.4143" lon="6.80067">
        <ele>1885.83</ele>
        <time>2021-08-11T10:08:45Z</time>
      </trkpt>
      <trkpt lat="44.41431" lon="6.80074">
        <ele>1885.14</ele>
        <time>2021-08-11T10:08:46Z</time>
      </trkpt>
      <trkpt lat="44.41433" lon="6.8008">
        <ele>1884.06</ele>
        <time>2021-08-11T10:08:47Z</time>
      </trkpt>
      <trkpt lat="44.41434" lon="6.80086">
        <ele>1883.57</ele>
        <time>2021-08-11T10:08:48Z</time>
      </trkpt>
      <trkpt lat="44.41436" lon="6.80091">
        <ele>1882.84</ele>
        <time>2021-08-11T10:08:49Z</time>
      </trkpt>
      <trkpt lat="44.41438" lon="6.80097">
        <ele>1882.16</ele>
        <time>2021-08-11T10:08:50Z</time>
      </trkpt>
      <trkpt lat="44.41439" lon="6.80102">
        <ele>1881.89</ele>
        <time>2021-08-11T10:08:51Z</time>
      </trkpt>
      <trkpt lat="44.41441" lon="6.80107">
        <ele>1881.23</ele>
        <time>2021-08-11T10:08:52Z</time>
      </trkpt>
      <trkpt lat="44.41442" lon="6.80112">
        <ele>1881.06</ele>
        <time>2021-08-11T10:08:53Z</time>
      </trkpt>
      <trkpt lat="44.41444" lon="6.80116">
        <ele>1880.7</ele>
        <time>2021-08-11T10:08:54Z</time>
      </trkpt>
      <trkpt lat="44.41446" lon="6.80122">
        <ele>1880.43</ele>
        <time>2021-08-11T10:08:55Z</time>
      </trkpt>
      <trkpt lat="44.41448" lon="6.80128">
        <ele>1880.08</ele>
        <time>2021-08-11T10:08:56Z</time>
      </trkpt>
      <trkpt lat="44.41449" lon="6.80135">
        <ele>1880.31</ele>
        <time>2021-08-11T10:08:57Z</time>
      </trkpt>
      <trkpt lat="44.4145" lon="6.80142">
        <ele>1880.54</ele>
        <time>2021-08-11T10:08:58Z</time>
      </trkpt>
      <trkpt lat="44.4145" lon="6.8015">
        <ele>1881.4</ele>
        <time>2021-08-11T10:08:59Z</time>
      </trkpt>
      <trkpt lat="44.41451" lon="6.80157">
        <ele>1881.65</ele>
        <time>2021-08-11T10:09:00Z</time>
      </trkpt>
      <trkpt lat="44.41451" lon="6.80165">
        <ele>1882.52</ele>
        <time>2021-08-11T10:09:01Z</time>
      </trkpt>
      <trkpt lat="44.41452" lon="6.80171">
        <ele>1882.16</ele>
        <time>2021-08-11T10:09:02Z</time>
      </trkpt>
      <trkpt lat="44.41453" lon="6.80178">
        <ele>1881.66</ele>
        <time>2021-08-11T10:09:03Z</time>
      </trkpt>
      <trkpt lat="44.41453" lon="6.80185">
        <ele>1881.64</ele>
        <time>2021-08-11T10:09:04Z</time>
      </trkpt>
      <trkpt lat="44.41454" lon="6.80192">
        <ele>1881.21</ele>
        <time>2021-08-11T10:09:05Z</time>
      </trkpt>
      <trkpt lat="44.41454" lon="6.802">
        <ele>1881.28</ele>
        <time>2021-08-11T10:09:06Z</time>
      </trkpt>
      <trkpt lat="44.41454" lon="6.80207">
        <ele>1881.37</ele>
        <time>2021-08-11T10:09:07Z</time>
      </trkpt>
      <trkpt lat="44.41454" lon="6.80214">
        <ele>1881.46</ele>
        <time>2021-08-11T10:09:08Z</time>
      </trkpt>
      <trkpt lat="44.41453" lon="6.80222">
        <ele>1881.92</ele>
        <time>2021-08-11T10:09:09Z</time>
      </trkpt>
      <trkpt lat="44.41453" lon="6.80229">
        <ele>1881.84</ele>
        <time>2021-08-11T10:09:10Z</time>
      </trkpt>
      <trkpt lat="44.41452" lon="6.80237">
        <ele>1882.14</ele>
        <time>2021-08-11T10:09:11Z</time>
      </trkpt>
      <trkpt lat="44.41451" lon="6.80244">
        <ele>1882.45</ele>
        <time>2021-08-11T10:09:12Z</time>
      </trkpt>
      <trkpt lat="44.4145" lon="6.80252">
        <ele>1882.58</ele>
        <time>2021-08-11T10:09:13Z</time>
      </trkpt>
      <trkpt lat="44.4145" lon="6.8026">
        <ele>1881.72</ele>
        <time>2021-08-11T10:09:14Z</time>
      </trkpt>
      <trkpt lat="44.41449" lon="6.80268">
        <ele>1881.25</ele>
        <time>2021-08-11T10:09:15Z</time>
      </trkpt>
      <trkpt lat="44.41448" lon="6.80276">
        <ele>1880.78</ele>
        <time>2021-08-11T10:09:16Z</time>
      </trkpt>
      <trkpt lat="44.41448" lon="6.80284">
        <ele>1880.45</ele>
        <time>2021-08-11T10:09:17Z</time>
      </trkpt>
      <trkpt lat="44.41447" lon="6.80292">
        <ele>1880.75</ele>
        <time>2021-08-11T10:09:18Z</time>
      </trkpt>
      <trkpt lat="44.41446" lon="6.803">
        <ele>1881.16</ele>
        <time>2021-08-11T10:09:19Z</time>
      </trkpt>
      <trkpt lat="44.41445" lon="6.80307">
        <ele>1881.37</ele>
        <time>2021-08-11T10:09:20Z</time>
      </trkpt>
      <trkpt lat="44.41445" lon="6.80315">
        <ele>1879.65</ele>
        <time>2021-08-11T10:09:21Z</time>
      </trkpt>
      <trkpt lat="44.41444" lon="6.80323">
        <ele>1878.43</ele>
        <time>2021-08-11T10:09:22Z</time>
      </trkpt>
      <trkpt lat="44.41444" lon="6.8033">
        <ele>1876.94</ele>
        <time>2021-08-11T10:09:23Z</time>
      </trkpt>
      <trkpt lat="44.41443" lon="6.80337">
        <ele>1876.56</ele>
        <time>2021-08-11T10:09:24Z</time>
      </trkpt>
      <trkpt lat="44.41442" lon="6.80344">
        <ele>1876.68</ele>
        <time>2021-08-11T10:09:25Z</time>
      </trkpt>
      <trkpt lat="44.41442" lon="6.80351">
        <ele>1876.32</ele>
        <time>2021-08-11T10:09:26Z</time>
      </trkpt>
      <trkpt lat="44.41441" lon="6.80359">
        <ele>1876.24</ele>
        <time>2021-08-11T10:09:27Z</time>
      </trkpt>
      <trkpt lat="44.4144" lon="6.80366">
        <ele>1876.24</ele>
        <time>2021-08-11T10:09:28Z</time>
      </trkpt>
      <trkpt lat="44.41439" lon="6.80373">
        <ele>1876.25</ele>
        <time>2021-08-11T10:09:29Z</time>
      </trkpt>
      <trkpt lat="44.41437" lon="6.8038">
        <ele>1876.55</ele>
        <time>2021-08-11T10:09:30Z</time>
      </trkpt>
      <trkpt lat="44.41434" lon="6.80386">
        <ele>1877.15</ele>
        <time>2021-08-11T10:09:31Z</time>
      </trkpt>
      <trkpt lat="44.41431" lon="6.80392">
        <ele>1877.81</ele>
        <time>2021-08-11T10:09:32Z</time>
      </trkpt>
      <trkpt lat="44.41427" lon="6.80398">
        <ele>1878.9</ele>
        <time>2021-08-11T10:09:33Z</time>
      </trkpt>
      <trkpt lat="44.41423" lon="6.80404">
        <ele>1880.05</ele>
        <time>2021-08-11T10:09:34Z</time>
      </trkpt>
      <trkpt lat="44.4142" lon="6.80409">
        <ele>1880.95</ele>
        <time>2021-08-11T10:09:35Z</time>
      </trkpt>
      <trkpt lat="44.41416" lon="6.80415">
        <ele>1882.22</ele>
        <time>2021-08-11T10:09:36Z</time>
      </trkpt>
      <trkpt lat="44.41413" lon="6.80421">
        <ele>1882.72</ele>
        <time>2021-08-11T10:09:37Z</time>
      </trkpt>
      <trkpt lat="44.41411" lon="6.80427">
        <ele>1882.72</ele>
        <time>2021-08-11T10:09:38Z</time>
      </trkpt>
      <trkpt lat="44.41408" lon="6.80433">
        <ele>1883.04</ele>
        <time>2021-08-11T10:09:39Z</time>
      </trkpt>
      <trkpt lat="44.41406" lon="6.8044">
        <ele>1882.94</ele>
        <time>2021-08-11T10:09:40Z</time>
      </trkpt>
      <trkpt lat="44.41403" lon="6.80447">
        <ele>1882.51</ele>
        <time>2021-08-11T10:09:41Z</time>
      </trkpt>
      <trkpt lat="44.414" lon="6.80453">
        <ele>1881.32</ele>
        <time>2021-08-11T10:09:42Z</time>
      </trkpt>
      <trkpt lat="44.41397" lon="6.80459">
        <ele>1880.13</ele>
        <time>2021-08-11T10:09:43Z</time>
      </trkpt>
      <trkpt lat="44.41394" lon="6.80466">
        <ele>1878.58</ele>
        <time>2021-08-11T10:09:44Z</time>
      </trkpt>
      <trkpt lat="44.41391" lon="6.80473">
        <ele>1877.06</ele>
        <time>2021-08-11T10:09:45Z</time>
      </trkpt>
      <trkpt lat="44.41389" lon="6.8048">
        <ele>1875.44</ele>
        <time>2021-08-11T10:09:46Z</time>
      </trkpt>
      <trkpt lat="44.41387" lon="6.80487">
        <ele>1874.1</ele>
        <time>2021-08-11T10:09:47Z</time>
      </trkpt>
      <trkpt lat="44.41385" lon="6.80494">
        <ele>1872.84</ele>
        <time>2021-08-11T10:09:48Z</time>
      </trkpt>
      <trkpt lat="44.41383" lon="6.80501">
        <ele>1871.82</ele>
        <time>2021-08-11T10:09:49Z</time>
      </trkpt>
      <trkpt lat="44.41381" lon="6.80508">
        <ele>1871.74</ele>
        <time>2021-08-11T10:09:50Z</time>
      </trkpt>
      <trkpt lat="44.41377" lon="6.80514">
        <ele>1872.76</ele>
        <time>2021-08-11T10:09:51Z</time>
      </trkpt>
      <trkpt lat="44.41374" lon="6.8052">
        <ele>1873.24</ele>
        <time>2021-08-11T10:09:52Z</time>
      </trkpt>
      <trkpt lat="44.4137" lon="6.80525">
        <ele>1874.31</ele>
        <time>2021-08-11T10:09:53Z</time>
      </trkpt>
      <trkpt lat="44.41366" lon="6.80531">
        <ele>1875.43</ele>
        <time>2021-08-11T10:09:54Z</time>
      </trkpt>
      <trkpt lat="44.41363" lon="6.80536">
        <ele>1876.29</ele>
        <time>2021-08-11T10:09:55Z</time>
      </trkpt>
      <trkpt lat="44.41359" lon="6.80541">
        <ele>1877.37</ele>
        <time>2021-08-11T10:09:56Z</time>
      </trkpt>
      <trkpt lat="44.41356" lon="6.80546">
        <ele>1877.99</ele>
        <time>2021-08-11T10:09:57Z</time>
      </trkpt>
      <trkpt lat="44.41352" lon="6.80551">
        <ele>1879.05</ele>
        <time>2021-08-11T10:09:58Z</time>
      </trkpt>
      <trkpt lat="44.41349" lon="6.80556">
        <ele>1879.76</ele>
        <time>2021-08-11T10:09:59Z</time>
      </trkpt>
      <trkpt lat="44.41346" lon="6.80561">
        <ele>1880.59</ele>
        <time>2021-08-11T10:10:00Z</time>
      </trkpt>
      <trkpt lat="44.41344" lon="6.80565">
        <ele>1881.1</ele>
        <time>2021-08-11T10:10:01Z</time>
      </trkpt>
      <trkpt lat="44.41341" lon="6.8057">
        <ele>1881.92</ele>
        <time>2021-08-11T10:10:02Z</time>
      </trkpt>
      <trkpt lat="44.41338" lon="6.80575">
        <ele>1882.75</ele>
        <time>2021-08-11T10:10:03Z</time>
      </trkpt>
      <trkpt lat="44.41334" lon="6.80581">
        <ele>1883.9</ele>
        <time>2021-08-11T10:10:04Z</time>
      </trkpt>
      <trkpt lat="44.41331" lon="6.80586">
        <ele>1884.42</ele>
        <time>2021-08-11T10:10:05Z</time>
      </trkpt>
      <trkpt lat="44.41328" lon="6.8059">
        <ele>1885</ele>
        <time>2021-08-11T10:10:06Z</time>
      </trkpt>
      <trkpt lat="44.41325" lon="6.80595">
        <ele>1885.63</ele>
        <time>2021-08-11T10:10:07Z</time>
      </trkpt>
      <trkpt lat="44.41322" lon="6.806">
        <ele>1886.34</ele>
        <time>2021-08-11T10:10:08Z</time>
      </trkpt>
      <trkpt lat="44.41318" lon="6.80605">
        <ele>1887.39</ele>
        <time>2021-08-11T10:10:09Z</time>
      </trkpt>
      <trkpt lat="44.41315" lon="6.80611">
        <ele>1888.28</ele>
        <time>2021-08-11T10:10:10Z</time>
      </trkpt>
      <trkpt lat="44.41313" lon="6.80617">
        <ele>1888.64</ele>
        <time>2021-08-11T10:10:11Z</time>
      </trkpt>
      <trkpt lat="44.41312" lon="6.80624">
        <ele>1888.68</ele>
        <time>2021-08-11T10:10:12Z</time>
      </trkpt>
      <trkpt lat="44.41311" lon="6.80631">
        <ele>1888.72</ele>
        <time>2021-08-11T10:10:13Z</time>
      </trkpt>
      <trkpt lat="44.41309" lon="6.80638">
        <ele>1889.04</ele>
        <time>2021-08-11T10:10:14Z</time>
      </trkpt>
      <trkpt lat="44.41307" lon="6.80644">
        <ele>1889.03</ele>
        <time>2021-08-11T10:10:15Z</time>
      </trkpt>
      <trkpt lat="44.41305" lon="6.8065">
        <ele>1888.82</ele>
        <time>2021-08-11T10:10:16Z</time>
      </trkpt>
      <trkpt lat="44.41302" lon="6.80656">
        <ele>1888.28</ele>
        <time>2021-08-11T10:10:17Z</time>
      </trkpt>
      <trkpt lat="44.41299" lon="6.80661">
        <ele>1887.85</ele>
        <time>2021-08-11T10:10:18Z</time>
      </trkpt>
      <trkpt lat="44.41296" lon="6.80664">
        <ele>1887.63</ele>
        <time>2021-08-11T10:10:19Z</time>
      </trkpt>
      <trkpt lat="44.41289" lon="6.80667">
        <ele>1887.52</ele>
        <time>2021-08-11T10:10:21Z</time>
      </trkpt>
      <trkpt lat="44.41282" lon="6.80669">
        <ele>1887.34</ele>
        <time>2021-08-11T10:10:22Z</time>
      </trkpt>
      <trkpt lat="44.41277" lon="6.80669">
        <ele>1887.45</ele>
        <time>2021-08-11T10:10:23Z</time>
      </trkpt>
      <trkpt lat="44.41272" lon="6.80669">
        <ele>1887.13</ele>
        <time>2021-08-11T10:10:24Z</time>
      </trkpt>
      <trkpt lat="44.41267" lon="6.80668">
        <ele>1886.99</ele>
        <time>2021-08-11T10:10:25Z</time>
      </trkpt>
      <trkpt lat="44.41263" lon="6.80666">
        <ele>1887</ele>
        <time>2021-08-11T10:10:26Z</time>
      </trkpt>
      <trkpt lat="44.41256" lon="6.8066">
        <ele>1886.96</ele>
        <time>2021-08-11T10:10:29Z</time>
      </trkpt>
      <trkpt lat="44.41246" lon="6.80656">
        <ele>1887.94</ele>
        <time>2021-08-11T10:10:32Z</time>
      </trkpt>
      <trkpt lat="44.41235" lon="6.80656">
        <ele>1891.17</ele>
        <time>2021-08-11T10:10:35Z</time>
      </trkpt>
      <trkpt lat="44.41223" lon="6.80666">
        <ele>1892.92</ele>
        <time>2021-08-11T10:10:39Z</time>
      </trkpt>
      <trkpt lat="44.4122" lon="6.80682">
        <ele>1892.22</ele>
        <time>2021-08-11T10:10:41Z</time>
      </trkpt>
      <trkpt lat="44.4122" lon="6.80693">
        <ele>1890.58</ele>
        <time>2021-08-11T10:10:41Z</time>
      </trkpt>
      <trkpt lat="44.4122" lon="6.80707">
        <ele>1888.97</ele>
        <time>2021-08-11T10:10:43Z</time>
      </trkpt>
      <trkpt lat="44.41219" lon="6.80714">
        <ele>1888.78</ele>
        <time>2021-08-11T10:10:44Z</time>
      </trkpt>
      <trkpt lat="44.41218" lon="6.80721">
        <ele>1888.57</ele>
        <time>2021-08-11T10:10:45Z</time>
      </trkpt>
      <trkpt lat="44.41217" lon="6.80728">
        <ele>1888.01</ele>
        <time>2021-08-11T10:10:46Z</time>
      </trkpt>
      <trkpt lat="44.41215" lon="6.80734">
        <ele>1888.15</ele>
        <time>2021-08-11T10:10:47Z</time>
      </trkpt>
      <trkpt lat="44.41213" lon="6.80739">
        <ele>1888.49</ele>
        <time>2021-08-11T10:10:48Z</time>
      </trkpt>
      <trkpt lat="44.4121" lon="6.80749">
        <ele>1888.64</ele>
        <time>2021-08-11T10:10:50Z</time>
      </trkpt>
      <trkpt lat="44.41205" lon="6.80761">
        <ele>1888.24</ele>
        <time>2021-08-11T10:10:54Z</time>
      </trkpt>
      <trkpt lat="44.41199" lon="6.80775">
        <ele>1886.35</ele>
        <time>2021-08-11T10:10:56Z</time>
      </trkpt>
      <trkpt lat="44.41197" lon="6.80788">
        <ele>1882.9</ele>
        <time>2021-08-11T10:10:57Z</time>
      </trkpt>
      <trkpt lat="44.41194" lon="6.808">
        <ele>1880.04</ele>
        <time>2021-08-11T10:10:59Z</time>
      </trkpt>
      <trkpt lat="44.41191" lon="6.80806">
        <ele>1879.66</ele>
        <time>2021-08-11T10:11:00Z</time>
      </trkpt>
      <trkpt lat="44.41188" lon="6.80812">
        <ele>1880</ele>
        <time>2021-08-11T10:11:01Z</time>
      </trkpt>
      <trkpt lat="44.41185" lon="6.80817">
        <ele>1880.27</ele>
        <time>2021-08-11T10:11:02Z</time>
      </trkpt>
      <trkpt lat="44.41181" lon="6.80822">
        <ele>1880.69</ele>
        <time>2021-08-11T10:11:03Z</time>
      </trkpt>
      <trkpt lat="44.41178" lon="6.80827">
        <ele>1880.46</ele>
        <time>2021-08-11T10:11:04Z</time>
      </trkpt>
      <trkpt lat="44.41175" lon="6.80832">
        <ele>1879.99</ele>
        <time>2021-08-11T10:11:05Z</time>
      </trkpt>
      <trkpt lat="44.41171" lon="6.80843">
        <ele>1879.07</ele>
        <time>2021-08-11T10:11:08Z</time>
      </trkpt>
      <trkpt lat="44.41159" lon="6.80855">
        <ele>1880.49</ele>
        <time>2021-08-11T10:11:11Z</time>
      </trkpt>
      <trkpt lat="44.41149" lon="6.8086">
        <ele>1882.36</ele>
        <time>2021-08-11T10:11:15Z</time>
      </trkpt>
      <trkpt lat="44.41139" lon="6.80867">
        <ele>1884.12</ele>
        <time>2021-08-11T10:11:16Z</time>
      </trkpt>
      <trkpt lat="44.41132" lon="6.80872">
        <ele>1888.21</ele>
        <time>2021-08-11T10:11:18Z</time>
      </trkpt>
      <trkpt lat="44.41123" lon="6.80879">
        <ele>1892.43</ele>
        <time>2021-08-11T10:11:20Z</time>
      </trkpt>
      <trkpt lat="44.41116" lon="6.80887">
        <ele>1894.02</ele>
        <time>2021-08-11T10:11:22Z</time>
      </trkpt>
      <trkpt lat="44.41109" lon="6.80895">
        <ele>1896.4</ele>
        <time>2021-08-11T10:11:24Z</time>
      </trkpt>
      <trkpt lat="44.41105" lon="6.80899">
        <ele>1898.32</ele>
        <time>2021-08-11T10:11:25Z</time>
      </trkpt>
      <trkpt lat="44.41101" lon="6.80903">
        <ele>1899.99</ele>
        <time>2021-08-11T10:11:26Z</time>
      </trkpt>
      <trkpt lat="44.41097" lon="6.80907">
        <ele>1901.42</ele>
        <time>2021-08-11T10:11:27Z</time>
      </trkpt>
      <trkpt lat="44.41094" lon="6.80912">
        <ele>1901.7</ele>
        <time>2021-08-11T10:11:28Z</time>
      </trkpt>
      <trkpt lat="44.41091" lon="6.80917">
        <ele>1901.8</ele>
        <time>2021-08-11T10:11:29Z</time>
      </trkpt>
      <trkpt lat="44.41089" lon="6.80925">
        <ele>1901.27</ele>
        <time>2021-08-11T10:11:31Z</time>
      </trkpt>
      <trkpt lat="44.41085" lon="6.80942">
        <ele>1899.1</ele>
        <time>2021-08-11T10:11:34Z</time>
      </trkpt>
      <trkpt lat="44.41076" lon="6.80958">
        <ele>1899.12</ele>
        <time>2021-08-11T10:11:37Z</time>
      </trkpt>
      <trkpt lat="44.41071" lon="6.80969">
        <ele>1897.95</ele>
        <time>2021-08-11T10:11:38Z</time>
      </trkpt>
      <trkpt lat="44.41066" lon="6.80977">
        <ele>1897.82</ele>
        <time>2021-08-11T10:11:39Z</time>
      </trkpt>
      <trkpt lat="44.41062" lon="6.80985">
        <ele>1897.72</ele>
        <time>2021-08-11T10:11:40Z</time>
      </trkpt>
      <trkpt lat="44.41058" lon="6.80993">
        <ele>1897.53</ele>
        <time>2021-08-11T10:11:41Z</time>
      </trkpt>
      <trkpt lat="44.41054" lon="6.81">
        <ele>1897.67</ele>
        <time>2021-08-11T10:11:42Z</time>
      </trkpt>
      <trkpt lat="44.41052" lon="6.81008">
        <ele>1896.81</ele>
        <time>2021-08-11T10:11:43Z</time>
      </trkpt>
      <trkpt lat="44.4105" lon="6.81016">
        <ele>1895.94</ele>
        <time>2021-08-11T10:11:44Z</time>
      </trkpt>
      <trkpt lat="44.41049" lon="6.81024">
        <ele>1894.65</ele>
        <time>2021-08-11T10:11:45Z</time>
      </trkpt>
      <trkpt lat="44.41048" lon="6.81032">
        <ele>1893.24</ele>
        <time>2021-08-11T10:11:46Z</time>
      </trkpt>
      <trkpt lat="44.41049" lon="6.8104">
        <ele>1890.86</ele>
        <time>2021-08-11T10:11:47Z</time>
      </trkpt>
      <trkpt lat="44.41049" lon="6.81048">
        <ele>1888.91</ele>
        <time>2021-08-11T10:11:48Z</time>
      </trkpt>
      <trkpt lat="44.4105" lon="6.81056">
        <ele>1886.51</ele>
        <time>2021-08-11T10:11:49Z</time>
      </trkpt>
      <trkpt lat="44.4105" lon="6.81064">
        <ele>1884.96</ele>
        <time>2021-08-11T10:11:50Z</time>
      </trkpt>
      <trkpt lat="44.41049" lon="6.81072">
        <ele>1883.83</ele>
        <time>2021-08-11T10:11:51Z</time>
      </trkpt>
      <trkpt lat="44.41047" lon="6.8108">
        <ele>1883.06</ele>
        <time>2021-08-11T10:11:52Z</time>
      </trkpt>
      <trkpt lat="44.41045" lon="6.81088">
        <ele>1882.78</ele>
        <time>2021-08-11T10:11:53Z</time>
      </trkpt>
      <trkpt lat="44.41042" lon="6.81095">
        <ele>1883.32</ele>
        <time>2021-08-11T10:11:54Z</time>
      </trkpt>
      <trkpt lat="44.41038" lon="6.811">
        <ele>1884.37</ele>
        <time>2021-08-11T10:11:55Z</time>
      </trkpt>
      <trkpt lat="44.41033" lon="6.81104">
        <ele>1885.84</ele>
        <time>2021-08-11T10:11:56Z</time>
      </trkpt>
      <trkpt lat="44.41026" lon="6.81107">
        <ele>1888.42</ele>
        <time>2021-08-11T10:11:57Z</time>
      </trkpt>
      <trkpt lat="44.4102" lon="6.81109">
        <ele>1891.32</ele>
        <time>2021-08-11T10:11:58Z</time>
      </trkpt>
      <trkpt lat="44.41014" lon="6.81111">
        <ele>1893.97</ele>
        <time>2021-08-11T10:11:59Z</time>
      </trkpt>
      <trkpt lat="44.41009" lon="6.81115">
        <ele>1895.67</ele>
        <time>2021-08-11T10:12:00Z</time>
      </trkpt>
      <trkpt lat="44.41004" lon="6.8112">
        <ele>1897.11</ele>
        <time>2021-08-11T10:12:01Z</time>
      </trkpt>
      <trkpt lat="44.41001" lon="6.81126">
        <ele>1897.3</ele>
        <time>2021-08-11T10:12:02Z</time>
      </trkpt>
      <trkpt lat="44.41" lon="6.81134">
        <ele>1896.06</ele>
        <time>2021-08-11T10:12:03Z</time>
      </trkpt>
      <trkpt lat="44.41" lon="6.81143">
        <ele>1893.67</ele>
        <time>2021-08-11T10:12:04Z</time>
      </trkpt>
      <trkpt lat="44.41001" lon="6.81151">
        <ele>1890.64</ele>
        <time>2021-08-11T10:12:05Z</time>
      </trkpt>
      <trkpt lat="44.41001" lon="6.81159">
        <ele>1888.07</ele>
        <time>2021-08-11T10:12:06Z</time>
      </trkpt>
      <trkpt lat="44.41" lon="6.81167">
        <ele>1885.93</ele>
        <time>2021-08-11T10:12:07Z</time>
      </trkpt>
      <trkpt lat="44.40998" lon="6.81174">
        <ele>1885.89</ele>
        <time>2021-08-11T10:12:08Z</time>
      </trkpt>
      <trkpt lat="44.40996" lon="6.81182">
        <ele>1885.73</ele>
        <time>2021-08-11T10:12:09Z</time>
      </trkpt>
      <trkpt lat="44.40994" lon="6.8119">
        <ele>1885.64</ele>
        <time>2021-08-11T10:12:10Z</time>
      </trkpt>
      <trkpt lat="44.40991" lon="6.81198">
        <ele>1885.98</ele>
        <time>2021-08-11T10:12:11Z</time>
      </trkpt>
      <trkpt lat="44.40987" lon="6.81205">
        <ele>1886.72</ele>
        <time>2021-08-11T10:12:12Z</time>
      </trkpt>
      <trkpt lat="44.40983" lon="6.81211">
        <ele>1887.6</ele>
        <time>2021-08-11T10:12:13Z</time>
      </trkpt>
      <trkpt lat="44.40978" lon="6.81216">
        <ele>1889.37</ele>
        <time>2021-08-11T10:12:14Z</time>
      </trkpt>
      <trkpt lat="44.40974" lon="6.81221">
        <ele>1890.26</ele>
        <time>2021-08-11T10:12:15Z</time>
      </trkpt>
      <trkpt lat="44.4097" lon="6.81225">
        <ele>1890.4</ele>
        <time>2021-08-11T10:12:16Z</time>
      </trkpt>
      <trkpt lat="44.40966" lon="6.8123">
        <ele>1889.59</ele>
        <time>2021-08-11T10:12:17Z</time>
      </trkpt>
      <trkpt lat="44.40962" lon="6.81234">
        <ele>1889.81</ele>
        <time>2021-08-11T10:12:18Z</time>
      </trkpt>
      <trkpt lat="44.40958" lon="6.81239">
        <ele>1889.7</ele>
        <time>2021-08-11T10:12:19Z</time>
      </trkpt>
      <trkpt lat="44.40954" lon="6.81244">
        <ele>1889.94</ele>
        <time>2021-08-11T10:12:20Z</time>
      </trkpt>
      <trkpt lat="44.4095" lon="6.8125">
        <ele>1890</ele>
        <time>2021-08-11T10:12:21Z</time>
      </trkpt>
      <trkpt lat="44.40946" lon="6.81256">
        <ele>1890.47</ele>
        <time>2021-08-11T10:12:22Z</time>
      </trkpt>
      <trkpt lat="44.40942" lon="6.81261">
        <ele>1891.17</ele>
        <time>2021-08-11T10:12:23Z</time>
      </trkpt>
      <trkpt lat="44.40938" lon="6.81268">
        <ele>1891.14</ele>
        <time>2021-08-11T10:12:24Z</time>
      </trkpt>
      <trkpt lat="44.40935" lon="6.81275">
        <ele>1890.51</ele>
        <time>2021-08-11T10:12:25Z</time>
      </trkpt>
      <trkpt lat="44.40933" lon="6.81282">
        <ele>1889.99</ele>
        <time>2021-08-11T10:12:26Z</time>
      </trkpt>
      <trkpt lat="44.40931" lon="6.81288">
        <ele>1890.16</ele>
        <time>2021-08-11T10:12:27Z</time>
      </trkpt>
      <trkpt lat="44.40928" lon="6.81295">
        <ele>1890.68</ele>
        <time>2021-08-11T10:12:28Z</time>
      </trkpt>
      <trkpt lat="44.40925" lon="6.81301">
        <ele>1891.21</ele>
        <time>2021-08-11T10:12:29Z</time>
      </trkpt>
      <trkpt lat="44.40922" lon="6.81306">
        <ele>1891.84</ele>
        <time>2021-08-11T10:12:30Z</time>
      </trkpt>
      <trkpt lat="44.40919" lon="6.81312">
        <ele>1892.25</ele>
        <time>2021-08-11T10:12:31Z</time>
      </trkpt>
      <trkpt lat="44.40915" lon="6.81317">
        <ele>1893.9</ele>
        <time>2021-08-11T10:12:32Z</time>
      </trkpt>
      <trkpt lat="44.40911" lon="6.81323">
        <ele>1895.68</ele>
        <time>2021-08-11T10:12:33Z</time>
      </trkpt>
      <trkpt lat="44.40907" lon="6.81328">
        <ele>1897.63</ele>
        <time>2021-08-11T10:12:34Z</time>
      </trkpt>
      <trkpt lat="44.40903" lon="6.81333">
        <ele>1899.43</ele>
        <time>2021-08-11T10:12:35Z</time>
      </trkpt>
      <trkpt lat="44.409" lon="6.81339">
        <ele>1898.9</ele>
        <time>2021-08-11T10:12:36Z</time>
      </trkpt>
      <trkpt lat="44.40895" lon="6.81344">
        <ele>1900.18</ele>
        <time>2021-08-11T10:12:37Z</time>
      </trkpt>
      <trkpt lat="44.40891" lon="6.81349">
        <ele>1900.25</ele>
        <time>2021-08-11T10:12:38Z</time>
      </trkpt>
      <trkpt lat="44.40889" lon="6.81355">
        <ele>1897.88</ele>
        <time>2021-08-11T10:12:39Z</time>
      </trkpt>
      <trkpt lat="44.40886" lon="6.81361">
        <ele>1896.77</ele>
        <time>2021-08-11T10:12:40Z</time>
      </trkpt>
      <trkpt lat="44.40883" lon="6.81368">
        <ele>1896.57</ele>
        <time>2021-08-11T10:12:41Z</time>
      </trkpt>
      <trkpt lat="44.4088" lon="6.81375">
        <ele>1896.18</ele>
        <time>2021-08-11T10:12:42Z</time>
      </trkpt>
      <trkpt lat="44.40878" lon="6.81382">
        <ele>1894.74</ele>
        <time>2021-08-11T10:12:43Z</time>
      </trkpt>
      <trkpt lat="44.40875" lon="6.81389">
        <ele>1893.95</ele>
        <time>2021-08-11T10:12:44Z</time>
      </trkpt>
      <trkpt lat="44.40872" lon="6.81396">
        <ele>1892.66</ele>
        <time>2021-08-11T10:12:45Z</time>
      </trkpt>
      <trkpt lat="44.40869" lon="6.81403">
        <ele>1890.61</ele>
        <time>2021-08-11T10:12:46Z</time>
      </trkpt>
      <trkpt lat="44.40866" lon="6.81409">
        <ele>1888.43</ele>
        <time>2021-08-11T10:12:47Z</time>
      </trkpt>
      <trkpt lat="44.40863" lon="6.81415">
        <ele>1885.6</ele>
        <time>2021-08-11T10:12:48Z</time>
      </trkpt>
      <trkpt lat="44.4086" lon="6.81421">
        <ele>1885.64</ele>
        <time>2021-08-11T10:12:49Z</time>
      </trkpt>
      <trkpt lat="44.40856" lon="6.81427">
        <ele>1888.67</ele>
        <time>2021-08-11T10:12:50Z</time>
      </trkpt>
      <trkpt lat="44.40853" lon="6.81433">
        <ele>1890.33</ele>
        <time>2021-08-11T10:12:51Z</time>
      </trkpt>
      <trkpt lat="44.40849" lon="6.81438">
        <ele>1892.66</ele>
        <time>2021-08-11T10:12:52Z</time>
      </trkpt>
      <trkpt lat="44.40845" lon="6.81442">
        <ele>1894.85</ele>
        <time>2021-08-11T10:12:53Z</time>
      </trkpt>
      <trkpt lat="44.40841" lon="6.81446">
        <ele>1896.81</ele>
        <time>2021-08-11T10:12:54Z</time>
      </trkpt>
      <trkpt lat="44.40837" lon="6.81451">
        <ele>1898.32</ele>
        <time>2021-08-11T10:12:55Z</time>
      </trkpt>
      <trkpt lat="44.40834" lon="6.81457">
        <ele>1898.5</ele>
        <time>2021-08-11T10:12:56Z</time>
      </trkpt>
      <trkpt lat="44.40831" lon="6.81464">
        <ele>1898.23</ele>
        <time>2021-08-11T10:12:57Z</time>
      </trkpt>
      <trkpt lat="44.40829" lon="6.81472">
        <ele>1896.88</ele>
        <time>2021-08-11T10:12:58Z</time>
      </trkpt>
      <trkpt lat="44.40828" lon="6.8148">
        <ele>1896.79</ele>
        <time>2021-08-11T10:12:59Z</time>
      </trkpt>
      <trkpt lat="44.40826" lon="6.81487">
        <ele>1897.41</ele>
        <time>2021-08-11T10:13:00Z</time>
      </trkpt>
      <trkpt lat="44.40824" lon="6.81494">
        <ele>1897.95</ele>
        <time>2021-08-11T10:13:01Z</time>
      </trkpt>
      <trkpt lat="44.40823" lon="6.81501">
        <ele>1897.73</ele>
        <time>2021-08-11T10:13:02Z</time>
      </trkpt>
      <trkpt lat="44.40821" lon="6.81508">
        <ele>1897.34</ele>
        <time>2021-08-11T10:13:03Z</time>
      </trkpt>
      <trkpt lat="44.40818" lon="6.81514">
        <ele>1897.86</ele>
        <time>2021-08-11T10:13:04Z</time>
      </trkpt>
      <trkpt lat="44.40815" lon="6.8152">
        <ele>1898.47</ele>
        <time>2021-08-11T10:13:05Z</time>
      </trkpt>
      <trkpt lat="44.40812" lon="6.81526">
        <ele>1899.17</ele>
        <time>2021-08-11T10:13:06Z</time>
      </trkpt>
      <trkpt lat="44.40809" lon="6.81532">
        <ele>1899.95</ele>
        <time>2021-08-11T10:13:07Z</time>
      </trkpt>
      <trkpt lat="44.40806" lon="6.81538">
        <ele>1900.53</ele>
        <time>2021-08-11T10:13:08Z</time>
      </trkpt>
      <trkpt lat="44.40804" lon="6.81543">
        <ele>1900.86</ele>
        <time>2021-08-11T10:13:09Z</time>
      </trkpt>
      <trkpt lat="44.40802" lon="6.81549">
        <ele>1901.07</ele>
        <time>2021-08-11T10:13:10Z</time>
      </trkpt>
      <trkpt lat="44.40801" lon="6.81555">
        <ele>1900.56</ele>
        <time>2021-08-11T10:13:11Z</time>
      </trkpt>
      <trkpt lat="44.408" lon="6.81562">
        <ele>1900.64</ele>
        <time>2021-08-11T10:13:12Z</time>
      </trkpt>
      <trkpt lat="44.40799" lon="6.81569">
        <ele>1900.67</ele>
        <time>2021-08-11T10:13:13Z</time>
      </trkpt>
      <trkpt lat="44.40797" lon="6.81577">
        <ele>1901.03</ele>
        <time>2021-08-11T10:13:14Z</time>
      </trkpt>
      <trkpt lat="44.40796" lon="6.81585">
        <ele>1900.57</ele>
        <time>2021-08-11T10:13:15Z</time>
      </trkpt>
      <trkpt lat="44.40795" lon="6.81593">
        <ele>1899.88</ele>
        <time>2021-08-11T10:13:16Z</time>
      </trkpt>
      <trkpt lat="44.40795" lon="6.816">
        <ele>1898.84</ele>
        <time>2021-08-11T10:13:17Z</time>
      </trkpt>
      <trkpt lat="44.40794" lon="6.81607">
        <ele>1898.2</ele>
        <time>2021-08-11T10:13:18Z</time>
      </trkpt>
      <trkpt lat="44.40793" lon="6.81614">
        <ele>1897.35</ele>
        <time>2021-08-11T10:13:19Z</time>
      </trkpt>
      <trkpt lat="44.40792" lon="6.81621">
        <ele>1896.23</ele>
        <time>2021-08-11T10:13:20Z</time>
      </trkpt>
      <trkpt lat="44.40791" lon="6.81628">
        <ele>1895.12</ele>
        <time>2021-08-11T10:13:21Z</time>
      </trkpt>
      <trkpt lat="44.4079" lon="6.81636">
        <ele>1893.78</ele>
        <time>2021-08-11T10:13:22Z</time>
      </trkpt>
      <trkpt lat="44.40789" lon="6.81644">
        <ele>1892.01</ele>
        <time>2021-08-11T10:13:23Z</time>
      </trkpt>
      <trkpt lat="44.40787" lon="6.81652">
        <ele>1890.58</ele>
        <time>2021-08-11T10:13:24Z</time>
      </trkpt>
      <trkpt lat="44.40785" lon="6.8166">
        <ele>1889.39</ele>
        <time>2021-08-11T10:13:25Z</time>
      </trkpt>
      <trkpt lat="44.40783" lon="6.81668">
        <ele>1888.52</ele>
        <time>2021-08-11T10:13:26Z</time>
      </trkpt>
      <trkpt lat="44.4078" lon="6.81675">
        <ele>1888.84</ele>
        <time>2021-08-11T10:13:27Z</time>
      </trkpt>
      <trkpt lat="44.40778" lon="6.81682">
        <ele>1888.55</ele>
        <time>2021-08-11T10:13:28Z</time>
      </trkpt>
      <trkpt lat="44.40775" lon="6.81688">
        <ele>1889.21</ele>
        <time>2021-08-11T10:13:29Z</time>
      </trkpt>
      <trkpt lat="44.40771" lon="6.81694">
        <ele>1890.26</ele>
        <time>2021-08-11T10:13:30Z</time>
      </trkpt>
      <trkpt lat="44.40767" lon="6.81699">
        <ele>1892</ele>
        <time>2021-08-11T10:13:31Z</time>
      </trkpt>
      <trkpt lat="44.40763" lon="6.81705">
        <ele>1893.73</ele>
        <time>2021-08-11T10:13:32Z</time>
      </trkpt>
      <trkpt lat="44.40759" lon="6.8171">
        <ele>1895.63</ele>
        <time>2021-08-11T10:13:33Z</time>
      </trkpt>
      <trkpt lat="44.40755" lon="6.81716">
        <ele>1897.47</ele>
        <time>2021-08-11T10:13:34Z</time>
      </trkpt>
      <trkpt lat="44.40751" lon="6.81721">
        <ele>1899.49</ele>
        <time>2021-08-11T10:13:35Z</time>
      </trkpt>
      <trkpt lat="44.40747" lon="6.81727">
        <ele>1901.34</ele>
        <time>2021-08-11T10:13:36Z</time>
      </trkpt>
      <trkpt lat="44.40745" lon="6.81733">
        <ele>1901.8</ele>
        <time>2021-08-11T10:13:37Z</time>
      </trkpt>
      <trkpt lat="44.40743" lon="6.81741">
        <ele>1902</ele>
        <time>2021-08-11T10:13:38Z</time>
      </trkpt>
      <trkpt lat="44.40741" lon="6.81749">
        <ele>1902.28</ele>
        <time>2021-08-11T10:13:39Z</time>
      </trkpt>
      <trkpt lat="44.4074" lon="6.81757">
        <ele>1902.23</ele>
        <time>2021-08-11T10:13:40Z</time>
      </trkpt>
      <trkpt lat="44.4074" lon="6.81766">
        <ele>1901.35</ele>
        <time>2021-08-11T10:13:41Z</time>
      </trkpt>
      <trkpt lat="44.4074" lon="6.81774">
        <ele>1900.57</ele>
        <time>2021-08-11T10:13:42Z</time>
      </trkpt>
      <trkpt lat="44.4074" lon="6.81781">
        <ele>1900</ele>
        <time>2021-08-11T10:13:43Z</time>
      </trkpt>
      <trkpt lat="44.4074" lon="6.81788">
        <ele>1899.57</ele>
        <time>2021-08-11T10:13:44Z</time>
      </trkpt>
      <trkpt lat="44.40741" lon="6.81795">
        <ele>1898.46</ele>
        <time>2021-08-11T10:13:45Z</time>
      </trkpt>
      <trkpt lat="44.40741" lon="6.81801">
        <ele>1898.1</ele>
        <time>2021-08-11T10:13:46Z</time>
      </trkpt>
      <trkpt lat="44.40741" lon="6.81808">
        <ele>1897.4</ele>
        <time>2021-08-11T10:13:47Z</time>
      </trkpt>
      <trkpt lat="44.40741" lon="6.81815">
        <ele>1896.15</ele>
        <time>2021-08-11T10:13:48Z</time>
      </trkpt>
      <trkpt lat="44.4074" lon="6.81822">
        <ele>1895.43</ele>
        <time>2021-08-11T10:13:49Z</time>
      </trkpt>
      <trkpt lat="44.40739" lon="6.81828">
        <ele>1894.78</ele>
        <time>2021-08-11T10:13:50Z</time>
      </trkpt>
      <trkpt lat="44.40738" lon="6.81835">
        <ele>1893.92</ele>
        <time>2021-08-11T10:13:51Z</time>
      </trkpt>
      <trkpt lat="44.40736" lon="6.81841">
        <ele>1893.8</ele>
        <time>2021-08-11T10:13:52Z</time>
      </trkpt>
      <trkpt lat="44.40734" lon="6.81848">
        <ele>1893.5</ele>
        <time>2021-08-11T10:13:53Z</time>
      </trkpt>
      <trkpt lat="44.40732" lon="6.81855">
        <ele>1893.15</ele>
        <time>2021-08-11T10:13:54Z</time>
      </trkpt>
      <trkpt lat="44.40731" lon="6.81862">
        <ele>1892.38</ele>
        <time>2021-08-11T10:13:55Z</time>
      </trkpt>
      <trkpt lat="44.4073" lon="6.81869">
        <ele>1891.72</ele>
        <time>2021-08-11T10:13:56Z</time>
      </trkpt>
      <trkpt lat="44.40729" lon="6.81876">
        <ele>1891.2</ele>
        <time>2021-08-11T10:13:57Z</time>
      </trkpt>
      <trkpt lat="44.40727" lon="6.81883">
        <ele>1891.45</ele>
        <time>2021-08-11T10:13:58Z</time>
      </trkpt>
      <trkpt lat="44.40725" lon="6.81889">
        <ele>1892.03</ele>
        <time>2021-08-11T10:13:59Z</time>
      </trkpt>
      <trkpt lat="44.40723" lon="6.81894">
        <ele>1890.35</ele>
        <time>2021-08-11T10:14:00Z</time>
      </trkpt>
      <trkpt lat="44.4072" lon="6.819">
        <ele>1887.62</ele>
        <time>2021-08-11T10:14:01Z</time>
      </trkpt>
      <trkpt lat="44.40716" lon="6.81905">
        <ele>1885.83</ele>
        <time>2021-08-11T10:14:02Z</time>
      </trkpt>
      <trkpt lat="44.40713" lon="6.8191">
        <ele>1884.36</ele>
        <time>2021-08-11T10:14:03Z</time>
      </trkpt>
      <trkpt lat="44.40709" lon="6.81914">
        <ele>1884.23</ele>
        <time>2021-08-11T10:14:04Z</time>
      </trkpt>
      <trkpt lat="44.40704" lon="6.81918">
        <ele>1884.92</ele>
        <time>2021-08-11T10:14:05Z</time>
      </trkpt>
      <trkpt lat="44.407" lon="6.81922">
        <ele>1884.87</ele>
        <time>2021-08-11T10:14:06Z</time>
      </trkpt>
      <trkpt lat="44.40695" lon="6.81927">
        <ele>1884.56</ele>
        <time>2021-08-11T10:14:07Z</time>
      </trkpt>
      <trkpt lat="44.40691" lon="6.81932">
        <ele>1883.5</ele>
        <time>2021-08-11T10:14:08Z</time>
      </trkpt>
      <trkpt lat="44.40686" lon="6.81936">
        <ele>1883.18</ele>
        <time>2021-08-11T10:14:09Z</time>
      </trkpt>
      <trkpt lat="44.40681" lon="6.8194">
        <ele>1882.75</ele>
        <time>2021-08-11T10:14:10Z</time>
      </trkpt>
      <trkpt lat="44.40676" lon="6.81945">
        <ele>1881.87</ele>
        <time>2021-08-11T10:14:11Z</time>
      </trkpt>
      <trkpt lat="44.4067" lon="6.81948">
        <ele>1883.26</ele>
        <time>2021-08-11T10:14:12Z</time>
      </trkpt>
      <trkpt lat="44.40664" lon="6.81952">
        <ele>1884.45</ele>
        <time>2021-08-11T10:14:13Z</time>
      </trkpt>
      <trkpt lat="44.40658" lon="6.81956">
        <ele>1885.47</ele>
        <time>2021-08-11T10:14:14Z</time>
      </trkpt>
      <trkpt lat="44.40653" lon="6.8196">
        <ele>1886.08</ele>
        <time>2021-08-11T10:14:15Z</time>
      </trkpt>
      <trkpt lat="44.40648" lon="6.81966">
        <ele>1886.13</ele>
        <time>2021-08-11T10:14:16Z</time>
      </trkpt>
      <trkpt lat="44.40643" lon="6.81971">
        <ele>1886.26</ele>
        <time>2021-08-11T10:14:17Z</time>
      </trkpt>
      <trkpt lat="44.40639" lon="6.81977">
        <ele>1886.97</ele>
        <time>2021-08-11T10:14:18Z</time>
      </trkpt>
      <trkpt lat="44.40635" lon="6.81983">
        <ele>1887.93</ele>
        <time>2021-08-11T10:14:19Z</time>
      </trkpt>
      <trkpt lat="44.40631" lon="6.81988">
        <ele>1888.59</ele>
        <time>2021-08-11T10:14:20Z</time>
      </trkpt>
      <trkpt lat="44.40627" lon="6.81993">
        <ele>1888.93</ele>
        <time>2021-08-11T10:14:21Z</time>
      </trkpt>
      <trkpt lat="44.40623" lon="6.81998">
        <ele>1888.96</ele>
        <time>2021-08-11T10:14:22Z</time>
      </trkpt>
      <trkpt lat="44.4062" lon="6.82003">
        <ele>1888.66</ele>
        <time>2021-08-11T10:14:23Z</time>
      </trkpt>
      <trkpt lat="44.40616" lon="6.82008">
        <ele>1888.78</ele>
        <time>2021-08-11T10:14:24Z</time>
      </trkpt>
      <trkpt lat="44.40612" lon="6.82015">
        <ele>1889.23</ele>
        <time>2021-08-11T10:14:25Z</time>
      </trkpt>
      <trkpt lat="44.40608" lon="6.82021">
        <ele>1890.78</ele>
        <time>2021-08-11T10:14:26Z</time>
      </trkpt>
      <trkpt lat="44.40604" lon="6.82028">
        <ele>1892.27</ele>
        <time>2021-08-11T10:14:27Z</time>
      </trkpt>
      <trkpt lat="44.406" lon="6.82035">
        <ele>1892.54</ele>
        <time>2021-08-11T10:14:28Z</time>
      </trkpt>
      <trkpt lat="44.40596" lon="6.82041">
        <ele>1893.3</ele>
        <time>2021-08-11T10:14:29Z</time>
      </trkpt>
      <trkpt lat="44.40592" lon="6.82046">
        <ele>1894.5</ele>
        <time>2021-08-11T10:14:30Z</time>
      </trkpt>
      <trkpt lat="44.40589" lon="6.82052">
        <ele>1895.15</ele>
        <time>2021-08-11T10:14:31Z</time>
      </trkpt>
      <trkpt lat="44.40585" lon="6.82058">
        <ele>1896.51</ele>
        <time>2021-08-11T10:14:32Z</time>
      </trkpt>
      <trkpt lat="44.40581" lon="6.82064">
        <ele>1897.35</ele>
        <time>2021-08-11T10:14:33Z</time>
      </trkpt>
      <trkpt lat="44.40578" lon="6.8207">
        <ele>1897.42</ele>
        <time>2021-08-11T10:14:34Z</time>
      </trkpt>
      <trkpt lat="44.40574" lon="6.82076">
        <ele>1897.93</ele>
        <time>2021-08-11T10:14:35Z</time>
      </trkpt>
      <trkpt lat="44.4057" lon="6.82082">
        <ele>1898.5</ele>
        <time>2021-08-11T10:14:36Z</time>
      </trkpt>
      <trkpt lat="44.40566" lon="6.82088">
        <ele>1898.16</ele>
        <time>2021-08-11T10:14:37Z</time>
      </trkpt>
      <trkpt lat="44.40562" lon="6.82093">
        <ele>1898.07</ele>
        <time>2021-08-11T10:14:38Z</time>
      </trkpt>
      <trkpt lat="44.40559" lon="6.82099">
        <ele>1897.35</ele>
        <time>2021-08-11T10:14:39Z</time>
      </trkpt>
      <trkpt lat="44.40555" lon="6.82104">
        <ele>1897.52</ele>
        <time>2021-08-11T10:14:40Z</time>
      </trkpt>
      <trkpt lat="44.40552" lon="6.8211">
        <ele>1896.87</ele>
        <time>2021-08-11T10:14:41Z</time>
      </trkpt>
      <trkpt lat="44.40548" lon="6.82116">
        <ele>1896.7</ele>
        <time>2021-08-11T10:14:42Z</time>
      </trkpt>
      <trkpt lat="44.40544" lon="6.82123">
        <ele>1896.42</ele>
        <time>2021-08-11T10:14:43Z</time>
      </trkpt>
      <trkpt lat="44.40541" lon="6.82129">
        <ele>1896.2</ele>
        <time>2021-08-11T10:14:44Z</time>
      </trkpt>
      <trkpt lat="44.40538" lon="6.82135">
        <ele>1896.16</ele>
        <time>2021-08-11T10:14:45Z</time>
      </trkpt>
      <trkpt lat="44.40534" lon="6.8214">
        <ele>1897.06</ele>
        <time>2021-08-11T10:14:46Z</time>
      </trkpt>
      <trkpt lat="44.4053" lon="6.82145">
        <ele>1897.74</ele>
        <time>2021-08-11T10:14:47Z</time>
      </trkpt>
      <trkpt lat="44.40526" lon="6.82149">
        <ele>1898.16</ele>
        <time>2021-08-11T10:14:48Z</time>
      </trkpt>
      <trkpt lat="44.40522" lon="6.82153">
        <ele>1898</ele>
        <time>2021-08-11T10:14:49Z</time>
      </trkpt>
      <trkpt lat="44.40517" lon="6.82157">
        <ele>1898.34</ele>
        <time>2021-08-11T10:14:50Z</time>
      </trkpt>
      <trkpt lat="44.40511" lon="6.82161">
        <ele>1899.26</ele>
        <time>2021-08-11T10:14:51Z</time>
      </trkpt>
      <trkpt lat="44.40506" lon="6.82164">
        <ele>1900.33</ele>
        <time>2021-08-11T10:14:52Z</time>
      </trkpt>
      <trkpt lat="44.40502" lon="6.82169">
        <ele>1900.82</ele>
        <time>2021-08-11T10:14:53Z</time>
      </trkpt>
      <trkpt lat="44.40498" lon="6.82175">
        <ele>1900.73</ele>
        <time>2021-08-11T10:14:54Z</time>
      </trkpt>
      <trkpt lat="44.40496" lon="6.82183">
        <ele>1899.69</ele>
        <time>2021-08-11T10:14:55Z</time>
      </trkpt>
      <trkpt lat="44.40495" lon="6.82191">
        <ele>1898.61</ele>
        <time>2021-08-11T10:14:56Z</time>
      </trkpt>
      <trkpt lat="44.40494" lon="6.82199">
        <ele>1897.71</ele>
        <time>2021-08-11T10:14:57Z</time>
      </trkpt>
      <trkpt lat="44.40494" lon="6.82207">
        <ele>1896.68</ele>
        <time>2021-08-11T10:14:58Z</time>
      </trkpt>
      <trkpt lat="44.40492" lon="6.82215">
        <ele>1896.19</ele>
        <time>2021-08-11T10:14:59Z</time>
      </trkpt>
      <trkpt lat="44.4049" lon="6.82222">
        <ele>1895.91</ele>
        <time>2021-08-11T10:15:00Z</time>
      </trkpt>
      <trkpt lat="44.40489" lon="6.8223">
        <ele>1893.42</ele>
        <time>2021-08-11T10:15:01Z</time>
      </trkpt>
      <trkpt lat="44.40486" lon="6.82237">
        <ele>1892.26</ele>
        <time>2021-08-11T10:15:02Z</time>
      </trkpt>
      <trkpt lat="44.40483" lon="6.82245">
        <ele>1891.25</ele>
        <time>2021-08-11T10:15:03Z</time>
      </trkpt>
      <trkpt lat="44.40481" lon="6.82252">
        <ele>1890.56</ele>
        <time>2021-08-11T10:15:04Z</time>
      </trkpt>
      <trkpt lat="44.40478" lon="6.82258">
        <ele>1891.17</ele>
        <time>2021-08-11T10:15:05Z</time>
      </trkpt>
      <trkpt lat="44.40475" lon="6.82265">
        <ele>1891.65</ele>
        <time>2021-08-11T10:15:06Z</time>
      </trkpt>
      <trkpt lat="44.40472" lon="6.82271">
        <ele>1892.29</ele>
        <time>2021-08-11T10:15:07Z</time>
      </trkpt>
      <trkpt lat="44.40469" lon="6.82276">
        <ele>1892.45</ele>
        <time>2021-08-11T10:15:08Z</time>
      </trkpt>
      <trkpt lat="44.40467" lon="6.82281">
        <ele>1892.23</ele>
        <time>2021-08-11T10:15:09Z</time>
      </trkpt>
      <trkpt lat="44.40464" lon="6.82286">
        <ele>1892.36</ele>
        <time>2021-08-11T10:15:10Z</time>
      </trkpt>
      <trkpt lat="44.40463" lon="6.8229">
        <ele>1891.97</ele>
        <time>2021-08-11T10:15:11Z</time>
      </trkpt>
      <trkpt lat="44.4046" lon="6.82295">
        <ele>1892.23</ele>
        <time>2021-08-11T10:15:12Z</time>
      </trkpt>
      <trkpt lat="44.40458" lon="6.82301">
        <ele>1891.96</ele>
        <time>2021-08-11T10:15:13Z</time>
      </trkpt>
      <trkpt lat="44.40456" lon="6.82308">
        <ele>1891.25</ele>
        <time>2021-08-11T10:15:14Z</time>
      </trkpt>
      <trkpt lat="44.40453" lon="6.82314">
        <ele>1890.66</ele>
        <time>2021-08-11T10:15:15Z</time>
      </trkpt>
      <trkpt lat="44.4045" lon="6.82321">
        <ele>1889.71</ele>
        <time>2021-08-11T10:15:16Z</time>
      </trkpt>
      <trkpt lat="44.40447" lon="6.82328">
        <ele>1888.7</ele>
        <time>2021-08-11T10:15:17Z</time>
      </trkpt>
      <trkpt lat="44.40445" lon="6.82335">
        <ele>1887.48</ele>
        <time>2021-08-11T10:15:18Z</time>
      </trkpt>
      <trkpt lat="44.40442" lon="6.82342">
        <ele>1887.46</ele>
        <time>2021-08-11T10:15:19Z</time>
      </trkpt>
      <trkpt lat="44.40439" lon="6.82348">
        <ele>1887.72</ele>
        <time>2021-08-11T10:15:20Z</time>
      </trkpt>
      <trkpt lat="44.40435" lon="6.82355">
        <ele>1888.37</ele>
        <time>2021-08-11T10:15:21Z</time>
      </trkpt>
      <trkpt lat="44.40432" lon="6.82361">
        <ele>1888.84</ele>
        <time>2021-08-11T10:15:22Z</time>
      </trkpt>
      <trkpt lat="44.40428" lon="6.82367">
        <ele>1889.3</ele>
        <time>2021-08-11T10:15:23Z</time>
      </trkpt>
      <trkpt lat="44.40425" lon="6.82373">
        <ele>1889.23</ele>
        <time>2021-08-11T10:15:24Z</time>
      </trkpt>
      <trkpt lat="44.40421" lon="6.82378">
        <ele>1889.81</ele>
        <time>2021-08-11T10:15:25Z</time>
      </trkpt>
      <trkpt lat="44.40416" lon="6.82383">
        <ele>1890.8</ele>
        <time>2021-08-11T10:15:26Z</time>
      </trkpt>
      <trkpt lat="44.40411" lon="6.82386">
        <ele>1892.52</ele>
        <time>2021-08-11T10:15:27Z</time>
      </trkpt>
      <trkpt lat="44.40406" lon="6.82388">
        <ele>1894.56</ele>
        <time>2021-08-11T10:15:28Z</time>
      </trkpt>
      <trkpt lat="44.40402" lon="6.82391">
        <ele>1895.94</ele>
        <time>2021-08-11T10:15:29Z</time>
      </trkpt>
      <trkpt lat="44.40397" lon="6.82395">
        <ele>1897.68</ele>
        <time>2021-08-11T10:15:30Z</time>
      </trkpt>
      <trkpt lat="44.40394" lon="6.82401">
        <ele>1898.08</ele>
        <time>2021-08-11T10:15:31Z</time>
      </trkpt>
      <trkpt lat="44.4039" lon="6.82408">
        <ele>1898.94</ele>
        <time>2021-08-11T10:15:32Z</time>
      </trkpt>
      <trkpt lat="44.40387" lon="6.82415">
        <ele>1898.7</ele>
        <time>2021-08-11T10:15:33Z</time>
      </trkpt>
      <trkpt lat="44.40384" lon="6.82422">
        <ele>1898.29</ele>
        <time>2021-08-11T10:15:34Z</time>
      </trkpt>
      <trkpt lat="44.4038" lon="6.82429">
        <ele>1898.14</ele>
        <time>2021-08-11T10:15:35Z</time>
      </trkpt>
      <trkpt lat="44.40377" lon="6.82435">
        <ele>1897.93</ele>
        <time>2021-08-11T10:15:36Z</time>
      </trkpt>
      <trkpt lat="44.40373" lon="6.82441">
        <ele>1897.93</ele>
        <time>2021-08-11T10:15:37Z</time>
      </trkpt>
      <trkpt lat="44.40369" lon="6.82447">
        <ele>1897.72</ele>
        <time>2021-08-11T10:15:38Z</time>
      </trkpt>
      <trkpt lat="44.40364" lon="6.82453">
        <ele>1897.89</ele>
        <time>2021-08-11T10:15:39Z</time>
      </trkpt>
      <trkpt lat="44.4036" lon="6.82458">
        <ele>1898.07</ele>
        <time>2021-08-11T10:15:40Z</time>
      </trkpt>
      <trkpt lat="44.40356" lon="6.82463">
        <ele>1897.51</ele>
        <time>2021-08-11T10:15:41Z</time>
      </trkpt>
      <trkpt lat="44.40351" lon="6.82467">
        <ele>1897.27</ele>
        <time>2021-08-11T10:15:42Z</time>
      </trkpt>
      <trkpt lat="44.40346" lon="6.8247">
        <ele>1897.28</ele>
        <time>2021-08-11T10:15:43Z</time>
      </trkpt>
      <trkpt lat="44.40342" lon="6.82473">
        <ele>1897.18</ele>
        <time>2021-08-11T10:15:44Z</time>
      </trkpt>
      <trkpt lat="44.40337" lon="6.82476">
        <ele>1896.78</ele>
        <time>2021-08-11T10:15:45Z</time>
      </trkpt>
      <trkpt lat="44.40332" lon="6.8248">
        <ele>1895.85</ele>
        <time>2021-08-11T10:15:46Z</time>
      </trkpt>
      <trkpt lat="44.40326" lon="6.82484">
        <ele>1894.16</ele>
        <time>2021-08-11T10:15:47Z</time>
      </trkpt>
      <trkpt lat="44.40321" lon="6.82488">
        <ele>1892.81</ele>
        <time>2021-08-11T10:15:48Z</time>
      </trkpt>
      <trkpt lat="44.40316" lon="6.82492">
        <ele>1891.67</ele>
        <time>2021-08-11T10:15:49Z</time>
      </trkpt>
      <trkpt lat="44.40311" lon="6.82495">
        <ele>1890.88</ele>
        <time>2021-08-11T10:15:50Z</time>
      </trkpt>
      <trkpt lat="44.40306" lon="6.82499">
        <ele>1890.13</ele>
        <time>2021-08-11T10:15:51Z</time>
      </trkpt>
      <trkpt lat="44.40302" lon="6.82502">
        <ele>1888.7</ele>
        <time>2021-08-11T10:15:52Z</time>
      </trkpt>
      <trkpt lat="44.40297" lon="6.82504">
        <ele>1887.33</ele>
        <time>2021-08-11T10:15:53Z</time>
      </trkpt>
      <trkpt lat="44.40292" lon="6.82505">
        <ele>1886.37</ele>
        <time>2021-08-11T10:15:54Z</time>
      </trkpt>
      <trkpt lat="44.40287" lon="6.82504">
        <ele>1885.89</ele>
        <time>2021-08-11T10:15:55Z</time>
      </trkpt>
      <trkpt lat="44.40282" lon="6.82502">
        <ele>1885.47</ele>
        <time>2021-08-11T10:15:56Z</time>
      </trkpt>
      <trkpt lat="44.40277" lon="6.82498">
        <ele>1885.15</ele>
        <time>2021-08-11T10:15:57Z</time>
      </trkpt>
      <trkpt lat="44.40273" lon="6.82493">
        <ele>1885.72</ele>
        <time>2021-08-11T10:15:58Z</time>
      </trkpt>
      <trkpt lat="44.40268" lon="6.82488">
        <ele>1886.34</ele>
        <time>2021-08-11T10:15:59Z</time>
      </trkpt>
      <trkpt lat="44.40264" lon="6.82483">
        <ele>1886.8</ele>
        <time>2021-08-11T10:16:00Z</time>
      </trkpt>
      <trkpt lat="44.40259" lon="6.82481">
        <ele>1887.25</ele>
        <time>2021-08-11T10:16:01Z</time>
      </trkpt>
      <trkpt lat="44.40253" lon="6.82481">
        <ele>1887.75</ele>
        <time>2021-08-11T10:16:02Z</time>
      </trkpt>
      <trkpt lat="44.40248" lon="6.82482">
        <ele>1888.39</ele>
        <time>2021-08-11T10:16:03Z</time>
      </trkpt>
      <trkpt lat="44.40242" lon="6.82484">
        <ele>1889.56</ele>
        <time>2021-08-11T10:16:04Z</time>
      </trkpt>
      <trkpt lat="44.40237" lon="6.82487">
        <ele>1890.59</ele>
        <time>2021-08-11T10:16:05Z</time>
      </trkpt>
      <trkpt lat="44.40231" lon="6.82491">
        <ele>1891.88</ele>
        <time>2021-08-11T10:16:06Z</time>
      </trkpt>
      <trkpt lat="44.40226" lon="6.82494">
        <ele>1893</ele>
        <time>2021-08-11T10:16:07Z</time>
      </trkpt>
      <trkpt lat="44.4022" lon="6.82499">
        <ele>1893.74</ele>
        <time>2021-08-11T10:16:08Z</time>
      </trkpt>
      <trkpt lat="44.40215" lon="6.82504">
        <ele>1892.72</ele>
        <time>2021-08-11T10:16:09Z</time>
      </trkpt>
      <trkpt lat="44.40211" lon="6.82509">
        <ele>1891.75</ele>
        <time>2021-08-11T10:16:10Z</time>
      </trkpt>
      <trkpt lat="44.40206" lon="6.82513">
        <ele>1890.92</ele>
        <time>2021-08-11T10:16:11Z</time>
      </trkpt>
      <trkpt lat="44.40202" lon="6.82518">
        <ele>1890.17</ele>
        <time>2021-08-11T10:16:12Z</time>
      </trkpt>
      <trkpt lat="44.40198" lon="6.82522">
        <ele>1889.6</ele>
        <time>2021-08-11T10:16:13Z</time>
      </trkpt>
      <trkpt lat="44.40194" lon="6.82526">
        <ele>1889.1</ele>
        <time>2021-08-11T10:16:14Z</time>
      </trkpt>
      <trkpt lat="44.40191" lon="6.8253">
        <ele>1887.98</ele>
        <time>2021-08-11T10:16:15Z</time>
      </trkpt>
      <trkpt lat="44.40186" lon="6.82535">
        <ele>1886.03</ele>
        <time>2021-08-11T10:16:16Z</time>
      </trkpt>
      <trkpt lat="44.40181" lon="6.82539">
        <ele>1884.58</ele>
        <time>2021-08-11T10:16:17Z</time>
      </trkpt>
      <trkpt lat="44.40176" lon="6.82542">
        <ele>1883.57</ele>
        <time>2021-08-11T10:16:18Z</time>
      </trkpt>
      <trkpt lat="44.40171" lon="6.82546">
        <ele>1882.41</ele>
        <time>2021-08-11T10:16:19Z</time>
      </trkpt>
      <trkpt lat="44.40166" lon="6.82549">
        <ele>1881.7</ele>
        <time>2021-08-11T10:16:20Z</time>
      </trkpt>
      <trkpt lat="44.40161" lon="6.82552">
        <ele>1881.3</ele>
        <time>2021-08-11T10:16:21Z</time>
      </trkpt>
      <trkpt lat="44.40156" lon="6.82556">
        <ele>1880.65</ele>
        <time>2021-08-11T10:16:22Z</time>
      </trkpt>
      <trkpt lat="44.40152" lon="6.82559">
        <ele>1880.19</ele>
        <time>2021-08-11T10:16:23Z</time>
      </trkpt>
      <trkpt lat="44.40147" lon="6.82562">
        <ele>1879.89</ele>
        <time>2021-08-11T10:16:24Z</time>
      </trkpt>
      <trkpt lat="44.40142" lon="6.82564">
        <ele>1879.88</ele>
        <time>2021-08-11T10:16:25Z</time>
      </trkpt>
      <trkpt lat="44.40138" lon="6.82566">
        <ele>1880.06</ele>
        <time>2021-08-11T10:16:26Z</time>
      </trkpt>
      <trkpt lat="44.40132" lon="6.82569">
        <ele>1881.58</ele>
        <time>2021-08-11T10:16:27Z</time>
      </trkpt>
      <trkpt lat="44.40127" lon="6.8257">
        <ele>1883.16</ele>
        <time>2021-08-11T10:16:28Z</time>
      </trkpt>
      <trkpt lat="44.40121" lon="6.82572">
        <ele>1884.89</ele>
        <time>2021-08-11T10:16:29Z</time>
      </trkpt>
      <trkpt lat="44.40116" lon="6.82573">
        <ele>1886.47</ele>
        <time>2021-08-11T10:16:30Z</time>
      </trkpt>
      <trkpt lat="44.40111" lon="6.82575">
        <ele>1887.82</ele>
        <time>2021-08-11T10:16:31Z</time>
      </trkpt>
      <trkpt lat="44.40106" lon="6.82576">
        <ele>1888.69</ele>
        <time>2021-08-11T10:16:32Z</time>
      </trkpt>
      <trkpt lat="44.40101" lon="6.82578">
        <ele>1889.34</ele>
        <time>2021-08-11T10:16:33Z</time>
      </trkpt>
      <trkpt lat="44.40097" lon="6.82579">
        <ele>1889.98</ele>
        <time>2021-08-11T10:16:34Z</time>
      </trkpt>
      <trkpt lat="44.40092" lon="6.82582">
        <ele>1890.42</ele>
        <time>2021-08-11T10:16:35Z</time>
      </trkpt>
      <trkpt lat="44.40087" lon="6.82585">
        <ele>1890.84</ele>
        <time>2021-08-11T10:16:36Z</time>
      </trkpt>
      <trkpt lat="44.40082" lon="6.82588">
        <ele>1891.17</ele>
        <time>2021-08-11T10:16:37Z</time>
      </trkpt>
      <trkpt lat="44.40078" lon="6.82592">
        <ele>1890.94</ele>
        <time>2021-08-11T10:16:38Z</time>
      </trkpt>
      <trkpt lat="44.40073" lon="6.82595">
        <ele>1891.22</ele>
        <time>2021-08-11T10:16:39Z</time>
      </trkpt>
      <trkpt lat="44.40069" lon="6.82598">
        <ele>1891.47</ele>
        <time>2021-08-11T10:16:40Z</time>
      </trkpt>
      <trkpt lat="44.40064" lon="6.826">
        <ele>1892.16</ele>
        <time>2021-08-11T10:16:41Z</time>
      </trkpt>
      <trkpt lat="44.40059" lon="6.82602">
        <ele>1892.95</ele>
        <time>2021-08-11T10:16:42Z</time>
      </trkpt>
      <trkpt lat="44.40054" lon="6.82604">
        <ele>1893.91</ele>
        <time>2021-08-11T10:16:43Z</time>
      </trkpt>
      <trkpt lat="44.40049" lon="6.82604">
        <ele>1895.18</ele>
        <time>2021-08-11T10:16:44Z</time>
      </trkpt>
      <trkpt lat="44.40045" lon="6.82605">
        <ele>1895.96</ele>
        <time>2021-08-11T10:16:45Z</time>
      </trkpt>
      <trkpt lat="44.40041" lon="6.82604">
        <ele>1897.22</ele>
        <time>2021-08-11T10:16:46Z</time>
      </trkpt>
      <trkpt lat="44.40036" lon="6.82603">
        <ele>1898.87</ele>
        <time>2021-08-11T10:16:47Z</time>
      </trkpt>
      <trkpt lat="44.4003" lon="6.82603">
        <ele>1900.49</ele>
        <time>2021-08-11T10:16:48Z</time>
      </trkpt>
      <trkpt lat="44.40025" lon="6.82603">
        <ele>1901.56</ele>
        <time>2021-08-11T10:16:49Z</time>
      </trkpt>
      <trkpt lat="44.4002" lon="6.82604">
        <ele>1901.85</ele>
        <time>2021-08-11T10:16:50Z</time>
      </trkpt>
      <trkpt lat="44.40014" lon="6.82607">
        <ele>1901</ele>
        <time>2021-08-11T10:16:51Z</time>
      </trkpt>
      <trkpt lat="44.40009" lon="6.8261">
        <ele>1899.75</ele>
        <time>2021-08-11T10:16:52Z</time>
      </trkpt>
      <trkpt lat="44.40003" lon="6.82613">
        <ele>1898.78</ele>
        <time>2021-08-11T10:16:53Z</time>
      </trkpt>
      <trkpt lat="44.39998" lon="6.82616">
        <ele>1898.47</ele>
        <time>2021-08-11T10:16:54Z</time>
      </trkpt>
      <trkpt lat="44.39992" lon="6.82618">
        <ele>1899.73</ele>
        <time>2021-08-11T10:16:55Z</time>
      </trkpt>
      <trkpt lat="44.39986" lon="6.8262">
        <ele>1900.9</ele>
        <time>2021-08-11T10:16:56Z</time>
      </trkpt>
      <trkpt lat="44.3998" lon="6.82621">
        <ele>1902.52</ele>
        <time>2021-08-11T10:16:57Z</time>
      </trkpt>
      <trkpt lat="44.39974" lon="6.82623">
        <ele>1903.53</ele>
        <time>2021-08-11T10:16:58Z</time>
      </trkpt>
      <trkpt lat="44.39968" lon="6.82624">
        <ele>1904.25</ele>
        <time>2021-08-11T10:16:59Z</time>
      </trkpt>
      <trkpt lat="44.39963" lon="6.82626">
        <ele>1903.93</ele>
        <time>2021-08-11T10:17:00Z</time>
      </trkpt>
      <trkpt lat="44.39957" lon="6.82629">
        <ele>1903.24</ele>
        <time>2021-08-11T10:17:01Z</time>
      </trkpt>
      <trkpt lat="44.39952" lon="6.82631">
        <ele>1902.98</ele>
        <time>2021-08-11T10:17:02Z</time>
      </trkpt>
      <trkpt lat="44.39946" lon="6.82634">
        <ele>1902.37</ele>
        <time>2021-08-11T10:17:03Z</time>
      </trkpt>
      <trkpt lat="44.39941" lon="6.82636">
        <ele>1902.45</ele>
        <time>2021-08-11T10:17:04Z</time>
      </trkpt>
      <trkpt lat="44.39936" lon="6.82638">
        <ele>1902.63</ele>
        <time>2021-08-11T10:17:05Z</time>
      </trkpt>
      <trkpt lat="44.39931" lon="6.82639">
        <ele>1903.31</ele>
        <time>2021-08-11T10:17:06Z</time>
      </trkpt>
      <trkpt lat="44.39925" lon="6.82639">
        <ele>1904.83</ele>
        <time>2021-08-11T10:17:07Z</time>
      </trkpt>
      <trkpt lat="44.3992" lon="6.8264">
        <ele>1905.47</ele>
        <time>2021-08-11T10:17:08Z</time>
      </trkpt>
      <trkpt lat="44.39914" lon="6.82641">
        <ele>1906.03</ele>
        <time>2021-08-11T10:17:09Z</time>
      </trkpt>
      <trkpt lat="44.39908" lon="6.82642">
        <ele>1906.21</ele>
        <time>2021-08-11T10:17:10Z</time>
      </trkpt>
      <trkpt lat="44.39903" lon="6.82643">
        <ele>1906.32</ele>
        <time>2021-08-11T10:17:11Z</time>
      </trkpt>
      <trkpt lat="44.39898" lon="6.82644">
        <ele>1906.51</ele>
        <time>2021-08-11T10:17:12Z</time>
      </trkpt>
      <trkpt lat="44.39893" lon="6.82646">
        <ele>1906.29</ele>
        <time>2021-08-11T10:17:13Z</time>
      </trkpt>
      <trkpt lat="44.39889" lon="6.82647">
        <ele>1906.48</ele>
        <time>2021-08-11T10:17:14Z</time>
      </trkpt>
      <trkpt lat="44.39884" lon="6.82649">
        <ele>1905.95</ele>
        <time>2021-08-11T10:17:15Z</time>
      </trkpt>
      <trkpt lat="44.39879" lon="6.82651">
        <ele>1905.54</ele>
        <time>2021-08-11T10:17:16Z</time>
      </trkpt>
      <trkpt lat="44.39874" lon="6.82653">
        <ele>1905.27</ele>
        <time>2021-08-11T10:17:17Z</time>
      </trkpt>
      <trkpt lat="44.39869" lon="6.82656">
        <ele>1904.81</ele>
        <time>2021-08-11T10:17:18Z</time>
      </trkpt>
      <trkpt lat="44.39864" lon="6.82659">
        <ele>1904.56</ele>
        <time>2021-08-11T10:17:19Z</time>
      </trkpt>
      <trkpt lat="44.39858" lon="6.82661">
        <ele>1905.24</ele>
        <time>2021-08-11T10:17:20Z</time>
      </trkpt>
      <trkpt lat="44.39853" lon="6.82663">
        <ele>1905.91</ele>
        <time>2021-08-11T10:17:21Z</time>
      </trkpt>
      <trkpt lat="44.39847" lon="6.82664">
        <ele>1907.01</ele>
        <time>2021-08-11T10:17:22Z</time>
      </trkpt>
      <trkpt lat="44.39841" lon="6.82666">
        <ele>1907.62</ele>
        <time>2021-08-11T10:17:23Z</time>
      </trkpt>
      <trkpt lat="44.39835" lon="6.82668">
        <ele>1908.01</ele>
        <time>2021-08-11T10:17:24Z</time>
      </trkpt>
      <trkpt lat="44.3983" lon="6.8267">
        <ele>1908.53</ele>
        <time>2021-08-11T10:17:25Z</time>
      </trkpt>
      <trkpt lat="44.39825" lon="6.82673">
        <ele>1908.8</ele>
        <time>2021-08-11T10:17:26Z</time>
      </trkpt>
      <trkpt lat="44.3982" lon="6.82676">
        <ele>1909.11</ele>
        <time>2021-08-11T10:17:27Z</time>
      </trkpt>
      <trkpt lat="44.39815" lon="6.8268">
        <ele>1909.02</ele>
        <time>2021-08-11T10:17:28Z</time>
      </trkpt>
      <trkpt lat="44.3981" lon="6.82683">
        <ele>1909.41</ele>
        <time>2021-08-11T10:17:29Z</time>
      </trkpt>
      <trkpt lat="44.39805" lon="6.82687">
        <ele>1909.33</ele>
        <time>2021-08-11T10:17:30Z</time>
      </trkpt>
      <trkpt lat="44.39801" lon="6.82693">
        <ele>1907.6</ele>
        <time>2021-08-11T10:17:31Z</time>
      </trkpt>
      <trkpt lat="44.39798" lon="6.827">
        <ele>1905.81</ele>
        <time>2021-08-11T10:17:32Z</time>
      </trkpt>
      <trkpt lat="44.39795" lon="6.82707">
        <ele>1903.98</ele>
        <time>2021-08-11T10:17:33Z</time>
      </trkpt>
      <trkpt lat="44.39792" lon="6.82714">
        <ele>1901.92</ele>
        <time>2021-08-11T10:17:34Z</time>
      </trkpt>
      <trkpt lat="44.39789" lon="6.82719">
        <ele>1900.4</ele>
        <time>2021-08-11T10:17:35Z</time>
      </trkpt>
      <trkpt lat="44.39786" lon="6.82724">
        <ele>1898.75</ele>
        <time>2021-08-11T10:17:36Z</time>
      </trkpt>
      <trkpt lat="44.39781" lon="6.82728">
        <ele>1897.66</ele>
        <time>2021-08-11T10:17:37Z</time>
      </trkpt>
      <trkpt lat="44.39777" lon="6.82731">
        <ele>1896.88</ele>
        <time>2021-08-11T10:17:38Z</time>
      </trkpt>
      <trkpt lat="44.39771" lon="6.82733">
        <ele>1896.42</ele>
        <time>2021-08-11T10:17:39Z</time>
      </trkpt>
      <trkpt lat="44.39766" lon="6.82734">
        <ele>1896.25</ele>
        <time>2021-08-11T10:17:40Z</time>
      </trkpt>
      <trkpt lat="44.3976" lon="6.82735">
        <ele>1896.09</ele>
        <time>2021-08-11T10:17:41Z</time>
      </trkpt>
      <trkpt lat="44.39755" lon="6.82736">
        <ele>1895.87</ele>
        <time>2021-08-11T10:17:42Z</time>
      </trkpt>
      <trkpt lat="44.39749" lon="6.82737">
        <ele>1896.14</ele>
        <time>2021-08-11T10:17:43Z</time>
      </trkpt>
      <trkpt lat="44.39744" lon="6.82738">
        <ele>1898.33</ele>
        <time>2021-08-11T10:17:44Z</time>
      </trkpt>
      <trkpt lat="44.3974" lon="6.82741">
        <ele>1899.17</ele>
        <time>2021-08-11T10:17:45Z</time>
      </trkpt>
      <trkpt lat="44.39736" lon="6.82745">
        <ele>1899.63</ele>
        <time>2021-08-11T10:17:46Z</time>
      </trkpt>
      <trkpt lat="44.39732" lon="6.82749">
        <ele>1900.13</ele>
        <time>2021-08-11T10:17:47Z</time>
      </trkpt>
      <trkpt lat="44.39728" lon="6.82752">
        <ele>1900.63</ele>
        <time>2021-08-11T10:17:48Z</time>
      </trkpt>
      <trkpt lat="44.39724" lon="6.82756">
        <ele>1900.05</ele>
        <time>2021-08-11T10:17:49Z</time>
      </trkpt>
      <trkpt lat="44.39719" lon="6.8276">
        <ele>1899.3</ele>
        <time>2021-08-11T10:17:50Z</time>
      </trkpt>
      <trkpt lat="44.39715" lon="6.82764">
        <ele>1898.16</ele>
        <time>2021-08-11T10:17:51Z</time>
      </trkpt>
      <trkpt lat="44.39711" lon="6.82768">
        <ele>1897.23</ele>
        <time>2021-08-11T10:17:52Z</time>
      </trkpt>
      <trkpt lat="44.39706" lon="6.82773">
        <ele>1896.36</ele>
        <time>2021-08-11T10:17:53Z</time>
      </trkpt>
      <trkpt lat="44.39702" lon="6.82778">
        <ele>1895.34</ele>
        <time>2021-08-11T10:17:54Z</time>
      </trkpt>
      <trkpt lat="44.39697" lon="6.82783">
        <ele>1894.54</ele>
        <time>2021-08-11T10:17:55Z</time>
      </trkpt>
      <trkpt lat="44.39693" lon="6.82788">
        <ele>1893.46</ele>
        <time>2021-08-11T10:17:56Z</time>
      </trkpt>
      <trkpt lat="44.39688" lon="6.82793">
        <ele>1893.86</ele>
        <time>2021-08-11T10:17:57Z</time>
      </trkpt>
      <trkpt lat="44.39683" lon="6.82798">
        <ele>1894.06</ele>
        <time>2021-08-11T10:17:58Z</time>
      </trkpt>
      <trkpt lat="44.39678" lon="6.82802">
        <ele>1894.78</ele>
        <time>2021-08-11T10:17:59Z</time>
      </trkpt>
      <trkpt lat="44.39672" lon="6.82805">
        <ele>1896.76</ele>
        <time>2021-08-11T10:18:00Z</time>
      </trkpt>
      <trkpt lat="44.39667" lon="6.82808">
        <ele>1897.67</ele>
        <time>2021-08-11T10:18:01Z</time>
      </trkpt>
      <trkpt lat="44.39661" lon="6.82809">
        <ele>1901.69</ele>
        <time>2021-08-11T10:18:02Z</time>
      </trkpt>
      <trkpt lat="44.39656" lon="6.8281">
        <ele>1904.93</ele>
        <time>2021-08-11T10:18:03Z</time>
      </trkpt>
      <trkpt lat="44.3965" lon="6.82812">
        <ele>1908.09</ele>
        <time>2021-08-11T10:18:04Z</time>
      </trkpt>
      <trkpt lat="44.39645" lon="6.82814">
        <ele>1910.41</ele>
        <time>2021-08-11T10:18:05Z</time>
      </trkpt>
      <trkpt lat="44.3964" lon="6.82817">
        <ele>1911.8</ele>
        <time>2021-08-11T10:18:06Z</time>
      </trkpt>
      <trkpt lat="44.39634" lon="6.8282">
        <ele>1912.56</ele>
        <time>2021-08-11T10:18:07Z</time>
      </trkpt>
      <trkpt lat="44.39629" lon="6.82824">
        <ele>1911.74</ele>
        <time>2021-08-11T10:18:08Z</time>
      </trkpt>
      <trkpt lat="44.39624" lon="6.82828">
        <ele>1911.07</ele>
        <time>2021-08-11T10:18:09Z</time>
      </trkpt>
      <trkpt lat="44.39618" lon="6.82832">
        <ele>1911.12</ele>
        <time>2021-08-11T10:18:10Z</time>
      </trkpt>
      <trkpt lat="44.39613" lon="6.82836">
        <ele>1910.96</ele>
        <time>2021-08-11T10:18:11Z</time>
      </trkpt>
      <trkpt lat="44.39608" lon="6.82839">
        <ele>1911.44</ele>
        <time>2021-08-11T10:18:12Z</time>
      </trkpt>
      <trkpt lat="44.39603" lon="6.82844">
        <ele>1910.45</ele>
        <time>2021-08-11T10:18:13Z</time>
      </trkpt>
      <trkpt lat="44.39598" lon="6.82848">
        <ele>1910.32</ele>
        <time>2021-08-11T10:18:14Z</time>
      </trkpt>
      <trkpt lat="44.39593" lon="6.82853">
        <ele>1909.7</ele>
        <time>2021-08-11T10:18:15Z</time>
      </trkpt>
      <trkpt lat="44.39588" lon="6.82858">
        <ele>1909.27</ele>
        <time>2021-08-11T10:18:16Z</time>
      </trkpt>
      <trkpt lat="44.39582" lon="6.82862">
        <ele>1910.05</ele>
        <time>2021-08-11T10:18:17Z</time>
      </trkpt>
      <trkpt lat="44.39577" lon="6.82866">
        <ele>1910.03</ele>
        <time>2021-08-11T10:18:18Z</time>
      </trkpt>
      <trkpt lat="44.39572" lon="6.82871">
        <ele>1909.73</ele>
        <time>2021-08-11T10:18:19Z</time>
      </trkpt>
      <trkpt lat="44.39567" lon="6.82875">
        <ele>1910.14</ele>
        <time>2021-08-11T10:18:20Z</time>
      </trkpt>
      <trkpt lat="44.39562" lon="6.8288">
        <ele>1910.34</ele>
        <time>2021-08-11T10:18:21Z</time>
      </trkpt>
      <trkpt lat="44.39557" lon="6.82885">
        <ele>1910.79</ele>
        <time>2021-08-11T10:18:22Z</time>
      </trkpt>
      <trkpt lat="44.39552" lon="6.82889">
        <ele>1911.1</ele>
        <time>2021-08-11T10:18:23Z</time>
      </trkpt>
      <trkpt lat="44.39547" lon="6.82894">
        <ele>1910.37</ele>
        <time>2021-08-11T10:18:24Z</time>
      </trkpt>
      <trkpt lat="44.39543" lon="6.829">
        <ele>1909.01</ele>
        <time>2021-08-11T10:18:25Z</time>
      </trkpt>
      <trkpt lat="44.39538" lon="6.82906">
        <ele>1908.23</ele>
        <time>2021-08-11T10:18:26Z</time>
      </trkpt>
      <trkpt lat="44.39535" lon="6.82912">
        <ele>1906.86</ele>
        <time>2021-08-11T10:18:27Z</time>
      </trkpt>
      <trkpt lat="44.3953" lon="6.82918">
        <ele>1906.58</ele>
        <time>2021-08-11T10:18:28Z</time>
      </trkpt>
      <trkpt lat="44.39526" lon="6.82924">
        <ele>1905.3</ele>
        <time>2021-08-11T10:18:29Z</time>
      </trkpt>
      <trkpt lat="44.39522" lon="6.8293">
        <ele>1902.99</ele>
        <time>2021-08-11T10:18:30Z</time>
      </trkpt>
      <trkpt lat="44.39517" lon="6.82935">
        <ele>1901.01</ele>
        <time>2021-08-11T10:18:31Z</time>
      </trkpt>
      <trkpt lat="44.39512" lon="6.82939">
        <ele>1899.39</ele>
        <time>2021-08-11T10:18:32Z</time>
      </trkpt>
      <trkpt lat="44.39507" lon="6.82942">
        <ele>1898.13</ele>
        <time>2021-08-11T10:18:33Z</time>
      </trkpt>
      <trkpt lat="44.395" lon="6.82945">
        <ele>1896.72</ele>
        <time>2021-08-11T10:18:34Z</time>
      </trkpt>
      <trkpt lat="44.39495" lon="6.82947">
        <ele>1896.14</ele>
        <time>2021-08-11T10:18:35Z</time>
      </trkpt>
      <trkpt lat="44.39489" lon="6.82949">
        <ele>1895.76</ele>
        <time>2021-08-11T10:18:36Z</time>
      </trkpt>
      <trkpt lat="44.39483" lon="6.82951">
        <ele>1895.5</ele>
        <time>2021-08-11T10:18:37Z</time>
      </trkpt>
      <trkpt lat="44.39477" lon="6.82953">
        <ele>1895.36</ele>
        <time>2021-08-11T10:18:38Z</time>
      </trkpt>
      <trkpt lat="44.39471" lon="6.82956">
        <ele>1894.89</ele>
        <time>2021-08-11T10:18:39Z</time>
      </trkpt>
      <trkpt lat="44.39465" lon="6.82959">
        <ele>1894.18</ele>
        <time>2021-08-11T10:18:40Z</time>
      </trkpt>
      <trkpt lat="44.3946" lon="6.82962">
        <ele>1893.63</ele>
        <time>2021-08-11T10:18:41Z</time>
      </trkpt>
      <trkpt lat="44.39454" lon="6.82965">
        <ele>1893.37</ele>
        <time>2021-08-11T10:18:42Z</time>
      </trkpt>
      <trkpt lat="44.39448" lon="6.82969">
        <ele>1893.14</ele>
        <time>2021-08-11T10:18:43Z</time>
      </trkpt>
      <trkpt lat="44.39443" lon="6.82972">
        <ele>1892.84</ele>
        <time>2021-08-11T10:18:44Z</time>
      </trkpt>
      <trkpt lat="44.39438" lon="6.82975">
        <ele>1890.97</ele>
        <time>2021-08-11T10:18:45Z</time>
      </trkpt>
      <trkpt lat="44.39433" lon="6.82977">
        <ele>1889.46</ele>
        <time>2021-08-11T10:18:46Z</time>
      </trkpt>
      <trkpt lat="44.39427" lon="6.82981">
        <ele>1887.01</ele>
        <time>2021-08-11T10:18:47Z</time>
      </trkpt>
      <trkpt lat="44.39422" lon="6.82984">
        <ele>1885.1</ele>
        <time>2021-08-11T10:18:48Z</time>
      </trkpt>
      <trkpt lat="44.39417" lon="6.82987">
        <ele>1883.2</ele>
        <time>2021-08-11T10:18:49Z</time>
      </trkpt>
      <trkpt lat="44.39411" lon="6.82991">
        <ele>1882.39</ele>
        <time>2021-08-11T10:18:50Z</time>
      </trkpt>
      <trkpt lat="44.39406" lon="6.82994">
        <ele>1882.05</ele>
        <time>2021-08-11T10:18:51Z</time>
      </trkpt>
      <trkpt lat="44.394" lon="6.82996">
        <ele>1882.32</ele>
        <time>2021-08-11T10:18:52Z</time>
      </trkpt>
      <trkpt lat="44.39394" lon="6.82998">
        <ele>1882.7</ele>
        <time>2021-08-11T10:18:53Z</time>
      </trkpt>
      <trkpt lat="44.39389" lon="6.83">
        <ele>1882.98</ele>
        <time>2021-08-11T10:18:54Z</time>
      </trkpt>
      <trkpt lat="44.39383" lon="6.83002">
        <ele>1885.62</ele>
        <time>2021-08-11T10:18:55Z</time>
      </trkpt>
      <trkpt lat="44.39377" lon="6.83004">
        <ele>1888.33</ele>
        <time>2021-08-11T10:18:56Z</time>
      </trkpt>
      <trkpt lat="44.39371" lon="6.83006">
        <ele>1891.07</ele>
        <time>2021-08-11T10:18:57Z</time>
      </trkpt>
      <trkpt lat="44.39365" lon="6.83008">
        <ele>1893.84</ele>
        <time>2021-08-11T10:18:58Z</time>
      </trkpt>
      <trkpt lat="44.3936" lon="6.8301">
        <ele>1895.65</ele>
        <time>2021-08-11T10:18:59Z</time>
      </trkpt>
      <trkpt lat="44.39354" lon="6.83012">
        <ele>1896.33</ele>
        <time>2021-08-11T10:19:00Z</time>
      </trkpt>
      <trkpt lat="44.39348" lon="6.83014">
        <ele>1897.03</ele>
        <time>2021-08-11T10:19:01Z</time>
      </trkpt>
      <trkpt lat="44.39342" lon="6.83016">
        <ele>1897.76</ele>
        <time>2021-08-11T10:19:02Z</time>
      </trkpt>
      <trkpt lat="44.39337" lon="6.83018">
        <ele>1898.29</ele>
        <time>2021-08-11T10:19:03Z</time>
      </trkpt>
      <trkpt lat="44.39331" lon="6.8302">
        <ele>1899.35</ele>
        <time>2021-08-11T10:19:04Z</time>
      </trkpt>
      <trkpt lat="44.39326" lon="6.83022">
        <ele>1900.41</ele>
        <time>2021-08-11T10:19:05Z</time>
      </trkpt>
      <trkpt lat="44.3932" lon="6.83024">
        <ele>1901.74</ele>
        <time>2021-08-11T10:19:06Z</time>
      </trkpt>
      <trkpt lat="44.39314" lon="6.83026">
        <ele>1902.97</ele>
        <time>2021-08-11T10:19:07Z</time>
      </trkpt>
      <trkpt lat="44.39308" lon="6.83028">
        <ele>1904.14</ele>
        <time>2021-08-11T10:19:08Z</time>
      </trkpt>
      <trkpt lat="44.39302" lon="6.8303">
        <ele>1905.01</ele>
        <time>2021-08-11T10:19:09Z</time>
      </trkpt>
      <trkpt lat="44.39297" lon="6.83033">
        <ele>1904.92</ele>
        <time>2021-08-11T10:19:10Z</time>
      </trkpt>
      <trkpt lat="44.39291" lon="6.83036">
        <ele>1904.86</ele>
        <time>2021-08-11T10:19:11Z</time>
      </trkpt>
      <trkpt lat="44.39286" lon="6.83039">
        <ele>1904.45</ele>
        <time>2021-08-11T10:19:12Z</time>
      </trkpt>
      <trkpt lat="44.3928" lon="6.83042">
        <ele>1904.03</ele>
        <time>2021-08-11T10:19:13Z</time>
      </trkpt>
      <trkpt lat="44.39275" lon="6.83045">
        <ele>1903.58</ele>
        <time>2021-08-11T10:19:14Z</time>
      </trkpt>
      <trkpt lat="44.39269" lon="6.83048">
        <ele>1903.52</ele>
        <time>2021-08-11T10:19:15Z</time>
      </trkpt>
      <trkpt lat="44.39264" lon="6.83052">
        <ele>1902.7</ele>
        <time>2021-08-11T10:19:16Z</time>
      </trkpt>
      <trkpt lat="44.39259" lon="6.83056">
        <ele>1901.83</ele>
        <time>2021-08-11T10:19:17Z</time>
      </trkpt>
      <trkpt lat="44.39254" lon="6.83059">
        <ele>1901.33</ele>
        <time>2021-08-11T10:19:18Z</time>
      </trkpt>
      <trkpt lat="44.39249" lon="6.83062">
        <ele>1900.64</ele>
        <time>2021-08-11T10:19:19Z</time>
      </trkpt>
      <trkpt lat="44.39244" lon="6.83065">
        <ele>1899.62</ele>
        <time>2021-08-11T10:19:20Z</time>
      </trkpt>
      <trkpt lat="44.39239" lon="6.83066">
        <ele>1899.7</ele>
        <time>2021-08-11T10:19:21Z</time>
      </trkpt>
      <trkpt lat="44.39235" lon="6.83068">
        <ele>1899.14</ele>
        <time>2021-08-11T10:19:22Z</time>
      </trkpt>
      <trkpt lat="44.3923" lon="6.83069">
        <ele>1899.25</ele>
        <time>2021-08-11T10:19:23Z</time>
      </trkpt>
      <trkpt lat="44.39226" lon="6.83069">
        <ele>1899.75</ele>
        <time>2021-08-11T10:19:24Z</time>
      </trkpt>
      <trkpt lat="44.39222" lon="6.8307">
        <ele>1899.75</ele>
        <time>2021-08-11T10:19:25Z</time>
      </trkpt>
      <trkpt lat="44.39219" lon="6.83071">
        <ele>1899.6</ele>
        <time>2021-08-11T10:19:26Z</time>
      </trkpt>
      <trkpt lat="44.39215" lon="6.83071">
        <ele>1900.08</ele>
        <time>2021-08-11T10:19:27Z</time>
      </trkpt>
      <trkpt lat="44.39211" lon="6.8307">
        <ele>1901.11</ele>
        <time>2021-08-11T10:19:28Z</time>
      </trkpt>
      <trkpt lat="44.39206" lon="6.83069">
        <ele>1902.3</ele>
        <time>2021-08-11T10:19:29Z</time>
      </trkpt>
      <trkpt lat="44.39202" lon="6.83068">
        <ele>1903.39</ele>
        <time>2021-08-11T10:19:30Z</time>
      </trkpt>
      <trkpt lat="44.39197" lon="6.83067">
        <ele>1904.65</ele>
        <time>2021-08-11T10:19:31Z</time>
      </trkpt>
      <trkpt lat="44.39192" lon="6.83066">
        <ele>1905.8</ele>
        <time>2021-08-11T10:19:32Z</time>
      </trkpt>
      <trkpt lat="44.39187" lon="6.83065">
        <ele>1906.76</ele>
        <time>2021-08-11T10:19:33Z</time>
      </trkpt>
      <trkpt lat="44.39183" lon="6.83065">
        <ele>1907.05</ele>
        <time>2021-08-11T10:19:34Z</time>
      </trkpt>
      <trkpt lat="44.39173" lon="6.83067">
        <ele>1906.72</ele>
        <time>2021-08-11T10:19:38Z</time>
      </trkpt>
      <trkpt lat="44.39152" lon="6.83072">
        <ele>1907.16</ele>
        <time>2021-08-11T10:19:41Z</time>
      </trkpt>
      <trkpt lat="44.39141" lon="6.83077">
        <ele>1905.81</ele>
        <time>2021-08-11T10:19:43Z</time>
      </trkpt>
      <trkpt lat="44.39135" lon="6.8308">
        <ele>1904.28</ele>
        <time>2021-08-11T10:19:44Z</time>
      </trkpt>
      <trkpt lat="44.39128" lon="6.83083">
        <ele>1902.6</ele>
        <time>2021-08-11T10:19:45Z</time>
      </trkpt>
      <trkpt lat="44.39121" lon="6.83086">
        <ele>1901.92</ele>
        <time>2021-08-11T10:19:46Z</time>
      </trkpt>
      <trkpt lat="44.39115" lon="6.83088">
        <ele>1901.86</ele>
        <time>2021-08-11T10:19:47Z</time>
      </trkpt>
      <trkpt lat="44.39108" lon="6.83089">
        <ele>1902.74</ele>
        <time>2021-08-11T10:19:48Z</time>
      </trkpt>
      <trkpt lat="44.39102" lon="6.8309">
        <ele>1903.95</ele>
        <time>2021-08-11T10:19:49Z</time>
      </trkpt>
      <trkpt lat="44.39095" lon="6.83091">
        <ele>1905.3</ele>
        <time>2021-08-11T10:19:50Z</time>
      </trkpt>
      <trkpt lat="44.39089" lon="6.83091">
        <ele>1906.67</ele>
        <time>2021-08-11T10:19:51Z</time>
      </trkpt>
      <trkpt lat="44.39082" lon="6.83092">
        <ele>1907.98</ele>
        <time>2021-08-11T10:19:52Z</time>
      </trkpt>
      <trkpt lat="44.39076" lon="6.83095">
        <ele>1908.78</ele>
        <time>2021-08-11T10:19:53Z</time>
      </trkpt>
      <trkpt lat="44.3907" lon="6.83099">
        <ele>1909.51</ele>
        <time>2021-08-11T10:19:54Z</time>
      </trkpt>
      <trkpt lat="44.39065" lon="6.83102">
        <ele>1910.45</ele>
        <time>2021-08-11T10:19:55Z</time>
      </trkpt>
      <trkpt lat="44.39059" lon="6.83105">
        <ele>1911.97</ele>
        <time>2021-08-11T10:19:56Z</time>
      </trkpt>
      <trkpt lat="44.39053" lon="6.83109">
        <ele>1912.54</ele>
        <time>2021-08-11T10:19:57Z</time>
      </trkpt>
      <trkpt lat="44.39047" lon="6.83113">
        <ele>1911.96</ele>
        <time>2021-08-11T10:19:58Z</time>
      </trkpt>
      <trkpt lat="44.39042" lon="6.83116">
        <ele>1911.69</ele>
        <time>2021-08-11T10:19:59Z</time>
      </trkpt>
      <trkpt lat="44.39036" lon="6.8312">
        <ele>1911.46</ele>
        <time>2021-08-11T10:20:00Z</time>
      </trkpt>
      <trkpt lat="44.3903" lon="6.83123">
        <ele>1911.53</ele>
        <time>2021-08-11T10:20:01Z</time>
      </trkpt>
      <trkpt lat="44.39025" lon="6.83128">
        <ele>1911.59</ele>
        <time>2021-08-11T10:20:02Z</time>
      </trkpt>
      <trkpt lat="44.39019" lon="6.83132">
        <ele>1911.93</ele>
        <time>2021-08-11T10:20:03Z</time>
      </trkpt>
      <trkpt lat="44.39014" lon="6.83137">
        <ele>1911.79</ele>
        <time>2021-08-11T10:20:04Z</time>
      </trkpt>
      <trkpt lat="44.3901" lon="6.83143">
        <ele>1911.43</ele>
        <time>2021-08-11T10:20:05Z</time>
      </trkpt>
      <trkpt lat="44.39005" lon="6.83149">
        <ele>1911.14</ele>
        <time>2021-08-11T10:20:06Z</time>
      </trkpt>
      <trkpt lat="44.39" lon="6.83155">
        <ele>1910.68</ele>
        <time>2021-08-11T10:20:07Z</time>
      </trkpt>
      <trkpt lat="44.38996" lon="6.8316">
        <ele>1910.32</ele>
        <time>2021-08-11T10:20:08Z</time>
      </trkpt>
      <trkpt lat="44.3899" lon="6.83168">
        <ele>1909.42</ele>
        <time>2021-08-11T10:20:10Z</time>
      </trkpt>
      <trkpt lat="44.38984" lon="6.83175">
        <ele>1908.4</ele>
        <time>2021-08-11T10:20:11Z</time>
      </trkpt>
      <trkpt lat="44.3898" lon="6.8318">
        <ele>1907.77</ele>
        <time>2021-08-11T10:20:12Z</time>
      </trkpt>
      <trkpt lat="44.38977" lon="6.83183">
        <ele>1907.51</ele>
        <time>2021-08-11T10:20:13Z</time>
      </trkpt>
      <trkpt lat="44.38974" lon="6.83186">
        <ele>1907.3</ele>
        <time>2021-08-11T10:20:14Z</time>
      </trkpt>
      <trkpt lat="44.38971" lon="6.83188">
        <ele>1907.21</ele>
        <time>2021-08-11T10:20:15Z</time>
      </trkpt>
      <trkpt lat="44.38968" lon="6.8319">
        <ele>1906.98</ele>
        <time>2021-08-11T10:20:16Z</time>
      </trkpt>
      <trkpt lat="44.38965" lon="6.83192">
        <ele>1906.72</ele>
        <time>2021-08-11T10:20:17Z</time>
      </trkpt>
      <trkpt lat="44.3896" lon="6.83194">
        <ele>1906.53</ele>
        <time>2021-08-11T10:20:19Z</time>
      </trkpt>
      <trkpt lat="44.38947" lon="6.83195">
        <ele>1906.83</ele>
        <time>2021-08-11T10:20:26Z</time>
      </trkpt>
      <trkpt lat="44.38935" lon="6.83195">
        <ele>1906.23</ele>
        <time>2021-08-11T10:20:30Z</time>
      </trkpt>
      <trkpt lat="44.3892" lon="6.83198">
        <ele>1904.62</ele>
        <time>2021-08-11T10:20:32Z</time>
      </trkpt>
      <trkpt lat="44.38906" lon="6.83199">
        <ele>1904.24</ele>
        <time>2021-08-11T10:20:34Z</time>
      </trkpt>
      <trkpt lat="44.389" lon="6.83201">
        <ele>1903.96</ele>
        <time>2021-08-11T10:20:35Z</time>
      </trkpt>
      <trkpt lat="44.38894" lon="6.83202">
        <ele>1903.86</ele>
        <time>2021-08-11T10:20:36Z</time>
      </trkpt>
      <trkpt lat="44.38888" lon="6.83202">
        <ele>1904.05</ele>
        <time>2021-08-11T10:20:37Z</time>
      </trkpt>
      <trkpt lat="44.38883" lon="6.83203">
        <ele>1904.7</ele>
        <time>2021-08-11T10:20:38Z</time>
      </trkpt>
      <trkpt lat="44.38877" lon="6.83203">
        <ele>1905.64</ele>
        <time>2021-08-11T10:20:39Z</time>
      </trkpt>
      <trkpt lat="44.38871" lon="6.83204">
        <ele>1906.4</ele>
        <time>2021-08-11T10:20:40Z</time>
      </trkpt>
      <trkpt lat="44.38865" lon="6.83205">
        <ele>1907.13</ele>
        <time>2021-08-11T10:20:41Z</time>
      </trkpt>
      <trkpt lat="44.38859" lon="6.83205">
        <ele>1907.85</ele>
        <time>2021-08-11T10:20:42Z</time>
      </trkpt>
      <trkpt lat="44.38853" lon="6.83205">
        <ele>1908.22</ele>
        <time>2021-08-11T10:20:43Z</time>
      </trkpt>
      <trkpt lat="44.38847" lon="6.83205">
        <ele>1908.59</ele>
        <time>2021-08-11T10:20:44Z</time>
      </trkpt>
      <trkpt lat="44.38841" lon="6.83206">
        <ele>1908.59</ele>
        <time>2021-08-11T10:20:45Z</time>
      </trkpt>
      <trkpt lat="44.38835" lon="6.83208">
        <ele>1908.08</ele>
        <time>2021-08-11T10:20:46Z</time>
      </trkpt>
      <trkpt lat="44.38829" lon="6.83211">
        <ele>1907.07</ele>
        <time>2021-08-11T10:20:47Z</time>
      </trkpt>
      <trkpt lat="44.38822" lon="6.83212">
        <ele>1906.97</ele>
        <time>2021-08-11T10:20:48Z</time>
      </trkpt>
      <trkpt lat="44.38816" lon="6.83214">
        <ele>1906.36</ele>
        <time>2021-08-11T10:20:49Z</time>
      </trkpt>
      <trkpt lat="44.3881" lon="6.83215">
        <ele>1906.18</ele>
        <time>2021-08-11T10:20:50Z</time>
      </trkpt>
      <trkpt lat="44.38805" lon="6.83217">
        <ele>1905.47</ele>
        <time>2021-08-11T10:20:51Z</time>
      </trkpt>
      <trkpt lat="44.38799" lon="6.83219">
        <ele>1904.87</ele>
        <time>2021-08-11T10:20:52Z</time>
      </trkpt>
      <trkpt lat="44.38793" lon="6.8322">
        <ele>1904.8</ele>
        <time>2021-08-11T10:20:53Z</time>
      </trkpt>
      <trkpt lat="44.38788" lon="6.83221">
        <ele>1904.72</ele>
        <time>2021-08-11T10:20:54Z</time>
      </trkpt>
      <trkpt lat="44.38782" lon="6.83223">
        <ele>1904.37</ele>
        <time>2021-08-11T10:20:55Z</time>
      </trkpt>
      <trkpt lat="44.38777" lon="6.83223">
        <ele>1904.55</ele>
        <time>2021-08-11T10:20:56Z</time>
      </trkpt>
      <trkpt lat="44.38771" lon="6.83224">
        <ele>1903.3</ele>
        <time>2021-08-11T10:20:57Z</time>
      </trkpt>
      <trkpt lat="44.38767" lon="6.83224">
        <ele>1902.75</ele>
        <time>2021-08-11T10:20:58Z</time>
      </trkpt>
      <trkpt lat="44.38762" lon="6.83224">
        <ele>1902.07</ele>
        <time>2021-08-11T10:20:59Z</time>
      </trkpt>
      <trkpt lat="44.38759" lon="6.83225">
        <ele>1901.3</ele>
        <time>2021-08-11T10:21:00Z</time>
      </trkpt>
      <trkpt lat="44.38756" lon="6.83226">
        <ele>1900.55</ele>
        <time>2021-08-11T10:21:01Z</time>
      </trkpt>
      <trkpt lat="44.38753" lon="6.83225">
        <ele>1900.5</ele>
        <time>2021-08-11T10:21:02Z</time>
      </trkpt>
      <trkpt lat="44.38749" lon="6.83224">
        <ele>1900.32</ele>
        <time>2021-08-11T10:21:03Z</time>
      </trkpt>
      <trkpt lat="44.38745" lon="6.83222">
        <ele>1900.53</ele>
        <time>2021-08-11T10:21:04Z</time>
      </trkpt>
      <trkpt lat="44.38741" lon="6.8322">
        <ele>1900.69</ele>
        <time>2021-08-11T10:21:06Z</time>
      </trkpt>
      <trkpt lat="44.38728" lon="6.83217">
        <ele>1900.28</ele>
        <time>2021-08-11T10:21:13Z</time>
      </trkpt>
      <trkpt lat="44.38723" lon="6.83219">
        <ele>1899.12</ele>
        <time>2021-08-11T10:21:20Z</time>
      </trkpt>
      <trkpt lat="44.38725" lon="6.83218">
        <ele>1899.65</ele>
        <time>2021-08-11T10:22:18Z</time>
      </trkpt>
      <trkpt lat="44.38728" lon="6.8322">
        <ele>1899.33</ele>
        <time>2021-08-11T10:22:57Z</time>
      </trkpt>
      <trkpt lat="44.3873" lon="6.83223">
        <ele>1898.63</ele>
        <time>2021-08-11T10:23:39Z</time>
      </trkpt>
      <trkpt lat="44.38732" lon="6.83225">
        <ele>1898.29</ele>
        <time>2021-08-11T10:25:14Z</time>
      </trkpt>
      <trkpt lat="44.38735" lon="6.83227">
        <ele>1898.02</ele>
        <time>2021-08-11T10:25:31Z</time>
      </trkpt>
      <trkpt lat="44.38737" lon="6.83229">
        <ele>1897.63</ele>
        <time>2021-08-11T10:25:46Z</time>
      </trkpt>
      <trkpt lat="44.38739" lon="6.83232">
        <ele>1896.92</ele>
        <time>2021-08-11T10:25:59Z</time>
      </trkpt>
      <trkpt lat="44.38741" lon="6.83236">
        <ele>1895.89</ele>
        <time>2021-08-11T10:26:09Z</time>
      </trkpt>
      <trkpt lat="44.38744" lon="6.83237">
        <ele>1895.79</ele>
        <time>2021-08-11T10:26:17Z</time>
      </trkpt>
      <trkpt lat="44.38747" lon="6.83237">
        <ele>1896</ele>
        <time>2021-08-11T10:26:20Z</time>
      </trkpt>
      <trkpt lat="44.3875" lon="6.83237">
        <ele>1896.21</ele>
        <time>2021-08-11T10:26:23Z</time>
      </trkpt>
      <trkpt lat="44.38753" lon="6.83237">
        <ele>1896.47</ele>
        <time>2021-08-11T10:26:28Z</time>
      </trkpt>
      <trkpt lat="44.38758" lon="6.83239">
        <ele>1896.19</ele>
        <time>2021-08-11T10:26:31Z</time>
      </trkpt>
      <trkpt lat="44.38763" lon="6.83262">
        <ele>1889.19</ele>
        <time>2021-08-11T10:26:35Z</time>
      </trkpt>
      <trkpt lat="44.38766" lon="6.83278">
        <ele>1885.32</ele>
        <time>2021-08-11T10:26:42Z</time>
      </trkpt>
      <trkpt lat="44.38767" lon="6.83295">
        <ele>1886.79</ele>
        <time>2021-08-11T10:26:49Z</time>
      </trkpt>
      <trkpt lat="44.38761" lon="6.8331">
        <ele>1888.36</ele>
        <time>2021-08-11T10:26:55Z</time>
      </trkpt>
      <trkpt lat="44.38758" lon="6.8333">
        <ele>1892.57</ele>
        <time>2021-08-11T10:26:59Z</time>
      </trkpt>
      <trkpt lat="44.38756" lon="6.83344">
        <ele>1895.22</ele>
        <time>2021-08-11T10:27:01Z</time>
      </trkpt>
      <trkpt lat="44.38755" lon="6.83357">
        <ele>1897.59</ele>
        <time>2021-08-11T10:27:06Z</time>
      </trkpt>
      <trkpt lat="44.38762" lon="6.83375">
        <ele>1901.86</ele>
        <time>2021-08-11T10:27:10Z</time>
      </trkpt>
      <trkpt lat="44.38766" lon="6.83394">
        <ele>1906.18</ele>
        <time>2021-08-11T10:27:14Z</time>
      </trkpt>
      <trkpt lat="44.3877" lon="6.83408">
        <ele>1909.38</ele>
        <time>2021-08-11T10:27:17Z</time>
      </trkpt>
      <trkpt lat="44.38772" lon="6.83424">
        <ele>1912.17</ele>
        <time>2021-08-11T10:27:22Z</time>
      </trkpt>
      <trkpt lat="44.38773" lon="6.83438">
        <ele>1913.79</ele>
        <time>2021-08-11T10:27:26Z</time>
      </trkpt>
      <trkpt lat="44.38776" lon="6.83455">
        <ele>1915.62</ele>
        <time>2021-08-11T10:27:30Z</time>
      </trkpt>
      <trkpt lat="44.3878" lon="6.83462">
        <ele>1916.13</ele>
        <time>2021-08-11T10:27:37Z</time>
      </trkpt>
      <trkpt lat="44.3878" lon="6.83458">
        <ele>1915.86</ele>
        <time>2021-08-11T10:28:01Z</time>
      </trkpt>
      <trkpt lat="44.38778" lon="6.83455">
        <ele>1915.75</ele>
        <time>2021-08-11T10:28:06Z</time>
      </trkpt>
      <trkpt lat="44.38775" lon="6.83457">
        <ele>1915.69</ele>
        <time>2021-08-11T10:28:10Z</time>
      </trkpt>
      <trkpt lat="44.38772" lon="6.83458">
        <ele>1915.56</ele>
        <time>2021-08-11T10:28:16Z</time>
      </trkpt>
      <trkpt lat="44.38777" lon="6.83452">
        <ele>1915.48</ele>
        <time>2021-08-11T10:28:35Z</time>
      </trkpt>
      <trkpt lat="44.38774" lon="6.83452">
        <ele>1915.21</ele>
        <time>2021-08-11T10:28:49Z</time>
      </trkpt>
      <trkpt lat="44.38772" lon="6.83454">
        <ele>1915.21</ele>
        <time>2021-08-11T10:28:55Z</time>
      </trkpt>
      <trkpt lat="44.3877" lon="6.83456">
        <ele>1915.22</ele>
        <time>2021-08-11T10:29:06Z</time>
      </trkpt>
      <trkpt lat="44.38767" lon="6.83455">
        <ele>1914.89</ele>
        <time>2021-08-11T10:29:38Z</time>
      </trkpt>
      <trkpt lat="44.38766" lon="6.83451">
        <ele>1914.4</ele>
        <time>2021-08-11T10:31:33Z</time>
      </trkpt>
      <trkpt lat="44.38764" lon="6.83447">
        <ele>1913.79</ele>
        <time>2021-08-11T10:31:37Z</time>
      </trkpt>
      <trkpt lat="44.38763" lon="6.83437">
        <ele>1912.6</ele>
        <time>2021-08-11T10:31:41Z</time>
      </trkpt>
      <trkpt lat="44.38763" lon="6.83417">
        <ele>1910.44</ele>
        <time>2021-08-11T10:31:44Z</time>
      </trkpt>
      <trkpt lat="44.38755" lon="6.83396">
        <ele>1905.69</ele>
        <time>2021-08-11T10:31:50Z</time>
      </trkpt>
      <trkpt lat="44.38752" lon="6.83382">
        <ele>1902.66</ele>
        <time>2021-08-11T10:31:52Z</time>
      </trkpt>
      <trkpt lat="44.38746" lon="6.83362">
        <ele>1897.76</ele>
        <time>2021-08-11T10:31:54Z</time>
      </trkpt>
      <trkpt lat="44.38743" lon="6.83351">
        <ele>1895.33</ele>
        <time>2021-08-11T10:31:56Z</time>
      </trkpt>
      <trkpt lat="44.38739" lon="6.83341">
        <ele>1892.91</ele>
        <time>2021-08-11T10:31:59Z</time>
      </trkpt>
      <trkpt lat="44.3874" lon="6.83332">
        <ele>1891.31</ele>
        <time>2021-08-11T10:32:09Z</time>
      </trkpt>
      <trkpt lat="44.38743" lon="6.83323">
        <ele>1889.95</ele>
        <time>2021-08-11T10:32:11Z</time>
      </trkpt>
      <trkpt lat="44.38747" lon="6.83307">
        <ele>1887.08</ele>
        <time>2021-08-11T10:32:14Z</time>
      </trkpt>
      <trkpt lat="44.38748" lon="6.83291">
        <ele>1884.8</ele>
        <time>2021-08-11T10:32:19Z</time>
      </trkpt>
      <trkpt lat="44.38751" lon="6.83277">
        <ele>1883.39</ele>
        <time>2021-08-11T10:32:23Z</time>
      </trkpt>
      <trkpt lat="44.38753" lon="6.8327">
        <ele>1885.86</ele>
        <time>2021-08-11T10:32:30Z</time>
      </trkpt>
      <trkpt lat="44.38752" lon="6.83264">
        <ele>1887.64</ele>
        <time>2021-08-11T10:32:36Z</time>
      </trkpt>
      <trkpt lat="44.38754" lon="6.83247">
        <ele>1893.16</ele>
        <time>2021-08-11T10:32:40Z</time>
      </trkpt>
      <trkpt lat="44.38764" lon="6.83243">
        <ele>1895.15</ele>
        <time>2021-08-11T10:32:43Z</time>
      </trkpt>
      <trkpt lat="44.38774" lon="6.83235">
        <ele>1899.12</ele>
        <time>2021-08-11T10:32:48Z</time>
      </trkpt>
      <trkpt lat="44.38784" lon="6.83228">
        <ele>1902.15</ele>
        <time>2021-08-11T10:32:51Z</time>
      </trkpt>
      <trkpt lat="44.38793" lon="6.83223">
        <ele>1903.6</ele>
        <time>2021-08-11T10:32:54Z</time>
      </trkpt>
      <trkpt lat="44.38805" lon="6.83219">
        <ele>1904.54</ele>
        <time>2021-08-11T10:32:55Z</time>
      </trkpt>
      <trkpt lat="44.38815" lon="6.83216">
        <ele>1905.5</ele>
        <time>2021-08-11T10:32:57Z</time>
      </trkpt>
      <trkpt lat="44.3882" lon="6.83215">
        <ele>1905.72</ele>
        <time>2021-08-11T10:32:58Z</time>
      </trkpt>
      <trkpt lat="44.38825" lon="6.83213">
        <ele>1906.38</ele>
        <time>2021-08-11T10:32:59Z</time>
      </trkpt>
      <trkpt lat="44.3883" lon="6.83212">
        <ele>1906.58</ele>
        <time>2021-08-11T10:33:00Z</time>
      </trkpt>
      <trkpt lat="44.38835" lon="6.8321">
        <ele>1907.24</ele>
        <time>2021-08-11T10:33:01Z</time>
      </trkpt>
      <trkpt lat="44.38839" lon="6.83209">
        <ele>1907.54</ele>
        <time>2021-08-11T10:33:02Z</time>
      </trkpt>
      <trkpt lat="44.38844" lon="6.83208">
        <ele>1907.73</ele>
        <time>2021-08-11T10:33:03Z</time>
      </trkpt>
      <trkpt lat="44.38848" lon="6.83206">
        <ele>1908.21</ele>
        <time>2021-08-11T10:33:04Z</time>
      </trkpt>
      <trkpt lat="44.38852" lon="6.83206">
        <ele>1908</ele>
        <time>2021-08-11T10:33:05Z</time>
      </trkpt>
      <trkpt lat="44.38857" lon="6.83205">
        <ele>1907.97</ele>
        <time>2021-08-11T10:33:06Z</time>
      </trkpt>
      <trkpt lat="44.38862" lon="6.83205">
        <ele>1907.58</ele>
        <time>2021-08-11T10:33:07Z</time>
      </trkpt>
      <trkpt lat="44.38867" lon="6.83204">
        <ele>1907.02</ele>
        <time>2021-08-11T10:33:08Z</time>
      </trkpt>
      <trkpt lat="44.38873" lon="6.83204">
        <ele>1906.09</ele>
        <time>2021-08-11T10:33:09Z</time>
      </trkpt>
      <trkpt lat="44.38879" lon="6.83203">
        <ele>1905.33</ele>
        <time>2021-08-11T10:33:10Z</time>
      </trkpt>
      <trkpt lat="44.38884" lon="6.83202">
        <ele>1904.7</ele>
        <time>2021-08-11T10:33:11Z</time>
      </trkpt>
      <trkpt lat="44.38891" lon="6.83201">
        <ele>1904.04</ele>
        <time>2021-08-11T10:33:12Z</time>
      </trkpt>
      <trkpt lat="44.38897" lon="6.832">
        <ele>1904.14</ele>
        <time>2021-08-11T10:33:13Z</time>
      </trkpt>
      <trkpt lat="44.38904" lon="6.83198">
        <ele>1904.42</ele>
        <time>2021-08-11T10:33:14Z</time>
      </trkpt>
      <trkpt lat="44.3891" lon="6.83197">
        <ele>1904.56</ele>
        <time>2021-08-11T10:33:15Z</time>
      </trkpt>
      <trkpt lat="44.38916" lon="6.83195">
        <ele>1904.9</ele>
        <time>2021-08-11T10:33:16Z</time>
      </trkpt>
      <trkpt lat="44.38923" lon="6.83194">
        <ele>1905.56</ele>
        <time>2021-08-11T10:33:17Z</time>
      </trkpt>
      <trkpt lat="44.38929" lon="6.83194">
        <ele>1905.99</ele>
        <time>2021-08-11T10:33:18Z</time>
      </trkpt>
      <trkpt lat="44.38935" lon="6.83193">
        <ele>1906.65</ele>
        <time>2021-08-11T10:33:19Z</time>
      </trkpt>
      <trkpt lat="44.38941" lon="6.83193">
        <ele>1907.07</ele>
        <time>2021-08-11T10:33:20Z</time>
      </trkpt>
      <trkpt lat="44.38946" lon="6.83193">
        <ele>1907.25</ele>
        <time>2021-08-11T10:33:21Z</time>
      </trkpt>
      <trkpt lat="44.38952" lon="6.83193">
        <ele>1907.03</ele>
        <time>2021-08-11T10:33:22Z</time>
      </trkpt>
      <trkpt lat="44.38958" lon="6.83194">
        <ele>1906.6</ele>
        <time>2021-08-11T10:33:23Z</time>
      </trkpt>
      <trkpt lat="44.38963" lon="6.83194">
        <ele>1906.42</ele>
        <time>2021-08-11T10:33:24Z</time>
      </trkpt>
      <trkpt lat="44.38969" lon="6.83193">
        <ele>1906.38</ele>
        <time>2021-08-11T10:33:25Z</time>
      </trkpt>
      <trkpt lat="44.38974" lon="6.83191">
        <ele>1906.38</ele>
        <time>2021-08-11T10:33:26Z</time>
      </trkpt>
      <trkpt lat="44.38979" lon="6.83188">
        <ele>1906.3</ele>
        <time>2021-08-11T10:33:27Z</time>
      </trkpt>
      <trkpt lat="44.38984" lon="6.83185">
        <ele>1906.29</ele>
        <time>2021-08-11T10:33:28Z</time>
      </trkpt>
      <trkpt lat="44.38989" lon="6.8318">
        <ele>1906.81</ele>
        <time>2021-08-11T10:33:29Z</time>
      </trkpt>
      <trkpt lat="44.38994" lon="6.83175">
        <ele>1907.46</ele>
        <time>2021-08-11T10:33:30Z</time>
      </trkpt>
      <trkpt lat="44.38999" lon="6.83169">
        <ele>1908.49</ele>
        <time>2021-08-11T10:33:31Z</time>
      </trkpt>
      <trkpt lat="44.39004" lon="6.83164">
        <ele>1909.21</ele>
        <time>2021-08-11T10:33:32Z</time>
      </trkpt>
      <trkpt lat="44.39009" lon="6.83157">
        <ele>1909.84</ele>
        <time>2021-08-11T10:33:33Z</time>
      </trkpt>
      <trkpt lat="44.39014" lon="6.83151">
        <ele>1910.18</ele>
        <time>2021-08-11T10:33:34Z</time>
      </trkpt>
      <trkpt lat="44.39019" lon="6.83144">
        <ele>1910.46</ele>
        <time>2021-08-11T10:33:35Z</time>
      </trkpt>
      <trkpt lat="44.39024" lon="6.83138">
        <ele>1910.52</ele>
        <time>2021-08-11T10:33:36Z</time>
      </trkpt>
      <trkpt lat="44.39029" lon="6.83132">
        <ele>1910.6</ele>
        <time>2021-08-11T10:33:37Z</time>
      </trkpt>
      <trkpt lat="44.39034" lon="6.83127">
        <ele>1910.68</ele>
        <time>2021-08-11T10:33:38Z</time>
      </trkpt>
      <trkpt lat="44.3904" lon="6.83122">
        <ele>1910.87</ele>
        <time>2021-08-11T10:33:39Z</time>
      </trkpt>
      <trkpt lat="44.39046" lon="6.83118">
        <ele>1911.11</ele>
        <time>2021-08-11T10:33:40Z</time>
      </trkpt>
      <trkpt lat="44.39051" lon="6.83114">
        <ele>1911.59</ele>
        <time>2021-08-11T10:33:41Z</time>
      </trkpt>
      <trkpt lat="44.39057" lon="6.8311">
        <ele>1911.63</ele>
        <time>2021-08-11T10:33:42Z</time>
      </trkpt>
      <trkpt lat="44.39062" lon="6.83106">
        <ele>1910.53</ele>
        <time>2021-08-11T10:33:43Z</time>
      </trkpt>
      <trkpt lat="44.39068" lon="6.83102">
        <ele>1909.33</ele>
        <time>2021-08-11T10:33:44Z</time>
      </trkpt>
      <trkpt lat="44.39074" lon="6.83099">
        <ele>1908.1</ele>
        <time>2021-08-11T10:33:45Z</time>
      </trkpt>
      <trkpt lat="44.3908" lon="6.83096">
        <ele>1907.1</ele>
        <time>2021-08-11T10:33:46Z</time>
      </trkpt>
      <trkpt lat="44.39086" lon="6.83092">
        <ele>1906.98</ele>
        <time>2021-08-11T10:33:47Z</time>
      </trkpt>
      <trkpt lat="44.39092" lon="6.8309">
        <ele>1906.31</ele>
        <time>2021-08-11T10:33:48Z</time>
      </trkpt>
      <trkpt lat="44.39098" lon="6.83088">
        <ele>1905.46</ele>
        <time>2021-08-11T10:33:49Z</time>
      </trkpt>
      <trkpt lat="44.39105" lon="6.83087">
        <ele>1903.93</ele>
        <time>2021-08-11T10:33:50Z</time>
      </trkpt>
      <trkpt lat="44.39111" lon="6.83087">
        <ele>1902.37</ele>
        <time>2021-08-11T10:33:51Z</time>
      </trkpt>
      <trkpt lat="44.39117" lon="6.83087">
        <ele>1901.93</ele>
        <time>2021-08-11T10:33:52Z</time>
      </trkpt>
      <trkpt lat="44.39123" lon="6.83085">
        <ele>1902.09</ele>
        <time>2021-08-11T10:33:53Z</time>
      </trkpt>
      <trkpt lat="44.39129" lon="6.83083">
        <ele>1902.57</ele>
        <time>2021-08-11T10:33:54Z</time>
      </trkpt>
      <trkpt lat="44.39135" lon="6.83081">
        <ele>1903.64</ele>
        <time>2021-08-11T10:33:55Z</time>
      </trkpt>
      <trkpt lat="44.39141" lon="6.83078">
        <ele>1905.17</ele>
        <time>2021-08-11T10:33:56Z</time>
      </trkpt>
      <trkpt lat="44.39147" lon="6.83076">
        <ele>1905.57</ele>
        <time>2021-08-11T10:33:57Z</time>
      </trkpt>
      <trkpt lat="44.39153" lon="6.83073">
        <ele>1906.42</ele>
        <time>2021-08-11T10:33:58Z</time>
      </trkpt>
      <trkpt lat="44.39158" lon="6.83071">
        <ele>1906.71</ele>
        <time>2021-08-11T10:33:59Z</time>
      </trkpt>
      <trkpt lat="44.39164" lon="6.83068">
        <ele>1907.23</ele>
        <time>2021-08-11T10:34:00Z</time>
      </trkpt>
      <trkpt lat="44.39171" lon="6.83066">
        <ele>1907.4</ele>
        <time>2021-08-11T10:34:01Z</time>
      </trkpt>
      <trkpt lat="44.39177" lon="6.83065">
        <ele>1907.49</ele>
        <time>2021-08-11T10:34:02Z</time>
      </trkpt>
      <trkpt lat="44.39183" lon="6.83064">
        <ele>1907.62</ele>
        <time>2021-08-11T10:34:03Z</time>
      </trkpt>
      <trkpt lat="44.39189" lon="6.83064">
        <ele>1907.21</ele>
        <time>2021-08-11T10:34:04Z</time>
      </trkpt>
      <trkpt lat="44.39195" lon="6.83064">
        <ele>1906.75</ele>
        <time>2021-08-11T10:34:05Z</time>
      </trkpt>
      <trkpt lat="44.39202" lon="6.83064">
        <ele>1905.72</ele>
        <time>2021-08-11T10:34:06Z</time>
      </trkpt>
      <trkpt lat="44.39208" lon="6.83065">
        <ele>1904.28</ele>
        <time>2021-08-11T10:34:07Z</time>
      </trkpt>
      <trkpt lat="44.39214" lon="6.83067">
        <ele>1902.35</ele>
        <time>2021-08-11T10:34:08Z</time>
      </trkpt>
      <trkpt lat="44.3922" lon="6.83068">
        <ele>1901.02</ele>
        <time>2021-08-11T10:34:09Z</time>
      </trkpt>
      <trkpt lat="44.39226" lon="6.83069">
        <ele>1899.75</ele>
        <time>2021-08-11T10:34:10Z</time>
      </trkpt>
      <trkpt lat="44.39232" lon="6.83069">
        <ele>1899</ele>
        <time>2021-08-11T10:34:11Z</time>
      </trkpt>
      <trkpt lat="44.39239" lon="6.83068">
        <ele>1898.65</ele>
        <time>2021-08-11T10:34:12Z</time>
      </trkpt>
      <trkpt lat="44.39245" lon="6.83066">
        <ele>1898.97</ele>
        <time>2021-08-11T10:34:13Z</time>
      </trkpt>
      <trkpt lat="44.39252" lon="6.83063">
        <ele>1899.61</ele>
        <time>2021-08-11T10:34:14Z</time>
      </trkpt>
      <trkpt lat="44.39258" lon="6.8306">
        <ele>1900.01</ele>
        <time>2021-08-11T10:34:15Z</time>
      </trkpt>
      <trkpt lat="44.39264" lon="6.83057">
        <ele>1900.27</ele>
        <time>2021-08-11T10:34:16Z</time>
      </trkpt>
      <trkpt lat="44.39269" lon="6.83052">
        <ele>1901.6</ele>
        <time>2021-08-11T10:34:17Z</time>
      </trkpt>
      <trkpt lat="44.39274" lon="6.83047">
        <ele>1902.86</ele>
        <time>2021-08-11T10:34:18Z</time>
      </trkpt>
      <trkpt lat="44.39279" lon="6.83041">
        <ele>1904.63</ele>
        <time>2021-08-11T10:34:19Z</time>
      </trkpt>
      <trkpt lat="44.39284" lon="6.83036">
        <ele>1906.07</ele>
        <time>2021-08-11T10:34:20Z</time>
      </trkpt>
      <trkpt lat="44.3929" lon="6.83032">
        <ele>1906.65</ele>
        <time>2021-08-11T10:34:21Z</time>
      </trkpt>
      <trkpt lat="44.39296" lon="6.83029">
        <ele>1906.61</ele>
        <time>2021-08-11T10:34:22Z</time>
      </trkpt>
      <trkpt lat="44.39302" lon="6.83026">
        <ele>1906.53</ele>
        <time>2021-08-11T10:34:23Z</time>
      </trkpt>
      <trkpt lat="44.39308" lon="6.83023">
        <ele>1906.23</ele>
        <time>2021-08-11T10:34:24Z</time>
      </trkpt>
      <trkpt lat="44.39314" lon="6.8302">
        <ele>1905.37</ele>
        <time>2021-08-11T10:34:25Z</time>
      </trkpt>
      <trkpt lat="44.3932" lon="6.83018">
        <ele>1903.99</ele>
        <time>2021-08-11T10:34:26Z</time>
      </trkpt>
      <trkpt lat="44.39326" lon="6.83015">
        <ele>1902.88</ele>
        <time>2021-08-11T10:34:27Z</time>
      </trkpt>
      <trkpt lat="44.39332" lon="6.83013">
        <ele>1901.3</ele>
        <time>2021-08-11T10:34:28Z</time>
      </trkpt>
      <trkpt lat="44.39338" lon="6.83011">
        <ele>1900.36</ele>
        <time>2021-08-11T10:34:29Z</time>
      </trkpt>
      <trkpt lat="44.39343" lon="6.83009">
        <ele>1899.88</ele>
        <time>2021-08-11T10:34:30Z</time>
      </trkpt>
      <trkpt lat="44.3935" lon="6.83007">
        <ele>1898.98</ele>
        <time>2021-08-11T10:34:31Z</time>
      </trkpt>
      <trkpt lat="44.39356" lon="6.83005">
        <ele>1898.34</ele>
        <time>2021-08-11T10:34:32Z</time>
      </trkpt>
      <trkpt lat="44.39362" lon="6.83002">
        <ele>1897.77</ele>
        <time>2021-08-11T10:34:33Z</time>
      </trkpt>
      <trkpt lat="44.39368" lon="6.83">
        <ele>1895.03</ele>
        <time>2021-08-11T10:34:34Z</time>
      </trkpt>
      <trkpt lat="44.39374" lon="6.82998">
        <ele>1892.23</ele>
        <time>2021-08-11T10:34:35Z</time>
      </trkpt>
      <trkpt lat="44.39381" lon="6.82996">
        <ele>1888.78</ele>
        <time>2021-08-11T10:34:36Z</time>
      </trkpt>
      <trkpt lat="44.39387" lon="6.82993">
        <ele>1886.14</ele>
        <time>2021-08-11T10:34:37Z</time>
      </trkpt>
      <trkpt lat="44.39393" lon="6.82991">
        <ele>1885</ele>
        <time>2021-08-11T10:34:38Z</time>
      </trkpt>
      <trkpt lat="44.39399" lon="6.82988">
        <ele>1885.11</ele>
        <time>2021-08-11T10:34:39Z</time>
      </trkpt>
      <trkpt lat="44.39405" lon="6.82986">
        <ele>1885.01</ele>
        <time>2021-08-11T10:34:40Z</time>
      </trkpt>
      <trkpt lat="44.39411" lon="6.82984">
        <ele>1885</ele>
        <time>2021-08-11T10:34:41Z</time>
      </trkpt>
      <trkpt lat="44.39416" lon="6.82982">
        <ele>1885.2</ele>
        <time>2021-08-11T10:34:42Z</time>
      </trkpt>
      <trkpt lat="44.39422" lon="6.82981">
        <ele>1886.29</ele>
        <time>2021-08-11T10:34:43Z</time>
      </trkpt>
      <trkpt lat="44.39427" lon="6.8298">
        <ele>1887.41</ele>
        <time>2021-08-11T10:34:44Z</time>
      </trkpt>
      <trkpt lat="44.39432" lon="6.82978">
        <ele>1888.92</ele>
        <time>2021-08-11T10:34:45Z</time>
      </trkpt>
      <trkpt lat="44.39438" lon="6.82977">
        <ele>1890.18</ele>
        <time>2021-08-11T10:34:46Z</time>
      </trkpt>
      <trkpt lat="44.39443" lon="6.82975">
        <ele>1891.69</ele>
        <time>2021-08-11T10:34:47Z</time>
      </trkpt>
      <trkpt lat="44.3945" lon="6.82973">
        <ele>1891.88</ele>
        <time>2021-08-11T10:34:48Z</time>
      </trkpt>
      <trkpt lat="44.39456" lon="6.8297">
        <ele>1891.9</ele>
        <time>2021-08-11T10:34:49Z</time>
      </trkpt>
      <trkpt lat="44.39463" lon="6.82968">
        <ele>1891.6</ele>
        <time>2021-08-11T10:34:50Z</time>
      </trkpt>
      <trkpt lat="44.39469" lon="6.82966">
        <ele>1891.57</ele>
        <time>2021-08-11T10:34:51Z</time>
      </trkpt>
      <trkpt lat="44.39475" lon="6.82964">
        <ele>1891.48</ele>
        <time>2021-08-11T10:34:52Z</time>
      </trkpt>
      <trkpt lat="44.39482" lon="6.82962">
        <ele>1891.09</ele>
        <time>2021-08-11T10:34:53Z</time>
      </trkpt>
      <trkpt lat="44.39489" lon="6.82959">
        <ele>1891.29</ele>
        <time>2021-08-11T10:34:54Z</time>
      </trkpt>
      <trkpt lat="44.39496" lon="6.82956">
        <ele>1891.7</ele>
        <time>2021-08-11T10:34:55Z</time>
      </trkpt>
      <trkpt lat="44.39503" lon="6.82954">
        <ele>1892.25</ele>
        <time>2021-08-11T10:34:56Z</time>
      </trkpt>
      <trkpt lat="44.39508" lon="6.82953">
        <ele>1892.89</ele>
        <time>2021-08-11T10:34:57Z</time>
      </trkpt>
      <trkpt lat="44.39513" lon="6.82952">
        <ele>1893.53</ele>
        <time>2021-08-11T10:34:58Z</time>
      </trkpt>
      <trkpt lat="44.39518" lon="6.82951">
        <ele>1894.19</ele>
        <time>2021-08-11T10:34:59Z</time>
      </trkpt>
      <trkpt lat="44.39523" lon="6.82949">
        <ele>1895.4</ele>
        <time>2021-08-11T10:35:00Z</time>
      </trkpt>
      <trkpt lat="44.39529" lon="6.82947">
        <ele>1896.35</ele>
        <time>2021-08-11T10:35:01Z</time>
      </trkpt>
      <trkpt lat="44.39534" lon="6.82945">
        <ele>1896.35</ele>
        <time>2021-08-11T10:35:02Z</time>
      </trkpt>
      <trkpt lat="44.3954" lon="6.82943">
        <ele>1895.74</ele>
        <time>2021-08-11T10:35:03Z</time>
      </trkpt>
      <trkpt lat="44.39546" lon="6.8294">
        <ele>1895.03</ele>
        <time>2021-08-11T10:35:04Z</time>
      </trkpt>
      <trkpt lat="44.39552" lon="6.82936">
        <ele>1894.22</ele>
        <time>2021-08-11T10:35:05Z</time>
      </trkpt>
      <trkpt lat="44.39557" lon="6.82933">
        <ele>1893.06</ele>
        <time>2021-08-11T10:35:06Z</time>
      </trkpt>
      <trkpt lat="44.39563" lon="6.82929">
        <ele>1891.55</ele>
        <time>2021-08-11T10:35:07Z</time>
      </trkpt>
      <trkpt lat="44.3957" lon="6.82925">
        <ele>1890.28</ele>
        <time>2021-08-11T10:35:08Z</time>
      </trkpt>
      <trkpt lat="44.39576" lon="6.82918">
        <ele>1891.07</ele>
        <time>2021-08-11T10:35:09Z</time>
      </trkpt>
      <trkpt lat="44.39582" lon="6.82911">
        <ele>1891.4</ele>
        <time>2021-08-11T10:35:10Z</time>
      </trkpt>
      <trkpt lat="44.39588" lon="6.82905">
        <ele>1888.76</ele>
        <time>2021-08-11T10:35:11Z</time>
      </trkpt>
      <trkpt lat="44.39594" lon="6.82899">
        <ele>1885.95</ele>
        <time>2021-08-11T10:35:12Z</time>
      </trkpt>
      <trkpt lat="44.39599" lon="6.82894">
        <ele>1883.97</ele>
        <time>2021-08-11T10:35:13Z</time>
      </trkpt>
      <trkpt lat="44.39605" lon="6.8289">
        <ele>1881.38</ele>
        <time>2021-08-11T10:35:14Z</time>
      </trkpt>
      <trkpt lat="44.39611" lon="6.82885">
        <ele>1880.31</ele>
        <time>2021-08-11T10:35:15Z</time>
      </trkpt>
      <trkpt lat="44.39616" lon="6.82881">
        <ele>1879.73</ele>
        <time>2021-08-11T10:35:16Z</time>
      </trkpt>
      <trkpt lat="44.39621" lon="6.82876">
        <ele>1879.28</ele>
        <time>2021-08-11T10:35:17Z</time>
      </trkpt>
      <trkpt lat="44.39627" lon="6.82871">
        <ele>1877.72</ele>
        <time>2021-08-11T10:35:18Z</time>
      </trkpt>
      <trkpt lat="44.39632" lon="6.82866">
        <ele>1876.32</ele>
        <time>2021-08-11T10:35:19Z</time>
      </trkpt>
      <trkpt lat="44.39639" lon="6.82861">
        <ele>1873.06</ele>
        <time>2021-08-11T10:35:20Z</time>
      </trkpt>
      <trkpt lat="44.39645" lon="6.82855">
        <ele>1875.72</ele>
        <time>2021-08-11T10:35:21Z</time>
      </trkpt>
      <trkpt lat="44.39652" lon="6.8285">
        <ele>1876.01</ele>
        <time>2021-08-11T10:35:22Z</time>
      </trkpt>
      <trkpt lat="44.39658" lon="6.82845">
        <ele>1875.83</ele>
        <time>2021-08-11T10:35:23Z</time>
      </trkpt>
      <trkpt lat="44.39665" lon="6.8284">
        <ele>1874.03</ele>
        <time>2021-08-11T10:35:24Z</time>
      </trkpt>
      <trkpt lat="44.39672" lon="6.82836">
        <ele>1872.91</ele>
        <time>2021-08-11T10:35:25Z</time>
      </trkpt>
      <trkpt lat="44.3968" lon="6.82833">
        <ele>1871.44</ele>
        <time>2021-08-11T10:35:26Z</time>
      </trkpt>
      <trkpt lat="44.39688" lon="6.8283">
        <ele>1870.37</ele>
        <time>2021-08-11T10:35:27Z</time>
      </trkpt>
      <trkpt lat="44.39696" lon="6.82827">
        <ele>1869.3</ele>
        <time>2021-08-11T10:35:28Z</time>
      </trkpt>
      <trkpt lat="44.39704" lon="6.82824">
        <ele>1870.12</ele>
        <time>2021-08-11T10:35:29Z</time>
      </trkpt>
      <trkpt lat="44.39712" lon="6.8282">
        <ele>1871.05</ele>
        <time>2021-08-11T10:35:30Z</time>
      </trkpt>
      <trkpt lat="44.39719" lon="6.82815">
        <ele>1872.1</ele>
        <time>2021-08-11T10:35:31Z</time>
      </trkpt>
      <trkpt lat="44.39727" lon="6.8281">
        <ele>1872.57</ele>
        <time>2021-08-11T10:35:32Z</time>
      </trkpt>
      <trkpt lat="44.39735" lon="6.82804">
        <ele>1873.26</ele>
        <time>2021-08-11T10:35:33Z</time>
      </trkpt>
      <trkpt lat="44.39742" lon="6.82798">
        <ele>1874.04</ele>
        <time>2021-08-11T10:35:34Z</time>
      </trkpt>
      <trkpt lat="44.3975" lon="6.82793">
        <ele>1874.07</ele>
        <time>2021-08-11T10:35:35Z</time>
      </trkpt>
      <trkpt lat="44.39758" lon="6.8279">
        <ele>1874.63</ele>
        <time>2021-08-11T10:35:36Z</time>
      </trkpt>
      <trkpt lat="44.39766" lon="6.82788">
        <ele>1874.9</ele>
        <time>2021-08-11T10:35:37Z</time>
      </trkpt>
      <trkpt lat="44.39772" lon="6.82786">
        <ele>1875.31</ele>
        <time>2021-08-11T10:35:38Z</time>
      </trkpt>
      <trkpt lat="44.39779" lon="6.82783">
        <ele>1875.7</ele>
        <time>2021-08-11T10:35:39Z</time>
      </trkpt>
      <trkpt lat="44.39785" lon="6.82781">
        <ele>1874.52</ele>
        <time>2021-08-11T10:35:40Z</time>
      </trkpt>
      <trkpt lat="44.39791" lon="6.82778">
        <ele>1874.08</ele>
        <time>2021-08-11T10:35:41Z</time>
      </trkpt>
      <trkpt lat="44.39797" lon="6.82776">
        <ele>1873.45</ele>
        <time>2021-08-11T10:35:42Z</time>
      </trkpt>
      <trkpt lat="44.39803" lon="6.82773">
        <ele>1873.58</ele>
        <time>2021-08-11T10:35:43Z</time>
      </trkpt>
      <trkpt lat="44.39808" lon="6.8277">
        <ele>1873.99</ele>
        <time>2021-08-11T10:35:44Z</time>
      </trkpt>
      <trkpt lat="44.39814" lon="6.82767">
        <ele>1873.98</ele>
        <time>2021-08-11T10:35:45Z</time>
      </trkpt>
      <trkpt lat="44.39819" lon="6.82764">
        <ele>1874.32</ele>
        <time>2021-08-11T10:35:46Z</time>
      </trkpt>
      <trkpt lat="44.39825" lon="6.8276">
        <ele>1875.03</ele>
        <time>2021-08-11T10:35:47Z</time>
      </trkpt>
      <trkpt lat="44.3983" lon="6.82755">
        <ele>1876.74</ele>
        <time>2021-08-11T10:35:48Z</time>
      </trkpt>
      <trkpt lat="44.39835" lon="6.8275">
        <ele>1877.92</ele>
        <time>2021-08-11T10:35:49Z</time>
      </trkpt>
      <trkpt lat="44.39839" lon="6.82745">
        <ele>1877.42</ele>
        <time>2021-08-11T10:35:50Z</time>
      </trkpt>
      <trkpt lat="44.39844" lon="6.82739">
        <ele>1877.26</ele>
        <time>2021-08-11T10:35:51Z</time>
      </trkpt>
      <trkpt lat="44.39849" lon="6.82734">
        <ele>1877.21</ele>
        <time>2021-08-11T10:35:52Z</time>
      </trkpt>
      <trkpt lat="44.39854" lon="6.8273">
        <ele>1877.09</ele>
        <time>2021-08-11T10:35:53Z</time>
      </trkpt>
      <trkpt lat="44.3986" lon="6.82725">
        <ele>1877.63</ele>
        <time>2021-08-11T10:35:54Z</time>
      </trkpt>
      <trkpt lat="44.39866" lon="6.82722">
        <ele>1877.31</ele>
        <time>2021-08-11T10:35:55Z</time>
      </trkpt>
      <trkpt lat="44.39873" lon="6.8272">
        <ele>1875.5</ele>
        <time>2021-08-11T10:35:56Z</time>
      </trkpt>
      <trkpt lat="44.39879" lon="6.82717">
        <ele>1874.55</ele>
        <time>2021-08-11T10:35:57Z</time>
      </trkpt>
      <trkpt lat="44.39885" lon="6.82714">
        <ele>1873.79</ele>
        <time>2021-08-11T10:35:58Z</time>
      </trkpt>
      <trkpt lat="44.3989" lon="6.8271">
        <ele>1873.92</ele>
        <time>2021-08-11T10:35:59Z</time>
      </trkpt>
      <trkpt lat="44.39896" lon="6.82706">
        <ele>1873.98</ele>
        <time>2021-08-11T10:36:00Z</time>
      </trkpt>
      <trkpt lat="44.39901" lon="6.827">
        <ele>1875.81</ele>
        <time>2021-08-11T10:36:01Z</time>
      </trkpt>
      <trkpt lat="44.39907" lon="6.82695">
        <ele>1877.41</ele>
        <time>2021-08-11T10:36:02Z</time>
      </trkpt>
      <trkpt lat="44.39912" lon="6.8269">
        <ele>1879.16</ele>
        <time>2021-08-11T10:36:03Z</time>
      </trkpt>
      <trkpt lat="44.39918" lon="6.82688">
        <ele>1878.36</ele>
        <time>2021-08-11T10:36:04Z</time>
      </trkpt>
      <trkpt lat="44.39925" lon="6.82686">
        <ele>1874.96</ele>
        <time>2021-08-11T10:36:05Z</time>
      </trkpt>
      <trkpt lat="44.39932" lon="6.82684">
        <ele>1871.96</ele>
        <time>2021-08-11T10:36:06Z</time>
      </trkpt>
      <trkpt lat="44.3994" lon="6.82682">
        <ele>1868.77</ele>
        <time>2021-08-11T10:36:07Z</time>
      </trkpt>
      <trkpt lat="44.39948" lon="6.82681">
        <ele>1867.11</ele>
        <time>2021-08-11T10:36:08Z</time>
      </trkpt>
      <trkpt lat="44.39956" lon="6.82679">
        <ele>1868.76</ele>
        <time>2021-08-11T10:36:09Z</time>
      </trkpt>
      <trkpt lat="44.39964" lon="6.82676">
        <ele>1870.91</ele>
        <time>2021-08-11T10:36:10Z</time>
      </trkpt>
      <trkpt lat="44.39972" lon="6.82674">
        <ele>1872</ele>
        <time>2021-08-11T10:36:11Z</time>
      </trkpt>
      <trkpt lat="44.3998" lon="6.82672">
        <ele>1873.02</ele>
        <time>2021-08-11T10:36:12Z</time>
      </trkpt>
      <trkpt lat="44.39988" lon="6.82669">
        <ele>1874.79</ele>
        <time>2021-08-11T10:36:13Z</time>
      </trkpt>
      <trkpt lat="44.39995" lon="6.82667">
        <ele>1875.94</ele>
        <time>2021-08-11T10:36:14Z</time>
      </trkpt>
      <trkpt lat="44.40001" lon="6.82665">
        <ele>1876.65</ele>
        <time>2021-08-11T10:36:15Z</time>
      </trkpt>
      <trkpt lat="44.40007" lon="6.82665">
        <ele>1876.6</ele>
        <time>2021-08-11T10:36:16Z</time>
      </trkpt>
      <trkpt lat="44.40014" lon="6.82667">
        <ele>1875.8</ele>
        <time>2021-08-11T10:36:17Z</time>
      </trkpt>
      <trkpt lat="44.40021" lon="6.82671">
        <ele>1873.59</ele>
        <time>2021-08-11T10:36:18Z</time>
      </trkpt>
      <trkpt lat="44.40027" lon="6.82677">
        <ele>1870.73</ele>
        <time>2021-08-11T10:36:19Z</time>
      </trkpt>
      <trkpt lat="44.40033" lon="6.82683">
        <ele>1866.82</ele>
        <time>2021-08-11T10:36:20Z</time>
      </trkpt>
      <trkpt lat="44.40039" lon="6.82687">
        <ele>1864</ele>
        <time>2021-08-11T10:36:21Z</time>
      </trkpt>
      <trkpt lat="44.40046" lon="6.82691">
        <ele>1861.36</ele>
        <time>2021-08-11T10:36:22Z</time>
      </trkpt>
      <trkpt lat="44.40053" lon="6.82694">
        <ele>1859.43</ele>
        <time>2021-08-11T10:36:23Z</time>
      </trkpt>
      <trkpt lat="44.40062" lon="6.82697">
        <ele>1858.59</ele>
        <time>2021-08-11T10:36:24Z</time>
      </trkpt>
      <trkpt lat="44.4007" lon="6.827">
        <ele>1858.03</ele>
        <time>2021-08-11T10:36:25Z</time>
      </trkpt>
      <trkpt lat="44.4008" lon="6.82703">
        <ele>1857.45</ele>
        <time>2021-08-11T10:36:26Z</time>
      </trkpt>
      <trkpt lat="44.40089" lon="6.82705">
        <ele>1855.57</ele>
        <time>2021-08-11T10:36:27Z</time>
      </trkpt>
      <trkpt lat="44.40102" lon="6.82706">
        <ele>1852.23</ele>
        <time>2021-08-11T10:36:29Z</time>
      </trkpt>
      <trkpt lat="44.40114" lon="6.82708">
        <ele>1848.64</ele>
        <time>2021-08-11T10:36:30Z</time>
      </trkpt>
      <trkpt lat="44.40122" lon="6.82707">
        <ele>1847.64</ele>
        <time>2021-08-11T10:36:31Z</time>
      </trkpt>
      <trkpt lat="44.4013" lon="6.82706">
        <ele>1846.55</ele>
        <time>2021-08-11T10:36:32Z</time>
      </trkpt>
      <trkpt lat="44.40137" lon="6.82703">
        <ele>1846.31</ele>
        <time>2021-08-11T10:36:33Z</time>
      </trkpt>
      <trkpt lat="44.40145" lon="6.827">
        <ele>1846.52</ele>
        <time>2021-08-11T10:36:34Z</time>
      </trkpt>
      <trkpt lat="44.40154" lon="6.82696">
        <ele>1847.32</ele>
        <time>2021-08-11T10:36:35Z</time>
      </trkpt>
      <trkpt lat="44.40162" lon="6.82693">
        <ele>1847.66</ele>
        <time>2021-08-11T10:36:36Z</time>
      </trkpt>
      <trkpt lat="44.4017" lon="6.82691">
        <ele>1847.02</ele>
        <time>2021-08-11T10:36:37Z</time>
      </trkpt>
      <trkpt lat="44.40179" lon="6.82689">
        <ele>1845.51</ele>
        <time>2021-08-11T10:36:38Z</time>
      </trkpt>
      <trkpt lat="44.40187" lon="6.82687">
        <ele>1844.22</ele>
        <time>2021-08-11T10:36:39Z</time>
      </trkpt>
      <trkpt lat="44.40195" lon="6.82686">
        <ele>1842.78</ele>
        <time>2021-08-11T10:36:40Z</time>
      </trkpt>
      <trkpt lat="44.40203" lon="6.82685">
        <ele>1842.42</ele>
        <time>2021-08-11T10:36:41Z</time>
      </trkpt>
      <trkpt lat="44.40211" lon="6.82685">
        <ele>1841.85</ele>
        <time>2021-08-11T10:36:42Z</time>
      </trkpt>
      <trkpt lat="44.40219" lon="6.82687">
        <ele>1840.84</ele>
        <time>2021-08-11T10:36:43Z</time>
      </trkpt>
      <trkpt lat="44.40226" lon="6.8269">
        <ele>1840.21</ele>
        <time>2021-08-11T10:36:44Z</time>
      </trkpt>
      <trkpt lat="44.40234" lon="6.82693">
        <ele>1840.14</ele>
        <time>2021-08-11T10:36:45Z</time>
      </trkpt>
      <trkpt lat="44.40241" lon="6.82697">
        <ele>1839.62</ele>
        <time>2021-08-11T10:36:46Z</time>
      </trkpt>
      <trkpt lat="44.40249" lon="6.82699">
        <ele>1839.76</ele>
        <time>2021-08-11T10:36:47Z</time>
      </trkpt>
      <trkpt lat="44.40256" lon="6.82699">
        <ele>1839.2</ele>
        <time>2021-08-11T10:36:48Z</time>
      </trkpt>
      <trkpt lat="44.40262" lon="6.82699">
        <ele>1838.56</ele>
        <time>2021-08-11T10:36:49Z</time>
      </trkpt>
      <trkpt lat="44.40267" lon="6.82698">
        <ele>1838.27</ele>
        <time>2021-08-11T10:36:50Z</time>
      </trkpt>
      <trkpt lat="44.40272" lon="6.82694">
        <ele>1838.7</ele>
        <time>2021-08-11T10:36:52Z</time>
      </trkpt>
      <trkpt lat="44.40275" lon="6.82691">
        <ele>1838.92</ele>
        <time>2021-08-11T10:36:53Z</time>
      </trkpt>
      <trkpt lat="44.40278" lon="6.82688">
        <ele>1839.13</ele>
        <time>2021-08-11T10:36:54Z</time>
      </trkpt>
      <trkpt lat="44.4028" lon="6.82684">
        <ele>1839.59</ele>
        <time>2021-08-11T10:36:55Z</time>
      </trkpt>
      <trkpt lat="44.40284" lon="6.82678">
        <ele>1840.2</ele>
        <time>2021-08-11T10:36:56Z</time>
      </trkpt>
      <trkpt lat="44.40288" lon="6.82672">
        <ele>1840.87</ele>
        <time>2021-08-11T10:36:57Z</time>
      </trkpt>
      <trkpt lat="44.40293" lon="6.82667">
        <ele>1841.29</ele>
        <time>2021-08-11T10:36:58Z</time>
      </trkpt>
      <trkpt lat="44.403" lon="6.82662">
        <ele>1841.64</ele>
        <time>2021-08-11T10:36:59Z</time>
      </trkpt>
      <trkpt lat="44.40307" lon="6.8266">
        <ele>1840.98</ele>
        <time>2021-08-11T10:37:00Z</time>
      </trkpt>
      <trkpt lat="44.40316" lon="6.8266">
        <ele>1838.13</ele>
        <time>2021-08-11T10:37:01Z</time>
      </trkpt>
      <trkpt lat="44.40324" lon="6.8266">
        <ele>1835.6</ele>
        <time>2021-08-11T10:37:02Z</time>
      </trkpt>
      <trkpt lat="44.40332" lon="6.8266">
        <ele>1833.06</ele>
        <time>2021-08-11T10:37:03Z</time>
      </trkpt>
      <trkpt lat="44.40341" lon="6.8266">
        <ele>1830.85</ele>
        <time>2021-08-11T10:37:04Z</time>
      </trkpt>
      <trkpt lat="44.40348" lon="6.8266">
        <ele>1829.22</ele>
        <time>2021-08-11T10:37:05Z</time>
      </trkpt>
      <trkpt lat="44.40356" lon="6.8266">
        <ele>1827.35</ele>
        <time>2021-08-11T10:37:06Z</time>
      </trkpt>
      <trkpt lat="44.40364" lon="6.8266">
        <ele>1824.97</ele>
        <time>2021-08-11T10:37:07Z</time>
      </trkpt>
      <trkpt lat="44.40371" lon="6.82659">
        <ele>1822.37</ele>
        <time>2021-08-11T10:37:08Z</time>
      </trkpt>
      <trkpt lat="44.40378" lon="6.82659">
        <ele>1819.46</ele>
        <time>2021-08-11T10:37:09Z</time>
      </trkpt>
      <trkpt lat="44.40385" lon="6.82658">
        <ele>1816.81</ele>
        <time>2021-08-11T10:37:10Z</time>
      </trkpt>
      <trkpt lat="44.40391" lon="6.82656">
        <ele>1815.19</ele>
        <time>2021-08-11T10:37:11Z</time>
      </trkpt>
      <trkpt lat="44.40397" lon="6.82653">
        <ele>1814.54</ele>
        <time>2021-08-11T10:37:12Z</time>
      </trkpt>
      <trkpt lat="44.40402" lon="6.82648">
        <ele>1814.72</ele>
        <time>2021-08-11T10:37:13Z</time>
      </trkpt>
      <trkpt lat="44.40407" lon="6.82643">
        <ele>1814.96</ele>
        <time>2021-08-11T10:37:14Z</time>
      </trkpt>
      <trkpt lat="44.40412" lon="6.82637">
        <ele>1815.73</ele>
        <time>2021-08-11T10:37:15Z</time>
      </trkpt>
      <trkpt lat="44.40417" lon="6.82631">
        <ele>1816.77</ele>
        <time>2021-08-11T10:37:16Z</time>
      </trkpt>
      <trkpt lat="44.40422" lon="6.82625">
        <ele>1817.66</ele>
        <time>2021-08-11T10:37:17Z</time>
      </trkpt>
      <trkpt lat="44.40428" lon="6.82619">
        <ele>1817.95</ele>
        <time>2021-08-11T10:37:18Z</time>
      </trkpt>
      <trkpt lat="44.40434" lon="6.82615">
        <ele>1817.33</ele>
        <time>2021-08-11T10:37:19Z</time>
      </trkpt>
      <trkpt lat="44.40441" lon="6.8261">
        <ele>1816.55</ele>
        <time>2021-08-11T10:37:20Z</time>
      </trkpt>
      <trkpt lat="44.40448" lon="6.82605">
        <ele>1817.18</ele>
        <time>2021-08-11T10:37:21Z</time>
      </trkpt>
      <trkpt lat="44.40454" lon="6.826">
        <ele>1818.51</ele>
        <time>2021-08-11T10:37:22Z</time>
      </trkpt>
      <trkpt lat="44.4046" lon="6.82596">
        <ele>1819.21</ele>
        <time>2021-08-11T10:37:23Z</time>
      </trkpt>
      <trkpt lat="44.40466" lon="6.82592">
        <ele>1819.66</ele>
        <time>2021-08-11T10:37:24Z</time>
      </trkpt>
      <trkpt lat="44.40471" lon="6.82588">
        <ele>1820.01</ele>
        <time>2021-08-11T10:37:25Z</time>
      </trkpt>
      <trkpt lat="44.40476" lon="6.82583">
        <ele>1819.34</ele>
        <time>2021-08-11T10:37:26Z</time>
      </trkpt>
      <trkpt lat="44.40482" lon="6.82579">
        <ele>1817.83</ele>
        <time>2021-08-11T10:37:27Z</time>
      </trkpt>
      <trkpt lat="44.40487" lon="6.82574">
        <ele>1817.11</ele>
        <time>2021-08-11T10:37:28Z</time>
      </trkpt>
      <trkpt lat="44.40492" lon="6.82569">
        <ele>1816.39</ele>
        <time>2021-08-11T10:37:29Z</time>
      </trkpt>
      <trkpt lat="44.40497" lon="6.82563">
        <ele>1815.99</ele>
        <time>2021-08-11T10:37:30Z</time>
      </trkpt>
      <trkpt lat="44.40503" lon="6.82557">
        <ele>1815.37</ele>
        <time>2021-08-11T10:37:31Z</time>
      </trkpt>
      <trkpt lat="44.40508" lon="6.82549">
        <ele>1815.25</ele>
        <time>2021-08-11T10:37:32Z</time>
      </trkpt>
      <trkpt lat="44.40513" lon="6.82541">
        <ele>1815</ele>
        <time>2021-08-11T10:37:33Z</time>
      </trkpt>
      <trkpt lat="44.40518" lon="6.82533">
        <ele>1814.74</ele>
        <time>2021-08-11T10:37:34Z</time>
      </trkpt>
      <trkpt lat="44.40522" lon="6.82525">
        <ele>1814.51</ele>
        <time>2021-08-11T10:37:35Z</time>
      </trkpt>
      <trkpt lat="44.40525" lon="6.82515">
        <ele>1814.07</ele>
        <time>2021-08-11T10:37:36Z</time>
      </trkpt>
      <trkpt lat="44.40529" lon="6.82506">
        <ele>1813.09</ele>
        <time>2021-08-11T10:37:37Z</time>
      </trkpt>
      <trkpt lat="44.40533" lon="6.82497">
        <ele>1812.57</ele>
        <time>2021-08-11T10:37:38Z</time>
      </trkpt>
      <trkpt lat="44.40536" lon="6.82488">
        <ele>1813</ele>
        <time>2021-08-11T10:37:39Z</time>
      </trkpt>
      <trkpt lat="44.4054" lon="6.8248">
        <ele>1812.3</ele>
        <time>2021-08-11T10:37:40Z</time>
      </trkpt>
      <trkpt lat="44.40544" lon="6.82473">
        <ele>1810.97</ele>
        <time>2021-08-11T10:37:41Z</time>
      </trkpt>
      <trkpt lat="44.40548" lon="6.82465">
        <ele>1810.3</ele>
        <time>2021-08-11T10:37:42Z</time>
      </trkpt>
      <trkpt lat="44.40553" lon="6.82456">
        <ele>1809.54</ele>
        <time>2021-08-11T10:37:43Z</time>
      </trkpt>
      <trkpt lat="44.40557" lon="6.82447">
        <ele>1810</ele>
        <time>2021-08-11T10:37:44Z</time>
      </trkpt>
      <trkpt lat="44.40562" lon="6.82438">
        <ele>1811.37</ele>
        <time>2021-08-11T10:37:45Z</time>
      </trkpt>
      <trkpt lat="44.40567" lon="6.82429">
        <ele>1812.3</ele>
        <time>2021-08-11T10:37:46Z</time>
      </trkpt>
      <trkpt lat="44.40572" lon="6.82421">
        <ele>1812.3</ele>
        <time>2021-08-11T10:37:47Z</time>
      </trkpt>
      <trkpt lat="44.40578" lon="6.82414">
        <ele>1811.05</ele>
        <time>2021-08-11T10:37:48Z</time>
      </trkpt>
      <trkpt lat="44.40583" lon="6.82408">
        <ele>1810.02</ele>
        <time>2021-08-11T10:37:49Z</time>
      </trkpt>
      <trkpt lat="44.40589" lon="6.824">
        <ele>1809.89</ele>
        <time>2021-08-11T10:37:50Z</time>
      </trkpt>
      <trkpt lat="44.40594" lon="6.82393">
        <ele>1809.5</ele>
        <time>2021-08-11T10:37:51Z</time>
      </trkpt>
      <trkpt lat="44.406" lon="6.82386">
        <ele>1808.56</ele>
        <time>2021-08-11T10:37:52Z</time>
      </trkpt>
      <trkpt lat="44.40605" lon="6.82379">
        <ele>1808.06</ele>
        <time>2021-08-11T10:37:53Z</time>
      </trkpt>
      <trkpt lat="44.40609" lon="6.82373">
        <ele>1807.66</ele>
        <time>2021-08-11T10:37:54Z</time>
      </trkpt>
      <trkpt lat="44.40614" lon="6.82368">
        <ele>1806.98</ele>
        <time>2021-08-11T10:37:55Z</time>
      </trkpt>
      <trkpt lat="44.4062" lon="6.82363">
        <ele>1806.14</ele>
        <time>2021-08-11T10:37:56Z</time>
      </trkpt>
      <trkpt lat="44.40627" lon="6.8236">
        <ele>1804.7</ele>
        <time>2021-08-11T10:37:57Z</time>
      </trkpt>
      <trkpt lat="44.40633" lon="6.82357">
        <ele>1803.65</ele>
        <time>2021-08-11T10:37:58Z</time>
      </trkpt>
      <trkpt lat="44.4064" lon="6.82354">
        <ele>1802.36</ele>
        <time>2021-08-11T10:37:59Z</time>
      </trkpt>
      <trkpt lat="44.40646" lon="6.8235">
        <ele>1802.17</ele>
        <time>2021-08-11T10:38:00Z</time>
      </trkpt>
      <trkpt lat="44.40651" lon="6.82346">
        <ele>1802.05</ele>
        <time>2021-08-11T10:38:01Z</time>
      </trkpt>
      <trkpt lat="44.40656" lon="6.82341">
        <ele>1801.99</ele>
        <time>2021-08-11T10:38:02Z</time>
      </trkpt>
      <trkpt lat="44.4066" lon="6.82335">
        <ele>1802.17</ele>
        <time>2021-08-11T10:38:03Z</time>
      </trkpt>
      <trkpt lat="44.40664" lon="6.82329">
        <ele>1802.21</ele>
        <time>2021-08-11T10:38:04Z</time>
      </trkpt>
      <trkpt lat="44.40668" lon="6.82322">
        <ele>1802.32</ele>
        <time>2021-08-11T10:38:05Z</time>
      </trkpt>
      <trkpt lat="44.40672" lon="6.82316">
        <ele>1802.22</ele>
        <time>2021-08-11T10:38:06Z</time>
      </trkpt>
      <trkpt lat="44.40677" lon="6.8231">
        <ele>1801.82</ele>
        <time>2021-08-11T10:38:07Z</time>
      </trkpt>
      <trkpt lat="44.40682" lon="6.82304">
        <ele>1801.47</ele>
        <time>2021-08-11T10:38:08Z</time>
      </trkpt>
      <trkpt lat="44.40687" lon="6.82298">
        <ele>1801.38</ele>
        <time>2021-08-11T10:38:09Z</time>
      </trkpt>
      <trkpt lat="44.40692" lon="6.82292">
        <ele>1801.14</ele>
        <time>2021-08-11T10:38:10Z</time>
      </trkpt>
      <trkpt lat="44.40697" lon="6.82286">
        <ele>1801.05</ele>
        <time>2021-08-11T10:38:11Z</time>
      </trkpt>
      <trkpt lat="44.40701" lon="6.82278">
        <ele>1801.55</ele>
        <time>2021-08-11T10:38:12Z</time>
      </trkpt>
      <trkpt lat="44.40705" lon="6.82271">
        <ele>1801.51</ele>
        <time>2021-08-11T10:38:13Z</time>
      </trkpt>
      <trkpt lat="44.40709" lon="6.82263">
        <ele>1801.43</ele>
        <time>2021-08-11T10:38:14Z</time>
      </trkpt>
      <trkpt lat="44.40712" lon="6.82255">
        <ele>1801.45</ele>
        <time>2021-08-11T10:38:15Z</time>
      </trkpt>
      <trkpt lat="44.40716" lon="6.82247">
        <ele>1801.03</ele>
        <time>2021-08-11T10:38:16Z</time>
      </trkpt>
      <trkpt lat="44.4072" lon="6.82237">
        <ele>1800.61</ele>
        <time>2021-08-11T10:38:17Z</time>
      </trkpt>
      <trkpt lat="44.40723" lon="6.82227">
        <ele>1800.36</ele>
        <time>2021-08-11T10:38:18Z</time>
      </trkpt>
      <trkpt lat="44.40727" lon="6.82217">
        <ele>1799.3</ele>
        <time>2021-08-11T10:38:19Z</time>
      </trkpt>
      <trkpt lat="44.40731" lon="6.82205">
        <ele>1798.14</ele>
        <time>2021-08-11T10:38:20Z</time>
      </trkpt>
      <trkpt lat="44.40735" lon="6.82194">
        <ele>1796.98</ele>
        <time>2021-08-11T10:38:21Z</time>
      </trkpt>
      <trkpt lat="44.40739" lon="6.82182">
        <ele>1796.43</ele>
        <time>2021-08-11T10:38:22Z</time>
      </trkpt>
      <trkpt lat="44.40742" lon="6.8217">
        <ele>1796.18</ele>
        <time>2021-08-11T10:38:23Z</time>
      </trkpt>
      <trkpt lat="44.40746" lon="6.82158">
        <ele>1795.4</ele>
        <time>2021-08-11T10:38:24Z</time>
      </trkpt>
      <trkpt lat="44.4075" lon="6.82147">
        <ele>1794.42</ele>
        <time>2021-08-11T10:38:25Z</time>
      </trkpt>
      <trkpt lat="44.40754" lon="6.82136">
        <ele>1794.23</ele>
        <time>2021-08-11T10:38:26Z</time>
      </trkpt>
      <trkpt lat="44.40759" lon="6.82127">
        <ele>1793.84</ele>
        <time>2021-08-11T10:38:27Z</time>
      </trkpt>
      <trkpt lat="44.40765" lon="6.82119">
        <ele>1792.77</ele>
        <time>2021-08-11T10:38:28Z</time>
      </trkpt>
      <trkpt lat="44.40771" lon="6.82111">
        <ele>1791.45</ele>
        <time>2021-08-11T10:38:29Z</time>
      </trkpt>
      <trkpt lat="44.40776" lon="6.82102">
        <ele>1790.67</ele>
        <time>2021-08-11T10:38:30Z</time>
      </trkpt>
      <trkpt lat="44.40781" lon="6.82093">
        <ele>1790.34</ele>
        <time>2021-08-11T10:38:31Z</time>
      </trkpt>
      <trkpt lat="44.40785" lon="6.82082">
        <ele>1790.61</ele>
        <time>2021-08-11T10:38:32Z</time>
      </trkpt>
      <trkpt lat="44.4079" lon="6.82071">
        <ele>1790.75</ele>
        <time>2021-08-11T10:38:33Z</time>
      </trkpt>
      <trkpt lat="44.40796" lon="6.82061">
        <ele>1790.23</ele>
        <time>2021-08-11T10:38:34Z</time>
      </trkpt>
      <trkpt lat="44.40802" lon="6.82053">
        <ele>1789.55</ele>
        <time>2021-08-11T10:38:35Z</time>
      </trkpt>
      <trkpt lat="44.40808" lon="6.82044">
        <ele>1790.14</ele>
        <time>2021-08-11T10:38:36Z</time>
      </trkpt>
      <trkpt lat="44.40814" lon="6.82035">
        <ele>1791.22</ele>
        <time>2021-08-11T10:38:37Z</time>
      </trkpt>
      <trkpt lat="44.40818" lon="6.82025">
        <ele>1792.83</ele>
        <time>2021-08-11T10:38:38Z</time>
      </trkpt>
      <trkpt lat="44.40822" lon="6.82016">
        <ele>1794.02</ele>
        <time>2021-08-11T10:38:39Z</time>
      </trkpt>
      <trkpt lat="44.40826" lon="6.82006">
        <ele>1795.02</ele>
        <time>2021-08-11T10:38:40Z</time>
      </trkpt>
      <trkpt lat="44.4083" lon="6.81997">
        <ele>1795.6</ele>
        <time>2021-08-11T10:38:41Z</time>
      </trkpt>
      <trkpt lat="44.40834" lon="6.81988">
        <ele>1796.4</ele>
        <time>2021-08-11T10:38:42Z</time>
      </trkpt>
      <trkpt lat="44.40839" lon="6.81979">
        <ele>1796.9</ele>
        <time>2021-08-11T10:38:43Z</time>
      </trkpt>
      <trkpt lat="44.40844" lon="6.81972">
        <ele>1796.98</ele>
        <time>2021-08-11T10:38:44Z</time>
      </trkpt>
      <trkpt lat="44.4085" lon="6.81965">
        <ele>1796.86</ele>
        <time>2021-08-11T10:38:45Z</time>
      </trkpt>
      <trkpt lat="44.40857" lon="6.81959">
        <ele>1796.11</ele>
        <time>2021-08-11T10:38:46Z</time>
      </trkpt>
      <trkpt lat="44.40864" lon="6.81957">
        <ele>1794.86</ele>
        <time>2021-08-11T10:38:47Z</time>
      </trkpt>
      <trkpt lat="44.40871" lon="6.81956">
        <ele>1794.02</ele>
        <time>2021-08-11T10:38:48Z</time>
      </trkpt>
      <trkpt lat="44.40879" lon="6.81955">
        <ele>1792.99</ele>
        <time>2021-08-11T10:38:49Z</time>
      </trkpt>
      <trkpt lat="44.40885" lon="6.81954">
        <ele>1792.23</ele>
        <time>2021-08-11T10:38:50Z</time>
      </trkpt>
      <trkpt lat="44.40891" lon="6.81951">
        <ele>1791.86</ele>
        <time>2021-08-11T10:38:51Z</time>
      </trkpt>
      <trkpt lat="44.40896" lon="6.81947">
        <ele>1791.91</ele>
        <time>2021-08-11T10:38:52Z</time>
      </trkpt>
      <trkpt lat="44.40899" lon="6.81942">
        <ele>1792.34</ele>
        <time>2021-08-11T10:38:53Z</time>
      </trkpt>
      <trkpt lat="44.40901" lon="6.81937">
        <ele>1792.95</ele>
        <time>2021-08-11T10:38:54Z</time>
      </trkpt>
      <trkpt lat="44.40901" lon="6.81931">
        <ele>1793.96</ele>
        <time>2021-08-11T10:38:55Z</time>
      </trkpt>
      <trkpt lat="44.40902" lon="6.81924">
        <ele>1794.96</ele>
        <time>2021-08-11T10:38:56Z</time>
      </trkpt>
      <trkpt lat="44.40904" lon="6.81917">
        <ele>1795.68</ele>
        <time>2021-08-11T10:38:57Z</time>
      </trkpt>
      <trkpt lat="44.40908" lon="6.81911">
        <ele>1795.88</ele>
        <time>2021-08-11T10:38:58Z</time>
      </trkpt>
      <trkpt lat="44.40914" lon="6.8191">
        <ele>1794.61</ele>
        <time>2021-08-11T10:38:59Z</time>
      </trkpt>
      <trkpt lat="44.4092" lon="6.81909">
        <ele>1793.71</ele>
        <time>2021-08-11T10:39:00Z</time>
      </trkpt>
      <trkpt lat="44.40925" lon="6.81909">
        <ele>1793.12</ele>
        <time>2021-08-11T10:39:01Z</time>
      </trkpt>
      <trkpt lat="44.40929" lon="6.81908">
        <ele>1792.78</ele>
        <time>2021-08-11T10:39:02Z</time>
      </trkpt>
      <trkpt lat="44.40934" lon="6.81904">
        <ele>1792.67</ele>
        <time>2021-08-11T10:39:03Z</time>
      </trkpt>
      <trkpt lat="44.40937" lon="6.81898">
        <ele>1793</ele>
        <time>2021-08-11T10:39:04Z</time>
      </trkpt>
      <trkpt lat="44.40941" lon="6.8189">
        <ele>1793.37</ele>
        <time>2021-08-11T10:39:05Z</time>
      </trkpt>
      <trkpt lat="44.40945" lon="6.81883">
        <ele>1794.18</ele>
        <time>2021-08-11T10:39:06Z</time>
      </trkpt>
      <trkpt lat="44.40949" lon="6.81876">
        <ele>1794.82</ele>
        <time>2021-08-11T10:39:07Z</time>
      </trkpt>
      <trkpt lat="44.40953" lon="6.81869">
        <ele>1795.18</ele>
        <time>2021-08-11T10:39:08Z</time>
      </trkpt>
      <trkpt lat="44.40958" lon="6.81862">
        <ele>1794.97</ele>
        <time>2021-08-11T10:39:09Z</time>
      </trkpt>
      <trkpt lat="44.40963" lon="6.81854">
        <ele>1793.91</ele>
        <time>2021-08-11T10:39:10Z</time>
      </trkpt>
      <trkpt lat="44.40968" lon="6.81847">
        <ele>1792.45</ele>
        <time>2021-08-11T10:39:11Z</time>
      </trkpt>
      <trkpt lat="44.40974" lon="6.81841">
        <ele>1790.44</ele>
        <time>2021-08-11T10:39:12Z</time>
      </trkpt>
      <trkpt lat="44.4098" lon="6.81836">
        <ele>1788.51</ele>
        <time>2021-08-11T10:39:13Z</time>
      </trkpt>
      <trkpt lat="44.40986" lon="6.81829">
        <ele>1786.54</ele>
        <time>2021-08-11T10:39:14Z</time>
      </trkpt>
      <trkpt lat="44.40991" lon="6.8182">
        <ele>1784.92</ele>
        <time>2021-08-11T10:39:15Z</time>
      </trkpt>
      <trkpt lat="44.40996" lon="6.8181">
        <ele>1783.3</ele>
        <time>2021-08-11T10:39:16Z</time>
      </trkpt>
      <trkpt lat="44.41" lon="6.818">
        <ele>1782.2</ele>
        <time>2021-08-11T10:39:17Z</time>
      </trkpt>
      <trkpt lat="44.41005" lon="6.81791">
        <ele>1782.34</ele>
        <time>2021-08-11T10:39:18Z</time>
      </trkpt>
      <trkpt lat="44.41009" lon="6.81782">
        <ele>1782.52</ele>
        <time>2021-08-11T10:39:19Z</time>
      </trkpt>
      <trkpt lat="44.41012" lon="6.81771">
        <ele>1782.95</ele>
        <time>2021-08-11T10:39:20Z</time>
      </trkpt>
      <trkpt lat="44.41016" lon="6.81761">
        <ele>1783.28</ele>
        <time>2021-08-11T10:39:21Z</time>
      </trkpt>
      <trkpt lat="44.4102" lon="6.81752">
        <ele>1783.47</ele>
        <time>2021-08-11T10:39:22Z</time>
      </trkpt>
      <trkpt lat="44.41024" lon="6.81743">
        <ele>1783.78</ele>
        <time>2021-08-11T10:39:23Z</time>
      </trkpt>
      <trkpt lat="44.41028" lon="6.81735">
        <ele>1784.06</ele>
        <time>2021-08-11T10:39:24Z</time>
      </trkpt>
      <trkpt lat="44.41032" lon="6.81727">
        <ele>1784.45</ele>
        <time>2021-08-11T10:39:25Z</time>
      </trkpt>
      <trkpt lat="44.41036" lon="6.81719">
        <ele>1785.09</ele>
        <time>2021-08-11T10:39:26Z</time>
      </trkpt>
      <trkpt lat="44.4104" lon="6.81711">
        <ele>1785.95</ele>
        <time>2021-08-11T10:39:27Z</time>
      </trkpt>
      <trkpt lat="44.41045" lon="6.81704">
        <ele>1786.75</ele>
        <time>2021-08-11T10:39:28Z</time>
      </trkpt>
      <trkpt lat="44.41049" lon="6.81697">
        <ele>1787.65</ele>
        <time>2021-08-11T10:39:29Z</time>
      </trkpt>
      <trkpt lat="44.41054" lon="6.81691">
        <ele>1788.63</ele>
        <time>2021-08-11T10:39:30Z</time>
      </trkpt>
      <trkpt lat="44.4106" lon="6.81686">
        <ele>1788.05</ele>
        <time>2021-08-11T10:39:31Z</time>
      </trkpt>
      <trkpt lat="44.41066" lon="6.81681">
        <ele>1786.68</ele>
        <time>2021-08-11T10:39:32Z</time>
      </trkpt>
      <trkpt lat="44.41072" lon="6.81676">
        <ele>1785.01</ele>
        <time>2021-08-11T10:39:33Z</time>
      </trkpt>
      <trkpt lat="44.41078" lon="6.8167">
        <ele>1783.09</ele>
        <time>2021-08-11T10:39:34Z</time>
      </trkpt>
      <trkpt lat="44.41083" lon="6.81664">
        <ele>1781.53</ele>
        <time>2021-08-11T10:39:35Z</time>
      </trkpt>
      <trkpt lat="44.41087" lon="6.81657">
        <ele>1780.94</ele>
        <time>2021-08-11T10:39:36Z</time>
      </trkpt>
      <trkpt lat="44.41091" lon="6.81649">
        <ele>1780.51</ele>
        <time>2021-08-11T10:39:37Z</time>
      </trkpt>
      <trkpt lat="44.41096" lon="6.8164">
        <ele>1779.82</ele>
        <time>2021-08-11T10:39:38Z</time>
      </trkpt>
      <trkpt lat="44.411" lon="6.8163">
        <ele>1779.1</ele>
        <time>2021-08-11T10:39:39Z</time>
      </trkpt>
      <trkpt lat="44.41104" lon="6.81619">
        <ele>1778.6</ele>
        <time>2021-08-11T10:39:40Z</time>
      </trkpt>
      <trkpt lat="44.41108" lon="6.81609">
        <ele>1778.24</ele>
        <time>2021-08-11T10:39:41Z</time>
      </trkpt>
      <trkpt lat="44.41111" lon="6.81599">
        <ele>1778.35</ele>
        <time>2021-08-11T10:39:42Z</time>
      </trkpt>
      <trkpt lat="44.41115" lon="6.81591">
        <ele>1778.64</ele>
        <time>2021-08-11T10:39:43Z</time>
      </trkpt>
      <trkpt lat="44.4112" lon="6.81583">
        <ele>1779.07</ele>
        <time>2021-08-11T10:39:44Z</time>
      </trkpt>
      <trkpt lat="44.41124" lon="6.81576">
        <ele>1779.16</ele>
        <time>2021-08-11T10:39:45Z</time>
      </trkpt>
      <trkpt lat="44.41128" lon="6.81567">
        <ele>1779.22</ele>
        <time>2021-08-11T10:39:46Z</time>
      </trkpt>
      <trkpt lat="44.41131" lon="6.81558">
        <ele>1779.28</ele>
        <time>2021-08-11T10:39:47Z</time>
      </trkpt>
      <trkpt lat="44.41133" lon="6.81548">
        <ele>1780.42</ele>
        <time>2021-08-11T10:39:48Z</time>
      </trkpt>
      <trkpt lat="44.41136" lon="6.81539">
        <ele>1781.5</ele>
        <time>2021-08-11T10:39:49Z</time>
      </trkpt>
      <trkpt lat="44.41139" lon="6.81529">
        <ele>1782.76</ele>
        <time>2021-08-11T10:39:50Z</time>
      </trkpt>
      <trkpt lat="44.41143" lon="6.81521">
        <ele>1783.05</ele>
        <time>2021-08-11T10:39:51Z</time>
      </trkpt>
      <trkpt lat="44.41148" lon="6.81515">
        <ele>1782.72</ele>
        <time>2021-08-11T10:39:52Z</time>
      </trkpt>
      <trkpt lat="44.41153" lon="6.81508">
        <ele>1782.44</ele>
        <time>2021-08-11T10:39:53Z</time>
      </trkpt>
      <trkpt lat="44.41158" lon="6.81501">
        <ele>1782.06</ele>
        <time>2021-08-11T10:39:54Z</time>
      </trkpt>
      <trkpt lat="44.41162" lon="6.81494">
        <ele>1782.69</ele>
        <time>2021-08-11T10:39:55Z</time>
      </trkpt>
      <trkpt lat="44.41167" lon="6.81487">
        <ele>1783.11</ele>
        <time>2021-08-11T10:39:56Z</time>
      </trkpt>
      <trkpt lat="44.41172" lon="6.81479">
        <ele>1782.65</ele>
        <time>2021-08-11T10:39:57Z</time>
      </trkpt>
      <trkpt lat="44.41177" lon="6.81471">
        <ele>1782.15</ele>
        <time>2021-08-11T10:39:58Z</time>
      </trkpt>
      <trkpt lat="44.41182" lon="6.81463">
        <ele>1781.68</ele>
        <time>2021-08-11T10:39:59Z</time>
      </trkpt>
      <trkpt lat="44.41188" lon="6.81456">
        <ele>1779.85</ele>
        <time>2021-08-11T10:40:00Z</time>
      </trkpt>
      <trkpt lat="44.41195" lon="6.81448">
        <ele>1777.06</ele>
        <time>2021-08-11T10:40:01Z</time>
      </trkpt>
      <trkpt lat="44.41201" lon="6.81441">
        <ele>1775.24</ele>
        <time>2021-08-11T10:40:02Z</time>
      </trkpt>
      <trkpt lat="44.41206" lon="6.81435">
        <ele>1773.72</ele>
        <time>2021-08-11T10:40:03Z</time>
      </trkpt>
      <trkpt lat="44.4121" lon="6.8143">
        <ele>1772.37</ele>
        <time>2021-08-11T10:40:04Z</time>
      </trkpt>
      <trkpt lat="44.41213" lon="6.81424">
        <ele>1771.66</ele>
        <time>2021-08-11T10:40:05Z</time>
      </trkpt>
      <trkpt lat="44.41216" lon="6.81418">
        <ele>1770.81</ele>
        <time>2021-08-11T10:40:06Z</time>
      </trkpt>
      <trkpt lat="44.41218" lon="6.81409">
        <ele>1771.07</ele>
        <time>2021-08-11T10:40:07Z</time>
      </trkpt>
      <trkpt lat="44.4122" lon="6.814">
        <ele>1771.39</ele>
        <time>2021-08-11T10:40:08Z</time>
      </trkpt>
      <trkpt lat="44.41223" lon="6.81392">
        <ele>1770.98</ele>
        <time>2021-08-11T10:40:09Z</time>
      </trkpt>
      <trkpt lat="44.41228" lon="6.81384">
        <ele>1768.93</ele>
        <time>2021-08-11T10:40:10Z</time>
      </trkpt>
      <trkpt lat="44.41233" lon="6.81376">
        <ele>1766.87</ele>
        <time>2021-08-11T10:40:11Z</time>
      </trkpt>
      <trkpt lat="44.41238" lon="6.81368">
        <ele>1765.13</ele>
        <time>2021-08-11T10:40:12Z</time>
      </trkpt>
      <trkpt lat="44.41244" lon="6.81359">
        <ele>1763.24</ele>
        <time>2021-08-11T10:40:13Z</time>
      </trkpt>
      <trkpt lat="44.41249" lon="6.81351">
        <ele>1761.58</ele>
        <time>2021-08-11T10:40:14Z</time>
      </trkpt>
      <trkpt lat="44.41254" lon="6.81342">
        <ele>1760.53</ele>
        <time>2021-08-11T10:40:15Z</time>
      </trkpt>
      <trkpt lat="44.41258" lon="6.81333">
        <ele>1760.14</ele>
        <time>2021-08-11T10:40:16Z</time>
      </trkpt>
      <trkpt lat="44.41262" lon="6.81323">
        <ele>1759.26</ele>
        <time>2021-08-11T10:40:17Z</time>
      </trkpt>
      <trkpt lat="44.41266" lon="6.81314">
        <ele>1758.23</ele>
        <time>2021-08-11T10:40:18Z</time>
      </trkpt>
      <trkpt lat="44.41269" lon="6.81305">
        <ele>1757.57</ele>
        <time>2021-08-11T10:40:19Z</time>
      </trkpt>
      <trkpt lat="44.41273" lon="6.81295">
        <ele>1757.91</ele>
        <time>2021-08-11T10:40:20Z</time>
      </trkpt>
      <trkpt lat="44.41275" lon="6.81285">
        <ele>1759.24</ele>
        <time>2021-08-11T10:40:21Z</time>
      </trkpt>
      <trkpt lat="44.41278" lon="6.81274">
        <ele>1760</ele>
        <time>2021-08-11T10:40:22Z</time>
      </trkpt>
      <trkpt lat="44.4128" lon="6.81263">
        <ele>1759.26</ele>
        <time>2021-08-11T10:40:23Z</time>
      </trkpt>
      <trkpt lat="44.41283" lon="6.81254">
        <ele>1757.98</ele>
        <time>2021-08-11T10:40:24Z</time>
      </trkpt>
      <trkpt lat="44.41286" lon="6.81245">
        <ele>1757.15</ele>
        <time>2021-08-11T10:40:25Z</time>
      </trkpt>
      <trkpt lat="44.41288" lon="6.81235">
        <ele>1757.3</ele>
        <time>2021-08-11T10:40:26Z</time>
      </trkpt>
      <trkpt lat="44.41291" lon="6.81225">
        <ele>1756.99</ele>
        <time>2021-08-11T10:40:27Z</time>
      </trkpt>
      <trkpt lat="44.41293" lon="6.81214">
        <ele>1758.49</ele>
        <time>2021-08-11T10:40:28Z</time>
      </trkpt>
      <trkpt lat="44.41296" lon="6.81203">
        <ele>1760.31</ele>
        <time>2021-08-11T10:40:29Z</time>
      </trkpt>
      <trkpt lat="44.413" lon="6.81194">
        <ele>1761.72</ele>
        <time>2021-08-11T10:40:30Z</time>
      </trkpt>
      <trkpt lat="44.41304" lon="6.81187">
        <ele>1762.56</ele>
        <time>2021-08-11T10:40:31Z</time>
      </trkpt>
      <trkpt lat="44.41307" lon="6.81181">
        <ele>1763.46</ele>
        <time>2021-08-11T10:40:32Z</time>
      </trkpt>
      <trkpt lat="44.41307" lon="6.81174">
        <ele>1765.45</ele>
        <time>2021-08-11T10:40:33Z</time>
      </trkpt>
      <trkpt lat="44.41306" lon="6.81166">
        <ele>1768.05</ele>
        <time>2021-08-11T10:40:34Z</time>
      </trkpt>
      <trkpt lat="44.41304" lon="6.81158">
        <ele>1770.83</ele>
        <time>2021-08-11T10:40:35Z</time>
      </trkpt>
      <trkpt lat="44.41302" lon="6.81149">
        <ele>1773.86</ele>
        <time>2021-08-11T10:40:36Z</time>
      </trkpt>
      <trkpt lat="44.41301" lon="6.81141">
        <ele>1776.38</ele>
        <time>2021-08-11T10:40:37Z</time>
      </trkpt>
      <trkpt lat="44.41299" lon="6.81133">
        <ele>1778.53</ele>
        <time>2021-08-11T10:40:38Z</time>
      </trkpt>
      <trkpt lat="44.41298" lon="6.81126">
        <ele>1780.08</ele>
        <time>2021-08-11T10:40:39Z</time>
      </trkpt>
      <trkpt lat="44.41298" lon="6.81118">
        <ele>1781.6</ele>
        <time>2021-08-11T10:40:40Z</time>
      </trkpt>
      <trkpt lat="44.41299" lon="6.81112">
        <ele>1782.48</ele>
        <time>2021-08-11T10:40:41Z</time>
      </trkpt>
      <trkpt lat="44.413" lon="6.81106">
        <ele>1783.17</ele>
        <time>2021-08-11T10:40:42Z</time>
      </trkpt>
      <trkpt lat="44.41304" lon="6.81102">
        <ele>1782.72</ele>
        <time>2021-08-11T10:40:43Z</time>
      </trkpt>
      <trkpt lat="44.41308" lon="6.811">
        <ele>1781.68</ele>
        <time>2021-08-11T10:40:44Z</time>
      </trkpt>
      <trkpt lat="44.41313" lon="6.81099">
        <ele>1780</ele>
        <time>2021-08-11T10:40:45Z</time>
      </trkpt>
      <trkpt lat="44.41318" lon="6.81098">
        <ele>1778.36</ele>
        <time>2021-08-11T10:40:46Z</time>
      </trkpt>
      <trkpt lat="44.41325" lon="6.81098">
        <ele>1775.81</ele>
        <time>2021-08-11T10:40:47Z</time>
      </trkpt>
      <trkpt lat="44.4133" lon="6.81096">
        <ele>1774.53</ele>
        <time>2021-08-11T10:40:48Z</time>
      </trkpt>
      <trkpt lat="44.41334" lon="6.81092">
        <ele>1774.25</ele>
        <time>2021-08-11T10:40:49Z</time>
      </trkpt>
      <trkpt lat="44.41337" lon="6.81086">
        <ele>1774.89</ele>
        <time>2021-08-11T10:40:50Z</time>
      </trkpt>
      <trkpt lat="44.41339" lon="6.81078">
        <ele>1777.5</ele>
        <time>2021-08-11T10:40:51Z</time>
      </trkpt>
      <trkpt lat="44.4134" lon="6.81071">
        <ele>1780.48</ele>
        <time>2021-08-11T10:40:52Z</time>
      </trkpt>
      <trkpt lat="44.41341" lon="6.81064">
        <ele>1783.48</ele>
        <time>2021-08-11T10:40:53Z</time>
      </trkpt>
      <trkpt lat="44.41344" lon="6.81059">
        <ele>1784.88</ele>
        <time>2021-08-11T10:40:54Z</time>
      </trkpt>
      <trkpt lat="44.41348" lon="6.81057">
        <ele>1784.54</ele>
        <time>2021-08-11T10:40:55Z</time>
      </trkpt>
      <trkpt lat="44.41354" lon="6.81057">
        <ele>1782.59</ele>
        <time>2021-08-11T10:40:56Z</time>
      </trkpt>
      <trkpt lat="44.41362" lon="6.81056">
        <ele>1780.27</ele>
        <time>2021-08-11T10:40:57Z</time>
      </trkpt>
      <trkpt lat="44.41371" lon="6.81056">
        <ele>1775.1</ele>
        <time>2021-08-11T10:40:58Z</time>
      </trkpt>
      <trkpt lat="44.41379" lon="6.81055">
        <ele>1770.93</ele>
        <time>2021-08-11T10:40:59Z</time>
      </trkpt>
      <trkpt lat="44.41386" lon="6.81052">
        <ele>1768.1</ele>
        <time>2021-08-11T10:41:00Z</time>
      </trkpt>
      <trkpt lat="44.41393" lon="6.81047">
        <ele>1764.61</ele>
        <time>2021-08-11T10:41:01Z</time>
      </trkpt>
      <trkpt lat="44.41399" lon="6.81041">
        <ele>1761.07</ele>
        <time>2021-08-11T10:41:02Z</time>
      </trkpt>
      <trkpt lat="44.41405" lon="6.81035">
        <ele>1757.07</ele>
        <time>2021-08-11T10:41:03Z</time>
      </trkpt>
      <trkpt lat="44.4141" lon="6.81028">
        <ele>1753.9</ele>
        <time>2021-08-11T10:41:04Z</time>
      </trkpt>
      <trkpt lat="44.41414" lon="6.81022">
        <ele>1754.48</ele>
        <time>2021-08-11T10:41:05Z</time>
      </trkpt>
      <trkpt lat="44.41418" lon="6.81015">
        <ele>1757.17</ele>
        <time>2021-08-11T10:41:06Z</time>
      </trkpt>
      <trkpt lat="44.41422" lon="6.81009">
        <ele>1759.44</ele>
        <time>2021-08-11T10:41:07Z</time>
      </trkpt>
      <trkpt lat="44.41427" lon="6.81003">
        <ele>1760.51</ele>
        <time>2021-08-11T10:41:08Z</time>
      </trkpt>
      <trkpt lat="44.41431" lon="6.80996">
        <ele>1762.13</ele>
        <time>2021-08-11T10:41:09Z</time>
      </trkpt>
      <trkpt lat="44.41435" lon="6.80989">
        <ele>1764.1</ele>
        <time>2021-08-11T10:41:10Z</time>
      </trkpt>
      <trkpt lat="44.41439" lon="6.80983">
        <ele>1766.32</ele>
        <time>2021-08-11T10:41:11Z</time>
      </trkpt>
      <trkpt lat="44.41443" lon="6.80976">
        <ele>1770.25</ele>
        <time>2021-08-11T10:41:12Z</time>
      </trkpt>
      <trkpt lat="44.41447" lon="6.80969">
        <ele>1769.34</ele>
        <time>2021-08-11T10:41:13Z</time>
      </trkpt>
      <trkpt lat="44.41452" lon="6.80963">
        <ele>1763.29</ele>
        <time>2021-08-11T10:41:14Z</time>
      </trkpt>
      <trkpt lat="44.41455" lon="6.80956">
        <ele>1761.26</ele>
        <time>2021-08-11T10:41:15Z</time>
      </trkpt>
      <trkpt lat="44.41459" lon="6.80949">
        <ele>1759.32</ele>
        <time>2021-08-11T10:41:16Z</time>
      </trkpt>
      <trkpt lat="44.41463" lon="6.80942">
        <ele>1758.69</ele>
        <time>2021-08-11T10:41:17Z</time>
      </trkpt>
      <trkpt lat="44.41467" lon="6.80935">
        <ele>1759.15</ele>
        <time>2021-08-11T10:41:18Z</time>
      </trkpt>
      <trkpt lat="44.41471" lon="6.80928">
        <ele>1760.69</ele>
        <time>2021-08-11T10:41:19Z</time>
      </trkpt>
      <trkpt lat="44.41475" lon="6.80922">
        <ele>1761.64</ele>
        <time>2021-08-11T10:41:20Z</time>
      </trkpt>
      <trkpt lat="44.41479" lon="6.80916">
        <ele>1762.26</ele>
        <time>2021-08-11T10:41:21Z</time>
      </trkpt>
      <trkpt lat="44.41483" lon="6.8091">
        <ele>1760.94</ele>
        <time>2021-08-11T10:41:22Z</time>
      </trkpt>
      <trkpt lat="44.41488" lon="6.80905">
        <ele>1759.23</ele>
        <time>2021-08-11T10:41:23Z</time>
      </trkpt>
      <trkpt lat="44.41492" lon="6.80899">
        <ele>1758.93</ele>
        <time>2021-08-11T10:41:24Z</time>
      </trkpt>
      <trkpt lat="44.41496" lon="6.80892">
        <ele>1759.51</ele>
        <time>2021-08-11T10:41:25Z</time>
      </trkpt>
      <trkpt lat="44.415" lon="6.80886">
        <ele>1759.73</ele>
        <time>2021-08-11T10:41:26Z</time>
      </trkpt>
      <trkpt lat="44.41504" lon="6.8088">
        <ele>1759.8</ele>
        <time>2021-08-11T10:41:27Z</time>
      </trkpt>
      <trkpt lat="44.41507" lon="6.80873">
        <ele>1760.48</ele>
        <time>2021-08-11T10:41:28Z</time>
      </trkpt>
      <trkpt lat="44.41511" lon="6.80867">
        <ele>1760.56</ele>
        <time>2021-08-11T10:41:29Z</time>
      </trkpt>
      <trkpt lat="44.41516" lon="6.80861">
        <ele>1760.25</ele>
        <time>2021-08-11T10:41:30Z</time>
      </trkpt>
      <trkpt lat="44.4152" lon="6.80855">
        <ele>1759.14</ele>
        <time>2021-08-11T10:41:31Z</time>
      </trkpt>
      <trkpt lat="44.41525" lon="6.80851">
        <ele>1757.44</ele>
        <time>2021-08-11T10:41:32Z</time>
      </trkpt>
      <trkpt lat="44.41529" lon="6.80847">
        <ele>1756.03</ele>
        <time>2021-08-11T10:41:33Z</time>
      </trkpt>
      <trkpt lat="44.41532" lon="6.80843">
        <ele>1755.07</ele>
        <time>2021-08-11T10:41:34Z</time>
      </trkpt>
      <trkpt lat="44.41536" lon="6.80836">
        <ele>1754.13</ele>
        <time>2021-08-11T10:41:35Z</time>
      </trkpt>
      <trkpt lat="44.41538" lon="6.80828">
        <ele>1753.88</ele>
        <time>2021-08-11T10:41:36Z</time>
      </trkpt>
      <trkpt lat="44.4154" lon="6.8082">
        <ele>1753.52</ele>
        <time>2021-08-11T10:41:37Z</time>
      </trkpt>
      <trkpt lat="44.41542" lon="6.80813">
        <ele>1753.12</ele>
        <time>2021-08-11T10:41:38Z</time>
      </trkpt>
      <trkpt lat="44.41544" lon="6.80806">
        <ele>1752.73</ele>
        <time>2021-08-11T10:41:39Z</time>
      </trkpt>
      <trkpt lat="44.41546" lon="6.80798">
        <ele>1752.48</ele>
        <time>2021-08-11T10:41:40Z</time>
      </trkpt>
      <trkpt lat="44.41548" lon="6.80791">
        <ele>1751.92</ele>
        <time>2021-08-11T10:41:41Z</time>
      </trkpt>
      <trkpt lat="44.4155" lon="6.80784">
        <ele>1751.11</ele>
        <time>2021-08-11T10:41:42Z</time>
      </trkpt>
      <trkpt lat="44.41553" lon="6.80777">
        <ele>1749.59</ele>
        <time>2021-08-11T10:41:43Z</time>
      </trkpt>
      <trkpt lat="44.41556" lon="6.8077">
        <ele>1749.07</ele>
        <time>2021-08-11T10:41:44Z</time>
      </trkpt>
      <trkpt lat="44.41558" lon="6.80762">
        <ele>1749.9</ele>
        <time>2021-08-11T10:41:45Z</time>
      </trkpt>
      <trkpt lat="44.41561" lon="6.80754">
        <ele>1750.36</ele>
        <time>2021-08-11T10:41:46Z</time>
      </trkpt>
      <trkpt lat="44.41564" lon="6.80746">
        <ele>1750.92</ele>
        <time>2021-08-11T10:41:47Z</time>
      </trkpt>
      <trkpt lat="44.41568" lon="6.80738">
        <ele>1751.17</ele>
        <time>2021-08-11T10:41:48Z</time>
      </trkpt>
      <trkpt lat="44.41572" lon="6.8073">
        <ele>1750.93</ele>
        <time>2021-08-11T10:41:49Z</time>
      </trkpt>
      <trkpt lat="44.41576" lon="6.80724">
        <ele>1750</ele>
        <time>2021-08-11T10:41:50Z</time>
      </trkpt>
      <trkpt lat="44.41581" lon="6.80718">
        <ele>1748.95</ele>
        <time>2021-08-11T10:41:51Z</time>
      </trkpt>
      <trkpt lat="44.41587" lon="6.80713">
        <ele>1748.11</ele>
        <time>2021-08-11T10:41:52Z</time>
      </trkpt>
      <trkpt lat="44.41592" lon="6.80709">
        <ele>1747.55</ele>
        <time>2021-08-11T10:41:53Z</time>
      </trkpt>
      <trkpt lat="44.41598" lon="6.80705">
        <ele>1746.44</ele>
        <time>2021-08-11T10:41:54Z</time>
      </trkpt>
      <trkpt lat="44.41603" lon="6.807">
        <ele>1745.43</ele>
        <time>2021-08-11T10:41:55Z</time>
      </trkpt>
      <trkpt lat="44.41609" lon="6.80697">
        <ele>1743.63</ele>
        <time>2021-08-11T10:41:56Z</time>
      </trkpt>
      <trkpt lat="44.41614" lon="6.80694">
        <ele>1743.09</ele>
        <time>2021-08-11T10:41:57Z</time>
      </trkpt>
      <trkpt lat="44.4162" lon="6.8069">
        <ele>1743.91</ele>
        <time>2021-08-11T10:41:58Z</time>
      </trkpt>
      <trkpt lat="44.41625" lon="6.80687">
        <ele>1744.47</ele>
        <time>2021-08-11T10:41:59Z</time>
      </trkpt>
      <trkpt lat="44.41631" lon="6.80684">
        <ele>1744.99</ele>
        <time>2021-08-11T10:42:00Z</time>
      </trkpt>
      <trkpt lat="44.41636" lon="6.8068">
        <ele>1745.65</ele>
        <time>2021-08-11T10:42:01Z</time>
      </trkpt>
      <trkpt lat="44.41641" lon="6.80675">
        <ele>1746.47</ele>
        <time>2021-08-11T10:42:02Z</time>
      </trkpt>
      <trkpt lat="44.41646" lon="6.8067">
        <ele>1747.21</ele>
        <time>2021-08-11T10:42:03Z</time>
      </trkpt>
      <trkpt lat="44.4165" lon="6.80665">
        <ele>1747.88</ele>
        <time>2021-08-11T10:42:04Z</time>
      </trkpt>
      <trkpt lat="44.41653" lon="6.8066">
        <ele>1748.44</ele>
        <time>2021-08-11T10:42:05Z</time>
      </trkpt>
      <trkpt lat="44.41656" lon="6.80655">
        <ele>1748.77</ele>
        <time>2021-08-11T10:42:06Z</time>
      </trkpt>
      <trkpt lat="44.41658" lon="6.8065">
        <ele>1749.04</ele>
        <time>2021-08-11T10:42:07Z</time>
      </trkpt>
      <trkpt lat="44.41659" lon="6.80646">
        <ele>1749.25</ele>
        <time>2021-08-11T10:42:08Z</time>
      </trkpt>
      <trkpt lat="44.4166" lon="6.80641">
        <ele>1749.49</ele>
        <time>2021-08-11T10:42:09Z</time>
      </trkpt>
      <trkpt lat="44.41661" lon="6.80635">
        <ele>1749.99</ele>
        <time>2021-08-11T10:42:10Z</time>
      </trkpt>
      <trkpt lat="44.41663" lon="6.80627">
        <ele>1750.49</ele>
        <time>2021-08-11T10:42:11Z</time>
      </trkpt>
      <trkpt lat="44.41664" lon="6.80619">
        <ele>1751.16</ele>
        <time>2021-08-11T10:42:12Z</time>
      </trkpt>
      <trkpt lat="44.41666" lon="6.8061">
        <ele>1751.49</ele>
        <time>2021-08-11T10:42:13Z</time>
      </trkpt>
      <trkpt lat="44.41669" lon="6.806">
        <ele>1751.91</ele>
        <time>2021-08-11T10:42:14Z</time>
      </trkpt>
      <trkpt lat="44.41671" lon="6.80591">
        <ele>1752.34</ele>
        <time>2021-08-11T10:42:15Z</time>
      </trkpt>
      <trkpt lat="44.41674" lon="6.80582">
        <ele>1751.87</ele>
        <time>2021-08-11T10:42:16Z</time>
      </trkpt>
      <trkpt lat="44.41676" lon="6.80571">
        <ele>1751.51</ele>
        <time>2021-08-11T10:42:17Z</time>
      </trkpt>
      <trkpt lat="44.41678" lon="6.80561">
        <ele>1751.08</ele>
        <time>2021-08-11T10:42:18Z</time>
      </trkpt>
      <trkpt lat="44.4168" lon="6.8055">
        <ele>1750.31</ele>
        <time>2021-08-11T10:42:19Z</time>
      </trkpt>
      <trkpt lat="44.41683" lon="6.8054">
        <ele>1748.69</ele>
        <time>2021-08-11T10:42:20Z</time>
      </trkpt>
      <trkpt lat="44.41686" lon="6.8053">
        <ele>1747.22</ele>
        <time>2021-08-11T10:42:21Z</time>
      </trkpt>
      <trkpt lat="44.41689" lon="6.8052">
        <ele>1745.29</ele>
        <time>2021-08-11T10:42:22Z</time>
      </trkpt>
      <trkpt lat="44.41691" lon="6.8051">
        <ele>1743.61</ele>
        <time>2021-08-11T10:42:23Z</time>
      </trkpt>
      <trkpt lat="44.41693" lon="6.80501">
        <ele>1741.9</ele>
        <time>2021-08-11T10:42:24Z</time>
      </trkpt>
      <trkpt lat="44.41694" lon="6.80491">
        <ele>1742.55</ele>
        <time>2021-08-11T10:42:25Z</time>
      </trkpt>
      <trkpt lat="44.41695" lon="6.80482">
        <ele>1743.36</ele>
        <time>2021-08-11T10:42:26Z</time>
      </trkpt>
      <trkpt lat="44.41697" lon="6.80473">
        <ele>1743.79</ele>
        <time>2021-08-11T10:42:27Z</time>
      </trkpt>
      <trkpt lat="44.41698" lon="6.80465">
        <ele>1744.54</ele>
        <time>2021-08-11T10:42:28Z</time>
      </trkpt>
      <trkpt lat="44.41698" lon="6.80456">
        <ele>1745.87</ele>
        <time>2021-08-11T10:42:29Z</time>
      </trkpt>
      <trkpt lat="44.41699" lon="6.80447">
        <ele>1746.81</ele>
        <time>2021-08-11T10:42:30Z</time>
      </trkpt>
      <trkpt lat="44.41699" lon="6.80439">
        <ele>1747.88</ele>
        <time>2021-08-11T10:42:31Z</time>
      </trkpt>
      <trkpt lat="44.41699" lon="6.80429">
        <ele>1749.14</ele>
        <time>2021-08-11T10:42:32Z</time>
      </trkpt>
      <trkpt lat="44.41699" lon="6.8042">
        <ele>1750.27</ele>
        <time>2021-08-11T10:42:33Z</time>
      </trkpt>
      <trkpt lat="44.41699" lon="6.80411">
        <ele>1750.45</ele>
        <time>2021-08-11T10:42:34Z</time>
      </trkpt>
      <trkpt lat="44.41698" lon="6.80402">
        <ele>1750.38</ele>
        <time>2021-08-11T10:42:35Z</time>
      </trkpt>
      <trkpt lat="44.41698" lon="6.80392">
        <ele>1749.97</ele>
        <time>2021-08-11T10:42:36Z</time>
      </trkpt>
      <trkpt lat="44.41699" lon="6.80382">
        <ele>1749.73</ele>
        <time>2021-08-11T10:42:37Z</time>
      </trkpt>
      <trkpt lat="44.417" lon="6.80372">
        <ele>1749.69</ele>
        <time>2021-08-11T10:42:38Z</time>
      </trkpt>
      <trkpt lat="44.41701" lon="6.80363">
        <ele>1749.59</ele>
        <time>2021-08-11T10:42:39Z</time>
      </trkpt>
      <trkpt lat="44.41702" lon="6.80354">
        <ele>1750.47</ele>
        <time>2021-08-11T10:42:40Z</time>
      </trkpt>
      <trkpt lat="44.41703" lon="6.80345">
        <ele>1751.51</ele>
        <time>2021-08-11T10:42:41Z</time>
      </trkpt>
      <trkpt lat="44.41704" lon="6.80336">
        <ele>1752.43</ele>
        <time>2021-08-11T10:42:42Z</time>
      </trkpt>
      <trkpt lat="44.41706" lon="6.80327">
        <ele>1752.12</ele>
        <time>2021-08-11T10:42:43Z</time>
      </trkpt>
      <trkpt lat="44.41708" lon="6.80318">
        <ele>1751.51</ele>
        <time>2021-08-11T10:42:44Z</time>
      </trkpt>
      <trkpt lat="44.41711" lon="6.80308">
        <ele>1750.34</ele>
        <time>2021-08-11T10:42:45Z</time>
      </trkpt>
      <trkpt lat="44.41715" lon="6.803">
        <ele>1749.06</ele>
        <time>2021-08-11T10:42:46Z</time>
      </trkpt>
      <trkpt lat="44.41719" lon="6.80293">
        <ele>1747.77</ele>
        <time>2021-08-11T10:42:47Z</time>
      </trkpt>
      <trkpt lat="44.41722" lon="6.80286">
        <ele>1746.96</ele>
        <time>2021-08-11T10:42:48Z</time>
      </trkpt>
      <trkpt lat="44.41724" lon="6.80279">
        <ele>1747.13</ele>
        <time>2021-08-11T10:42:49Z</time>
      </trkpt>
      <trkpt lat="44.41724" lon="6.80272">
        <ele>1747.46</ele>
        <time>2021-08-11T10:42:50Z</time>
      </trkpt>
      <trkpt lat="44.41725" lon="6.80264">
        <ele>1747.25</ele>
        <time>2021-08-11T10:42:51Z</time>
      </trkpt>
      <trkpt lat="44.41726" lon="6.80256">
        <ele>1746.97</ele>
        <time>2021-08-11T10:42:52Z</time>
      </trkpt>
      <trkpt lat="44.41727" lon="6.80249">
        <ele>1746.59</ele>
        <time>2021-08-11T10:42:53Z</time>
      </trkpt>
      <trkpt lat="44.41729" lon="6.80243">
        <ele>1745.58</ele>
        <time>2021-08-11T10:42:54Z</time>
      </trkpt>
      <trkpt lat="44.4173" lon="6.80238">
        <ele>1745.08</ele>
        <time>2021-08-11T10:42:55Z</time>
      </trkpt>
      <trkpt lat="44.41731" lon="6.80233">
        <ele>1744.58</ele>
        <time>2021-08-11T10:42:56Z</time>
      </trkpt>
      <trkpt lat="44.41731" lon="6.80228">
        <ele>1744.58</ele>
        <time>2021-08-11T10:42:57Z</time>
      </trkpt>
      <trkpt lat="44.41731" lon="6.80223">
        <ele>1744.58</ele>
        <time>2021-08-11T10:42:58Z</time>
      </trkpt>
      <trkpt lat="44.41732" lon="6.80216">
        <ele>1744.15</ele>
        <time>2021-08-11T10:42:59Z</time>
      </trkpt>
      <trkpt lat="44.41732" lon="6.80209">
        <ele>1744.24</ele>
        <time>2021-08-11T10:43:00Z</time>
      </trkpt>
      <trkpt lat="44.41732" lon="6.80202">
        <ele>1744.33</ele>
        <time>2021-08-11T10:43:01Z</time>
      </trkpt>
      <trkpt lat="44.41731" lon="6.80194">
        <ele>1744.98</ele>
        <time>2021-08-11T10:43:02Z</time>
      </trkpt>
      <trkpt lat="44.4173" lon="6.80186">
        <ele>1747.01</ele>
        <time>2021-08-11T10:43:03Z</time>
      </trkpt>
      <trkpt lat="44.41729" lon="6.80178">
        <ele>1749.09</ele>
        <time>2021-08-11T10:43:04Z</time>
      </trkpt>
      <trkpt lat="44.41728" lon="6.8017">
        <ele>1751.21</ele>
        <time>2021-08-11T10:43:05Z</time>
      </trkpt>
      <trkpt lat="44.41726" lon="6.80163">
        <ele>1752.98</ele>
        <time>2021-08-11T10:43:06Z</time>
      </trkpt>
      <trkpt lat="44.41724" lon="6.80157">
        <ele>1754.06</ele>
        <time>2021-08-11T10:43:07Z</time>
      </trkpt>
      <trkpt lat="44.41722" lon="6.80153">
        <ele>1755.1</ele>
        <time>2021-08-11T10:43:08Z</time>
      </trkpt>
      <trkpt lat="44.4172" lon="6.80147">
        <ele>1755.97</ele>
        <time>2021-08-11T10:43:09Z</time>
      </trkpt>
      <trkpt lat="44.41718" lon="6.80141">
        <ele>1756.72</ele>
        <time>2021-08-11T10:43:10Z</time>
      </trkpt>
      <trkpt lat="44.41716" lon="6.80133">
        <ele>1756.85</ele>
        <time>2021-08-11T10:43:11Z</time>
      </trkpt>
      <trkpt lat="44.41713" lon="6.80127">
        <ele>1757.65</ele>
        <time>2021-08-11T10:43:12Z</time>
      </trkpt>
      <trkpt lat="44.41711" lon="6.80121">
        <ele>1758.17</ele>
        <time>2021-08-11T10:43:13Z</time>
      </trkpt>
      <trkpt lat="44.41709" lon="6.80115">
        <ele>1758.84</ele>
        <time>2021-08-11T10:43:14Z</time>
      </trkpt>
      <trkpt lat="44.41706" lon="6.80107">
        <ele>1759.38</ele>
        <time>2021-08-11T10:43:16Z</time>
      </trkpt>
      <trkpt lat="44.417" lon="6.80099">
        <ele>1760.4</ele>
        <time>2021-08-11T10:43:17Z</time>
      </trkpt>
      <trkpt lat="44.41696" lon="6.80095">
        <ele>1761.08</ele>
        <time>2021-08-11T10:43:18Z</time>
      </trkpt>
      <trkpt lat="44.41694" lon="6.8009">
        <ele>1760.46</ele>
        <time>2021-08-11T10:43:19Z</time>
      </trkpt>
      <trkpt lat="44.41693" lon="6.80083">
        <ele>1759.01</ele>
        <time>2021-08-11T10:43:20Z</time>
      </trkpt>
      <trkpt lat="44.41694" lon="6.80076">
        <ele>1757.54</ele>
        <time>2021-08-11T10:43:21Z</time>
      </trkpt>
      <trkpt lat="44.41697" lon="6.80068">
        <ele>1755.63</ele>
        <time>2021-08-11T10:43:22Z</time>
      </trkpt>
      <trkpt lat="44.41701" lon="6.80062">
        <ele>1754.06</ele>
        <time>2021-08-11T10:43:23Z</time>
      </trkpt>
      <trkpt lat="44.41706" lon="6.80056">
        <ele>1752.53</ele>
        <time>2021-08-11T10:43:24Z</time>
      </trkpt>
      <trkpt lat="44.41711" lon="6.8005">
        <ele>1751.27</ele>
        <time>2021-08-11T10:43:25Z</time>
      </trkpt>
      <trkpt lat="44.41714" lon="6.80043">
        <ele>1750.27</ele>
        <time>2021-08-11T10:43:26Z</time>
      </trkpt>
      <trkpt lat="44.41717" lon="6.80036">
        <ele>1749.12</ele>
        <time>2021-08-11T10:43:27Z</time>
      </trkpt>
      <trkpt lat="44.4172" lon="6.80029">
        <ele>1747.8</ele>
        <time>2021-08-11T10:43:28Z</time>
      </trkpt>
      <trkpt lat="44.41722" lon="6.80022">
        <ele>1746.87</ele>
        <time>2021-08-11T10:43:29Z</time>
      </trkpt>
      <trkpt lat="44.41725" lon="6.80015">
        <ele>1746.29</ele>
        <time>2021-08-11T10:43:30Z</time>
      </trkpt>
      <trkpt lat="44.41727" lon="6.80008">
        <ele>1745.89</ele>
        <time>2021-08-11T10:43:31Z</time>
      </trkpt>
      <trkpt lat="44.41729" lon="6.8">
        <ele>1745.51</ele>
        <time>2021-08-11T10:43:32Z</time>
      </trkpt>
      <trkpt lat="44.4173" lon="6.79992">
        <ele>1745.15</ele>
        <time>2021-08-11T10:43:33Z</time>
      </trkpt>
      <trkpt lat="44.41731" lon="6.79984">
        <ele>1744.79</ele>
        <time>2021-08-11T10:43:34Z</time>
      </trkpt>
      <trkpt lat="44.41731" lon="6.79976">
        <ele>1744.5</ele>
        <time>2021-08-11T10:43:35Z</time>
      </trkpt>
      <trkpt lat="44.41731" lon="6.79969">
        <ele>1744.29</ele>
        <time>2021-08-11T10:43:36Z</time>
      </trkpt>
      <trkpt lat="44.41732" lon="6.79961">
        <ele>1744.01</ele>
        <time>2021-08-11T10:43:37Z</time>
      </trkpt>
      <trkpt lat="44.41732" lon="6.79954">
        <ele>1743.83</ele>
        <time>2021-08-11T10:43:38Z</time>
      </trkpt>
      <trkpt lat="44.41732" lon="6.79948">
        <ele>1743.68</ele>
        <time>2021-08-11T10:43:39Z</time>
      </trkpt>
      <trkpt lat="44.41732" lon="6.79942">
        <ele>1743.41</ele>
        <time>2021-08-11T10:43:40Z</time>
      </trkpt>
      <trkpt lat="44.41731" lon="6.79935">
        <ele>1743.07</ele>
        <time>2021-08-11T10:43:41Z</time>
      </trkpt>
      <trkpt lat="44.4173" lon="6.79928">
        <ele>1742.79</ele>
        <time>2021-08-11T10:43:42Z</time>
      </trkpt>
      <trkpt lat="44.41728" lon="6.79921">
        <ele>1742.8</ele>
        <time>2021-08-11T10:43:43Z</time>
      </trkpt>
      <trkpt lat="44.41726" lon="6.79915">
        <ele>1742.96</ele>
        <time>2021-08-11T10:43:44Z</time>
      </trkpt>
      <trkpt lat="44.41723" lon="6.79908">
        <ele>1743.46</ele>
        <time>2021-08-11T10:43:45Z</time>
      </trkpt>
      <trkpt lat="44.41721" lon="6.79902">
        <ele>1744.09</ele>
        <time>2021-08-11T10:43:46Z</time>
      </trkpt>
      <trkpt lat="44.41718" lon="6.79896">
        <ele>1745.46</ele>
        <time>2021-08-11T10:43:47Z</time>
      </trkpt>
      <trkpt lat="44.41715" lon="6.79889">
        <ele>1746.9</ele>
        <time>2021-08-11T10:43:48Z</time>
      </trkpt>
      <trkpt lat="44.41711" lon="6.79883">
        <ele>1748.76</ele>
        <time>2021-08-11T10:43:49Z</time>
      </trkpt>
      <trkpt lat="44.41707" lon="6.79877">
        <ele>1750.56</ele>
        <time>2021-08-11T10:43:50Z</time>
      </trkpt>
      <trkpt lat="44.41703" lon="6.79871">
        <ele>1752.29</ele>
        <time>2021-08-11T10:43:51Z</time>
      </trkpt>
      <trkpt lat="44.41699" lon="6.79865">
        <ele>1753.96</ele>
        <time>2021-08-11T10:43:52Z</time>
      </trkpt>
      <trkpt lat="44.41695" lon="6.79858">
        <ele>1755.5</ele>
        <time>2021-08-11T10:43:53Z</time>
      </trkpt>
      <trkpt lat="44.41692" lon="6.79851">
        <ele>1756.5</ele>
        <time>2021-08-11T10:43:54Z</time>
      </trkpt>
      <trkpt lat="44.41691" lon="6.79841">
        <ele>1756.29</ele>
        <time>2021-08-11T10:43:55Z</time>
      </trkpt>
      <trkpt lat="44.41692" lon="6.79831">
        <ele>1754.97</ele>
        <time>2021-08-11T10:43:56Z</time>
      </trkpt>
      <trkpt lat="44.41693" lon="6.79822">
        <ele>1753.46</ele>
        <time>2021-08-11T10:43:57Z</time>
      </trkpt>
      <trkpt lat="44.41694" lon="6.79812">
        <ele>1751.9</ele>
        <time>2021-08-11T10:43:58Z</time>
      </trkpt>
      <trkpt lat="44.41695" lon="6.79803">
        <ele>1750.48</ele>
        <time>2021-08-11T10:43:59Z</time>
      </trkpt>
      <trkpt lat="44.41695" lon="6.79793">
        <ele>1749.08</ele>
        <time>2021-08-11T10:44:00Z</time>
      </trkpt>
      <trkpt lat="44.41697" lon="6.79783">
        <ele>1747.39</ele>
        <time>2021-08-11T10:44:01Z</time>
      </trkpt>
      <trkpt lat="44.41698" lon="6.79774">
        <ele>1746.77</ele>
        <time>2021-08-11T10:44:02Z</time>
      </trkpt>
      <trkpt lat="44.41699" lon="6.79765">
        <ele>1747.04</ele>
        <time>2021-08-11T10:44:03Z</time>
      </trkpt>
      <trkpt lat="44.417" lon="6.79755">
        <ele>1747.38</ele>
        <time>2021-08-11T10:44:04Z</time>
      </trkpt>
      <trkpt lat="44.417" lon="6.79747">
        <ele>1747.88</ele>
        <time>2021-08-11T10:44:05Z</time>
      </trkpt>
      <trkpt lat="44.41701" lon="6.79738">
        <ele>1748.62</ele>
        <time>2021-08-11T10:44:06Z</time>
      </trkpt>
      <trkpt lat="44.41702" lon="6.7973">
        <ele>1749.22</ele>
        <time>2021-08-11T10:44:07Z</time>
      </trkpt>
      <trkpt lat="44.41703" lon="6.79723">
        <ele>1749.7</ele>
        <time>2021-08-11T10:44:08Z</time>
      </trkpt>
      <trkpt lat="44.41703" lon="6.79716">
        <ele>1749.92</ele>
        <time>2021-08-11T10:44:09Z</time>
      </trkpt>
      <trkpt lat="44.41704" lon="6.79708">
        <ele>1749.96</ele>
        <time>2021-08-11T10:44:10Z</time>
      </trkpt>
      <trkpt lat="44.41705" lon="6.797">
        <ele>1749.98</ele>
        <time>2021-08-11T10:44:11Z</time>
      </trkpt>
      <trkpt lat="44.41705" lon="6.79691">
        <ele>1750.18</ele>
        <time>2021-08-11T10:44:12Z</time>
      </trkpt>
      <trkpt lat="44.41706" lon="6.79683">
        <ele>1750.16</ele>
        <time>2021-08-11T10:44:13Z</time>
      </trkpt>
      <trkpt lat="44.41708" lon="6.79675">
        <ele>1749.92</ele>
        <time>2021-08-11T10:44:14Z</time>
      </trkpt>
      <trkpt lat="44.4171" lon="6.79667">
        <ele>1749.63</ele>
        <time>2021-08-11T10:44:15Z</time>
      </trkpt>
      <trkpt lat="44.41713" lon="6.79659">
        <ele>1749.36</ele>
        <time>2021-08-11T10:44:16Z</time>
      </trkpt>
      <trkpt lat="44.41716" lon="6.79651">
        <ele>1748.85</ele>
        <time>2021-08-11T10:44:17Z</time>
      </trkpt>
      <trkpt lat="44.4172" lon="6.79645">
        <ele>1747.73</ele>
        <time>2021-08-11T10:44:18Z</time>
      </trkpt>
      <trkpt lat="44.41723" lon="6.79639">
        <ele>1746.61</ele>
        <time>2021-08-11T10:44:19Z</time>
      </trkpt>
      <trkpt lat="44.41725" lon="6.79633">
        <ele>1745.41</ele>
        <time>2021-08-11T10:44:20Z</time>
      </trkpt>
      <trkpt lat="44.41727" lon="6.79627">
        <ele>1744.24</ele>
        <time>2021-08-11T10:44:21Z</time>
      </trkpt>
      <trkpt lat="44.41728" lon="6.79622">
        <ele>1743.61</ele>
        <time>2021-08-11T10:44:22Z</time>
      </trkpt>
      <trkpt lat="44.4173" lon="6.79616">
        <ele>1742.49</ele>
        <time>2021-08-11T10:44:23Z</time>
      </trkpt>
      <trkpt lat="44.41731" lon="6.7961">
        <ele>1742.2</ele>
        <time>2021-08-11T10:44:24Z</time>
      </trkpt>
      <trkpt lat="44.41733" lon="6.79604">
        <ele>1742.86</ele>
        <time>2021-08-11T10:44:25Z</time>
      </trkpt>
      <trkpt lat="44.41734" lon="6.79598">
        <ele>1743.94</ele>
        <time>2021-08-11T10:44:26Z</time>
      </trkpt>
      <trkpt lat="44.41736" lon="6.79591">
        <ele>1744.63</ele>
        <time>2021-08-11T10:44:27Z</time>
      </trkpt>
      <trkpt lat="44.41738" lon="6.79584">
        <ele>1745.18</ele>
        <time>2021-08-11T10:44:28Z</time>
      </trkpt>
      <trkpt lat="44.4174" lon="6.79578">
        <ele>1745.67</ele>
        <time>2021-08-11T10:44:29Z</time>
      </trkpt>
      <trkpt lat="44.41742" lon="6.79571">
        <ele>1746.39</ele>
        <time>2021-08-11T10:44:30Z</time>
      </trkpt>
      <trkpt lat="44.41744" lon="6.79564">
        <ele>1747</ele>
        <time>2021-08-11T10:44:31Z</time>
      </trkpt>
      <trkpt lat="44.41745" lon="6.79557">
        <ele>1748.21</ele>
        <time>2021-08-11T10:44:32Z</time>
      </trkpt>
      <trkpt lat="44.41747" lon="6.79549">
        <ele>1746.38</ele>
        <time>2021-08-11T10:44:33Z</time>
      </trkpt>
      <trkpt lat="44.41747" lon="6.79541">
        <ele>1745.42</ele>
        <time>2021-08-11T10:44:34Z</time>
      </trkpt>
      <trkpt lat="44.41747" lon="6.79534">
        <ele>1744.58</ele>
        <time>2021-08-11T10:44:35Z</time>
      </trkpt>
      <trkpt lat="44.41747" lon="6.79526">
        <ele>1743.84</ele>
        <time>2021-08-11T10:44:36Z</time>
      </trkpt>
      <trkpt lat="44.41747" lon="6.79518">
        <ele>1743.87</ele>
        <time>2021-08-11T10:44:37Z</time>
      </trkpt>
      <trkpt lat="44.41746" lon="6.7951">
        <ele>1744.54</ele>
        <time>2021-08-11T10:44:38Z</time>
      </trkpt>
      <trkpt lat="44.41745" lon="6.79501">
        <ele>1745.23</ele>
        <time>2021-08-11T10:44:39Z</time>
      </trkpt>
      <trkpt lat="44.41743" lon="6.79493">
        <ele>1747.98</ele>
        <time>2021-08-11T10:44:40Z</time>
      </trkpt>
      <trkpt lat="44.41741" lon="6.79486">
        <ele>1750.25</ele>
        <time>2021-08-11T10:44:41Z</time>
      </trkpt>
      <trkpt lat="44.41738" lon="6.79479">
        <ele>1752.33</ele>
        <time>2021-08-11T10:44:42Z</time>
      </trkpt>
      <trkpt lat="44.41734" lon="6.79471">
        <ele>1753.57</ele>
        <time>2021-08-11T10:44:43Z</time>
      </trkpt>
      <trkpt lat="44.4173" lon="6.79463">
        <ele>1752.28</ele>
        <time>2021-08-11T10:44:44Z</time>
      </trkpt>
      <trkpt lat="44.41727" lon="6.79454">
        <ele>1750.55</ele>
        <time>2021-08-11T10:44:45Z</time>
      </trkpt>
      <trkpt lat="44.41723" lon="6.79445">
        <ele>1749</ele>
        <time>2021-08-11T10:44:46Z</time>
      </trkpt>
      <trkpt lat="44.41721" lon="6.79435">
        <ele>1748.8</ele>
        <time>2021-08-11T10:44:47Z</time>
      </trkpt>
      <trkpt lat="44.41719" lon="6.79425">
        <ele>1749.15</ele>
        <time>2021-08-11T10:44:48Z</time>
      </trkpt>
      <trkpt lat="44.41718" lon="6.79415">
        <ele>1748.92</ele>
        <time>2021-08-11T10:44:49Z</time>
      </trkpt>
      <trkpt lat="44.41717" lon="6.79403">
        <ele>1748.62</ele>
        <time>2021-08-11T10:44:50Z</time>
      </trkpt>
      <trkpt lat="44.41716" lon="6.79391">
        <ele>1748.11</ele>
        <time>2021-08-11T10:44:51Z</time>
      </trkpt>
      <trkpt lat="44.41715" lon="6.79378">
        <ele>1747.41</ele>
        <time>2021-08-11T10:44:52Z</time>
      </trkpt>
      <trkpt lat="44.41715" lon="6.79366">
        <ele>1746.34</ele>
        <time>2021-08-11T10:44:53Z</time>
      </trkpt>
      <trkpt lat="44.41713" lon="6.79354">
        <ele>1745.62</ele>
        <time>2021-08-11T10:44:54Z</time>
      </trkpt>
      <trkpt lat="44.41712" lon="6.79342">
        <ele>1743.83</ele>
        <time>2021-08-11T10:44:55Z</time>
      </trkpt>
      <trkpt lat="44.41711" lon="6.79331">
        <ele>1742.46</ele>
        <time>2021-08-11T10:44:56Z</time>
      </trkpt>
      <trkpt lat="44.41709" lon="6.79319">
        <ele>1742.58</ele>
        <time>2021-08-11T10:44:57Z</time>
      </trkpt>
      <trkpt lat="44.41707" lon="6.79307">
        <ele>1742.96</ele>
        <time>2021-08-11T10:44:58Z</time>
      </trkpt>
      <trkpt lat="44.41704" lon="6.79294">
        <ele>1743.29</ele>
        <time>2021-08-11T10:44:59Z</time>
      </trkpt>
      <trkpt lat="44.41701" lon="6.79282">
        <ele>1743.56</ele>
        <time>2021-08-11T10:45:00Z</time>
      </trkpt>
      <trkpt lat="44.41698" lon="6.79271">
        <ele>1744.19</ele>
        <time>2021-08-11T10:45:01Z</time>
      </trkpt>
      <trkpt lat="44.41696" lon="6.7926">
        <ele>1744.24</ele>
        <time>2021-08-11T10:45:02Z</time>
      </trkpt>
      <trkpt lat="44.41694" lon="6.79249">
        <ele>1744.11</ele>
        <time>2021-08-11T10:45:03Z</time>
      </trkpt>
      <trkpt lat="44.41692" lon="6.79239">
        <ele>1743.79</ele>
        <time>2021-08-11T10:45:04Z</time>
      </trkpt>
      <trkpt lat="44.41689" lon="6.79228">
        <ele>1743.81</ele>
        <time>2021-08-11T10:45:05Z</time>
      </trkpt>
      <trkpt lat="44.41687" lon="6.79218">
        <ele>1743.59</ele>
        <time>2021-08-11T10:45:06Z</time>
      </trkpt>
      <trkpt lat="44.41684" lon="6.79209">
        <ele>1744.15</ele>
        <time>2021-08-11T10:45:07Z</time>
      </trkpt>
      <trkpt lat="44.41681" lon="6.79199">
        <ele>1744.37</ele>
        <time>2021-08-11T10:45:08Z</time>
      </trkpt>
      <trkpt lat="44.41678" lon="6.79191">
        <ele>1744.29</ele>
        <time>2021-08-11T10:45:09Z</time>
      </trkpt>
      <trkpt lat="44.41675" lon="6.79181">
        <ele>1743.16</ele>
        <time>2021-08-11T10:45:10Z</time>
      </trkpt>
      <trkpt lat="44.41671" lon="6.79172">
        <ele>1742.6</ele>
        <time>2021-08-11T10:45:11Z</time>
      </trkpt>
      <trkpt lat="44.41668" lon="6.79163">
        <ele>1741.3</ele>
        <time>2021-08-11T10:45:12Z</time>
      </trkpt>
      <trkpt lat="44.41666" lon="6.79153">
        <ele>1738.93</ele>
        <time>2021-08-11T10:45:13Z</time>
      </trkpt>
      <trkpt lat="44.41663" lon="6.79144">
        <ele>1737.64</ele>
        <time>2021-08-11T10:45:14Z</time>
      </trkpt>
      <trkpt lat="44.4166" lon="6.79134">
        <ele>1736.9</ele>
        <time>2021-08-11T10:45:15Z</time>
      </trkpt>
      <trkpt lat="44.41658" lon="6.79125">
        <ele>1736.56</ele>
        <time>2021-08-11T10:45:16Z</time>
      </trkpt>
      <trkpt lat="44.41655" lon="6.79117">
        <ele>1736.61</ele>
        <time>2021-08-11T10:45:17Z</time>
      </trkpt>
      <trkpt lat="44.41651" lon="6.7911">
        <ele>1737.11</ele>
        <time>2021-08-11T10:45:18Z</time>
      </trkpt>
      <trkpt lat="44.41646" lon="6.79102">
        <ele>1738.21</ele>
        <time>2021-08-11T10:45:19Z</time>
      </trkpt>
      <trkpt lat="44.41642" lon="6.79095">
        <ele>1738.71</ele>
        <time>2021-08-11T10:45:20Z</time>
      </trkpt>
      <trkpt lat="44.41638" lon="6.79088">
        <ele>1739.02</ele>
        <time>2021-08-11T10:45:21Z</time>
      </trkpt>
      <trkpt lat="44.41634" lon="6.7908">
        <ele>1739.58</ele>
        <time>2021-08-11T10:45:22Z</time>
      </trkpt>
      <trkpt lat="44.41631" lon="6.79072">
        <ele>1740.08</ele>
        <time>2021-08-11T10:45:23Z</time>
      </trkpt>
      <trkpt lat="44.41628" lon="6.79064">
        <ele>1740.41</ele>
        <time>2021-08-11T10:45:24Z</time>
      </trkpt>
      <trkpt lat="44.41625" lon="6.79058">
        <ele>1740.72</ele>
        <time>2021-08-11T10:45:25Z</time>
      </trkpt>
      <trkpt lat="44.41621" lon="6.7905">
        <ele>1741.51</ele>
        <time>2021-08-11T10:45:26Z</time>
      </trkpt>
      <trkpt lat="44.41617" lon="6.79043">
        <ele>1742.52</ele>
        <time>2021-08-11T10:45:27Z</time>
      </trkpt>
      <trkpt lat="44.41615" lon="6.79034">
        <ele>1743.02</ele>
        <time>2021-08-11T10:45:28Z</time>
      </trkpt>
      <trkpt lat="44.41614" lon="6.79024">
        <ele>1742.86</ele>
        <time>2021-08-11T10:45:29Z</time>
      </trkpt>
      <trkpt lat="44.41614" lon="6.79014">
        <ele>1741.78</ele>
        <time>2021-08-11T10:45:30Z</time>
      </trkpt>
      <trkpt lat="44.41616" lon="6.79005">
        <ele>1740.31</ele>
        <time>2021-08-11T10:45:31Z</time>
      </trkpt>
      <trkpt lat="44.41617" lon="6.78996">
        <ele>1738.97</ele>
        <time>2021-08-11T10:45:32Z</time>
      </trkpt>
      <trkpt lat="44.41618" lon="6.78986">
        <ele>1737.37</ele>
        <time>2021-08-11T10:45:33Z</time>
      </trkpt>
      <trkpt lat="44.4162" lon="6.78976">
        <ele>1735.58</ele>
        <time>2021-08-11T10:45:34Z</time>
      </trkpt>
      <trkpt lat="44.41621" lon="6.78966">
        <ele>1733.6</ele>
        <time>2021-08-11T10:45:35Z</time>
      </trkpt>
      <trkpt lat="44.41621" lon="6.78956">
        <ele>1731.57</ele>
        <time>2021-08-11T10:45:36Z</time>
      </trkpt>
      <trkpt lat="44.4162" lon="6.78947">
        <ele>1729.92</ele>
        <time>2021-08-11T10:45:37Z</time>
      </trkpt>
      <trkpt lat="44.4162" lon="6.78938">
        <ele>1728.47</ele>
        <time>2021-08-11T10:45:38Z</time>
      </trkpt>
      <trkpt lat="44.41619" lon="6.7893">
        <ele>1727.5</ele>
        <time>2021-08-11T10:45:39Z</time>
      </trkpt>
      <trkpt lat="44.41619" lon="6.78921">
        <ele>1726.2</ele>
        <time>2021-08-11T10:45:40Z</time>
      </trkpt>
      <trkpt lat="44.41619" lon="6.78913">
        <ele>1725.45</ele>
        <time>2021-08-11T10:45:41Z</time>
      </trkpt>
      <trkpt lat="44.41619" lon="6.78905">
        <ele>1725.16</ele>
        <time>2021-08-11T10:45:42Z</time>
      </trkpt>
      <trkpt lat="44.41619" lon="6.78897">
        <ele>1724.87</ele>
        <time>2021-08-11T10:45:43Z</time>
      </trkpt>
      <trkpt lat="44.41619" lon="6.78888">
        <ele>1724.52</ele>
        <time>2021-08-11T10:45:44Z</time>
      </trkpt>
      <trkpt lat="44.41618" lon="6.78879">
        <ele>1724.05</ele>
        <time>2021-08-11T10:45:45Z</time>
      </trkpt>
      <trkpt lat="44.41617" lon="6.7887">
        <ele>1723.58</ele>
        <time>2021-08-11T10:45:46Z</time>
      </trkpt>
      <trkpt lat="44.41616" lon="6.78861">
        <ele>1723.13</ele>
        <time>2021-08-11T10:45:47Z</time>
      </trkpt>
      <trkpt lat="44.41613" lon="6.78852">
        <ele>1724.05</ele>
        <time>2021-08-11T10:45:48Z</time>
      </trkpt>
      <trkpt lat="44.4161" lon="6.78844">
        <ele>1725.02</ele>
        <time>2021-08-11T10:45:49Z</time>
      </trkpt>
      <trkpt lat="44.41606" lon="6.78835">
        <ele>1726.63</ele>
        <time>2021-08-11T10:45:50Z</time>
      </trkpt>
      <trkpt lat="44.416" lon="6.78828">
        <ele>1728.56</ele>
        <time>2021-08-11T10:45:51Z</time>
      </trkpt>
      <trkpt lat="44.41594" lon="6.78821">
        <ele>1730.17</ele>
        <time>2021-08-11T10:45:52Z</time>
      </trkpt>
      <trkpt lat="44.41589" lon="6.78814">
        <ele>1731.2</ele>
        <time>2021-08-11T10:45:53Z</time>
      </trkpt>
      <trkpt lat="44.41584" lon="6.78806">
        <ele>1731.89</ele>
        <time>2021-08-11T10:45:54Z</time>
      </trkpt>
      <trkpt lat="44.4158" lon="6.78795">
        <ele>1731.22</ele>
        <time>2021-08-11T10:45:55Z</time>
      </trkpt>
      <trkpt lat="44.41578" lon="6.78783">
        <ele>1730.14</ele>
        <time>2021-08-11T10:45:56Z</time>
      </trkpt>
      <trkpt lat="44.41577" lon="6.7877">
        <ele>1728.41</ele>
        <time>2021-08-11T10:45:57Z</time>
      </trkpt>
      <trkpt lat="44.41576" lon="6.78758">
        <ele>1726.61</ele>
        <time>2021-08-11T10:45:58Z</time>
      </trkpt>
      <trkpt lat="44.41574" lon="6.78747">
        <ele>1724.89</ele>
        <time>2021-08-11T10:45:59Z</time>
      </trkpt>
      <trkpt lat="44.41573" lon="6.78739">
        <ele>1722.99</ele>
        <time>2021-08-11T10:46:00Z</time>
      </trkpt>
      <trkpt lat="44.41573" lon="6.7873">
        <ele>1720.64</ele>
        <time>2021-08-11T10:46:01Z</time>
      </trkpt>
      <trkpt lat="44.41573" lon="6.78719">
        <ele>1718.04</ele>
        <time>2021-08-11T10:46:02Z</time>
      </trkpt>
      <trkpt lat="44.41574" lon="6.78707">
        <ele>1715.62</ele>
        <time>2021-08-11T10:46:03Z</time>
      </trkpt>
      <trkpt lat="44.41575" lon="6.78696">
        <ele>1713.29</ele>
        <time>2021-08-11T10:46:04Z</time>
      </trkpt>
      <trkpt lat="44.41577" lon="6.78686">
        <ele>1711.16</ele>
        <time>2021-08-11T10:46:05Z</time>
      </trkpt>
      <trkpt lat="44.41579" lon="6.78677">
        <ele>1709.38</ele>
        <time>2021-08-11T10:46:06Z</time>
      </trkpt>
      <trkpt lat="44.41581" lon="6.78668">
        <ele>1707.74</ele>
        <time>2021-08-11T10:46:07Z</time>
      </trkpt>
      <trkpt lat="44.41582" lon="6.78659">
        <ele>1706.18</ele>
        <time>2021-08-11T10:46:08Z</time>
      </trkpt>
      <trkpt lat="44.41583" lon="6.78652">
        <ele>1704.95</ele>
        <time>2021-08-11T10:46:09Z</time>
      </trkpt>
      <trkpt lat="44.41584" lon="6.78648">
        <ele>1704.15</ele>
        <time>2021-08-11T10:46:10Z</time>
      </trkpt>
      <trkpt lat="44.41584" lon="6.78643">
        <ele>1703.43</ele>
        <time>2021-08-11T10:46:11Z</time>
      </trkpt>
      <trkpt lat="44.41582" lon="6.78638">
        <ele>1703.04</ele>
        <time>2021-08-11T10:46:12Z</time>
      </trkpt>
      <trkpt lat="44.41579" lon="6.78632">
        <ele>1702.65</ele>
        <time>2021-08-11T10:46:13Z</time>
      </trkpt>
      <trkpt lat="44.41575" lon="6.78627">
        <ele>1702.36</ele>
        <time>2021-08-11T10:46:14Z</time>
      </trkpt>
      <trkpt lat="44.4157" lon="6.78623">
        <ele>1702.17</ele>
        <time>2021-08-11T10:46:15Z</time>
      </trkpt>
      <trkpt lat="44.41564" lon="6.78619">
        <ele>1701.94</ele>
        <time>2021-08-11T10:46:16Z</time>
      </trkpt>
      <trkpt lat="44.41558" lon="6.78615">
        <ele>1701.59</ele>
        <time>2021-08-11T10:46:17Z</time>
      </trkpt>
      <trkpt lat="44.41552" lon="6.7861">
        <ele>1700.85</ele>
        <time>2021-08-11T10:46:18Z</time>
      </trkpt>
      <trkpt lat="44.41546" lon="6.78604">
        <ele>1700.06</ele>
        <time>2021-08-11T10:46:19Z</time>
      </trkpt>
      <trkpt lat="44.41541" lon="6.78597">
        <ele>1699.23</ele>
        <time>2021-08-11T10:46:20Z</time>
      </trkpt>
      <trkpt lat="44.41537" lon="6.78588">
        <ele>1698.23</ele>
        <time>2021-08-11T10:46:21Z</time>
      </trkpt>
      <trkpt lat="44.41534" lon="6.78579">
        <ele>1697.34</ele>
        <time>2021-08-11T10:46:22Z</time>
      </trkpt>
      <trkpt lat="44.41532" lon="6.78571">
        <ele>1696.58</ele>
        <time>2021-08-11T10:46:23Z</time>
      </trkpt>
      <trkpt lat="44.41529" lon="6.78564">
        <ele>1695.9</ele>
        <time>2021-08-11T10:46:24Z</time>
      </trkpt>
      <trkpt lat="44.41525" lon="6.78559">
        <ele>1695.67</ele>
        <time>2021-08-11T10:46:25Z</time>
      </trkpt>
      <trkpt lat="44.41521" lon="6.78556">
        <ele>1695.78</ele>
        <time>2021-08-11T10:46:26Z</time>
      </trkpt>
      <trkpt lat="44.41516" lon="6.78552">
        <ele>1695.69</ele>
        <time>2021-08-11T10:46:27Z</time>
      </trkpt>
      <trkpt lat="44.4151" lon="6.7855">
        <ele>1696.05</ele>
        <time>2021-08-11T10:46:28Z</time>
      </trkpt>
      <trkpt lat="44.41503" lon="6.78549">
        <ele>1696.71</ele>
        <time>2021-08-11T10:46:29Z</time>
      </trkpt>
      <trkpt lat="44.41496" lon="6.78547">
        <ele>1697.64</ele>
        <time>2021-08-11T10:46:30Z</time>
      </trkpt>
      <trkpt lat="44.41489" lon="6.78546">
        <ele>1698.99</ele>
        <time>2021-08-11T10:46:31Z</time>
      </trkpt>
      <trkpt lat="44.41481" lon="6.78544">
        <ele>1700.27</ele>
        <time>2021-08-11T10:46:32Z</time>
      </trkpt>
      <trkpt lat="44.41473" lon="6.78541">
        <ele>1701.18</ele>
        <time>2021-08-11T10:46:33Z</time>
      </trkpt>
      <trkpt lat="44.41465" lon="6.78539">
        <ele>1701.61</ele>
        <time>2021-08-11T10:46:34Z</time>
      </trkpt>
      <trkpt lat="44.41457" lon="6.78537">
        <ele>1701.97</ele>
        <time>2021-08-11T10:46:35Z</time>
      </trkpt>
      <trkpt lat="44.4145" lon="6.78535">
        <ele>1702.22</ele>
        <time>2021-08-11T10:46:36Z</time>
      </trkpt>
      <trkpt lat="44.41444" lon="6.78533">
        <ele>1702.35</ele>
        <time>2021-08-11T10:46:37Z</time>
      </trkpt>
      <trkpt lat="44.41438" lon="6.78529">
        <ele>1701.77</ele>
        <time>2021-08-11T10:46:38Z</time>
      </trkpt>
      <trkpt lat="44.41433" lon="6.78523">
        <ele>1700.86</ele>
        <time>2021-08-11T10:46:39Z</time>
      </trkpt>
      <trkpt lat="44.41429" lon="6.78515">
        <ele>1699.61</ele>
        <time>2021-08-11T10:46:40Z</time>
      </trkpt>
      <trkpt lat="44.41423" lon="6.78508">
        <ele>1698.82</ele>
        <time>2021-08-11T10:46:41Z</time>
      </trkpt>
      <trkpt lat="44.41416" lon="6.78501">
        <ele>1698.13</ele>
        <time>2021-08-11T10:46:42Z</time>
      </trkpt>
      <trkpt lat="44.41411" lon="6.78495">
        <ele>1696.73</ele>
        <time>2021-08-11T10:46:43Z</time>
      </trkpt>
      <trkpt lat="44.41405" lon="6.78487">
        <ele>1695.02</ele>
        <time>2021-08-11T10:46:44Z</time>
      </trkpt>
      <trkpt lat="44.414" lon="6.78481">
        <ele>1693.79</ele>
        <time>2021-08-11T10:46:45Z</time>
      </trkpt>
      <trkpt lat="44.41395" lon="6.78476">
        <ele>1692.79</ele>
        <time>2021-08-11T10:46:46Z</time>
      </trkpt>
      <trkpt lat="44.41389" lon="6.78473">
        <ele>1692.12</ele>
        <time>2021-08-11T10:46:47Z</time>
      </trkpt>
      <trkpt lat="44.41383" lon="6.7847">
        <ele>1691.58</ele>
        <time>2021-08-11T10:46:48Z</time>
      </trkpt>
      <trkpt lat="44.41376" lon="6.78466">
        <ele>1690.78</ele>
        <time>2021-08-11T10:46:49Z</time>
      </trkpt>
      <trkpt lat="44.41369" lon="6.78462">
        <ele>1689.9</ele>
        <time>2021-08-11T10:46:50Z</time>
      </trkpt>
      <trkpt lat="44.41362" lon="6.78457">
        <ele>1688.73</ele>
        <time>2021-08-11T10:46:51Z</time>
      </trkpt>
      <trkpt lat="44.41355" lon="6.7845">
        <ele>1687.38</ele>
        <time>2021-08-11T10:46:52Z</time>
      </trkpt>
      <trkpt lat="44.41349" lon="6.78444">
        <ele>1685.88</ele>
        <time>2021-08-11T10:46:53Z</time>
      </trkpt>
      <trkpt lat="44.41342" lon="6.78438">
        <ele>1684.22</ele>
        <time>2021-08-11T10:46:54Z</time>
      </trkpt>
      <trkpt lat="44.41335" lon="6.78433">
        <ele>1682.73</ele>
        <time>2021-08-11T10:46:55Z</time>
      </trkpt>
      <trkpt lat="44.41329" lon="6.78428">
        <ele>1681.23</ele>
        <time>2021-08-11T10:46:56Z</time>
      </trkpt>
      <trkpt lat="44.41323" lon="6.78424">
        <ele>1680.19</ele>
        <time>2021-08-11T10:46:57Z</time>
      </trkpt>
      <trkpt lat="44.41316" lon="6.7842">
        <ele>1679.36</ele>
        <time>2021-08-11T10:46:58Z</time>
      </trkpt>
      <trkpt lat="44.41309" lon="6.78417">
        <ele>1678.94</ele>
        <time>2021-08-11T10:46:59Z</time>
      </trkpt>
      <trkpt lat="44.41304" lon="6.78416">
        <ele>1679.2</ele>
        <time>2021-08-11T10:47:00Z</time>
      </trkpt>
      <trkpt lat="44.413" lon="6.78417">
        <ele>1680.27</ele>
        <time>2021-08-11T10:47:01Z</time>
      </trkpt>
      <trkpt lat="44.41296" lon="6.78418">
        <ele>1681.37</ele>
        <time>2021-08-11T10:47:02Z</time>
      </trkpt>
      <trkpt lat="44.41292" lon="6.7842">
        <ele>1682.76</ele>
        <time>2021-08-11T10:47:03Z</time>
      </trkpt>
      <trkpt lat="44.41287" lon="6.78423">
        <ele>1684.76</ele>
        <time>2021-08-11T10:47:04Z</time>
      </trkpt>
      <trkpt lat="44.41283" lon="6.78427">
        <ele>1686.94</ele>
        <time>2021-08-11T10:47:05Z</time>
      </trkpt>
      <trkpt lat="44.41279" lon="6.78429">
        <ele>1688.65</ele>
        <time>2021-08-11T10:47:06Z</time>
      </trkpt>
      <trkpt lat="44.41276" lon="6.78429">
        <ele>1689.57</ele>
        <time>2021-08-11T10:47:07Z</time>
      </trkpt>
      <trkpt lat="44.41271" lon="6.78428">
        <ele>1690.95</ele>
        <time>2021-08-11T10:47:08Z</time>
      </trkpt>
      <trkpt lat="44.4127" lon="6.78419">
        <ele>1689.18</ele>
        <time>2021-08-11T10:47:10Z</time>
      </trkpt>
      <trkpt lat="44.41271" lon="6.7841">
        <ele>1688.28</ele>
        <time>2021-08-11T10:47:11Z</time>
      </trkpt>
      <trkpt lat="44.41272" lon="6.784">
        <ele>1687.85</ele>
        <time>2021-08-11T10:47:12Z</time>
      </trkpt>
      <trkpt lat="44.41273" lon="6.7839">
        <ele>1687.27</ele>
        <time>2021-08-11T10:47:13Z</time>
      </trkpt>
      <trkpt lat="44.41274" lon="6.78381">
        <ele>1685.32</ele>
        <time>2021-08-11T10:47:14Z</time>
      </trkpt>
      <trkpt lat="44.41275" lon="6.7837">
        <ele>1682.77</ele>
        <time>2021-08-11T10:47:15Z</time>
      </trkpt>
      <trkpt lat="44.41274" lon="6.78359">
        <ele>1682.13</ele>
        <time>2021-08-11T10:47:16Z</time>
      </trkpt>
      <trkpt lat="44.41274" lon="6.78347">
        <ele>1682.13</ele>
        <time>2021-08-11T10:47:17Z</time>
      </trkpt>
      <trkpt lat="44.41274" lon="6.78337">
        <ele>1682.13</ele>
        <time>2021-08-11T10:47:18Z</time>
      </trkpt>
      <trkpt lat="44.41274" lon="6.78329">
        <ele>1682.6</ele>
        <time>2021-08-11T10:47:19Z</time>
      </trkpt>
      <trkpt lat="44.41274" lon="6.78322">
        <ele>1683.35</ele>
        <time>2021-08-11T10:47:20Z</time>
      </trkpt>
      <trkpt lat="44.41274" lon="6.78318">
        <ele>1683.78</ele>
        <time>2021-08-11T10:47:21Z</time>
      </trkpt>
      <trkpt lat="44.41275" lon="6.78313">
        <ele>1683.5</ele>
        <time>2021-08-11T10:47:22Z</time>
      </trkpt>
      <trkpt lat="44.41276" lon="6.78307">
        <ele>1683.32</ele>
        <time>2021-08-11T10:47:23Z</time>
      </trkpt>
      <trkpt lat="44.41278" lon="6.78301">
        <ele>1683.38</ele>
        <time>2021-08-11T10:47:24Z</time>
      </trkpt>
      <trkpt lat="44.41281" lon="6.78294">
        <ele>1684.45</ele>
        <time>2021-08-11T10:47:25Z</time>
      </trkpt>
      <trkpt lat="44.41285" lon="6.78288">
        <ele>1684.9</ele>
        <time>2021-08-11T10:47:26Z</time>
      </trkpt>
      <trkpt lat="44.4129" lon="6.78283">
        <ele>1684.74</ele>
        <time>2021-08-11T10:47:27Z</time>
      </trkpt>
      <trkpt lat="44.41295" lon="6.7828">
        <ele>1683.98</ele>
        <time>2021-08-11T10:47:28Z</time>
      </trkpt>
      <trkpt lat="44.41302" lon="6.78279">
        <ele>1681.81</ele>
        <time>2021-08-11T10:47:29Z</time>
      </trkpt>
      <trkpt lat="44.41308" lon="6.78277">
        <ele>1680</ele>
        <time>2021-08-11T10:47:30Z</time>
      </trkpt>
      <trkpt lat="44.41315" lon="6.78277">
        <ele>1676.72</ele>
        <time>2021-08-11T10:47:31Z</time>
      </trkpt>
      <trkpt lat="44.41321" lon="6.78276">
        <ele>1674.09</ele>
        <time>2021-08-11T10:47:32Z</time>
      </trkpt>
      <trkpt lat="44.41327" lon="6.78275">
        <ele>1671.46</ele>
        <time>2021-08-11T10:47:33Z</time>
      </trkpt>
      <trkpt lat="44.41333" lon="6.78272">
        <ele>1669.2</ele>
        <time>2021-08-11T10:47:34Z</time>
      </trkpt>
      <trkpt lat="44.41338" lon="6.78269">
        <ele>1667.17</ele>
        <time>2021-08-11T10:47:35Z</time>
      </trkpt>
      <trkpt lat="44.41343" lon="6.78264">
        <ele>1665.44</ele>
        <time>2021-08-11T10:47:36Z</time>
      </trkpt>
      <trkpt lat="44.41348" lon="6.78259">
        <ele>1663.63</ele>
        <time>2021-08-11T10:47:37Z</time>
      </trkpt>
      <trkpt lat="44.41353" lon="6.78253">
        <ele>1661.92</ele>
        <time>2021-08-11T10:47:38Z</time>
      </trkpt>
      <trkpt lat="44.41358" lon="6.78247">
        <ele>1659.93</ele>
        <time>2021-08-11T10:47:39Z</time>
      </trkpt>
      <trkpt lat="44.41364" lon="6.78241">
        <ele>1657.92</ele>
        <time>2021-08-11T10:47:40Z</time>
      </trkpt>
      <trkpt lat="44.41369" lon="6.78235">
        <ele>1656.92</ele>
        <time>2021-08-11T10:47:41Z</time>
      </trkpt>
      <trkpt lat="44.41374" lon="6.78229">
        <ele>1655.68</ele>
        <time>2021-08-11T10:47:42Z</time>
      </trkpt>
      <trkpt lat="44.41379" lon="6.78223">
        <ele>1654.2</ele>
        <time>2021-08-11T10:47:43Z</time>
      </trkpt>
      <trkpt lat="44.41385" lon="6.78218">
        <ele>1653.3</ele>
        <time>2021-08-11T10:47:44Z</time>
      </trkpt>
      <trkpt lat="44.4139" lon="6.78212">
        <ele>1653.26</ele>
        <time>2021-08-11T10:47:45Z</time>
      </trkpt>
      <trkpt lat="44.41395" lon="6.78207">
        <ele>1653.08</ele>
        <time>2021-08-11T10:47:46Z</time>
      </trkpt>
      <trkpt lat="44.41399" lon="6.78203">
        <ele>1652.93</ele>
        <time>2021-08-11T10:47:47Z</time>
      </trkpt>
      <trkpt lat="44.41402" lon="6.78199">
        <ele>1653.08</ele>
        <time>2021-08-11T10:47:48Z</time>
      </trkpt>
      <trkpt lat="44.41404" lon="6.78196">
        <ele>1653.26</ele>
        <time>2021-08-11T10:47:49Z</time>
      </trkpt>
      <trkpt lat="44.41405" lon="6.78192">
        <ele>1653.67</ele>
        <time>2021-08-11T10:47:50Z</time>
      </trkpt>
      <trkpt lat="44.41404" lon="6.78187">
        <ele>1654.65</ele>
        <time>2021-08-11T10:47:51Z</time>
      </trkpt>
      <trkpt lat="44.41402" lon="6.78181">
        <ele>1656.24</ele>
        <time>2021-08-11T10:47:52Z</time>
      </trkpt>
      <trkpt lat="44.414" lon="6.78175">
        <ele>1658.02</ele>
        <time>2021-08-11T10:47:53Z</time>
      </trkpt>
      <trkpt lat="44.41396" lon="6.7817">
        <ele>1660.76</ele>
        <time>2021-08-11T10:47:54Z</time>
      </trkpt>
      <trkpt lat="44.41391" lon="6.78164">
        <ele>1663.78</ele>
        <time>2021-08-11T10:47:55Z</time>
      </trkpt>
      <trkpt lat="44.41385" lon="6.78158">
        <ele>1664.97</ele>
        <time>2021-08-11T10:47:56Z</time>
      </trkpt>
      <trkpt lat="44.4138" lon="6.78151">
        <ele>1665.55</ele>
        <time>2021-08-11T10:47:57Z</time>
      </trkpt>
      <trkpt lat="44.41375" lon="6.78142">
        <ele>1666.5</ele>
        <time>2021-08-11T10:47:58Z</time>
      </trkpt>
      <trkpt lat="44.41372" lon="6.78132">
        <ele>1666.57</ele>
        <time>2021-08-11T10:47:59Z</time>
      </trkpt>
      <trkpt lat="44.4137" lon="6.78122">
        <ele>1666.15</ele>
        <time>2021-08-11T10:48:00Z</time>
      </trkpt>
      <trkpt lat="44.41367" lon="6.78112">
        <ele>1666.17</ele>
        <time>2021-08-11T10:48:01Z</time>
      </trkpt>
      <trkpt lat="44.41364" lon="6.78102">
        <ele>1666.63</ele>
        <time>2021-08-11T10:48:02Z</time>
      </trkpt>
      <trkpt lat="44.41361" lon="6.78092">
        <ele>1667.36</ele>
        <time>2021-08-11T10:48:03Z</time>
      </trkpt>
      <trkpt lat="44.41358" lon="6.78083">
        <ele>1668.42</ele>
        <time>2021-08-11T10:48:04Z</time>
      </trkpt>
      <trkpt lat="44.41355" lon="6.78074">
        <ele>1668.85</ele>
        <time>2021-08-11T10:48:05Z</time>
      </trkpt>
      <trkpt lat="44.41351" lon="6.78066">
        <ele>1669.86</ele>
        <time>2021-08-11T10:48:06Z</time>
      </trkpt>
      <trkpt lat="44.41347" lon="6.78057">
        <ele>1670.76</ele>
        <time>2021-08-11T10:48:07Z</time>
      </trkpt>
      <trkpt lat="44.41342" lon="6.78049">
        <ele>1672.87</ele>
        <time>2021-08-11T10:48:08Z</time>
      </trkpt>
      <trkpt lat="44.41338" lon="6.78042">
        <ele>1674.73</ele>
        <time>2021-08-11T10:48:09Z</time>
      </trkpt>
      <trkpt lat="44.41335" lon="6.78036">
        <ele>1676.18</ele>
        <time>2021-08-11T10:48:10Z</time>
      </trkpt>
      <trkpt lat="44.41332" lon="6.7803">
        <ele>1678</ele>
        <time>2021-08-11T10:48:11Z</time>
      </trkpt>
      <trkpt lat="44.4133" lon="6.78025">
        <ele>1679.58</ele>
        <time>2021-08-11T10:48:12Z</time>
      </trkpt>
      <trkpt lat="44.41331" lon="6.78018">
        <ele>1679.03</ele>
        <time>2021-08-11T10:48:13Z</time>
      </trkpt>
      <trkpt lat="44.41333" lon="6.7801">
        <ele>1677.87</ele>
        <time>2021-08-11T10:48:14Z</time>
      </trkpt>
      <trkpt lat="44.41337" lon="6.78003">
        <ele>1676.4</ele>
        <time>2021-08-11T10:48:15Z</time>
      </trkpt>
      <trkpt lat="44.41343" lon="6.77999">
        <ele>1674.33</ele>
        <time>2021-08-11T10:48:16Z</time>
      </trkpt>
      <trkpt lat="44.4135" lon="6.77994">
        <ele>1672.39</ele>
        <time>2021-08-11T10:48:17Z</time>
      </trkpt>
      <trkpt lat="44.41357" lon="6.77989">
        <ele>1670.55</ele>
        <time>2021-08-11T10:48:18Z</time>
      </trkpt>
      <trkpt lat="44.41365" lon="6.77983">
        <ele>1668.19</ele>
        <time>2021-08-11T10:48:19Z</time>
      </trkpt>
      <trkpt lat="44.41372" lon="6.77976">
        <ele>1666.17</ele>
        <time>2021-08-11T10:48:20Z</time>
      </trkpt>
      <trkpt lat="44.41381" lon="6.7797">
        <ele>1663.09</ele>
        <time>2021-08-11T10:48:21Z</time>
      </trkpt>
      <trkpt lat="44.41388" lon="6.77964">
        <ele>1660.9</ele>
        <time>2021-08-11T10:48:22Z</time>
      </trkpt>
      <trkpt lat="44.41395" lon="6.77959">
        <ele>1657.52</ele>
        <time>2021-08-11T10:48:23Z</time>
      </trkpt>
      <trkpt lat="44.41402" lon="6.77955">
        <ele>1653.9</ele>
        <time>2021-08-11T10:48:24Z</time>
      </trkpt>
      <trkpt lat="44.41409" lon="6.77952">
        <ele>1650.14</ele>
        <time>2021-08-11T10:48:25Z</time>
      </trkpt>
      <trkpt lat="44.41416" lon="6.77949">
        <ele>1646.43</ele>
        <time>2021-08-11T10:48:26Z</time>
      </trkpt>
      <trkpt lat="44.41423" lon="6.77947">
        <ele>1643.46</ele>
        <time>2021-08-11T10:48:27Z</time>
      </trkpt>
      <trkpt lat="44.41428" lon="6.77945">
        <ele>1641.57</ele>
        <time>2021-08-11T10:48:28Z</time>
      </trkpt>
      <trkpt lat="44.41434" lon="6.77942">
        <ele>1639.35</ele>
        <time>2021-08-11T10:48:29Z</time>
      </trkpt>
      <trkpt lat="44.4144" lon="6.77939">
        <ele>1637.19</ele>
        <time>2021-08-11T10:48:30Z</time>
      </trkpt>
      <trkpt lat="44.41445" lon="6.77935">
        <ele>1635.67</ele>
        <time>2021-08-11T10:48:31Z</time>
      </trkpt>
      <trkpt lat="44.41449" lon="6.77931">
        <ele>1633.95</ele>
        <time>2021-08-11T10:48:32Z</time>
      </trkpt>
      <trkpt lat="44.41453" lon="6.77926">
        <ele>1632.54</ele>
        <time>2021-08-11T10:48:33Z</time>
      </trkpt>
      <trkpt lat="44.41457" lon="6.77921">
        <ele>1631.24</ele>
        <time>2021-08-11T10:48:34Z</time>
      </trkpt>
      <trkpt lat="44.4146" lon="6.77915">
        <ele>1630.44</ele>
        <time>2021-08-11T10:48:35Z</time>
      </trkpt>
      <trkpt lat="44.41463" lon="6.77909">
        <ele>1628.37</ele>
        <time>2021-08-11T10:48:36Z</time>
      </trkpt>
      <trkpt lat="44.41465" lon="6.77902">
        <ele>1626.78</ele>
        <time>2021-08-11T10:48:37Z</time>
      </trkpt>
      <trkpt lat="44.41467" lon="6.77895">
        <ele>1625.08</ele>
        <time>2021-08-11T10:48:38Z</time>
      </trkpt>
      <trkpt lat="44.41469" lon="6.77888">
        <ele>1623.44</ele>
        <time>2021-08-11T10:48:39Z</time>
      </trkpt>
      <trkpt lat="44.41471" lon="6.7788">
        <ele>1623.13</ele>
        <time>2021-08-11T10:48:40Z</time>
      </trkpt>
      <trkpt lat="44.41472" lon="6.77873">
        <ele>1623.44</ele>
        <time>2021-08-11T10:48:41Z</time>
      </trkpt>
      <trkpt lat="44.41473" lon="6.77865">
        <ele>1624.28</ele>
        <time>2021-08-11T10:48:42Z</time>
      </trkpt>
      <trkpt lat="44.41473" lon="6.77858">
        <ele>1624.94</ele>
        <time>2021-08-11T10:48:43Z</time>
      </trkpt>
      <trkpt lat="44.41475" lon="6.7785">
        <ele>1624.76</ele>
        <time>2021-08-11T10:48:44Z</time>
      </trkpt>
      <trkpt lat="44.41477" lon="6.77842">
        <ele>1624.54</ele>
        <time>2021-08-11T10:48:45Z</time>
      </trkpt>
      <trkpt lat="44.4148" lon="6.77833">
        <ele>1623.96</ele>
        <time>2021-08-11T10:48:46Z</time>
      </trkpt>
      <trkpt lat="44.41483" lon="6.77827">
        <ele>1621.83</ele>
        <time>2021-08-11T10:48:47Z</time>
      </trkpt>
      <trkpt lat="44.41485" lon="6.77822">
        <ele>1620.14</ele>
        <time>2021-08-11T10:48:48Z</time>
      </trkpt>
      <trkpt lat="44.41488" lon="6.77815">
        <ele>1617.69</ele>
        <time>2021-08-11T10:48:50Z</time>
      </trkpt>
      <trkpt lat="44.41489" lon="6.7781">
        <ele>1616.22</ele>
        <time>2021-08-11T10:48:51Z</time>
      </trkpt>
      <trkpt lat="44.4149" lon="6.77805">
        <ele>1614.73</ele>
        <time>2021-08-11T10:48:52Z</time>
      </trkpt>
      <trkpt lat="44.4149" lon="6.77799">
        <ele>1613.14</ele>
        <time>2021-08-11T10:48:53Z</time>
      </trkpt>
      <trkpt lat="44.41489" lon="6.77793">
        <ele>1611.83</ele>
        <time>2021-08-11T10:48:54Z</time>
      </trkpt>
      <trkpt lat="44.41487" lon="6.77787">
        <ele>1610.76</ele>
        <time>2021-08-11T10:48:55Z</time>
      </trkpt>
      <trkpt lat="44.41485" lon="6.77785">
        <ele>1610.74</ele>
        <time>2021-08-11T10:48:56Z</time>
      </trkpt>
      <trkpt lat="44.41481" lon="6.77782">
        <ele>1610.96</ele>
        <time>2021-08-11T10:48:57Z</time>
      </trkpt>
      <trkpt lat="44.41477" lon="6.77778">
        <ele>1610.86</ele>
        <time>2021-08-11T10:48:58Z</time>
      </trkpt>
      <trkpt lat="44.41471" lon="6.77774">
        <ele>1611.7</ele>
        <time>2021-08-11T10:48:59Z</time>
      </trkpt>
      <trkpt lat="44.41465" lon="6.7777">
        <ele>1613.29</ele>
        <time>2021-08-11T10:49:00Z</time>
      </trkpt>
      <trkpt lat="44.41459" lon="6.77765">
        <ele>1614.51</ele>
        <time>2021-08-11T10:49:01Z</time>
      </trkpt>
      <trkpt lat="44.41453" lon="6.77761">
        <ele>1615.84</ele>
        <time>2021-08-11T10:49:02Z</time>
      </trkpt>
      <trkpt lat="44.41447" lon="6.77757">
        <ele>1617.05</ele>
        <time>2021-08-11T10:49:03Z</time>
      </trkpt>
      <trkpt lat="44.41441" lon="6.77753">
        <ele>1618.06</ele>
        <time>2021-08-11T10:49:04Z</time>
      </trkpt>
      <trkpt lat="44.41436" lon="6.7775">
        <ele>1619.04</ele>
        <time>2021-08-11T10:49:05Z</time>
      </trkpt>
      <trkpt lat="44.41431" lon="6.77746">
        <ele>1619.9</ele>
        <time>2021-08-11T10:49:06Z</time>
      </trkpt>
      <trkpt lat="44.41426" lon="6.77741">
        <ele>1620.59</ele>
        <time>2021-08-11T10:49:07Z</time>
      </trkpt>
      <trkpt lat="44.41421" lon="6.77734">
        <ele>1620.89</ele>
        <time>2021-08-11T10:49:08Z</time>
      </trkpt>
      <trkpt lat="44.41417" lon="6.77725">
        <ele>1620.47</ele>
        <time>2021-08-11T10:49:09Z</time>
      </trkpt>
      <trkpt lat="44.41414" lon="6.77717">
        <ele>1620.19</ele>
        <time>2021-08-11T10:49:10Z</time>
      </trkpt>
      <trkpt lat="44.41412" lon="6.7771">
        <ele>1619.85</ele>
        <time>2021-08-11T10:49:11Z</time>
      </trkpt>
      <trkpt lat="44.41411" lon="6.77702">
        <ele>1618.98</ele>
        <time>2021-08-11T10:49:12Z</time>
      </trkpt>
      <trkpt lat="44.41412" lon="6.77693">
        <ele>1617.41</ele>
        <time>2021-08-11T10:49:13Z</time>
      </trkpt>
      <trkpt lat="44.41414" lon="6.77685">
        <ele>1616.18</ele>
        <time>2021-08-11T10:49:14Z</time>
      </trkpt>
      <trkpt lat="44.41418" lon="6.77677">
        <ele>1614.29</ele>
        <time>2021-08-11T10:49:15Z</time>
      </trkpt>
      <trkpt lat="44.41423" lon="6.77672">
        <ele>1612.29</ele>
        <time>2021-08-11T10:49:16Z</time>
      </trkpt>
      <trkpt lat="44.41431" lon="6.77668">
        <ele>1609.43</ele>
        <time>2021-08-11T10:49:17Z</time>
      </trkpt>
      <trkpt lat="44.41439" lon="6.77666">
        <ele>1606.79</ele>
        <time>2021-08-11T10:49:18Z</time>
      </trkpt>
      <trkpt lat="44.41448" lon="6.77665">
        <ele>1604.04</ele>
        <time>2021-08-11T10:49:19Z</time>
      </trkpt>
      <trkpt lat="44.41457" lon="6.77664">
        <ele>1601.52</ele>
        <time>2021-08-11T10:49:20Z</time>
      </trkpt>
      <trkpt lat="44.41466" lon="6.77662">
        <ele>1599.09</ele>
        <time>2021-08-11T10:49:21Z</time>
      </trkpt>
      <trkpt lat="44.41473" lon="6.77661">
        <ele>1597.17</ele>
        <time>2021-08-11T10:49:22Z</time>
      </trkpt>
      <trkpt lat="44.4148" lon="6.7766">
        <ele>1595.11</ele>
        <time>2021-08-11T10:49:23Z</time>
      </trkpt>
      <trkpt lat="44.41487" lon="6.77658">
        <ele>1593.04</ele>
        <time>2021-08-11T10:49:24Z</time>
      </trkpt>
      <trkpt lat="44.41492" lon="6.77657">
        <ele>1591.5</ele>
        <time>2021-08-11T10:49:25Z</time>
      </trkpt>
      <trkpt lat="44.41496" lon="6.77657">
        <ele>1590.25</ele>
        <time>2021-08-11T10:49:26Z</time>
      </trkpt>
      <trkpt lat="44.41501" lon="6.77655">
        <ele>1588.66</ele>
        <time>2021-08-11T10:49:27Z</time>
      </trkpt>
      <trkpt lat="44.41504" lon="6.77653">
        <ele>1587.63</ele>
        <time>2021-08-11T10:49:28Z</time>
      </trkpt>
      <trkpt lat="44.41507" lon="6.7765">
        <ele>1586.58</ele>
        <time>2021-08-11T10:49:29Z</time>
      </trkpt>
      <trkpt lat="44.4151" lon="6.77646">
        <ele>1585.49</ele>
        <time>2021-08-11T10:49:30Z</time>
      </trkpt>
      <trkpt lat="44.41512" lon="6.7764">
        <ele>1584.7</ele>
        <time>2021-08-11T10:49:31Z</time>
      </trkpt>
      <trkpt lat="44.41512" lon="6.77633">
        <ele>1584.28</ele>
        <time>2021-08-11T10:49:32Z</time>
      </trkpt>
      <trkpt lat="44.41511" lon="6.77625">
        <ele>1584.14</ele>
        <time>2021-08-11T10:49:33Z</time>
      </trkpt>
      <trkpt lat="44.41509" lon="6.77617">
        <ele>1584.46</ele>
        <time>2021-08-11T10:49:34Z</time>
      </trkpt>
      <trkpt lat="44.41505" lon="6.77608">
        <ele>1585.28</ele>
        <time>2021-08-11T10:49:35Z</time>
      </trkpt>
      <trkpt lat="44.41501" lon="6.77599">
        <ele>1585.39</ele>
        <time>2021-08-11T10:49:36Z</time>
      </trkpt>
      <trkpt lat="44.41496" lon="6.7759">
        <ele>1585.89</ele>
        <time>2021-08-11T10:49:37Z</time>
      </trkpt>
      <trkpt lat="44.41491" lon="6.77581">
        <ele>1586.58</ele>
        <time>2021-08-11T10:49:38Z</time>
      </trkpt>
      <trkpt lat="44.41486" lon="6.77573">
        <ele>1587.75</ele>
        <time>2021-08-11T10:49:39Z</time>
      </trkpt>
      <trkpt lat="44.41481" lon="6.77564">
        <ele>1588.9</ele>
        <time>2021-08-11T10:49:40Z</time>
      </trkpt>
      <trkpt lat="44.41478" lon="6.77554">
        <ele>1589.06</ele>
        <time>2021-08-11T10:49:41Z</time>
      </trkpt>
      <trkpt lat="44.41475" lon="6.77544">
        <ele>1588.79</ele>
        <time>2021-08-11T10:49:42Z</time>
      </trkpt>
      <trkpt lat="44.41473" lon="6.77536">
        <ele>1588.19</ele>
        <time>2021-08-11T10:49:43Z</time>
      </trkpt>
      <trkpt lat="44.41471" lon="6.77528">
        <ele>1587.57</ele>
        <time>2021-08-11T10:49:44Z</time>
      </trkpt>
      <trkpt lat="44.41469" lon="6.77521">
        <ele>1587.33</ele>
        <time>2021-08-11T10:49:45Z</time>
      </trkpt>
      <trkpt lat="44.41465" lon="6.77514">
        <ele>1587.75</ele>
        <time>2021-08-11T10:49:46Z</time>
      </trkpt>
      <trkpt lat="44.41462" lon="6.77507">
        <ele>1587.6</ele>
        <time>2021-08-11T10:49:47Z</time>
      </trkpt>
      <trkpt lat="44.4146" lon="6.77499">
        <ele>1586.88</ele>
        <time>2021-08-11T10:49:48Z</time>
      </trkpt>
      <trkpt lat="44.41459" lon="6.7749">
        <ele>1586.41</ele>
        <time>2021-08-11T10:49:49Z</time>
      </trkpt>
      <trkpt lat="44.41459" lon="6.77479">
        <ele>1585.45</ele>
        <time>2021-08-11T10:49:50Z</time>
      </trkpt>
      <trkpt lat="44.4146" lon="6.77468">
        <ele>1584.49</ele>
        <time>2021-08-11T10:49:51Z</time>
      </trkpt>
      <trkpt lat="44.41461" lon="6.77457">
        <ele>1583.88</ele>
        <time>2021-08-11T10:49:52Z</time>
      </trkpt>
      <trkpt lat="44.41462" lon="6.77448">
        <ele>1583.34</ele>
        <time>2021-08-11T10:49:53Z</time>
      </trkpt>
      <trkpt lat="44.41463" lon="6.7744">
        <ele>1582.83</ele>
        <time>2021-08-11T10:49:54Z</time>
      </trkpt>
      <trkpt lat="44.41464" lon="6.77432">
        <ele>1582.33</ele>
        <time>2021-08-11T10:49:55Z</time>
      </trkpt>
      <trkpt lat="44.41464" lon="6.77423">
        <ele>1582</ele>
        <time>2021-08-11T10:49:56Z</time>
      </trkpt>
      <trkpt lat="44.41466" lon="6.77414">
        <ele>1581.27</ele>
        <time>2021-08-11T10:49:57Z</time>
      </trkpt>
      <trkpt lat="44.41467" lon="6.77403">
        <ele>1580.73</ele>
        <time>2021-08-11T10:49:58Z</time>
      </trkpt>
      <trkpt lat="44.41469" lon="6.77392">
        <ele>1579.91</ele>
        <time>2021-08-11T10:49:59Z</time>
      </trkpt>
      <trkpt lat="44.41471" lon="6.7738">
        <ele>1578.04</ele>
        <time>2021-08-11T10:50:00Z</time>
      </trkpt>
      <trkpt lat="44.41473" lon="6.77367">
        <ele>1575.53</ele>
        <time>2021-08-11T10:50:01Z</time>
      </trkpt>
      <trkpt lat="44.41474" lon="6.77356">
        <ele>1573.77</ele>
        <time>2021-08-11T10:50:02Z</time>
      </trkpt>
      <trkpt lat="44.41475" lon="6.77349">
        <ele>1572.68</ele>
        <time>2021-08-11T10:50:03Z</time>
      </trkpt>
      <trkpt lat="44.41476" lon="6.77342">
        <ele>1571.63</ele>
        <time>2021-08-11T10:50:04Z</time>
      </trkpt>
      <trkpt lat="44.41477" lon="6.77336">
        <ele>1570.71</ele>
        <time>2021-08-11T10:50:05Z</time>
      </trkpt>
      <trkpt lat="44.41478" lon="6.77328">
        <ele>1569.44</ele>
        <time>2021-08-11T10:50:06Z</time>
      </trkpt>
      <trkpt lat="44.41478" lon="6.7732">
        <ele>1568.41</ele>
        <time>2021-08-11T10:50:07Z</time>
      </trkpt>
      <trkpt lat="44.41479" lon="6.77313">
        <ele>1567.23</ele>
        <time>2021-08-11T10:50:08Z</time>
      </trkpt>
      <trkpt lat="44.41478" lon="6.77307">
        <ele>1566.73</ele>
        <time>2021-08-11T10:50:09Z</time>
      </trkpt>
      <trkpt lat="44.41478" lon="6.773">
        <ele>1566.14</ele>
        <time>2021-08-11T10:50:10Z</time>
      </trkpt>
      <trkpt lat="44.41477" lon="6.77294">
        <ele>1565.96</ele>
        <time>2021-08-11T10:50:11Z</time>
      </trkpt>
      <trkpt lat="44.41475" lon="6.77287">
        <ele>1565.96</ele>
        <time>2021-08-11T10:50:12Z</time>
      </trkpt>
      <trkpt lat="44.41473" lon="6.7728">
        <ele>1565.96</ele>
        <time>2021-08-11T10:50:13Z</time>
      </trkpt>
      <trkpt lat="44.4147" lon="6.77273">
        <ele>1566.12</ele>
        <time>2021-08-11T10:50:14Z</time>
      </trkpt>
      <trkpt lat="44.41467" lon="6.77265">
        <ele>1566.12</ele>
        <time>2021-08-11T10:50:15Z</time>
      </trkpt>
      <trkpt lat="44.41464" lon="6.77256">
        <ele>1566.02</ele>
        <time>2021-08-11T10:50:16Z</time>
      </trkpt>
      <trkpt lat="44.41461" lon="6.77247">
        <ele>1566.12</ele>
        <time>2021-08-11T10:50:17Z</time>
      </trkpt>
      <trkpt lat="44.41458" lon="6.77238">
        <ele>1566.66</ele>
        <time>2021-08-11T10:50:18Z</time>
      </trkpt>
      <trkpt lat="44.41456" lon="6.77228">
        <ele>1566.88</ele>
        <time>2021-08-11T10:50:19Z</time>
      </trkpt>
      <trkpt lat="44.41453" lon="6.77216">
        <ele>1567</ele>
        <time>2021-08-11T10:50:20Z</time>
      </trkpt>
      <trkpt lat="44.41453" lon="6.77204">
        <ele>1565.97</ele>
        <time>2021-08-11T10:50:21Z</time>
      </trkpt>
      <trkpt lat="44.41453" lon="6.77192">
        <ele>1565.19</ele>
        <time>2021-08-11T10:50:22Z</time>
      </trkpt>
      <trkpt lat="44.41454" lon="6.7718">
        <ele>1565.1</ele>
        <time>2021-08-11T10:50:23Z</time>
      </trkpt>
      <trkpt lat="44.41457" lon="6.7717">
        <ele>1564.37</ele>
        <time>2021-08-11T10:50:24Z</time>
      </trkpt>
      <trkpt lat="44.4146" lon="6.7716">
        <ele>1563.49</ele>
        <time>2021-08-11T10:50:25Z</time>
      </trkpt>
      <trkpt lat="44.41464" lon="6.77152">
        <ele>1562.15</ele>
        <time>2021-08-11T10:50:26Z</time>
      </trkpt>
      <trkpt lat="44.4147" lon="6.77145">
        <ele>1559.98</ele>
        <time>2021-08-11T10:50:27Z</time>
      </trkpt>
      <trkpt lat="44.41476" lon="6.77139">
        <ele>1557.78</ele>
        <time>2021-08-11T10:50:28Z</time>
      </trkpt>
      <trkpt lat="44.41481" lon="6.77134">
        <ele>1555.69</ele>
        <time>2021-08-11T10:50:29Z</time>
      </trkpt>
      <trkpt lat="44.41486" lon="6.77129">
        <ele>1553.47</ele>
        <time>2021-08-11T10:50:30Z</time>
      </trkpt>
      <trkpt lat="44.41488" lon="6.77125">
        <ele>1552.32</ele>
        <time>2021-08-11T10:50:31Z</time>
      </trkpt>
      <trkpt lat="44.4149" lon="6.77122">
        <ele>1551.25</ele>
        <time>2021-08-11T10:50:32Z</time>
      </trkpt>
      <trkpt lat="44.41492" lon="6.77117">
        <ele>1549.89</ele>
        <time>2021-08-11T10:50:33Z</time>
      </trkpt>
      <trkpt lat="44.41494" lon="6.77112">
        <ele>1548.49</ele>
        <time>2021-08-11T10:50:34Z</time>
      </trkpt>
      <trkpt lat="44.41496" lon="6.77107">
        <ele>1547.41</ele>
        <time>2021-08-11T10:50:35Z</time>
      </trkpt>
      <trkpt lat="44.41497" lon="6.77101">
        <ele>1546.78</ele>
        <time>2021-08-11T10:50:36Z</time>
      </trkpt>
      <trkpt lat="44.41498" lon="6.77094">
        <ele>1546.13</ele>
        <time>2021-08-11T10:50:37Z</time>
      </trkpt>
      <trkpt lat="44.41497" lon="6.77087">
        <ele>1546.23</ele>
        <time>2021-08-11T10:50:38Z</time>
      </trkpt>
      <trkpt lat="44.41495" lon="6.77079">
        <ele>1546.64</ele>
        <time>2021-08-11T10:50:39Z</time>
      </trkpt>
      <trkpt lat="44.41492" lon="6.77072">
        <ele>1547.47</ele>
        <time>2021-08-11T10:50:40Z</time>
      </trkpt>
      <trkpt lat="44.41488" lon="6.77064">
        <ele>1548.62</ele>
        <time>2021-08-11T10:50:41Z</time>
      </trkpt>
      <trkpt lat="44.41484" lon="6.77055">
        <ele>1549.73</ele>
        <time>2021-08-11T10:50:42Z</time>
      </trkpt>
      <trkpt lat="44.41481" lon="6.77045">
        <ele>1550.2</ele>
        <time>2021-08-11T10:50:43Z</time>
      </trkpt>
      <trkpt lat="44.41479" lon="6.77034">
        <ele>1550.2</ele>
        <time>2021-08-11T10:50:44Z</time>
      </trkpt>
      <trkpt lat="44.41477" lon="6.77024">
        <ele>1549.97</ele>
        <time>2021-08-11T10:50:45Z</time>
      </trkpt>
      <trkpt lat="44.41475" lon="6.77012">
        <ele>1549.23</ele>
        <time>2021-08-11T10:50:46Z</time>
      </trkpt>
      <trkpt lat="44.41472" lon="6.77001">
        <ele>1549.21</ele>
        <time>2021-08-11T10:50:47Z</time>
      </trkpt>
      <trkpt lat="44.41469" lon="6.7699">
        <ele>1548.35</ele>
        <time>2021-08-11T10:50:48Z</time>
      </trkpt>
      <trkpt lat="44.41466" lon="6.76978">
        <ele>1547.16</ele>
        <time>2021-08-11T10:50:49Z</time>
      </trkpt>
      <trkpt lat="44.41463" lon="6.76967">
        <ele>1545.81</ele>
        <time>2021-08-11T10:50:50Z</time>
      </trkpt>
      <trkpt lat="44.41462" lon="6.76957">
        <ele>1543.34</ele>
        <time>2021-08-11T10:50:51Z</time>
      </trkpt>
      <trkpt lat="44.4146" lon="6.76949">
        <ele>1541.76</ele>
        <time>2021-08-11T10:50:52Z</time>
      </trkpt>
      <trkpt lat="44.41459" lon="6.7694">
        <ele>1539.62</ele>
        <time>2021-08-11T10:50:53Z</time>
      </trkpt>
      <trkpt lat="44.41458" lon="6.76931">
        <ele>1537.76</ele>
        <time>2021-08-11T10:50:54Z</time>
      </trkpt>
      <trkpt lat="44.41456" lon="6.76924">
        <ele>1536.94</ele>
        <time>2021-08-11T10:50:55Z</time>
      </trkpt>
      <trkpt lat="44.41454" lon="6.76918">
        <ele>1536.49</ele>
        <time>2021-08-11T10:50:56Z</time>
      </trkpt>
      <trkpt lat="44.41452" lon="6.76912">
        <ele>1535.6</ele>
        <time>2021-08-11T10:50:57Z</time>
      </trkpt>
      <trkpt lat="44.41448" lon="6.76907">
        <ele>1535.82</ele>
        <time>2021-08-11T10:50:58Z</time>
      </trkpt>
      <trkpt lat="44.41444" lon="6.76902">
        <ele>1535.95</ele>
        <time>2021-08-11T10:50:59Z</time>
      </trkpt>
      <trkpt lat="44.41438" lon="6.76897">
        <ele>1537.36</ele>
        <time>2021-08-11T10:51:00Z</time>
      </trkpt>
      <trkpt lat="44.41433" lon="6.76893">
        <ele>1538.83</ele>
        <time>2021-08-11T10:51:01Z</time>
      </trkpt>
      <trkpt lat="44.41427" lon="6.76888">
        <ele>1540.87</ele>
        <time>2021-08-11T10:51:02Z</time>
      </trkpt>
      <trkpt lat="44.41421" lon="6.76882">
        <ele>1543.05</ele>
        <time>2021-08-11T10:51:03Z</time>
      </trkpt>
      <trkpt lat="44.41416" lon="6.76877">
        <ele>1544.85</ele>
        <time>2021-08-11T10:51:04Z</time>
      </trkpt>
      <trkpt lat="44.4141" lon="6.76872">
        <ele>1547.63</ele>
        <time>2021-08-11T10:51:05Z</time>
      </trkpt>
      <trkpt lat="44.41404" lon="6.76864">
        <ele>1550.15</ele>
        <time>2021-08-11T10:51:06Z</time>
      </trkpt>
      <trkpt lat="44.41399" lon="6.76855">
        <ele>1551.38</ele>
        <time>2021-08-11T10:51:07Z</time>
      </trkpt>
      <trkpt lat="44.41395" lon="6.76844">
        <ele>1551.24</ele>
        <time>2021-08-11T10:51:08Z</time>
      </trkpt>
      <trkpt lat="44.41393" lon="6.76833">
        <ele>1549.79</ele>
        <time>2021-08-11T10:51:09Z</time>
      </trkpt>
      <trkpt lat="44.41392" lon="6.76824">
        <ele>1547.81</ele>
        <time>2021-08-11T10:51:10Z</time>
      </trkpt>
      <trkpt lat="44.41392" lon="6.76816">
        <ele>1545.38</ele>
        <time>2021-08-11T10:51:11Z</time>
      </trkpt>
      <trkpt lat="44.41392" lon="6.7681">
        <ele>1543.56</ele>
        <time>2021-08-11T10:51:12Z</time>
      </trkpt>
      <trkpt lat="44.41391" lon="6.76806">
        <ele>1542.92</ele>
        <time>2021-08-11T10:51:13Z</time>
      </trkpt>
      <trkpt lat="44.4139" lon="6.76801">
        <ele>1542.05</ele>
        <time>2021-08-11T10:51:14Z</time>
      </trkpt>
      <trkpt lat="44.41389" lon="6.76796">
        <ele>1541.19</ele>
        <time>2021-08-11T10:51:15Z</time>
      </trkpt>
      <trkpt lat="44.41387" lon="6.7679">
        <ele>1540.99</ele>
        <time>2021-08-11T10:51:16Z</time>
      </trkpt>
      <trkpt lat="44.41384" lon="6.76782">
        <ele>1541.18</ele>
        <time>2021-08-11T10:51:17Z</time>
      </trkpt>
      <trkpt lat="44.41379" lon="6.76775">
        <ele>1543.55</ele>
        <time>2021-08-11T10:51:18Z</time>
      </trkpt>
      <trkpt lat="44.41375" lon="6.76767">
        <ele>1544.98</ele>
        <time>2021-08-11T10:51:19Z</time>
      </trkpt>
      <trkpt lat="44.41371" lon="6.76757">
        <ele>1545.84</ele>
        <time>2021-08-11T10:51:20Z</time>
      </trkpt>
      <trkpt lat="44.41366" lon="6.76748">
        <ele>1547.56</ele>
        <time>2021-08-11T10:51:21Z</time>
      </trkpt>
      <trkpt lat="44.41361" lon="6.76739">
        <ele>1548.47</ele>
        <time>2021-08-11T10:51:22Z</time>
      </trkpt>
      <trkpt lat="44.41357" lon="6.76731">
        <ele>1547.03</ele>
        <time>2021-08-11T10:51:23Z</time>
      </trkpt>
      <trkpt lat="44.41353" lon="6.76721">
        <ele>1545.08</ele>
        <time>2021-08-11T10:51:24Z</time>
      </trkpt>
      <trkpt lat="44.4135" lon="6.76711">
        <ele>1543.94</ele>
        <time>2021-08-11T10:51:25Z</time>
      </trkpt>
      <trkpt lat="44.41347" lon="6.76701">
        <ele>1542.87</ele>
        <time>2021-08-11T10:51:26Z</time>
      </trkpt>
      <trkpt lat="44.41344" lon="6.76691">
        <ele>1541.85</ele>
        <time>2021-08-11T10:51:27Z</time>
      </trkpt>
      <trkpt lat="44.41341" lon="6.76682">
        <ele>1540.95</ele>
        <time>2021-08-11T10:51:28Z</time>
      </trkpt>
      <trkpt lat="44.41339" lon="6.76675">
        <ele>1540.11</ele>
        <time>2021-08-11T10:51:29Z</time>
      </trkpt>
      <trkpt lat="44.41336" lon="6.76669">
        <ele>1539.73</ele>
        <time>2021-08-11T10:51:30Z</time>
      </trkpt>
      <trkpt lat="44.41334" lon="6.76664">
        <ele>1539.14</ele>
        <time>2021-08-11T10:51:31Z</time>
      </trkpt>
      <trkpt lat="44.41333" lon="6.7666">
        <ele>1538.4</ele>
        <time>2021-08-11T10:51:32Z</time>
      </trkpt>
      <trkpt lat="44.41332" lon="6.76655">
        <ele>1537.38</ele>
        <time>2021-08-11T10:51:33Z</time>
      </trkpt>
      <trkpt lat="44.41333" lon="6.76651">
        <ele>1536.13</ele>
        <time>2021-08-11T10:51:34Z</time>
      </trkpt>
      <trkpt lat="44.41335" lon="6.76647">
        <ele>1534.61</ele>
        <time>2021-08-11T10:51:35Z</time>
      </trkpt>
      <trkpt lat="44.41338" lon="6.76646">
        <ele>1533.57</ele>
        <time>2021-08-11T10:51:36Z</time>
      </trkpt>
      <trkpt lat="44.41341" lon="6.76646">
        <ele>1532.79</ele>
        <time>2021-08-11T10:51:37Z</time>
      </trkpt>
      <trkpt lat="44.41347" lon="6.76654">
        <ele>1533.1</ele>
        <time>2021-08-11T10:51:39Z</time>
      </trkpt>
      <trkpt lat="44.41349" lon="6.76665">
        <ele>1535.1</ele>
        <time>2021-08-11T10:51:40Z</time>
      </trkpt>
      <trkpt lat="44.41351" lon="6.76671">
        <ele>1535.75</ele>
        <time>2021-08-11T10:51:41Z</time>
      </trkpt>
      <trkpt lat="44.41354" lon="6.76676">
        <ele>1535.81</ele>
        <time>2021-08-11T10:51:42Z</time>
      </trkpt>
      <trkpt lat="44.41359" lon="6.76687">
        <ele>1536.32</ele>
        <time>2021-08-11T10:51:44Z</time>
      </trkpt>
      <trkpt lat="44.41362" lon="6.76699">
        <ele>1537.55</ele>
        <time>2021-08-11T10:51:46Z</time>
      </trkpt>
      <trkpt lat="44.41367" lon="6.7671">
        <ele>1537.25</ele>
        <time>2021-08-11T10:51:47Z</time>
      </trkpt>
      <trkpt lat="44.41372" lon="6.76718">
        <ele>1535.99</ele>
        <time>2021-08-11T10:51:48Z</time>
      </trkpt>
      <trkpt lat="44.41378" lon="6.76725">
        <ele>1533.81</ele>
        <time>2021-08-11T10:51:49Z</time>
      </trkpt>
      <trkpt lat="44.41383" lon="6.76732">
        <ele>1531.9</ele>
        <time>2021-08-11T10:51:50Z</time>
      </trkpt>
      <trkpt lat="44.41389" lon="6.76737">
        <ele>1528.54</ele>
        <time>2021-08-11T10:51:51Z</time>
      </trkpt>
      <trkpt lat="44.41395" lon="6.76741">
        <ele>1525.73</ele>
        <time>2021-08-11T10:51:52Z</time>
      </trkpt>
      <trkpt lat="44.41401" lon="6.76746">
        <ele>1523.03</ele>
        <time>2021-08-11T10:51:53Z</time>
      </trkpt>
      <trkpt lat="44.41406" lon="6.76752">
        <ele>1521.19</ele>
        <time>2021-08-11T10:51:54Z</time>
      </trkpt>
      <trkpt lat="44.41412" lon="6.76758">
        <ele>1519.25</ele>
        <time>2021-08-11T10:51:55Z</time>
      </trkpt>
      <trkpt lat="44.41418" lon="6.76763">
        <ele>1517.09</ele>
        <time>2021-08-11T10:51:56Z</time>
      </trkpt>
      <trkpt lat="44.41425" lon="6.76766">
        <ele>1513.91</ele>
        <time>2021-08-11T10:51:57Z</time>
      </trkpt>
      <trkpt lat="44.41431" lon="6.76769">
        <ele>1511.17</ele>
        <time>2021-08-11T10:51:58Z</time>
      </trkpt>
      <trkpt lat="44.41437" lon="6.76773">
        <ele>1508.51</ele>
        <time>2021-08-11T10:51:59Z</time>
      </trkpt>
      <trkpt lat="44.41443" lon="6.76776">
        <ele>1505.57</ele>
        <time>2021-08-11T10:52:00Z</time>
      </trkpt>
      <trkpt lat="44.41448" lon="6.76782">
        <ele>1505.09</ele>
        <time>2021-08-11T10:52:01Z</time>
      </trkpt>
      <trkpt lat="44.41453" lon="6.7679">
        <ele>1505.39</ele>
        <time>2021-08-11T10:52:02Z</time>
      </trkpt>
      <trkpt lat="44.41459" lon="6.76798">
        <ele>1505.08</ele>
        <time>2021-08-11T10:52:03Z</time>
      </trkpt>
      <trkpt lat="44.41464" lon="6.76807">
        <ele>1504.95</ele>
        <time>2021-08-11T10:52:04Z</time>
      </trkpt>
      <trkpt lat="44.41471" lon="6.76814">
        <ele>1503.94</ele>
        <time>2021-08-11T10:52:05Z</time>
      </trkpt>
      <trkpt lat="44.41478" lon="6.7682">
        <ele>1503.04</ele>
        <time>2021-08-11T10:52:06Z</time>
      </trkpt>
      <trkpt lat="44.41487" lon="6.76825">
        <ele>1501.4</ele>
        <time>2021-08-11T10:52:07Z</time>
      </trkpt>
      <trkpt lat="44.41495" lon="6.7683">
        <ele>1499.94</ele>
        <time>2021-08-11T10:52:08Z</time>
      </trkpt>
      <trkpt lat="44.41503" lon="6.76835">
        <ele>1499.02</ele>
        <time>2021-08-11T10:52:09Z</time>
      </trkpt>
      <trkpt lat="44.4151" lon="6.7684">
        <ele>1499.24</ele>
        <time>2021-08-11T10:52:10Z</time>
      </trkpt>
      <trkpt lat="44.41516" lon="6.76845">
        <ele>1499.53</ele>
        <time>2021-08-11T10:52:11Z</time>
      </trkpt>
      <trkpt lat="44.41522" lon="6.7685">
        <ele>1499.82</ele>
        <time>2021-08-11T10:52:12Z</time>
      </trkpt>
      <trkpt lat="44.41526" lon="6.76855">
        <ele>1500.25</ele>
        <time>2021-08-11T10:52:13Z</time>
      </trkpt>
      <trkpt lat="44.41531" lon="6.76859">
        <ele>1500.21</ele>
        <time>2021-08-11T10:52:14Z</time>
      </trkpt>
      <trkpt lat="44.41537" lon="6.76863">
        <ele>1499.94</ele>
        <time>2021-08-11T10:52:15Z</time>
      </trkpt>
      <trkpt lat="44.41543" lon="6.76866">
        <ele>1499.51</ele>
        <time>2021-08-11T10:52:16Z</time>
      </trkpt>
      <trkpt lat="44.4155" lon="6.76868">
        <ele>1498.79</ele>
        <time>2021-08-11T10:52:17Z</time>
      </trkpt>
      <trkpt lat="44.41557" lon="6.76868">
        <ele>1497.69</ele>
        <time>2021-08-11T10:52:18Z</time>
      </trkpt>
      <trkpt lat="44.41563" lon="6.76869">
        <ele>1496.6</ele>
        <time>2021-08-11T10:52:19Z</time>
      </trkpt>
      <trkpt lat="44.41568" lon="6.76869">
        <ele>1495.58</ele>
        <time>2021-08-11T10:52:20Z</time>
      </trkpt>
      <trkpt lat="44.41573" lon="6.76871">
        <ele>1494.88</ele>
        <time>2021-08-11T10:52:21Z</time>
      </trkpt>
      <trkpt lat="44.41576" lon="6.76873">
        <ele>1494.61</ele>
        <time>2021-08-11T10:52:22Z</time>
      </trkpt>
      <trkpt lat="44.4158" lon="6.76878">
        <ele>1494.69</ele>
        <time>2021-08-11T10:52:23Z</time>
      </trkpt>
      <trkpt lat="44.41584" lon="6.76883">
        <ele>1494.76</ele>
        <time>2021-08-11T10:52:24Z</time>
      </trkpt>
      <trkpt lat="44.41587" lon="6.7689">
        <ele>1495.37</ele>
        <time>2021-08-11T10:52:25Z</time>
      </trkpt>
      <trkpt lat="44.41589" lon="6.76898">
        <ele>1497.07</ele>
        <time>2021-08-11T10:52:26Z</time>
      </trkpt>
      <trkpt lat="44.41592" lon="6.76907">
        <ele>1498.99</ele>
        <time>2021-08-11T10:52:27Z</time>
      </trkpt>
      <trkpt lat="44.41594" lon="6.76915">
        <ele>1500.97</ele>
        <time>2021-08-11T10:52:28Z</time>
      </trkpt>
      <trkpt lat="44.41598" lon="6.76923">
        <ele>1502.71</ele>
        <time>2021-08-11T10:52:29Z</time>
      </trkpt>
      <trkpt lat="44.41601" lon="6.7693">
        <ele>1504.3</ele>
        <time>2021-08-11T10:52:30Z</time>
      </trkpt>
      <trkpt lat="44.41606" lon="6.76936">
        <ele>1505.3</ele>
        <time>2021-08-11T10:52:31Z</time>
      </trkpt>
      <trkpt lat="44.41611" lon="6.76942">
        <ele>1506.31</ele>
        <time>2021-08-11T10:52:32Z</time>
      </trkpt>
      <trkpt lat="44.41615" lon="6.76948">
        <ele>1505.55</ele>
        <time>2021-08-11T10:52:33Z</time>
      </trkpt>
      <trkpt lat="44.41619" lon="6.76955">
        <ele>1504.34</ele>
        <time>2021-08-11T10:52:34Z</time>
      </trkpt>
      <trkpt lat="44.41623" lon="6.76962">
        <ele>1503.06</ele>
        <time>2021-08-11T10:52:35Z</time>
      </trkpt>
      <trkpt lat="44.41625" lon="6.7697">
        <ele>1502.8</ele>
        <time>2021-08-11T10:52:36Z</time>
      </trkpt>
      <trkpt lat="44.41627" lon="6.7698">
        <ele>1502.23</ele>
        <time>2021-08-11T10:52:37Z</time>
      </trkpt>
      <trkpt lat="44.41629" lon="6.76989">
        <ele>1501.41</ele>
        <time>2021-08-11T10:52:38Z</time>
      </trkpt>
      <trkpt lat="44.41631" lon="6.77005">
        <ele>1500.31</ele>
        <time>2021-08-11T10:52:40Z</time>
      </trkpt>
      <trkpt lat="44.41634" lon="6.77019">
        <ele>1498.01</ele>
        <time>2021-08-11T10:52:41Z</time>
      </trkpt>
      <trkpt lat="44.41635" lon="6.7703">
        <ele>1497.1</ele>
        <time>2021-08-11T10:52:42Z</time>
      </trkpt>
      <trkpt lat="44.41636" lon="6.77039">
        <ele>1496.56</ele>
        <time>2021-08-11T10:52:43Z</time>
      </trkpt>
      <trkpt lat="44.41637" lon="6.77049">
        <ele>1496.02</ele>
        <time>2021-08-11T10:52:44Z</time>
      </trkpt>
      <trkpt lat="44.41639" lon="6.77057">
        <ele>1495.12</ele>
        <time>2021-08-11T10:52:45Z</time>
      </trkpt>
      <trkpt lat="44.41641" lon="6.77065">
        <ele>1495.26</ele>
        <time>2021-08-11T10:52:46Z</time>
      </trkpt>
      <trkpt lat="44.41642" lon="6.77073">
        <ele>1495.76</ele>
        <time>2021-08-11T10:52:47Z</time>
      </trkpt>
      <trkpt lat="44.41642" lon="6.77079">
        <ele>1496.41</ele>
        <time>2021-08-11T10:52:48Z</time>
      </trkpt>
      <trkpt lat="44.41642" lon="6.77086">
        <ele>1497.25</ele>
        <time>2021-08-11T10:52:49Z</time>
      </trkpt>
      <trkpt lat="44.41642" lon="6.77092">
        <ele>1498.09</ele>
        <time>2021-08-11T10:52:50Z</time>
      </trkpt>
      <trkpt lat="44.41642" lon="6.77096">
        <ele>1498.65</ele>
        <time>2021-08-11T10:52:51Z</time>
      </trkpt>
      <trkpt lat="44.41643" lon="6.771">
        <ele>1498.83</ele>
        <time>2021-08-11T10:52:52Z</time>
      </trkpt>
      <trkpt lat="44.41645" lon="6.77103">
        <ele>1498.48</ele>
        <time>2021-08-11T10:52:53Z</time>
      </trkpt>
      <trkpt lat="44.4165" lon="6.77102">
        <ele>1496.42</ele>
        <time>2021-08-11T10:52:55Z</time>
      </trkpt>
      <trkpt lat="44.41652" lon="6.77099">
        <ele>1495.27</ele>
        <time>2021-08-11T10:52:56Z</time>
      </trkpt>
      <trkpt lat="44.41653" lon="6.77091">
        <ele>1493.88</ele>
        <time>2021-08-11T10:52:57Z</time>
      </trkpt>
      <trkpt lat="44.41653" lon="6.77086">
        <ele>1493.26</ele>
        <time>2021-08-11T10:52:58Z</time>
      </trkpt>
      <trkpt lat="44.41653" lon="6.77079">
        <ele>1492.45</ele>
        <time>2021-08-11T10:52:59Z</time>
      </trkpt>
      <trkpt lat="44.41653" lon="6.77071">
        <ele>1491.59</ele>
        <time>2021-08-11T10:53:00Z</time>
      </trkpt>
      <trkpt lat="44.41653" lon="6.77062">
        <ele>1490.62</ele>
        <time>2021-08-11T10:53:01Z</time>
      </trkpt>
      <trkpt lat="44.41653" lon="6.77053">
        <ele>1489.73</ele>
        <time>2021-08-11T10:53:02Z</time>
      </trkpt>
      <trkpt lat="44.41654" lon="6.77045">
        <ele>1488.73</ele>
        <time>2021-08-11T10:53:03Z</time>
      </trkpt>
      <trkpt lat="44.41654" lon="6.77037">
        <ele>1488.11</ele>
        <time>2021-08-11T10:53:04Z</time>
      </trkpt>
      <trkpt lat="44.41654" lon="6.77029">
        <ele>1487.48</ele>
        <time>2021-08-11T10:53:05Z</time>
      </trkpt>
      <trkpt lat="44.41654" lon="6.77021">
        <ele>1487.23</ele>
        <time>2021-08-11T10:53:06Z</time>
      </trkpt>
      <trkpt lat="44.41654" lon="6.77013">
        <ele>1487.05</ele>
        <time>2021-08-11T10:53:07Z</time>
      </trkpt>
      <trkpt lat="44.41656" lon="6.77004">
        <ele>1485.65</ele>
        <time>2021-08-11T10:53:08Z</time>
      </trkpt>
      <trkpt lat="44.41657" lon="6.76997">
        <ele>1484.85</ele>
        <time>2021-08-11T10:53:09Z</time>
      </trkpt>
      <trkpt lat="44.41659" lon="6.76991">
        <ele>1483.46</ele>
        <time>2021-08-11T10:53:10Z</time>
      </trkpt>
      <trkpt lat="44.41661" lon="6.76985">
        <ele>1482.04</ele>
        <time>2021-08-11T10:53:11Z</time>
      </trkpt>
      <trkpt lat="44.41662" lon="6.76978">
        <ele>1481.2</ele>
        <time>2021-08-11T10:53:12Z</time>
      </trkpt>
      <trkpt lat="44.41663" lon="6.76971">
        <ele>1480.36</ele>
        <time>2021-08-11T10:53:13Z</time>
      </trkpt>
      <trkpt lat="44.41663" lon="6.76963">
        <ele>1480.29</ele>
        <time>2021-08-11T10:53:14Z</time>
      </trkpt>
      <trkpt lat="44.41662" lon="6.76954">
        <ele>1480.8</ele>
        <time>2021-08-11T10:53:15Z</time>
      </trkpt>
      <trkpt lat="44.4166" lon="6.76946">
        <ele>1481.87</ele>
        <time>2021-08-11T10:53:16Z</time>
      </trkpt>
      <trkpt lat="44.41657" lon="6.76937">
        <ele>1483.11</ele>
        <time>2021-08-11T10:53:17Z</time>
      </trkpt>
      <trkpt lat="44.41653" lon="6.76929">
        <ele>1484.77</ele>
        <time>2021-08-11T10:53:18Z</time>
      </trkpt>
      <trkpt lat="44.41649" lon="6.7692">
        <ele>1486.18</ele>
        <time>2021-08-11T10:53:19Z</time>
      </trkpt>
      <trkpt lat="44.41646" lon="6.76911">
        <ele>1485.79</ele>
        <time>2021-08-11T10:53:20Z</time>
      </trkpt>
      <trkpt lat="44.41642" lon="6.76902">
        <ele>1484.92</ele>
        <time>2021-08-11T10:53:21Z</time>
      </trkpt>
      <trkpt lat="44.41639" lon="6.76892">
        <ele>1482.97</ele>
        <time>2021-08-11T10:53:22Z</time>
      </trkpt>
      <trkpt lat="44.41635" lon="6.76882">
        <ele>1481.03</ele>
        <time>2021-08-11T10:53:23Z</time>
      </trkpt>
      <trkpt lat="44.41632" lon="6.76871">
        <ele>1478.74</ele>
        <time>2021-08-11T10:53:24Z</time>
      </trkpt>
      <trkpt lat="44.4163" lon="6.76861">
        <ele>1476.54</ele>
        <time>2021-08-11T10:53:25Z</time>
      </trkpt>
      <trkpt lat="44.41629" lon="6.76851">
        <ele>1474.9</ele>
        <time>2021-08-11T10:53:26Z</time>
      </trkpt>
      <trkpt lat="44.41628" lon="6.76842">
        <ele>1473.43</ele>
        <time>2021-08-11T10:53:27Z</time>
      </trkpt>
      <trkpt lat="44.41625" lon="6.76832">
        <ele>1472.16</ele>
        <time>2021-08-11T10:53:28Z</time>
      </trkpt>
      <trkpt lat="44.41622" lon="6.76822">
        <ele>1470.49</ele>
        <time>2021-08-11T10:53:29Z</time>
      </trkpt>
      <trkpt lat="44.41618" lon="6.76812">
        <ele>1469.28</ele>
        <time>2021-08-11T10:53:30Z</time>
      </trkpt>
      <trkpt lat="44.41614" lon="6.76801">
        <ele>1468.43</ele>
        <time>2021-08-11T10:53:31Z</time>
      </trkpt>
      <trkpt lat="44.41612" lon="6.76789">
        <ele>1467.35</ele>
        <time>2021-08-11T10:53:32Z</time>
      </trkpt>
      <trkpt lat="44.4161" lon="6.76777">
        <ele>1466.53</ele>
        <time>2021-08-11T10:53:33Z</time>
      </trkpt>
      <trkpt lat="44.41609" lon="6.76766">
        <ele>1467.6</ele>
        <time>2021-08-11T10:53:34Z</time>
      </trkpt>
      <trkpt lat="44.41608" lon="6.76756">
        <ele>1468.47</ele>
        <time>2021-08-11T10:53:35Z</time>
      </trkpt>
      <trkpt lat="44.41606" lon="6.76746">
        <ele>1469.24</ele>
        <time>2021-08-11T10:53:36Z</time>
      </trkpt>
      <trkpt lat="44.41604" lon="6.76736">
        <ele>1469.53</ele>
        <time>2021-08-11T10:53:37Z</time>
      </trkpt>
      <trkpt lat="44.41601" lon="6.76725">
        <ele>1469.89</ele>
        <time>2021-08-11T10:53:38Z</time>
      </trkpt>
      <trkpt lat="44.41598" lon="6.76714">
        <ele>1469.02</ele>
        <time>2021-08-11T10:53:39Z</time>
      </trkpt>
      <trkpt lat="44.41596" lon="6.76702">
        <ele>1467.48</ele>
        <time>2021-08-11T10:53:40Z</time>
      </trkpt>
      <trkpt lat="44.41595" lon="6.76692">
        <ele>1466.25</ele>
        <time>2021-08-11T10:53:41Z</time>
      </trkpt>
      <trkpt lat="44.41595" lon="6.76683">
        <ele>1465.42</ele>
        <time>2021-08-11T10:53:42Z</time>
      </trkpt>
      <trkpt lat="44.41594" lon="6.76674">
        <ele>1464.77</ele>
        <time>2021-08-11T10:53:43Z</time>
      </trkpt>
      <trkpt lat="44.41593" lon="6.76667">
        <ele>1464.29</ele>
        <time>2021-08-11T10:53:44Z</time>
      </trkpt>
      <trkpt lat="44.41592" lon="6.76661">
        <ele>1463.69</ele>
        <time>2021-08-11T10:53:45Z</time>
      </trkpt>
      <trkpt lat="44.4159" lon="6.76655">
        <ele>1463.22</ele>
        <time>2021-08-11T10:53:46Z</time>
      </trkpt>
      <trkpt lat="44.41587" lon="6.7665">
        <ele>1463.02</ele>
        <time>2021-08-11T10:53:47Z</time>
      </trkpt>
      <trkpt lat="44.41583" lon="6.76645">
        <ele>1462.9</ele>
        <time>2021-08-11T10:53:48Z</time>
      </trkpt>
      <trkpt lat="44.41577" lon="6.76641">
        <ele>1462.73</ele>
        <time>2021-08-11T10:53:49Z</time>
      </trkpt>
      <trkpt lat="44.41572" lon="6.76636">
        <ele>1462.4</ele>
        <time>2021-08-11T10:53:50Z</time>
      </trkpt>
      <trkpt lat="44.41567" lon="6.7663">
        <ele>1461.9</ele>
        <time>2021-08-11T10:53:51Z</time>
      </trkpt>
      <trkpt lat="44.41563" lon="6.76624">
        <ele>1461.32</ele>
        <time>2021-08-11T10:53:52Z</time>
      </trkpt>
      <trkpt lat="44.4156" lon="6.76616">
        <ele>1460.38</ele>
        <time>2021-08-11T10:53:53Z</time>
      </trkpt>
      <trkpt lat="44.41559" lon="6.76608">
        <ele>1459.19</ele>
        <time>2021-08-11T10:53:54Z</time>
      </trkpt>
      <trkpt lat="44.41559" lon="6.76598">
        <ele>1457.39</ele>
        <time>2021-08-11T10:53:55Z</time>
      </trkpt>
      <trkpt lat="44.41561" lon="6.76587">
        <ele>1455.27</ele>
        <time>2021-08-11T10:53:56Z</time>
      </trkpt>
      <trkpt lat="44.41563" lon="6.76576">
        <ele>1453.48</ele>
        <time>2021-08-11T10:53:57Z</time>
      </trkpt>
      <trkpt lat="44.41566" lon="6.76566">
        <ele>1451.99</ele>
        <time>2021-08-11T10:53:58Z</time>
      </trkpt>
      <trkpt lat="44.41569" lon="6.76557">
        <ele>1450.7</ele>
        <time>2021-08-11T10:53:59Z</time>
      </trkpt>
      <trkpt lat="44.41571" lon="6.7655">
        <ele>1449.64</ele>
        <time>2021-08-11T10:54:00Z</time>
      </trkpt>
      <trkpt lat="44.41572" lon="6.76543">
        <ele>1448.6</ele>
        <time>2021-08-11T10:54:01Z</time>
      </trkpt>
      <trkpt lat="44.41572" lon="6.76536">
        <ele>1447.59</ele>
        <time>2021-08-11T10:54:02Z</time>
      </trkpt>
      <trkpt lat="44.41572" lon="6.7653">
        <ele>1446.73</ele>
        <time>2021-08-11T10:54:03Z</time>
      </trkpt>
      <trkpt lat="44.41571" lon="6.76526">
        <ele>1446</ele>
        <time>2021-08-11T10:54:04Z</time>
      </trkpt>
      <trkpt lat="44.41569" lon="6.76521">
        <ele>1444.8</ele>
        <time>2021-08-11T10:54:05Z</time>
      </trkpt>
      <trkpt lat="44.41565" lon="6.76515">
        <ele>1443.29</ele>
        <time>2021-08-11T10:54:06Z</time>
      </trkpt>
      <trkpt lat="44.41561" lon="6.7651">
        <ele>1441.93</ele>
        <time>2021-08-11T10:54:07Z</time>
      </trkpt>
      <trkpt lat="44.41557" lon="6.76506">
        <ele>1440.76</ele>
        <time>2021-08-11T10:54:08Z</time>
      </trkpt>
      <trkpt lat="44.41551" lon="6.76504">
        <ele>1440.46</ele>
        <time>2021-08-11T10:54:09Z</time>
      </trkpt>
      <trkpt lat="44.41544" lon="6.76502">
        <ele>1440.38</ele>
        <time>2021-08-11T10:54:10Z</time>
      </trkpt>
      <trkpt lat="44.41537" lon="6.765">
        <ele>1440.34</ele>
        <time>2021-08-11T10:54:11Z</time>
      </trkpt>
      <trkpt lat="44.4153" lon="6.76498">
        <ele>1440.34</ele>
        <time>2021-08-11T10:54:12Z</time>
      </trkpt>
      <trkpt lat="44.41524" lon="6.76494">
        <ele>1439.79</ele>
        <time>2021-08-11T10:54:13Z</time>
      </trkpt>
      <trkpt lat="44.41518" lon="6.76489">
        <ele>1439.07</ele>
        <time>2021-08-11T10:54:14Z</time>
      </trkpt>
      <trkpt lat="44.41512" lon="6.76483">
        <ele>1438.2</ele>
        <time>2021-08-11T10:54:15Z</time>
      </trkpt>
      <trkpt lat="44.41507" lon="6.76477">
        <ele>1437.32</ele>
        <time>2021-08-11T10:54:16Z</time>
      </trkpt>
      <trkpt lat="44.41501" lon="6.76472">
        <ele>1436.85</ele>
        <time>2021-08-11T10:54:17Z</time>
      </trkpt>
      <trkpt lat="44.41495" lon="6.76468">
        <ele>1436.37</ele>
        <time>2021-08-11T10:54:18Z</time>
      </trkpt>
      <trkpt lat="44.41487" lon="6.76464">
        <ele>1435.71</ele>
        <time>2021-08-11T10:54:19Z</time>
      </trkpt>
      <trkpt lat="44.4148" lon="6.7646">
        <ele>1434.89</ele>
        <time>2021-08-11T10:54:20Z</time>
      </trkpt>
      <trkpt lat="44.41473" lon="6.76457">
        <ele>1434.17</ele>
        <time>2021-08-11T10:54:21Z</time>
      </trkpt>
      <trkpt lat="44.41467" lon="6.76454">
        <ele>1434.54</ele>
        <time>2021-08-11T10:54:22Z</time>
      </trkpt>
      <trkpt lat="44.41462" lon="6.76451">
        <ele>1434.86</ele>
        <time>2021-08-11T10:54:23Z</time>
      </trkpt>
      <trkpt lat="44.41459" lon="6.76448">
        <ele>1434.75</ele>
        <time>2021-08-11T10:54:24Z</time>
      </trkpt>
      <trkpt lat="44.41457" lon="6.76444">
        <ele>1434.23</ele>
        <time>2021-08-11T10:54:25Z</time>
      </trkpt>
      <trkpt lat="44.41455" lon="6.76436">
        <ele>1433.69</ele>
        <time>2021-08-11T10:54:26Z</time>
      </trkpt>
      <trkpt lat="44.41455" lon="6.76427">
        <ele>1432.6</ele>
        <time>2021-08-11T10:54:27Z</time>
      </trkpt>
      <trkpt lat="44.41456" lon="6.76418">
        <ele>1431.25</ele>
        <time>2021-08-11T10:54:28Z</time>
      </trkpt>
      <trkpt lat="44.41458" lon="6.76408">
        <ele>1430.42</ele>
        <time>2021-08-11T10:54:29Z</time>
      </trkpt>
      <trkpt lat="44.4146" lon="6.76398">
        <ele>1429.86</ele>
        <time>2021-08-11T10:54:30Z</time>
      </trkpt>
      <trkpt lat="44.4146" lon="6.76388">
        <ele>1429.75</ele>
        <time>2021-08-11T10:54:31Z</time>
      </trkpt>
      <trkpt lat="44.4146" lon="6.76377">
        <ele>1429.57</ele>
        <time>2021-08-11T10:54:32Z</time>
      </trkpt>
      <trkpt lat="44.41459" lon="6.76367">
        <ele>1429.53</ele>
        <time>2021-08-11T10:54:33Z</time>
      </trkpt>
      <trkpt lat="44.41457" lon="6.76357">
        <ele>1429.43</ele>
        <time>2021-08-11T10:54:34Z</time>
      </trkpt>
      <trkpt lat="44.41454" lon="6.76348">
        <ele>1429.33</ele>
        <time>2021-08-11T10:54:35Z</time>
      </trkpt>
      <trkpt lat="44.4145" lon="6.76339">
        <ele>1429.44</ele>
        <time>2021-08-11T10:54:36Z</time>
      </trkpt>
      <trkpt lat="44.41445" lon="6.7633">
        <ele>1429.56</ele>
        <time>2021-08-11T10:54:37Z</time>
      </trkpt>
      <trkpt lat="44.41439" lon="6.7632">
        <ele>1429.55</ele>
        <time>2021-08-11T10:54:38Z</time>
      </trkpt>
      <trkpt lat="44.41434" lon="6.76309">
        <ele>1428.97</ele>
        <time>2021-08-11T10:54:39Z</time>
      </trkpt>
      <trkpt lat="44.4143" lon="6.76298">
        <ele>1427.72</ele>
        <time>2021-08-11T10:54:40Z</time>
      </trkpt>
      <trkpt lat="44.41426" lon="6.76288">
        <ele>1426.5</ele>
        <time>2021-08-11T10:54:41Z</time>
      </trkpt>
      <trkpt lat="44.41422" lon="6.76278">
        <ele>1425.27</ele>
        <time>2021-08-11T10:54:42Z</time>
      </trkpt>
      <trkpt lat="44.41418" lon="6.76269">
        <ele>1423.63</ele>
        <time>2021-08-11T10:54:43Z</time>
      </trkpt>
      <trkpt lat="44.41413" lon="6.76261">
        <ele>1422.59</ele>
        <time>2021-08-11T10:54:44Z</time>
      </trkpt>
      <trkpt lat="44.41408" lon="6.76254">
        <ele>1422.1</ele>
        <time>2021-08-11T10:54:45Z</time>
      </trkpt>
      <trkpt lat="44.41403" lon="6.76246">
        <ele>1421.87</ele>
        <time>2021-08-11T10:54:46Z</time>
      </trkpt>
      <trkpt lat="44.41399" lon="6.76238">
        <ele>1421.72</ele>
        <time>2021-08-11T10:54:47Z</time>
      </trkpt>
      <trkpt lat="44.41396" lon="6.76227">
        <ele>1420.9</ele>
        <time>2021-08-11T10:54:48Z</time>
      </trkpt>
      <trkpt lat="44.41395" lon="6.76216">
        <ele>1420.06</ele>
        <time>2021-08-11T10:54:49Z</time>
      </trkpt>
      <trkpt lat="44.41395" lon="6.76205">
        <ele>1419.36</ele>
        <time>2021-08-11T10:54:50Z</time>
      </trkpt>
      <trkpt lat="44.41397" lon="6.76194">
        <ele>1418.2</ele>
        <time>2021-08-11T10:54:51Z</time>
      </trkpt>
      <trkpt lat="44.414" lon="6.76182">
        <ele>1416.44</ele>
        <time>2021-08-11T10:54:52Z</time>
      </trkpt>
      <trkpt lat="44.41404" lon="6.76172">
        <ele>1414.75</ele>
        <time>2021-08-11T10:54:53Z</time>
      </trkpt>
      <trkpt lat="44.41409" lon="6.76161">
        <ele>1412.88</ele>
        <time>2021-08-11T10:54:54Z</time>
      </trkpt>
      <trkpt lat="44.41414" lon="6.76151">
        <ele>1410.9</ele>
        <time>2021-08-11T10:54:55Z</time>
      </trkpt>
      <trkpt lat="44.41419" lon="6.76141">
        <ele>1408.97</ele>
        <time>2021-08-11T10:54:56Z</time>
      </trkpt>
      <trkpt lat="44.41425" lon="6.76131">
        <ele>1407.42</ele>
        <time>2021-08-11T10:54:57Z</time>
      </trkpt>
      <trkpt lat="44.4143" lon="6.76123">
        <ele>1406.39</ele>
        <time>2021-08-11T10:54:58Z</time>
      </trkpt>
      <trkpt lat="44.41435" lon="6.76115">
        <ele>1405.58</ele>
        <time>2021-08-11T10:54:59Z</time>
      </trkpt>
      <trkpt lat="44.41439" lon="6.76107">
        <ele>1405.17</ele>
        <time>2021-08-11T10:55:00Z</time>
      </trkpt>
      <trkpt lat="44.41443" lon="6.76099">
        <ele>1405.03</ele>
        <time>2021-08-11T10:55:01Z</time>
      </trkpt>
      <trkpt lat="44.41446" lon="6.76091">
        <ele>1404.62</ele>
        <time>2021-08-11T10:55:02Z</time>
      </trkpt>
      <trkpt lat="44.41448" lon="6.76084">
        <ele>1404.11</ele>
        <time>2021-08-11T10:55:03Z</time>
      </trkpt>
      <trkpt lat="44.41449" lon="6.76075">
        <ele>1403.9</ele>
        <time>2021-08-11T10:55:04Z</time>
      </trkpt>
      <trkpt lat="44.41449" lon="6.76065">
        <ele>1403.96</ele>
        <time>2021-08-11T10:55:05Z</time>
      </trkpt>
      <trkpt lat="44.41448" lon="6.76055">
        <ele>1404.23</ele>
        <time>2021-08-11T10:55:06Z</time>
      </trkpt>
      <trkpt lat="44.41446" lon="6.76046">
        <ele>1404.68</ele>
        <time>2021-08-11T10:55:07Z</time>
      </trkpt>
      <trkpt lat="44.41445" lon="6.76036">
        <ele>1404.89</ele>
        <time>2021-08-11T10:55:08Z</time>
      </trkpt>
      <trkpt lat="44.41444" lon="6.76026">
        <ele>1404.86</ele>
        <time>2021-08-11T10:55:09Z</time>
      </trkpt>
      <trkpt lat="44.41445" lon="6.76015">
        <ele>1404</ele>
        <time>2021-08-11T10:55:10Z</time>
      </trkpt>
      <trkpt lat="44.41446" lon="6.76005">
        <ele>1403.17</ele>
        <time>2021-08-11T10:55:11Z</time>
      </trkpt>
      <trkpt lat="44.41448" lon="6.75997">
        <ele>1402.31</ele>
        <time>2021-08-11T10:55:12Z</time>
      </trkpt>
      <trkpt lat="44.41449" lon="6.75991">
        <ele>1401.59</ele>
        <time>2021-08-11T10:55:13Z</time>
      </trkpt>
      <trkpt lat="44.41449" lon="6.75982">
        <ele>1400.67</ele>
        <time>2021-08-11T10:55:15Z</time>
      </trkpt>
      <trkpt lat="44.41449" lon="6.75977">
        <ele>1400.16</ele>
        <time>2021-08-11T10:55:16Z</time>
      </trkpt>
      <trkpt lat="44.41448" lon="6.75972">
        <ele>1399.69</ele>
        <time>2021-08-11T10:55:17Z</time>
      </trkpt>
      <trkpt lat="44.41445" lon="6.75967">
        <ele>1398.82</ele>
        <time>2021-08-11T10:55:18Z</time>
      </trkpt>
      <trkpt lat="44.41442" lon="6.75965">
        <ele>1398.51</ele>
        <time>2021-08-11T10:55:19Z</time>
      </trkpt>
      <trkpt lat="44.41436" lon="6.75963">
        <ele>1398.31</ele>
        <time>2021-08-11T10:55:20Z</time>
      </trkpt>
      <trkpt lat="44.41431" lon="6.75962">
        <ele>1398.33</ele>
        <time>2021-08-11T10:55:21Z</time>
      </trkpt>
      <trkpt lat="44.41426" lon="6.75962">
        <ele>1398.53</ele>
        <time>2021-08-11T10:55:22Z</time>
      </trkpt>
      <trkpt lat="44.4142" lon="6.75963">
        <ele>1398.88</ele>
        <time>2021-08-11T10:55:23Z</time>
      </trkpt>
      <trkpt lat="44.41414" lon="6.75962">
        <ele>1398.8</ele>
        <time>2021-08-11T10:55:24Z</time>
      </trkpt>
      <trkpt lat="44.41409" lon="6.75961">
        <ele>1398.51</ele>
        <time>2021-08-11T10:55:25Z</time>
      </trkpt>
      <trkpt lat="44.41404" lon="6.75958">
        <ele>1398.01</ele>
        <time>2021-08-11T10:55:26Z</time>
      </trkpt>
      <trkpt lat="44.41399" lon="6.75954">
        <ele>1397.4</ele>
        <time>2021-08-11T10:55:27Z</time>
      </trkpt>
      <trkpt lat="44.41394" lon="6.75948">
        <ele>1396.57</ele>
        <time>2021-08-11T10:55:28Z</time>
      </trkpt>
      <trkpt lat="44.41391" lon="6.75941">
        <ele>1395.69</ele>
        <time>2021-08-11T10:55:29Z</time>
      </trkpt>
      <trkpt lat="44.41388" lon="6.75934">
        <ele>1394.93</ele>
        <time>2021-08-11T10:55:30Z</time>
      </trkpt>
      <trkpt lat="44.41385" lon="6.75927">
        <ele>1394.43</ele>
        <time>2021-08-11T10:55:31Z</time>
      </trkpt>
      <trkpt lat="44.41382" lon="6.7592">
        <ele>1394.04</ele>
        <time>2021-08-11T10:55:32Z</time>
      </trkpt>
      <trkpt lat="44.4138" lon="6.75913">
        <ele>1393.38</ele>
        <time>2021-08-11T10:55:33Z</time>
      </trkpt>
      <trkpt lat="44.41378" lon="6.75906">
        <ele>1392.56</ele>
        <time>2021-08-11T10:55:34Z</time>
      </trkpt>
      <trkpt lat="44.41376" lon="6.75899">
        <ele>1391.8</ele>
        <time>2021-08-11T10:55:35Z</time>
      </trkpt>
      <trkpt lat="44.41373" lon="6.75891">
        <ele>1391.15</ele>
        <time>2021-08-11T10:55:36Z</time>
      </trkpt>
      <trkpt lat="44.4137" lon="6.75883">
        <ele>1390.27</ele>
        <time>2021-08-11T10:55:37Z</time>
      </trkpt>
      <trkpt lat="44.41367" lon="6.75877">
        <ele>1389.71</ele>
        <time>2021-08-11T10:55:38Z</time>
      </trkpt>
      <trkpt lat="44.41363" lon="6.75872">
        <ele>1389.58</ele>
        <time>2021-08-11T10:55:39Z</time>
      </trkpt>
      <trkpt lat="44.41358" lon="6.75868">
        <ele>1389.63</ele>
        <time>2021-08-11T10:55:40Z</time>
      </trkpt>
      <trkpt lat="44.41353" lon="6.75865">
        <ele>1389.79</ele>
        <time>2021-08-11T10:55:41Z</time>
      </trkpt>
      <trkpt lat="44.41347" lon="6.75862">
        <ele>1390.16</ele>
        <time>2021-08-11T10:55:42Z</time>
      </trkpt>
      <trkpt lat="44.41341" lon="6.7586">
        <ele>1390.68</ele>
        <time>2021-08-11T10:55:43Z</time>
      </trkpt>
      <trkpt lat="44.41334" lon="6.75857">
        <ele>1391.16</ele>
        <time>2021-08-11T10:55:44Z</time>
      </trkpt>
      <trkpt lat="44.41328" lon="6.75855">
        <ele>1390.79</ele>
        <time>2021-08-11T10:55:45Z</time>
      </trkpt>
      <trkpt lat="44.41322" lon="6.75852">
        <ele>1390.22</ele>
        <time>2021-08-11T10:55:46Z</time>
      </trkpt>
      <trkpt lat="44.41318" lon="6.75849">
        <ele>1389.75</ele>
        <time>2021-08-11T10:55:47Z</time>
      </trkpt>
      <trkpt lat="44.41313" lon="6.75846">
        <ele>1389.34</ele>
        <time>2021-08-11T10:55:48Z</time>
      </trkpt>
      <trkpt lat="44.41309" lon="6.75841">
        <ele>1388.77</ele>
        <time>2021-08-11T10:55:49Z</time>
      </trkpt>
      <trkpt lat="44.41304" lon="6.75834">
        <ele>1387.96</ele>
        <time>2021-08-11T10:55:50Z</time>
      </trkpt>
      <trkpt lat="44.413" lon="6.75827">
        <ele>1386.51</ele>
        <time>2021-08-11T10:55:51Z</time>
      </trkpt>
      <trkpt lat="44.41294" lon="6.75819">
        <ele>1384.8</ele>
        <time>2021-08-11T10:55:52Z</time>
      </trkpt>
      <trkpt lat="44.41289" lon="6.75813">
        <ele>1383.58</ele>
        <time>2021-08-11T10:55:53Z</time>
      </trkpt>
      <trkpt lat="44.41283" lon="6.75807">
        <ele>1382.41</ele>
        <time>2021-08-11T10:55:54Z</time>
      </trkpt>
      <trkpt lat="44.41277" lon="6.75804">
        <ele>1381.58</ele>
        <time>2021-08-11T10:55:55Z</time>
      </trkpt>
      <trkpt lat="44.41271" lon="6.758">
        <ele>1380.21</ele>
        <time>2021-08-11T10:55:56Z</time>
      </trkpt>
      <trkpt lat="44.41265" lon="6.75797">
        <ele>1379.2</ele>
        <time>2021-08-11T10:55:57Z</time>
      </trkpt>
      <trkpt lat="44.41259" lon="6.75793">
        <ele>1378.18</ele>
        <time>2021-08-11T10:55:58Z</time>
      </trkpt>
      <trkpt lat="44.41254" lon="6.75789">
        <ele>1377.39</ele>
        <time>2021-08-11T10:55:59Z</time>
      </trkpt>
      <trkpt lat="44.41248" lon="6.75784">
        <ele>1376.74</ele>
        <time>2021-08-11T10:56:00Z</time>
      </trkpt>
      <trkpt lat="44.41243" lon="6.7578">
        <ele>1376.49</ele>
        <time>2021-08-11T10:56:01Z</time>
      </trkpt>
      <trkpt lat="44.41238" lon="6.75775">
        <ele>1376.13</ele>
        <time>2021-08-11T10:56:02Z</time>
      </trkpt>
      <trkpt lat="44.41232" lon="6.7577">
        <ele>1375.81</ele>
        <time>2021-08-11T10:56:03Z</time>
      </trkpt>
      <trkpt lat="44.41227" lon="6.75763">
        <ele>1375.23</ele>
        <time>2021-08-11T10:56:04Z</time>
      </trkpt>
      <trkpt lat="44.41223" lon="6.75758">
        <ele>1374.84</ele>
        <time>2021-08-11T10:56:05Z</time>
      </trkpt>
      <trkpt lat="44.41219" lon="6.75752">
        <ele>1375.01</ele>
        <time>2021-08-11T10:56:06Z</time>
      </trkpt>
      <trkpt lat="44.41215" lon="6.75745">
        <ele>1375.37</ele>
        <time>2021-08-11T10:56:07Z</time>
      </trkpt>
      <trkpt lat="44.41213" lon="6.75738">
        <ele>1375.31</ele>
        <time>2021-08-11T10:56:08Z</time>
      </trkpt>
      <trkpt lat="44.41212" lon="6.7573">
        <ele>1374.95</ele>
        <time>2021-08-11T10:56:09Z</time>
      </trkpt>
      <trkpt lat="44.41212" lon="6.75722">
        <ele>1374.31</ele>
        <time>2021-08-11T10:56:10Z</time>
      </trkpt>
      <trkpt lat="44.41213" lon="6.75714">
        <ele>1373.79</ele>
        <time>2021-08-11T10:56:11Z</time>
      </trkpt>
      <trkpt lat="44.41216" lon="6.75706">
        <ele>1372.56</ele>
        <time>2021-08-11T10:56:12Z</time>
      </trkpt>
      <trkpt lat="44.41218" lon="6.757">
        <ele>1371.69</ele>
        <time>2021-08-11T10:56:13Z</time>
      </trkpt>
      <trkpt lat="44.4122" lon="6.75697">
        <ele>1370.88</ele>
        <time>2021-08-11T10:56:14Z</time>
      </trkpt>
      <trkpt lat="44.41222" lon="6.75691">
        <ele>1370.2</ele>
        <time>2021-08-11T10:56:16Z</time>
      </trkpt>
      <trkpt lat="44.41225" lon="6.75688">
        <ele>1370.06</ele>
        <time>2021-08-11T10:58:09Z</time>
      </trkpt>
      <trkpt lat="44.41228" lon="6.75682">
        <ele>1369.96</ele>
        <time>2021-08-11T10:58:11Z</time>
      </trkpt>
      <trkpt lat="44.4123" lon="6.75678">
        <ele>1369.81</ele>
        <time>2021-08-11T10:58:12Z</time>
      </trkpt>
      <trkpt lat="44.41231" lon="6.75672">
        <ele>1369.73</ele>
        <time>2021-08-11T10:58:13Z</time>
      </trkpt>
      <trkpt lat="44.41232" lon="6.75664">
        <ele>1369.62</ele>
        <time>2021-08-11T10:58:14Z</time>
      </trkpt>
      <trkpt lat="44.41232" lon="6.75657">
        <ele>1369.7</ele>
        <time>2021-08-11T10:58:15Z</time>
      </trkpt>
      <trkpt lat="44.41231" lon="6.7565">
        <ele>1369.96</ele>
        <time>2021-08-11T10:58:16Z</time>
      </trkpt>
      <trkpt lat="44.41229" lon="6.75641">
        <ele>1370.5</ele>
        <time>2021-08-11T10:58:17Z</time>
      </trkpt>
      <trkpt lat="44.41227" lon="6.75633">
        <ele>1370.97</ele>
        <time>2021-08-11T10:58:18Z</time>
      </trkpt>
      <trkpt lat="44.41225" lon="6.75623">
        <ele>1371.4</ele>
        <time>2021-08-11T10:58:19Z</time>
      </trkpt>
      <trkpt lat="44.41224" lon="6.75614">
        <ele>1371.62</ele>
        <time>2021-08-11T10:58:20Z</time>
      </trkpt>
      <trkpt lat="44.41224" lon="6.75605">
        <ele>1371.41</ele>
        <time>2021-08-11T10:58:21Z</time>
      </trkpt>
      <trkpt lat="44.41225" lon="6.75597">
        <ele>1370.94</ele>
        <time>2021-08-11T10:58:22Z</time>
      </trkpt>
      <trkpt lat="44.41225" lon="6.75592">
        <ele>1370.78</ele>
        <time>2021-08-11T10:58:23Z</time>
      </trkpt>
      <trkpt lat="44.41225" lon="6.75587">
        <ele>1370.62</ele>
        <time>2021-08-11T10:58:26Z</time>
      </trkpt>
      <trkpt lat="44.4123" lon="6.75583">
        <ele>1369.62</ele>
        <time>2021-08-11T10:58:27Z</time>
      </trkpt>
      <trkpt lat="44.41235" lon="6.75584">
        <ele>1368.71</ele>
        <time>2021-08-11T10:58:29Z</time>
      </trkpt>
      <trkpt lat="44.4125" lon="6.75589">
        <ele>1366</ele>
        <time>2021-08-11T10:58:30Z</time>
      </trkpt>
      <trkpt lat="44.41253" lon="6.75595">
        <ele>1365.83</ele>
        <time>2021-08-11T10:58:31Z</time>
      </trkpt>
      <trkpt lat="44.41256" lon="6.75601">
        <ele>1365.71</ele>
        <time>2021-08-11T10:58:32Z</time>
      </trkpt>
      <trkpt lat="44.41258" lon="6.75606">
        <ele>1365.66</ele>
        <time>2021-08-11T10:58:33Z</time>
      </trkpt>
      <trkpt lat="44.41267" lon="6.75609">
        <ele>1365.34</ele>
        <time>2021-08-11T10:58:38Z</time>
      </trkpt>
      <trkpt lat="44.41273" lon="6.75605">
        <ele>1364.99</ele>
        <time>2021-08-11T10:58:39Z</time>
      </trkpt>
      <trkpt lat="44.41279" lon="6.75597">
        <ele>1364.36</ele>
        <time>2021-08-11T10:58:41Z</time>
      </trkpt>
      <trkpt lat="44.4128" lon="6.75593">
        <ele>1364.08</ele>
        <time>2021-08-11T10:58:49Z</time>
      </trkpt>
      <trkpt lat="44.41286" lon="6.75588">
        <ele>1363.08</ele>
        <time>2021-08-11T10:58:49Z</time>
      </trkpt>
      <trkpt lat="44.41292" lon="6.75579">
        <ele>1361.72</ele>
        <time>2021-08-11T10:58:50Z</time>
      </trkpt>
      <trkpt lat="44.41295" lon="6.75571">
        <ele>1360.8</ele>
        <time>2021-08-11T10:58:51Z</time>
      </trkpt>
      <trkpt lat="44.41298" lon="6.75563">
        <ele>1359.82</ele>
        <time>2021-08-11T10:58:52Z</time>
      </trkpt>
      <trkpt lat="44.41301" lon="6.75555">
        <ele>1358.8</ele>
        <time>2021-08-11T10:58:53Z</time>
      </trkpt>
      <trkpt lat="44.41304" lon="6.75547">
        <ele>1357.75</ele>
        <time>2021-08-11T10:58:54Z</time>
      </trkpt>
      <trkpt lat="44.41306" lon="6.75537">
        <ele>1356.54</ele>
        <time>2021-08-11T10:58:55Z</time>
      </trkpt>
      <trkpt lat="44.41308" lon="6.75527">
        <ele>1355.27</ele>
        <time>2021-08-11T10:58:56Z</time>
      </trkpt>
      <trkpt lat="44.4131" lon="6.75517">
        <ele>1354.27</ele>
        <time>2021-08-11T10:58:57Z</time>
      </trkpt>
      <trkpt lat="44.4131" lon="6.75506">
        <ele>1353.81</ele>
        <time>2021-08-11T10:58:58Z</time>
      </trkpt>
      <trkpt lat="44.41309" lon="6.75494">
        <ele>1353.67</ele>
        <time>2021-08-11T10:58:59Z</time>
      </trkpt>
      <trkpt lat="44.41308" lon="6.75482">
        <ele>1353.56</ele>
        <time>2021-08-11T10:59:00Z</time>
      </trkpt>
      <trkpt lat="44.41305" lon="6.75469">
        <ele>1353.98</ele>
        <time>2021-08-11T10:59:01Z</time>
      </trkpt>
      <trkpt lat="44.41301" lon="6.75457">
        <ele>1354.53</ele>
        <time>2021-08-11T10:59:02Z</time>
      </trkpt>
      <trkpt lat="44.41297" lon="6.75445">
        <ele>1354.82</ele>
        <time>2021-08-11T10:59:03Z</time>
      </trkpt>
      <trkpt lat="44.41294" lon="6.75433">
        <ele>1354.85</ele>
        <time>2021-08-11T10:59:04Z</time>
      </trkpt>
      <trkpt lat="44.4129" lon="6.75421">
        <ele>1355.45</ele>
        <time>2021-08-11T10:59:05Z</time>
      </trkpt>
      <trkpt lat="44.41287" lon="6.7541">
        <ele>1355.63</ele>
        <time>2021-08-11T10:59:06Z</time>
      </trkpt>
      <trkpt lat="44.41283" lon="6.75398">
        <ele>1355.92</ele>
        <time>2021-08-11T10:59:07Z</time>
      </trkpt>
      <trkpt lat="44.41279" lon="6.75386">
        <ele>1356.51</ele>
        <time>2021-08-11T10:59:08Z</time>
      </trkpt>
      <trkpt lat="44.41276" lon="6.75375">
        <ele>1357.54</ele>
        <time>2021-08-11T10:59:09Z</time>
      </trkpt>
      <trkpt lat="44.41271" lon="6.75362">
        <ele>1358.96</ele>
        <time>2021-08-11T10:59:10Z</time>
      </trkpt>
      <trkpt lat="44.41266" lon="6.7535">
        <ele>1359.59</ele>
        <time>2021-08-11T10:59:11Z</time>
      </trkpt>
      <trkpt lat="44.41261" lon="6.75339">
        <ele>1360.24</ele>
        <time>2021-08-11T10:59:12Z</time>
      </trkpt>
      <trkpt lat="44.41255" lon="6.7533">
        <ele>1360.96</ele>
        <time>2021-08-11T10:59:13Z</time>
      </trkpt>
      <trkpt lat="44.41251" lon="6.75322">
        <ele>1360.67</ele>
        <time>2021-08-11T10:59:14Z</time>
      </trkpt>
      <trkpt lat="44.41248" lon="6.75316">
        <ele>1360.43</ele>
        <time>2021-08-11T10:59:15Z</time>
      </trkpt>
      <trkpt lat="44.41245" lon="6.7531">
        <ele>1360.21</ele>
        <time>2021-08-11T10:59:16Z</time>
      </trkpt>
      <trkpt lat="44.41243" lon="6.75304">
        <ele>1359.51</ele>
        <time>2021-08-11T10:59:17Z</time>
      </trkpt>
      <trkpt lat="44.41242" lon="6.75298">
        <ele>1357.86</ele>
        <time>2021-08-11T10:59:18Z</time>
      </trkpt>
      <trkpt lat="44.41242" lon="6.75291">
        <ele>1355.59</ele>
        <time>2021-08-11T10:59:19Z</time>
      </trkpt>
      <trkpt lat="44.41244" lon="6.75284">
        <ele>1352.74</ele>
        <time>2021-08-11T10:59:20Z</time>
      </trkpt>
      <trkpt lat="44.41248" lon="6.75278">
        <ele>1349.65</ele>
        <time>2021-08-11T10:59:21Z</time>
      </trkpt>
      <trkpt lat="44.41254" lon="6.75275">
        <ele>1347.08</ele>
        <time>2021-08-11T10:59:22Z</time>
      </trkpt>
      <trkpt lat="44.41261" lon="6.75275">
        <ele>1345.64</ele>
        <time>2021-08-11T10:59:23Z</time>
      </trkpt>
      <trkpt lat="44.41267" lon="6.7528">
        <ele>1345.95</ele>
        <time>2021-08-11T10:59:24Z</time>
      </trkpt>
      <trkpt lat="44.41273" lon="6.75287">
        <ele>1346.47</ele>
        <time>2021-08-11T10:59:25Z</time>
      </trkpt>
      <trkpt lat="44.41278" lon="6.75296">
        <ele>1347.53</ele>
        <time>2021-08-11T10:59:26Z</time>
      </trkpt>
      <trkpt lat="44.41283" lon="6.75305">
        <ele>1348.18</ele>
        <time>2021-08-11T10:59:27Z</time>
      </trkpt>
      <trkpt lat="44.41289" lon="6.75314">
        <ele>1347.52</ele>
        <time>2021-08-11T10:59:28Z</time>
      </trkpt>
      <trkpt lat="44.41295" lon="6.75323">
        <ele>1346.39</ele>
        <time>2021-08-11T10:59:29Z</time>
      </trkpt>
      <trkpt lat="44.41301" lon="6.75332">
        <ele>1344.85</ele>
        <time>2021-08-11T10:59:30Z</time>
      </trkpt>
      <trkpt lat="44.41307" lon="6.75341">
        <ele>1342.72</ele>
        <time>2021-08-11T10:59:31Z</time>
      </trkpt>
      <trkpt lat="44.41314" lon="6.75351">
        <ele>1340.49</ele>
        <time>2021-08-11T10:59:32Z</time>
      </trkpt>
      <trkpt lat="44.4132" lon="6.7536">
        <ele>1338.74</ele>
        <time>2021-08-11T10:59:33Z</time>
      </trkpt>
      <trkpt lat="44.41325" lon="6.7537">
        <ele>1338.09</ele>
        <time>2021-08-11T10:59:34Z</time>
      </trkpt>
      <trkpt lat="44.4133" lon="6.75379">
        <ele>1337.62</ele>
        <time>2021-08-11T10:59:35Z</time>
      </trkpt>
      <trkpt lat="44.41334" lon="6.75388">
        <ele>1337.82</ele>
        <time>2021-08-11T10:59:36Z</time>
      </trkpt>
      <trkpt lat="44.41337" lon="6.75396">
        <ele>1338.47</ele>
        <time>2021-08-11T10:59:37Z</time>
      </trkpt>
      <trkpt lat="44.4134" lon="6.75403">
        <ele>1338.92</ele>
        <time>2021-08-11T10:59:38Z</time>
      </trkpt>
      <trkpt lat="44.41343" lon="6.75408">
        <ele>1339.13</ele>
        <time>2021-08-11T10:59:39Z</time>
      </trkpt>
      <trkpt lat="44.41348" lon="6.75412">
        <ele>1339</ele>
        <time>2021-08-11T10:59:40Z</time>
      </trkpt>
      <trkpt lat="44.41353" lon="6.75413">
        <ele>1338.57</ele>
        <time>2021-08-11T10:59:41Z</time>
      </trkpt>
      <trkpt lat="44.41359" lon="6.75412">
        <ele>1337.88</ele>
        <time>2021-08-11T10:59:42Z</time>
      </trkpt>
      <trkpt lat="44.41363" lon="6.75408">
        <ele>1336.87</ele>
        <time>2021-08-11T10:59:43Z</time>
      </trkpt>
      <trkpt lat="44.41366" lon="6.754">
        <ele>1335.6</ele>
        <time>2021-08-11T10:59:44Z</time>
      </trkpt>
      <trkpt lat="44.41367" lon="6.75391">
        <ele>1334.85</ele>
        <time>2021-08-11T10:59:45Z</time>
      </trkpt>
      <trkpt lat="44.41366" lon="6.75381">
        <ele>1334.19</ele>
        <time>2021-08-11T10:59:46Z</time>
      </trkpt>
      <trkpt lat="44.41366" lon="6.75371">
        <ele>1333.24</ele>
        <time>2021-08-11T10:59:47Z</time>
      </trkpt>
      <trkpt lat="44.41365" lon="6.7536">
        <ele>1332.32</ele>
        <time>2021-08-11T10:59:48Z</time>
      </trkpt>
      <trkpt lat="44.41365" lon="6.75349">
        <ele>1331.13</ele>
        <time>2021-08-11T10:59:49Z</time>
      </trkpt>
      <trkpt lat="44.41365" lon="6.75338">
        <ele>1329.94</ele>
        <time>2021-08-11T10:59:50Z</time>
      </trkpt>
      <trkpt lat="44.41364" lon="6.75326">
        <ele>1328.76</ele>
        <time>2021-08-11T10:59:51Z</time>
      </trkpt>
      <trkpt lat="44.41363" lon="6.75314">
        <ele>1327.59</ele>
        <time>2021-08-11T10:59:52Z</time>
      </trkpt>
      <trkpt lat="44.41361" lon="6.75302">
        <ele>1326.89</ele>
        <time>2021-08-11T10:59:53Z</time>
      </trkpt>
      <trkpt lat="44.41357" lon="6.7529">
        <ele>1326.95</ele>
        <time>2021-08-11T10:59:54Z</time>
      </trkpt>
      <trkpt lat="44.41352" lon="6.75278">
        <ele>1326.99</ele>
        <time>2021-08-11T10:59:55Z</time>
      </trkpt>
      <trkpt lat="44.41348" lon="6.75266">
        <ele>1326.14</ele>
        <time>2021-08-11T10:59:56Z</time>
      </trkpt>
      <trkpt lat="44.41343" lon="6.75253">
        <ele>1325.28</ele>
        <time>2021-08-11T10:59:57Z</time>
      </trkpt>
      <trkpt lat="44.4134" lon="6.7524">
        <ele>1323.65</ele>
        <time>2021-08-11T10:59:58Z</time>
      </trkpt>
      <trkpt lat="44.41337" lon="6.75227">
        <ele>1321.68</ele>
        <time>2021-08-11T10:59:59Z</time>
      </trkpt>
      <trkpt lat="44.41335" lon="6.75212">
        <ele>1319.77</ele>
        <time>2021-08-11T11:00:00Z</time>
      </trkpt>
      <trkpt lat="44.41333" lon="6.75199">
        <ele>1318.54</ele>
        <time>2021-08-11T11:00:01Z</time>
      </trkpt>
      <trkpt lat="44.41332" lon="6.75186">
        <ele>1316.09</ele>
        <time>2021-08-11T11:00:02Z</time>
      </trkpt>
      <trkpt lat="44.41329" lon="6.75174">
        <ele>1313.7</ele>
        <time>2021-08-11T11:00:03Z</time>
      </trkpt>
      <trkpt lat="44.41324" lon="6.75164">
        <ele>1312.22</ele>
        <time>2021-08-11T11:00:04Z</time>
      </trkpt>
      <trkpt lat="44.41318" lon="6.75156">
        <ele>1311.03</ele>
        <time>2021-08-11T11:00:05Z</time>
      </trkpt>
      <trkpt lat="44.41311" lon="6.75149">
        <ele>1310.22</ele>
        <time>2021-08-11T11:00:06Z</time>
      </trkpt>
      <trkpt lat="44.41303" lon="6.75144">
        <ele>1309.88</ele>
        <time>2021-08-11T11:00:07Z</time>
      </trkpt>
      <trkpt lat="44.41295" lon="6.7514">
        <ele>1309.45</ele>
        <time>2021-08-11T11:00:08Z</time>
      </trkpt>
      <trkpt lat="44.41288" lon="6.75138">
        <ele>1309.68</ele>
        <time>2021-08-11T11:00:09Z</time>
      </trkpt>
      <trkpt lat="44.41282" lon="6.75135">
        <ele>1309.66</ele>
        <time>2021-08-11T11:00:10Z</time>
      </trkpt>
      <trkpt lat="44.41278" lon="6.75132">
        <ele>1309.48</ele>
        <time>2021-08-11T11:00:11Z</time>
      </trkpt>
      <trkpt lat="44.41277" lon="6.75126">
        <ele>1308.53</ele>
        <time>2021-08-11T11:00:12Z</time>
      </trkpt>
      <trkpt lat="44.41278" lon="6.75118">
        <ele>1306.45</ele>
        <time>2021-08-11T11:00:13Z</time>
      </trkpt>
      <trkpt lat="44.41283" lon="6.75113">
        <ele>1304.49</ele>
        <time>2021-08-11T11:00:14Z</time>
      </trkpt>
      <trkpt lat="44.4129" lon="6.75112">
        <ele>1303.02</ele>
        <time>2021-08-11T11:00:15Z</time>
      </trkpt>
      <trkpt lat="44.41297" lon="6.75114">
        <ele>1302.31</ele>
        <time>2021-08-11T11:00:16Z</time>
      </trkpt>
      <trkpt lat="44.41304" lon="6.75119">
        <ele>1302.52</ele>
        <time>2021-08-11T11:00:17Z</time>
      </trkpt>
      <trkpt lat="44.41311" lon="6.75124">
        <ele>1302.94</ele>
        <time>2021-08-11T11:00:18Z</time>
      </trkpt>
      <trkpt lat="44.41319" lon="6.75129">
        <ele>1303.08</ele>
        <time>2021-08-11T11:00:19Z</time>
      </trkpt>
      <trkpt lat="44.41326" lon="6.75134">
        <ele>1303.17</ele>
        <time>2021-08-11T11:00:20Z</time>
      </trkpt>
      <trkpt lat="44.41333" lon="6.7514">
        <ele>1303.38</ele>
        <time>2021-08-11T11:00:21Z</time>
      </trkpt>
      <trkpt lat="44.41341" lon="6.75145">
        <ele>1303.32</ele>
        <time>2021-08-11T11:00:22Z</time>
      </trkpt>
      <trkpt lat="44.41349" lon="6.7515">
        <ele>1303.15</ele>
        <time>2021-08-11T11:00:23Z</time>
      </trkpt>
      <trkpt lat="44.41357" lon="6.75155">
        <ele>1302.89</ele>
        <time>2021-08-11T11:00:24Z</time>
      </trkpt>
      <trkpt lat="44.41366" lon="6.7516">
        <ele>1302.7</ele>
        <time>2021-08-11T11:00:25Z</time>
      </trkpt>
      <trkpt lat="44.41374" lon="6.75166">
        <ele>1303</ele>
        <time>2021-08-11T11:00:26Z</time>
      </trkpt>
      <trkpt lat="44.41383" lon="6.75172">
        <ele>1302.97</ele>
        <time>2021-08-11T11:00:27Z</time>
      </trkpt>
      <trkpt lat="44.41392" lon="6.75177">
        <ele>1302.5</ele>
        <time>2021-08-11T11:00:28Z</time>
      </trkpt>
      <trkpt lat="44.41402" lon="6.75183">
        <ele>1302.61</ele>
        <time>2021-08-11T11:00:29Z</time>
      </trkpt>
      <trkpt lat="44.41411" lon="6.75189">
        <ele>1303.12</ele>
        <time>2021-08-11T11:00:30Z</time>
      </trkpt>
      <trkpt lat="44.4142" lon="6.75195">
        <ele>1303.39</ele>
        <time>2021-08-11T11:00:31Z</time>
      </trkpt>
      <trkpt lat="44.41429" lon="6.75202">
        <ele>1303.06</ele>
        <time>2021-08-11T11:00:32Z</time>
      </trkpt>
      <trkpt lat="44.41438" lon="6.75209">
        <ele>1303.22</ele>
        <time>2021-08-11T11:00:33Z</time>
      </trkpt>
      <trkpt lat="44.41446" lon="6.75218">
        <ele>1304.24</ele>
        <time>2021-08-11T11:00:34Z</time>
      </trkpt>
      <trkpt lat="44.41453" lon="6.75229">
        <ele>1303.24</ele>
        <time>2021-08-11T11:00:35Z</time>
      </trkpt>
      <trkpt lat="44.41459" lon="6.75239">
        <ele>1301.68</ele>
        <time>2021-08-11T11:00:36Z</time>
      </trkpt>
      <trkpt lat="44.41464" lon="6.75249">
        <ele>1300.6</ele>
        <time>2021-08-11T11:00:37Z</time>
      </trkpt>
      <trkpt lat="44.41467" lon="6.75259">
        <ele>1300.87</ele>
        <time>2021-08-11T11:00:38Z</time>
      </trkpt>
      <trkpt lat="44.4147" lon="6.75266">
        <ele>1300.93</ele>
        <time>2021-08-11T11:00:39Z</time>
      </trkpt>
      <trkpt lat="44.41473" lon="6.75273">
        <ele>1301.06</ele>
        <time>2021-08-11T11:00:40Z</time>
      </trkpt>
      <trkpt lat="44.41476" lon="6.75279">
        <ele>1300.96</ele>
        <time>2021-08-11T11:00:41Z</time>
      </trkpt>
      <trkpt lat="44.41479" lon="6.75284">
        <ele>1300.75</ele>
        <time>2021-08-11T11:00:42Z</time>
      </trkpt>
      <trkpt lat="44.41484" lon="6.75288">
        <ele>1299.81</ele>
        <time>2021-08-11T11:00:43Z</time>
      </trkpt>
      <trkpt lat="44.41489" lon="6.75289">
        <ele>1298.42</ele>
        <time>2021-08-11T11:00:44Z</time>
      </trkpt>
      <trkpt lat="44.41495" lon="6.75289">
        <ele>1296.57</ele>
        <time>2021-08-11T11:00:45Z</time>
      </trkpt>
      <trkpt lat="44.41501" lon="6.75285">
        <ele>1294.22</ele>
        <time>2021-08-11T11:00:46Z</time>
      </trkpt>
      <trkpt lat="44.41505" lon="6.75279">
        <ele>1292.85</ele>
        <time>2021-08-11T11:00:47Z</time>
      </trkpt>
      <trkpt lat="44.41506" lon="6.7527">
        <ele>1291.45</ele>
        <time>2021-08-11T11:00:48Z</time>
      </trkpt>
      <trkpt lat="44.41505" lon="6.75259">
        <ele>1289.94</ele>
        <time>2021-08-11T11:00:49Z</time>
      </trkpt>
      <trkpt lat="44.41502" lon="6.75249">
        <ele>1288.75</ele>
        <time>2021-08-11T11:00:50Z</time>
      </trkpt>
      <trkpt lat="44.41497" lon="6.7524">
        <ele>1288.93</ele>
        <time>2021-08-11T11:00:51Z</time>
      </trkpt>
      <trkpt lat="44.41493" lon="6.75231">
        <ele>1289.39</ele>
        <time>2021-08-11T11:00:52Z</time>
      </trkpt>
      <trkpt lat="44.41488" lon="6.75222">
        <ele>1290.29</ele>
        <time>2021-08-11T11:00:53Z</time>
      </trkpt>
      <trkpt lat="44.41483" lon="6.75212">
        <ele>1290.48</ele>
        <time>2021-08-11T11:00:54Z</time>
      </trkpt>
      <trkpt lat="44.41478" lon="6.75203">
        <ele>1290.34</ele>
        <time>2021-08-11T11:00:55Z</time>
      </trkpt>
      <trkpt lat="44.41472" lon="6.75194">
        <ele>1290</ele>
        <time>2021-08-11T11:00:56Z</time>
      </trkpt>
      <trkpt lat="44.41468" lon="6.75184">
        <ele>1289.54</ele>
        <time>2021-08-11T11:00:57Z</time>
      </trkpt>
      <trkpt lat="44.41465" lon="6.75174">
        <ele>1288.56</ele>
        <time>2021-08-11T11:00:58Z</time>
      </trkpt>
      <trkpt lat="44.41464" lon="6.75163">
        <ele>1286.65</ele>
        <time>2021-08-11T11:00:59Z</time>
      </trkpt>
      <trkpt lat="44.41466" lon="6.75153">
        <ele>1284.06</ele>
        <time>2021-08-11T11:01:00Z</time>
      </trkpt>
      <trkpt lat="44.41473" lon="6.75144">
        <ele>1281.11</ele>
        <time>2021-08-11T11:01:01Z</time>
      </trkpt>
      <trkpt lat="44.41481" lon="6.75139">
        <ele>1280.33</ele>
        <time>2021-08-11T11:01:02Z</time>
      </trkpt>
      <trkpt lat="44.41491" lon="6.75138">
        <ele>1280.6</ele>
        <time>2021-08-11T11:01:03Z</time>
      </trkpt>
      <trkpt lat="44.41501" lon="6.75137">
        <ele>1280.76</ele>
        <time>2021-08-11T11:01:04Z</time>
      </trkpt>
      <trkpt lat="44.4151" lon="6.75135">
        <ele>1280.32</ele>
        <time>2021-08-11T11:01:05Z</time>
      </trkpt>
      <trkpt lat="44.41519" lon="6.7513">
        <ele>1279.79</ele>
        <time>2021-08-11T11:01:06Z</time>
      </trkpt>
      <trkpt lat="44.41527" lon="6.75125">
        <ele>1279.5</ele>
        <time>2021-08-11T11:01:07Z</time>
      </trkpt>
      <trkpt lat="44.41535" lon="6.75118">
        <ele>1281.78</ele>
        <time>2021-08-11T11:01:08Z</time>
      </trkpt>
      <trkpt lat="44.41543" lon="6.75112">
        <ele>1284.49</ele>
        <time>2021-08-11T11:01:09Z</time>
      </trkpt>
      <trkpt lat="44.41549" lon="6.75105">
        <ele>1286.47</ele>
        <time>2021-08-11T11:01:10Z</time>
      </trkpt>
      <trkpt lat="44.41554" lon="6.75098">
        <ele>1287.99</ele>
        <time>2021-08-11T11:01:11Z</time>
      </trkpt>
      <trkpt lat="44.41556" lon="6.75088">
        <ele>1288.46</ele>
        <time>2021-08-11T11:01:12Z</time>
      </trkpt>
      <trkpt lat="44.41555" lon="6.75077">
        <ele>1287.38</ele>
        <time>2021-08-11T11:01:13Z</time>
      </trkpt>
      <trkpt lat="44.41552" lon="6.75066">
        <ele>1285.84</ele>
        <time>2021-08-11T11:01:14Z</time>
      </trkpt>
      <trkpt lat="44.41548" lon="6.75055">
        <ele>1284.35</ele>
        <time>2021-08-11T11:01:15Z</time>
      </trkpt>
      <trkpt lat="44.41542" lon="6.75046">
        <ele>1282.73</ele>
        <time>2021-08-11T11:01:16Z</time>
      </trkpt>
      <trkpt lat="44.41535" lon="6.75037">
        <ele>1280.89</ele>
        <time>2021-08-11T11:01:17Z</time>
      </trkpt>
      <trkpt lat="44.41529" lon="6.75027">
        <ele>1279.24</ele>
        <time>2021-08-11T11:01:18Z</time>
      </trkpt>
      <trkpt lat="44.41524" lon="6.75015">
        <ele>1278.12</ele>
        <time>2021-08-11T11:01:19Z</time>
      </trkpt>
      <trkpt lat="44.41519" lon="6.75003">
        <ele>1277.41</ele>
        <time>2021-08-11T11:01:20Z</time>
      </trkpt>
      <trkpt lat="44.41514" lon="6.74991">
        <ele>1276.36</ele>
        <time>2021-08-11T11:01:21Z</time>
      </trkpt>
      <trkpt lat="44.41509" lon="6.74978">
        <ele>1275.34</ele>
        <time>2021-08-11T11:01:22Z</time>
      </trkpt>
      <trkpt lat="44.41504" lon="6.74966">
        <ele>1274.58</ele>
        <time>2021-08-11T11:01:23Z</time>
      </trkpt>
      <trkpt lat="44.41498" lon="6.74952">
        <ele>1273.5</ele>
        <time>2021-08-11T11:01:24Z</time>
      </trkpt>
      <trkpt lat="44.41493" lon="6.74939">
        <ele>1272.71</ele>
        <time>2021-08-11T11:01:25Z</time>
      </trkpt>
      <trkpt lat="44.41487" lon="6.74925">
        <ele>1272.26</ele>
        <time>2021-08-11T11:01:26Z</time>
      </trkpt>
      <trkpt lat="44.41482" lon="6.74912">
        <ele>1271.96</ele>
        <time>2021-08-11T11:01:27Z</time>
      </trkpt>
      <trkpt lat="44.41476" lon="6.74898">
        <ele>1271.38</ele>
        <time>2021-08-11T11:01:28Z</time>
      </trkpt>
      <trkpt lat="44.41471" lon="6.74884">
        <ele>1270.53</ele>
        <time>2021-08-11T11:01:29Z</time>
      </trkpt>
      <trkpt lat="44.41466" lon="6.7487">
        <ele>1269.49</ele>
        <time>2021-08-11T11:01:30Z</time>
      </trkpt>
      <trkpt lat="44.41462" lon="6.74857">
        <ele>1268.57</ele>
        <time>2021-08-11T11:01:31Z</time>
      </trkpt>
      <trkpt lat="44.4146" lon="6.74843">
        <ele>1267</ele>
        <time>2021-08-11T11:01:32Z</time>
      </trkpt>
      <trkpt lat="44.4146" lon="6.74827">
        <ele>1264.95</ele>
        <time>2021-08-11T11:01:33Z</time>
      </trkpt>
      <trkpt lat="44.41462" lon="6.7481">
        <ele>1262.42</ele>
        <time>2021-08-11T11:01:34Z</time>
      </trkpt>
      <trkpt lat="44.41468" lon="6.74795">
        <ele>1259.94</ele>
        <time>2021-08-11T11:01:35Z</time>
      </trkpt>
      <trkpt lat="44.41474" lon="6.74779">
        <ele>1257.9</ele>
        <time>2021-08-11T11:01:36Z</time>
      </trkpt>
      <trkpt lat="44.4148" lon="6.74764">
        <ele>1256.66</ele>
        <time>2021-08-11T11:01:37Z</time>
      </trkpt>
      <trkpt lat="44.41485" lon="6.74747">
        <ele>1255.61</ele>
        <time>2021-08-11T11:01:38Z</time>
      </trkpt>
      <trkpt lat="44.41488" lon="6.74731">
        <ele>1255.39</ele>
        <time>2021-08-11T11:01:39Z</time>
      </trkpt>
      <trkpt lat="44.41491" lon="6.74714">
        <ele>1255.52</ele>
        <time>2021-08-11T11:01:40Z</time>
      </trkpt>
      <trkpt lat="44.41493" lon="6.74698">
        <ele>1255.9</ele>
        <time>2021-08-11T11:01:41Z</time>
      </trkpt>
      <trkpt lat="44.41496" lon="6.74682">
        <ele>1255.49</ele>
        <time>2021-08-11T11:01:42Z</time>
      </trkpt>
      <trkpt lat="44.415" lon="6.74667">
        <ele>1255.01</ele>
        <time>2021-08-11T11:01:43Z</time>
      </trkpt>
      <trkpt lat="44.41504" lon="6.74653">
        <ele>1254.23</ele>
        <time>2021-08-11T11:01:44Z</time>
      </trkpt>
      <trkpt lat="44.41508" lon="6.7464">
        <ele>1253.64</ele>
        <time>2021-08-11T11:01:45Z</time>
      </trkpt>
      <trkpt lat="44.41512" lon="6.7463">
        <ele>1253.5</ele>
        <time>2021-08-11T11:01:46Z</time>
      </trkpt>
      <trkpt lat="44.41515" lon="6.74621">
        <ele>1253.49</ele>
        <time>2021-08-11T11:01:47Z</time>
      </trkpt>
      <trkpt lat="44.41518" lon="6.74611">
        <ele>1253.58</ele>
        <time>2021-08-11T11:01:48Z</time>
      </trkpt>
      <trkpt lat="44.41521" lon="6.74602">
        <ele>1253.37</ele>
        <time>2021-08-11T11:01:49Z</time>
      </trkpt>
      <trkpt lat="44.41523" lon="6.74591">
        <ele>1252.86</ele>
        <time>2021-08-11T11:01:50Z</time>
      </trkpt>
      <trkpt lat="44.41525" lon="6.74579">
        <ele>1252.01</ele>
        <time>2021-08-11T11:01:51Z</time>
      </trkpt>
      <trkpt lat="44.41527" lon="6.74567">
        <ele>1250.57</ele>
        <time>2021-08-11T11:01:52Z</time>
      </trkpt>
      <trkpt lat="44.41527" lon="6.74555">
        <ele>1248.87</ele>
        <time>2021-08-11T11:01:53Z</time>
      </trkpt>
      <trkpt lat="44.41527" lon="6.74542">
        <ele>1247.03</ele>
        <time>2021-08-11T11:01:54Z</time>
      </trkpt>
      <trkpt lat="44.41528" lon="6.74529">
        <ele>1245.22</ele>
        <time>2021-08-11T11:01:55Z</time>
      </trkpt>
      <trkpt lat="44.41528" lon="6.74516">
        <ele>1243.76</ele>
        <time>2021-08-11T11:01:56Z</time>
      </trkpt>
      <trkpt lat="44.41529" lon="6.74503">
        <ele>1242.5</ele>
        <time>2021-08-11T11:01:57Z</time>
      </trkpt>
      <trkpt lat="44.41531" lon="6.7449">
        <ele>1241.66</ele>
        <time>2021-08-11T11:01:58Z</time>
      </trkpt>
      <trkpt lat="44.41535" lon="6.74478">
        <ele>1241.04</ele>
        <time>2021-08-11T11:01:59Z</time>
      </trkpt>
      <trkpt lat="44.41539" lon="6.74465">
        <ele>1240.49</ele>
        <time>2021-08-11T11:02:00Z</time>
      </trkpt>
      <trkpt lat="44.41543" lon="6.74453">
        <ele>1239.96</ele>
        <time>2021-08-11T11:02:01Z</time>
      </trkpt>
      <trkpt lat="44.41548" lon="6.74441">
        <ele>1239.15</ele>
        <time>2021-08-11T11:02:02Z</time>
      </trkpt>
      <trkpt lat="44.41552" lon="6.74429">
        <ele>1238.57</ele>
        <time>2021-08-11T11:02:03Z</time>
      </trkpt>
      <trkpt lat="44.41557" lon="6.74417">
        <ele>1238.06</ele>
        <time>2021-08-11T11:02:04Z</time>
      </trkpt>
      <trkpt lat="44.41562" lon="6.74405">
        <ele>1237.71</ele>
        <time>2021-08-11T11:02:05Z</time>
      </trkpt>
      <trkpt lat="44.41566" lon="6.74393">
        <ele>1237.2</ele>
        <time>2021-08-11T11:02:06Z</time>
      </trkpt>
      <trkpt lat="44.41571" lon="6.74381">
        <ele>1236.72</ele>
        <time>2021-08-11T11:02:07Z</time>
      </trkpt>
      <trkpt lat="44.41575" lon="6.74368">
        <ele>1236.25</ele>
        <time>2021-08-11T11:02:08Z</time>
      </trkpt>
      <trkpt lat="44.4158" lon="6.74357">
        <ele>1235.98</ele>
        <time>2021-08-11T11:02:09Z</time>
      </trkpt>
      <trkpt lat="44.41586" lon="6.74345">
        <ele>1235.98</ele>
        <time>2021-08-11T11:02:10Z</time>
      </trkpt>
      <trkpt lat="44.41593" lon="6.74336">
        <ele>1235.72</ele>
        <time>2021-08-11T11:02:11Z</time>
      </trkpt>
      <trkpt lat="44.41602" lon="6.74327">
        <ele>1235.48</ele>
        <time>2021-08-11T11:02:12Z</time>
      </trkpt>
      <trkpt lat="44.41611" lon="6.7432">
        <ele>1235.48</ele>
        <time>2021-08-11T11:02:13Z</time>
      </trkpt>
      <trkpt lat="44.41621" lon="6.74314">
        <ele>1235.56</ele>
        <time>2021-08-11T11:02:14Z</time>
      </trkpt>
      <trkpt lat="44.41631" lon="6.74307">
        <ele>1235.31</ele>
        <time>2021-08-11T11:02:15Z</time>
      </trkpt>
      <trkpt lat="44.41639" lon="6.74299">
        <ele>1235.01</ele>
        <time>2021-08-11T11:02:16Z</time>
      </trkpt>
      <trkpt lat="44.41647" lon="6.74289">
        <ele>1235.24</ele>
        <time>2021-08-11T11:02:17Z</time>
      </trkpt>
      <trkpt lat="44.41655" lon="6.74279">
        <ele>1235.05</ele>
        <time>2021-08-11T11:02:18Z</time>
      </trkpt>
      <trkpt lat="44.41663" lon="6.74269">
        <ele>1235.55</ele>
        <time>2021-08-11T11:02:19Z</time>
      </trkpt>
      <trkpt lat="44.4167" lon="6.74259">
        <ele>1236.67</ele>
        <time>2021-08-11T11:02:20Z</time>
      </trkpt>
      <trkpt lat="44.41677" lon="6.7425">
        <ele>1237.37</ele>
        <time>2021-08-11T11:02:21Z</time>
      </trkpt>
      <trkpt lat="44.41683" lon="6.7424">
        <ele>1237.38</ele>
        <time>2021-08-11T11:02:22Z</time>
      </trkpt>
      <trkpt lat="44.4169" lon="6.74231">
        <ele>1237.27</ele>
        <time>2021-08-11T11:02:23Z</time>
      </trkpt>
      <trkpt lat="44.41697" lon="6.74221">
        <ele>1237</ele>
        <time>2021-08-11T11:02:24Z</time>
      </trkpt>
      <trkpt lat="44.41704" lon="6.74212">
        <ele>1236.87</ele>
        <time>2021-08-11T11:02:25Z</time>
      </trkpt>
      <trkpt lat="44.41711" lon="6.74202">
        <ele>1236.57</ele>
        <time>2021-08-11T11:02:26Z</time>
      </trkpt>
      <trkpt lat="44.41718" lon="6.74193">
        <ele>1235.96</ele>
        <time>2021-08-11T11:02:27Z</time>
      </trkpt>
      <trkpt lat="44.41726" lon="6.74183">
        <ele>1234.16</ele>
        <time>2021-08-11T11:02:28Z</time>
      </trkpt>
      <trkpt lat="44.41734" lon="6.74174">
        <ele>1232.32</ele>
        <time>2021-08-11T11:02:29Z</time>
      </trkpt>
      <trkpt lat="44.41743" lon="6.74167">
        <ele>1230.56</ele>
        <time>2021-08-11T11:02:30Z</time>
      </trkpt>
      <trkpt lat="44.41752" lon="6.7416">
        <ele>1229.26</ele>
        <time>2021-08-11T11:02:31Z</time>
      </trkpt>
      <trkpt lat="44.41762" lon="6.74153">
        <ele>1228.31</ele>
        <time>2021-08-11T11:02:32Z</time>
      </trkpt>
      <trkpt lat="44.41771" lon="6.74147">
        <ele>1227.34</ele>
        <time>2021-08-11T11:02:33Z</time>
      </trkpt>
      <trkpt lat="44.41781" lon="6.74141">
        <ele>1225.5</ele>
        <time>2021-08-11T11:02:34Z</time>
      </trkpt>
      <trkpt lat="44.4179" lon="6.74135">
        <ele>1222.42</ele>
        <time>2021-08-11T11:02:35Z</time>
      </trkpt>
      <trkpt lat="44.41799" lon="6.74128">
        <ele>1219.38</ele>
        <time>2021-08-11T11:02:36Z</time>
      </trkpt>
      <trkpt lat="44.41808" lon="6.74121">
        <ele>1216.84</ele>
        <time>2021-08-11T11:02:37Z</time>
      </trkpt>
      <trkpt lat="44.41816" lon="6.74115">
        <ele>1215.34</ele>
        <time>2021-08-11T11:02:38Z</time>
      </trkpt>
      <trkpt lat="44.41824" lon="6.74108">
        <ele>1214.08</ele>
        <time>2021-08-11T11:02:39Z</time>
      </trkpt>
      <trkpt lat="44.41832" lon="6.741">
        <ele>1213.52</ele>
        <time>2021-08-11T11:02:40Z</time>
      </trkpt>
      <trkpt lat="44.4184" lon="6.74093">
        <ele>1213.83</ele>
        <time>2021-08-11T11:02:41Z</time>
      </trkpt>
      <trkpt lat="44.41847" lon="6.74085">
        <ele>1213.6</ele>
        <time>2021-08-11T11:02:42Z</time>
      </trkpt>
      <trkpt lat="44.41855" lon="6.74078">
        <ele>1212.92</ele>
        <time>2021-08-11T11:02:43Z</time>
      </trkpt>
      <trkpt lat="44.41862" lon="6.7407">
        <ele>1212.15</ele>
        <time>2021-08-11T11:02:44Z</time>
      </trkpt>
      <trkpt lat="44.4187" lon="6.74063">
        <ele>1212.58</ele>
        <time>2021-08-11T11:02:45Z</time>
      </trkpt>
      <trkpt lat="44.41879" lon="6.74056">
        <ele>1212.97</ele>
        <time>2021-08-11T11:02:46Z</time>
      </trkpt>
      <trkpt lat="44.41887" lon="6.7405">
        <ele>1214.2</ele>
        <time>2021-08-11T11:02:47Z</time>
      </trkpt>
      <trkpt lat="44.41896" lon="6.74045">
        <ele>1214.92</ele>
        <time>2021-08-11T11:02:48Z</time>
      </trkpt>
      <trkpt lat="44.41905" lon="6.74039">
        <ele>1215.43</ele>
        <time>2021-08-11T11:02:49Z</time>
      </trkpt>
      <trkpt lat="44.41914" lon="6.74033">
        <ele>1215.79</ele>
        <time>2021-08-11T11:02:50Z</time>
      </trkpt>
      <trkpt lat="44.41923" lon="6.74027">
        <ele>1216.32</ele>
        <time>2021-08-11T11:02:51Z</time>
      </trkpt>
      <trkpt lat="44.41932" lon="6.74021">
        <ele>1217.12</ele>
        <time>2021-08-11T11:02:52Z</time>
      </trkpt>
      <trkpt lat="44.41941" lon="6.74015">
        <ele>1217.51</ele>
        <time>2021-08-11T11:02:53Z</time>
      </trkpt>
      <trkpt lat="44.41951" lon="6.74009">
        <ele>1217.83</ele>
        <time>2021-08-11T11:02:54Z</time>
      </trkpt>
      <trkpt lat="44.4196" lon="6.74002">
        <ele>1218.01</ele>
        <time>2021-08-11T11:02:55Z</time>
      </trkpt>
      <trkpt lat="44.41968" lon="6.73994">
        <ele>1218.1</ele>
        <time>2021-08-11T11:02:56Z</time>
      </trkpt>
      <trkpt lat="44.41976" lon="6.73986">
        <ele>1217.93</ele>
        <time>2021-08-11T11:02:57Z</time>
      </trkpt>
      <trkpt lat="44.41983" lon="6.73976">
        <ele>1217.38</ele>
        <time>2021-08-11T11:02:58Z</time>
      </trkpt>
      <trkpt lat="44.41991" lon="6.73966">
        <ele>1216.27</ele>
        <time>2021-08-11T11:02:59Z</time>
      </trkpt>
      <trkpt lat="44.41997" lon="6.73955">
        <ele>1215.04</ele>
        <time>2021-08-11T11:03:00Z</time>
      </trkpt>
      <trkpt lat="44.42002" lon="6.73943">
        <ele>1214.45</ele>
        <time>2021-08-11T11:03:01Z</time>
      </trkpt>
      <trkpt lat="44.42005" lon="6.7393">
        <ele>1214.74</ele>
        <time>2021-08-11T11:03:02Z</time>
      </trkpt>
      <trkpt lat="44.42008" lon="6.73917">
        <ele>1215.03</ele>
        <time>2021-08-11T11:03:03Z</time>
      </trkpt>
      <trkpt lat="44.4201" lon="6.73904">
        <ele>1214.7</ele>
        <time>2021-08-11T11:03:04Z</time>
      </trkpt>
      <trkpt lat="44.42012" lon="6.73891">
        <ele>1214.03</ele>
        <time>2021-08-11T11:03:05Z</time>
      </trkpt>
      <trkpt lat="44.42013" lon="6.7388">
        <ele>1213.94</ele>
        <time>2021-08-11T11:03:06Z</time>
      </trkpt>
      <trkpt lat="44.42014" lon="6.73869">
        <ele>1214.01</ele>
        <time>2021-08-11T11:03:07Z</time>
      </trkpt>
      <trkpt lat="44.42015" lon="6.73858">
        <ele>1214.41</ele>
        <time>2021-08-11T11:03:08Z</time>
      </trkpt>
      <trkpt lat="44.42015" lon="6.73849">
        <ele>1215.35</ele>
        <time>2021-08-11T11:03:09Z</time>
      </trkpt>
      <trkpt lat="44.42014" lon="6.7384">
        <ele>1216.28</ele>
        <time>2021-08-11T11:03:10Z</time>
      </trkpt>
      <trkpt lat="44.42011" lon="6.73833">
        <ele>1217.03</ele>
        <time>2021-08-11T11:03:11Z</time>
      </trkpt>
      <trkpt lat="44.42006" lon="6.73827">
        <ele>1217.59</ele>
        <time>2021-08-11T11:03:12Z</time>
      </trkpt>
      <trkpt lat="44.42001" lon="6.7382">
        <ele>1218.41</ele>
        <time>2021-08-11T11:03:13Z</time>
      </trkpt>
      <trkpt lat="44.41995" lon="6.73813">
        <ele>1220</ele>
        <time>2021-08-11T11:03:14Z</time>
      </trkpt>
      <trkpt lat="44.41991" lon="6.73805">
        <ele>1221.65</ele>
        <time>2021-08-11T11:03:15Z</time>
      </trkpt>
      <trkpt lat="44.41986" lon="6.73797">
        <ele>1222.83</ele>
        <time>2021-08-11T11:03:16Z</time>
      </trkpt>
      <trkpt lat="44.4198" lon="6.7379">
        <ele>1223.91</ele>
        <time>2021-08-11T11:03:17Z</time>
      </trkpt>
      <trkpt lat="44.41975" lon="6.73784">
        <ele>1224.66</ele>
        <time>2021-08-11T11:03:18Z</time>
      </trkpt>
      <trkpt lat="44.4197" lon="6.73781">
        <ele>1225.57</ele>
        <time>2021-08-11T11:03:19Z</time>
      </trkpt>
      <trkpt lat="44.41969" lon="6.73777">
        <ele>1225.75</ele>
        <time>2021-08-11T11:03:20Z</time>
      </trkpt>
      <trkpt lat="44.41969" lon="6.73773">
        <ele>1225.45</ele>
        <time>2021-08-11T11:03:21Z</time>
      </trkpt>
      <trkpt lat="44.4197" lon="6.73769">
        <ele>1224.9</ele>
        <time>2021-08-11T11:03:22Z</time>
      </trkpt>
      <trkpt lat="44.41972" lon="6.73763">
        <ele>1223.99</ele>
        <time>2021-08-11T11:03:24Z</time>
      </trkpt>
      <trkpt lat="44.41974" lon="6.7376">
        <ele>1223.57</ele>
        <time>2021-08-11T11:03:25Z</time>
      </trkpt>
      <trkpt lat="44.41976" lon="6.73755">
        <ele>1223.06</ele>
        <time>2021-08-11T11:03:26Z</time>
      </trkpt>
      <trkpt lat="44.41979" lon="6.7375">
        <ele>1222.51</ele>
        <time>2021-08-11T11:03:27Z</time>
      </trkpt>
      <trkpt lat="44.41982" lon="6.73744">
        <ele>1221.79</ele>
        <time>2021-08-11T11:03:28Z</time>
      </trkpt>
      <trkpt lat="44.41985" lon="6.73739">
        <ele>1221.11</ele>
        <time>2021-08-11T11:03:29Z</time>
      </trkpt>
      <trkpt lat="44.41989" lon="6.73733">
        <ele>1220.2</ele>
        <time>2021-08-11T11:03:30Z</time>
      </trkpt>
      <trkpt lat="44.41991" lon="6.73727">
        <ele>1219.43</ele>
        <time>2021-08-11T11:03:31Z</time>
      </trkpt>
      <trkpt lat="44.41994" lon="6.73721">
        <ele>1218.61</ele>
        <time>2021-08-11T11:03:32Z</time>
      </trkpt>
      <trkpt lat="44.41997" lon="6.73716">
        <ele>1218.12</ele>
        <time>2021-08-11T11:03:33Z</time>
      </trkpt>
      <trkpt lat="44.41997" lon="6.73711">
        <ele>1217.96</ele>
        <time>2021-08-11T11:03:34Z</time>
      </trkpt>
      <trkpt lat="44.41997" lon="6.73705">
        <ele>1217.77</ele>
        <time>2021-08-11T11:03:37Z</time>
      </trkpt>
      <trkpt lat="44.41991" lon="6.737">
        <ele>1218.43</ele>
        <time>2021-08-11T11:03:39Z</time>
      </trkpt>
      <trkpt lat="44.41983" lon="6.73693">
        <ele>1219.52</ele>
        <time>2021-08-11T11:03:41Z</time>
      </trkpt>
      <trkpt lat="44.41974" lon="6.73683">
        <ele>1221.18</ele>
        <time>2021-08-11T11:03:43Z</time>
      </trkpt>
      <trkpt lat="44.41967" lon="6.73681">
        <ele>1221.96</ele>
        <time>2021-08-11T11:03:49Z</time>
      </trkpt>
      <trkpt lat="44.41965" lon="6.73678">
        <ele>1222.17</ele>
        <time>2021-08-11T11:04:30Z</time>
      </trkpt>
    </trkseg>
  </trk>
</gpx>